<?xml version='1.0' encoding='UTF-8'?><gpx version="1.1" creator="JPX - https://github.com/jenetics/jpx" xmlns="http://www.topografix.com/GPX/1/1"><trk><trkseg><trkpt lat="42.1157417" lon="11.9745267"><ele>343.0</ele><time>2026-04-19T09:54:33.338Z</time></trkpt><trkpt lat="42.115685" lon="11.97476"><ele>343.0</ele><time>2026-04-19T09:57:30.477Z</time></trkpt><trkpt lat="42.1157067" lon="11.9746017"><ele>343.0</ele><time>2026-04-19T09:57:33.467Z</time></trkpt><trkpt lat="42.1157167" lon="11.9745133"><ele>343.0</ele><time>2026-04-19T09:57:36.39Z</time></trkpt><trkpt lat="42.11581" lon="11.9744733"><ele>343.0</ele><time>2026-04-19T09:58:52.346Z</time></trkpt><trkpt lat="42.1157633" lon="11.97463"><ele>343.0</ele><time>2026-04-19T10:04:15.345Z</time></trkpt><trkpt lat="42.1157717" lon="11.974545"><ele>343.0</ele><time>2026-04-19T10:04:17.335Z</time></trkpt><trkpt lat="42.1158367" lon="11.9745317"><ele>343.0</ele><time>2026-04-19T10:04:27.349Z</time></trkpt><trkpt lat="42.1159033" lon="11.9744517"><ele>343.0</ele><time>2026-04-19T10:04:30.352Z</time></trkpt><trkpt lat="42.1159517" lon="11.9743817"><ele>343.0</ele><time>2026-04-19T10:04:32.339Z</time></trkpt><trkpt lat="42.11601" lon="11.9743267"><ele>343.0</ele><time>2026-04-19T10:04:34.35Z</time></trkpt><trkpt lat="42.1160867" lon="11.97431"><ele>343.0</ele><time>2026-04-19T10:04:37.354Z</time></trkpt><trkpt lat="42.11617" lon="11.9743"><ele>343.0</ele><time>2026-04-19T10:04:40.358Z</time></trkpt><trkpt lat="42.1162583" lon="11.97433"><ele>343.0</ele><time>2026-04-19T10:04:43.365Z</time></trkpt><trkpt lat="42.1163283" lon="11.9743983"><ele>343.0</ele><time>2026-04-19T10:04:46.357Z</time></trkpt><trkpt lat="42.1164033" lon="11.97446"><ele>343.0</ele><time>2026-04-19T10:04:49.362Z</time></trkpt><trkpt lat="42.11649" lon="11.97449"><ele>343.0</ele><time>2026-04-19T10:04:52.344Z</time></trkpt><trkpt lat="42.1165483" lon="11.974535"><ele>343.0</ele><time>2026-04-19T10:04:54.334Z</time></trkpt><trkpt lat="42.116585" lon="11.97461"><ele>343.0</ele><time>2026-04-19T10:04:56.36Z</time></trkpt><trkpt lat="42.1165817" lon="11.9747233"><ele>343.0</ele><time>2026-04-19T10:04:59.365Z</time></trkpt><trkpt lat="42.1165267" lon="11.9747967"><ele>343.0</ele><time>2026-04-19T10:05:02.361Z</time></trkpt><trkpt lat="42.116475" lon="11.9748467"><ele>343.0</ele><time>2026-04-19T10:05:06.357Z</time></trkpt><trkpt lat="42.1163383" lon="11.9749467"><ele>343.0</ele><time>2026-04-19T10:14:26.335Z</time></trkpt><trkpt lat="42.1164367" lon="11.9748917"><ele>343.0</ele><time>2026-04-19T10:14:31.347Z</time></trkpt><trkpt lat="42.1163683" lon="11.9749117"><ele>343.0</ele><time>2026-04-19T10:14:47.354Z</time></trkpt><trkpt lat="42.1162917" lon="11.9749667"><ele>343.0</ele><time>2026-04-19T10:14:49.342Z</time></trkpt><trkpt lat="42.1162267" lon="11.9750283"><ele>343.0</ele><time>2026-04-19T10:14:51.36Z</time></trkpt><trkpt lat="42.1161767" lon="11.97509"><ele>343.0</ele><time>2026-04-19T10:14:53.365Z</time></trkpt><trkpt lat="42.116125" lon="11.97516"><ele>343.0</ele><time>2026-04-19T10:14:56.367Z</time></trkpt><trkpt lat="42.1161417" lon="11.9752433"><ele>343.0</ele><time>2026-04-19T10:14:59.362Z</time></trkpt><trkpt lat="42.116215" lon="11.975215"><ele>343.0</ele><time>2026-04-19T10:15:02.368Z</time></trkpt><trkpt lat="42.1162617" lon="11.9751383"><ele>343.0</ele><time>2026-04-19T10:15:04.365Z</time></trkpt><trkpt lat="42.1163183" lon="11.9750217"><ele>343.0</ele><time>2026-04-19T10:15:06.368Z</time></trkpt><trkpt lat="42.1163633" lon="11.9749317"><ele>343.0</ele><time>2026-04-19T10:15:08.36Z</time></trkpt><trkpt lat="42.116315" lon="11.9748583"><ele>343.0</ele><time>2026-04-19T10:15:12.333Z</time></trkpt><trkpt lat="42.1162367" lon="11.974965"><ele>343.0</ele><time>2026-04-19T10:15:15.348Z</time></trkpt><trkpt lat="42.116185" lon="11.975065"><ele>343.0</ele><time>2026-04-19T10:15:17.35Z</time></trkpt><trkpt lat="42.1161367" lon="11.9751633"><ele>343.0</ele><time>2026-04-19T10:15:20.347Z</time></trkpt><trkpt lat="42.1160833" lon="11.9752217"><ele>343.0</ele><time>2026-04-19T10:15:23.363Z</time></trkpt><trkpt lat="42.1161317" lon="11.9752767"><ele>343.0</ele><time>2026-04-19T10:15:28.364Z</time></trkpt><trkpt lat="42.116195" lon="11.9751933"><ele>343.0</ele><time>2026-04-19T10:15:30.366Z</time></trkpt><trkpt lat="42.11624" lon="11.9751233"><ele>343.0</ele><time>2026-04-19T10:15:31.371Z</time></trkpt><trkpt lat="42.1162933" lon="11.97505"><ele>343.0</ele><time>2026-04-19T10:15:32.373Z</time></trkpt><trkpt lat="42.1163417" lon="11.9749917"><ele>343.0</ele><time>2026-04-19T10:15:33.37Z</time></trkpt><trkpt lat="42.1164067" lon="11.9749317"><ele>343.0</ele><time>2026-04-19T10:15:35.334Z</time></trkpt><trkpt lat="42.1164733" lon="11.9748683"><ele>343.0</ele><time>2026-04-19T10:15:38.362Z</time></trkpt><trkpt lat="42.1164483" lon="11.9747717"><ele>343.0</ele><time>2026-04-19T10:15:42.363Z</time></trkpt><trkpt lat="42.11639" lon="11.9748233"><ele>343.0</ele><time>2026-04-19T10:19:54.355Z</time></trkpt><trkpt lat="42.1164467" lon="11.9748933"><ele>343.0</ele><time>2026-04-19T10:19:58.37Z</time></trkpt><trkpt lat="42.1165133" lon="11.97484"><ele>343.0</ele><time>2026-04-19T10:20:02.344Z</time></trkpt><trkpt lat="42.11655" lon="11.974755"><ele>343.0</ele><time>2026-04-19T10:20:05.351Z</time></trkpt><trkpt lat="42.1165883" lon="11.9746833"><ele>343.0</ele><time>2026-04-19T10:20:08.352Z</time></trkpt><trkpt lat="42.116575" lon="11.9745383"><ele>343.0</ele><time>2026-04-19T10:23:45.353Z</time></trkpt><trkpt lat="42.1164717" lon="11.9744617"><ele>343.0</ele><time>2026-04-19T10:24:24.363Z</time></trkpt><trkpt lat="42.1163917" lon="11.9744433"><ele>343.0</ele><time>2026-04-19T10:24:27.363Z</time></trkpt><trkpt lat="42.116345" lon="11.9743817"><ele>343.0</ele><time>2026-04-19T10:24:30.362Z</time></trkpt><trkpt lat="42.11628" lon="11.9743217"><ele>343.0</ele><time>2026-04-19T10:24:33.343Z</time></trkpt><trkpt lat="42.116205" lon="11.9742933"><ele>343.0</ele><time>2026-04-19T10:24:35.35Z</time></trkpt><trkpt lat="42.1160983" lon="11.9742983"><ele>343.0</ele><time>2026-04-19T10:24:37.363Z</time></trkpt><trkpt lat="42.1159983" lon="11.9743317"><ele>343.0</ele><time>2026-04-19T10:24:39.362Z</time></trkpt><trkpt lat="42.1159317" lon="11.9743867"><ele>343.0</ele><time>2026-04-19T10:24:41.358Z</time></trkpt><trkpt lat="42.1158783" lon="11.9744467"><ele>343.0</ele><time>2026-04-19T10:24:43.356Z</time></trkpt><trkpt lat="42.1158167" lon="11.9745133"><ele>343.0</ele><time>2026-04-19T10:24:46.363Z</time></trkpt><trkpt lat="42.1157617" lon="11.9745817"><ele>343.0</ele><time>2026-04-19T10:24:50.363Z</time></trkpt><trkpt lat="42.115765" lon="11.9746767"><ele>343.0</ele><time>2026-04-19T10:24:53.362Z</time></trkpt><trkpt lat="42.1158033" lon="11.9745567"><ele>343.0</ele><time>2026-04-19T10:25:06.35Z</time></trkpt><trkpt lat="42.1157117" lon="11.9746433"><ele>343.0</ele><time>2026-04-19T10:25:50.351Z</time></trkpt><trkpt lat="42.1157483" lon="11.9745633"><ele>343.0</ele><time>2026-04-19T10:25:56.339Z</time></trkpt><trkpt lat="42.115745" lon="11.9744717"><ele>343.0</ele><time>2026-04-19T10:26:00.331Z</time></trkpt><trkpt lat="42.1157183" lon="11.9745917"><ele>343.0</ele><time>2026-04-19T10:26:08.335Z</time></trkpt><trkpt lat="42.1157267" lon="11.9746767"><ele>343.0</ele><time>2026-04-19T10:26:10.357Z</time></trkpt><trkpt lat="42.11577" lon="11.9747583"><ele>343.0</ele><time>2026-04-19T10:26:14.357Z</time></trkpt><trkpt lat="42.1157483" lon="11.97484"><ele>343.0</ele><time>2026-04-19T10:26:21.359Z</time></trkpt><trkpt lat="42.11572" lon="11.9747617"><ele>343.0</ele><time>2026-04-19T10:26:25.362Z</time></trkpt><trkpt lat="42.1157267" lon="11.974599"><ele>343.0</ele><time>2026-04-19T10:26:40.359Z</time></trkpt><trkpt lat="42.1157594" lon="11.9745228"><ele>343.0</ele><time>2026-04-19T10:26:44.304Z</time></trkpt><trkpt lat="42.1158293" lon="11.9744575"><ele>343.0</ele><time>2026-04-19T10:26:53.356Z</time></trkpt><trkpt lat="42.1159102" lon="11.9743789"><ele>343.0</ele><time>2026-04-19T10:28:15.328Z</time></trkpt><trkpt lat="42.1159769" lon="11.9743491"><ele>343.0</ele><time>2026-04-19T10:28:24.361Z</time></trkpt><trkpt lat="42.1159042" lon="11.9743639"><ele>343.0</ele><time>2026-04-19T10:28:57.356Z</time></trkpt><trkpt lat="42.116015" lon="11.9744583"><ele>343.0</ele><time>2026-04-19T10:34:09.361Z</time></trkpt><trkpt lat="42.11592" lon="11.9744933"><ele>343.0</ele><time>2026-04-19T10:40:27.327Z</time></trkpt><trkpt lat="42.1159883" lon="11.9744467"><ele>343.0</ele><time>2026-04-19T10:54:09.356Z</time></trkpt><trkpt lat="42.1160433" lon="11.9745233"><ele>343.0</ele><time>2026-04-19T10:54:12.322Z</time></trkpt><trkpt lat="42.1161017" lon="11.97448"><ele>343.0</ele><time>2026-04-19T10:54:18.345Z</time></trkpt><trkpt lat="42.1161683" lon="11.9744467"><ele>343.0</ele><time>2026-04-19T10:54:22.342Z</time></trkpt><trkpt lat="42.116097" lon="11.9744658"><ele>343.0</ele><time>2026-04-19T10:54:35.344Z</time></trkpt><trkpt lat="42.116035" lon="11.9745135"><ele>343.0</ele><time>2026-04-19T10:54:41.345Z</time></trkpt><trkpt lat="42.1159074" lon="11.9745323"><ele>343.0</ele><time>2026-04-19T10:54:43.345Z</time></trkpt><trkpt lat="42.1158231" lon="11.9745399"><ele>343.0</ele><time>2026-04-19T10:54:44.349Z</time></trkpt><trkpt lat="42.1157643" lon="11.9745778"><ele>343.0</ele><time>2026-04-19T10:54:47.351Z</time></trkpt><trkpt lat="42.1157019" lon="11.9746096"><ele>343.0</ele><time>2026-04-19T10:54:50.348Z</time></trkpt><trkpt lat="42.1156908" lon="11.9746955"><ele>343.0</ele><time>2026-04-19T10:54:54.349Z</time></trkpt><trkpt lat="42.1157544" lon="11.9747131"><ele>343.0</ele><time>2026-04-19T10:55:13.354Z</time></trkpt><trkpt lat="42.1158157" lon="11.974763"><ele>343.0</ele><time>2026-04-19T10:55:18.355Z</time></trkpt><trkpt lat="42.1158608" lon="11.9747008"><ele>343.0</ele><time>2026-04-19T10:56:11.34Z</time></trkpt><trkpt lat="42.1157985" lon="11.9746596"><ele>343.0</ele><time>2026-04-19T10:56:47.342Z</time></trkpt><trkpt lat="42.1157387" lon="11.9745961"><ele>343.0</ele><time>2026-04-19T10:56:51.344Z</time></trkpt><trkpt lat="42.1156607" lon="11.9745656"><ele>343.0</ele><time>2026-04-19T10:56:54.354Z</time></trkpt><trkpt lat="42.1155992" lon="11.974517"><ele>343.0</ele><time>2026-04-19T10:56:58.362Z</time></trkpt><trkpt lat="42.1155302" lon="11.974463"><ele>343.0</ele><time>2026-04-19T10:57:02.354Z</time></trkpt><trkpt lat="42.1156641" lon="11.9745502"><ele>343.0</ele><time>2026-04-19T10:57:10.357Z</time></trkpt><trkpt lat="42.1156763" lon="11.9746449"><ele>343.0</ele><time>2026-04-19T10:57:15.356Z</time></trkpt><trkpt lat="42.1157272" lon="11.9747094"><ele>343.0</ele><time>2026-04-19T10:57:29.354Z</time></trkpt><trkpt lat="42.1158002" lon="11.9746935"><ele>343.0</ele><time>2026-04-19T10:57:31.354Z</time></trkpt><trkpt lat="42.1158764" lon="11.9746724"><ele>343.0</ele><time>2026-04-19T10:57:33.348Z</time></trkpt><trkpt lat="42.1159421" lon="11.9746262"><ele>343.0</ele><time>2026-04-19T10:57:34.351Z</time></trkpt><trkpt lat="42.1160003" lon="11.9746661"><ele>343.0</ele><time>2026-04-19T10:57:40.347Z</time></trkpt><trkpt lat="42.1157822" lon="11.974719"><ele>343.0</ele><time>2026-04-19T11:07:14.335Z</time></trkpt><trkpt lat="42.1158234" lon="11.9746162"><ele>343.0</ele><time>2026-04-19T11:08:50.344Z</time></trkpt><trkpt lat="42.1156906" lon="11.9746322"><ele>343.0</ele><time>2026-04-19T11:19:24.348Z</time></trkpt><trkpt lat="42.1156949" lon="11.9744025"><ele>343.0</ele><time>2026-04-19T11:19:26.392Z</time></trkpt><trkpt lat="42.1157219" lon="11.9742609"><ele>343.0</ele><time>2026-04-19T11:19:27.342Z</time></trkpt><trkpt lat="42.11576" lon="11.9744417"><ele>343.0</ele><time>2026-04-19T11:19:29.34Z</time></trkpt><trkpt lat="42.11581" lon="11.9745017"><ele>343.0</ele><time>2026-04-19T11:20:52.343Z</time></trkpt><trkpt lat="42.1158783" lon="11.9745433"><ele>343.0</ele><time>2026-04-19T11:21:20.346Z</time></trkpt><trkpt lat="42.115925" lon="11.974455"><ele>343.0</ele><time>2026-04-19T11:21:22.344Z</time></trkpt><trkpt lat="42.1159583" lon="11.9743683"><ele>343.0</ele><time>2026-04-19T11:21:24.349Z</time></trkpt><trkpt lat="42.1159517" lon="11.974245"><ele>343.79999999999995</ele><time>2026-04-19T11:21:27.356Z</time></trkpt><trkpt lat="42.1159183" lon="11.9741533"><ele>344.6</ele><time>2026-04-19T11:21:30.354Z</time></trkpt><trkpt lat="42.1159533" lon="11.974015"><ele>345.4</ele><time>2026-04-19T11:21:33.342Z</time></trkpt><trkpt lat="42.1160317" lon="11.9738767"><ele>346.20000000000005</ele><time>2026-04-19T11:21:35.349Z</time></trkpt><trkpt lat="42.1160733" lon="11.973805"><ele>347.0</ele><time>2026-04-19T11:21:36.363Z</time></trkpt><trkpt lat="42.116115" lon="11.9737267"><ele>347.0</ele><time>2026-04-19T11:21:37.349Z</time></trkpt><trkpt lat="42.1161533" lon="11.97365"><ele>347.0</ele><time>2026-04-19T11:21:38.349Z</time></trkpt><trkpt lat="42.1161917" lon="11.97357"><ele>347.0</ele><time>2026-04-19T11:21:39.346Z</time></trkpt><trkpt lat="42.11623" lon="11.9734717"><ele>347.0</ele><time>2026-04-19T11:21:40.338Z</time></trkpt><trkpt lat="42.116275" lon="11.9733567"><ele>347.0</ele><time>2026-04-19T11:21:41.335Z</time></trkpt><trkpt lat="42.1163233" lon="11.973235"><ele>347.0</ele><time>2026-04-19T11:21:42.334Z</time></trkpt><trkpt lat="42.116385" lon="11.97311"><ele>348.25</ele><time>2026-04-19T11:21:43.354Z</time></trkpt><trkpt lat="42.116465" lon="11.9729933"><ele>349.5</ele><time>2026-04-19T11:21:44.338Z</time></trkpt><trkpt lat="42.1165533" lon="11.97289"><ele>350.75</ele><time>2026-04-19T11:21:45.338Z</time></trkpt><trkpt lat="42.11665" lon="11.9727917"><ele>352.0</ele><time>2026-04-19T11:21:46.341Z</time></trkpt><trkpt lat="42.1167517" lon="11.9726983"><ele>351.75</ele><time>2026-04-19T11:21:47.334Z</time></trkpt><trkpt lat="42.1168567" lon="11.9726"><ele>351.5</ele><time>2026-04-19T11:21:48.348Z</time></trkpt><trkpt lat="42.1169667" lon="11.9725033"><ele>351.25</ele><time>2026-04-19T11:21:49.351Z</time></trkpt><trkpt lat="42.1170767" lon="11.9724083"><ele>351.0</ele><time>2026-04-19T11:21:50.347Z</time></trkpt><trkpt lat="42.1171817" lon="11.972305"><ele>351.0</ele><time>2026-04-19T11:21:51.338Z</time></trkpt><trkpt lat="42.117285" lon="11.9722083"><ele>351.0</ele><time>2026-04-19T11:21:52.344Z</time></trkpt><trkpt lat="42.1173837" lon="11.9721137"><ele>351.0</ele><time>2026-04-19T11:21:53.337Z</time></trkpt><trkpt lat="42.1174828" lon="11.9720214"><ele>351.0</ele><time>2026-04-19T11:21:54.341Z</time></trkpt><trkpt lat="42.1175874" lon="11.9719286"><ele>351.75</ele><time>2026-04-19T11:21:55.336Z</time></trkpt><trkpt lat="42.1176913" lon="11.9718337"><ele>352.5</ele><time>2026-04-19T11:21:56.343Z</time></trkpt><trkpt lat="42.1177905" lon="11.9717443"><ele>353.25</ele><time>2026-04-19T11:21:57.351Z</time></trkpt><trkpt lat="42.1178836" lon="11.9716578"><ele>354.0</ele><time>2026-04-19T11:21:58.335Z</time></trkpt><trkpt lat="42.1179774" lon="11.9715755"><ele>354.0</ele><time>2026-04-19T11:21:59.352Z</time></trkpt><trkpt lat="42.1180715" lon="11.9715058"><ele>354.0</ele><time>2026-04-19T11:22:00.341Z</time></trkpt><trkpt lat="42.1181733" lon="11.9714419"><ele>354.0</ele><time>2026-04-19T11:22:01.338Z</time></trkpt><trkpt lat="42.1182869" lon="11.9713851"><ele>354.0</ele><time>2026-04-19T11:22:02.341Z</time></trkpt><trkpt lat="42.1184117" lon="11.9713448"><ele>350.25</ele><time>2026-04-19T11:22:03.339Z</time></trkpt><trkpt lat="42.1185457" lon="11.9713054"><ele>346.5</ele><time>2026-04-19T11:22:04.335Z</time></trkpt><trkpt lat="42.118678" lon="11.9712523"><ele>342.75</ele><time>2026-04-19T11:22:05.345Z</time></trkpt><trkpt lat="42.1188003" lon="11.9711857"><ele>339.0</ele><time>2026-04-19T11:22:06.344Z</time></trkpt><trkpt lat="42.1189128" lon="11.971108"><ele>339.0</ele><time>2026-04-19T11:22:07.338Z</time></trkpt><trkpt lat="42.1190106" lon="11.9710178"><ele>339.0</ele><time>2026-04-19T11:22:08.34Z</time></trkpt><trkpt lat="42.1190992" lon="11.9709113"><ele>339.0</ele><time>2026-04-19T11:22:09.34Z</time></trkpt><trkpt lat="42.1191765" lon="11.9707944"><ele>339.0</ele><time>2026-04-19T11:22:10.336Z</time></trkpt><trkpt lat="42.1192384" lon="11.9706751"><ele>339.2</ele><time>2026-04-19T11:22:11.338Z</time></trkpt><trkpt lat="42.1192891" lon="11.970562"><ele>339.4</ele><time>2026-04-19T11:22:12.342Z</time></trkpt><trkpt lat="42.1193381" lon="11.9704432"><ele>339.6</ele><time>2026-04-19T11:22:13.346Z</time></trkpt><trkpt lat="42.1193876" lon="11.9703218"><ele>339.8</ele><time>2026-04-19T11:22:14.34Z</time></trkpt><trkpt lat="42.1194394" lon="11.970191"><ele>340.0</ele><time>2026-04-19T11:22:15.339Z</time></trkpt><trkpt lat="42.1194973" lon="11.9700544"><ele>342.0</ele><time>2026-04-19T11:22:16.337Z</time></trkpt><trkpt lat="42.1195627" lon="11.9699165"><ele>344.0</ele><time>2026-04-19T11:22:17.341Z</time></trkpt><trkpt lat="42.1196393" lon="11.9697839"><ele>346.0</ele><time>2026-04-19T11:22:18.342Z</time></trkpt><trkpt lat="42.1197199" lon="11.9696575"><ele>348.0</ele><time>2026-04-19T11:22:19.34Z</time></trkpt><trkpt lat="42.1198022" lon="11.9695427"><ele>348.0</ele><time>2026-04-19T11:22:20.339Z</time></trkpt><trkpt lat="42.1198909" lon="11.9694362"><ele>348.0</ele><time>2026-04-19T11:22:21.336Z</time></trkpt><trkpt lat="42.1199868" lon="11.9693365"><ele>348.0</ele><time>2026-04-19T11:22:22.351Z</time></trkpt><trkpt lat="42.1200809" lon="11.9692421"><ele>348.0</ele><time>2026-04-19T11:22:23.348Z</time></trkpt><trkpt lat="42.1201745" lon="11.9691441"><ele>348.5</ele><time>2026-04-19T11:22:24.361Z</time></trkpt><trkpt lat="42.1202722" lon="11.9690401"><ele>349.0</ele><time>2026-04-19T11:22:25.35Z</time></trkpt><trkpt lat="42.1203783" lon="11.9689317"><ele>349.5</ele><time>2026-04-19T11:22:26.367Z</time></trkpt><trkpt lat="42.1204767" lon="11.96882"><ele>350.0</ele><time>2026-04-19T11:22:27.355Z</time></trkpt><trkpt lat="42.1205767" lon="11.9687067"><ele>350.0</ele><time>2026-04-19T11:22:28.356Z</time></trkpt><trkpt lat="42.1206717" lon="11.9685883"><ele>350.0</ele><time>2026-04-19T11:22:29.342Z</time></trkpt><trkpt lat="42.1207467" lon="11.968465"><ele>350.0</ele><time>2026-04-19T11:22:30.345Z</time></trkpt><trkpt lat="42.1207967" lon="11.96834"><ele>350.0</ele><time>2026-04-19T11:22:31.348Z</time></trkpt><trkpt lat="42.12083" lon="11.9682"><ele>349.5</ele><time>2026-04-19T11:22:32.348Z</time></trkpt><trkpt lat="42.1208417" lon="11.9680467"><ele>349.0</ele><time>2026-04-19T11:22:33.327Z</time></trkpt><trkpt lat="42.1208383" lon="11.9678783"><ele>348.5</ele><time>2026-04-19T11:22:34.344Z</time></trkpt><trkpt lat="42.12083" lon="11.9676967"><ele>348.0</ele><time>2026-04-19T11:22:35.337Z</time></trkpt><trkpt lat="42.120825" lon="11.967515"><ele>348.0</ele><time>2026-04-19T11:22:36.345Z</time></trkpt><trkpt lat="42.1208183" lon="11.96734"><ele>348.0</ele><time>2026-04-19T11:22:37.354Z</time></trkpt><trkpt lat="42.1208067" lon="11.96718"><ele>348.0</ele><time>2026-04-19T11:22:38.335Z</time></trkpt><trkpt lat="42.1207783" lon="11.9670317"><ele>348.0</ele><time>2026-04-19T11:22:39.354Z</time></trkpt><trkpt lat="42.12074" lon="11.966885"><ele>352.75</ele><time>2026-04-19T11:22:40.329Z</time></trkpt><trkpt lat="42.1206833" lon="11.9667367"><ele>357.5</ele><time>2026-04-19T11:22:41.35Z</time></trkpt><trkpt lat="42.1206133" lon="11.9665933"><ele>362.25</ele><time>2026-04-19T11:22:42.323Z</time></trkpt><trkpt lat="42.1205333" lon="11.9664433"><ele>367.0</ele><time>2026-04-19T11:22:43.336Z</time></trkpt><trkpt lat="42.12044" lon="11.966285"><ele>367.0</ele><time>2026-04-19T11:22:44.338Z</time></trkpt><trkpt lat="42.1203517" lon="11.9661467"><ele>367.0</ele><time>2026-04-19T11:22:45.343Z</time></trkpt><trkpt lat="42.12027" lon="11.966015"><ele>367.0</ele><time>2026-04-19T11:22:46.344Z</time></trkpt><trkpt lat="42.1202033" lon="11.9658783"><ele>367.0</ele><time>2026-04-19T11:22:47.347Z</time></trkpt><trkpt lat="42.1201583" lon="11.965735"><ele>364.0</ele><time>2026-04-19T11:22:48.357Z</time></trkpt><trkpt lat="42.1201483" lon="11.965575"><ele>361.0</ele><time>2026-04-19T11:22:49.333Z</time></trkpt><trkpt lat="42.120155" lon="11.9654083"><ele>358.0</ele><time>2026-04-19T11:22:50.349Z</time></trkpt><trkpt lat="42.12016" lon="11.96524"><ele>355.0</ele><time>2026-04-19T11:22:51.349Z</time></trkpt><trkpt lat="42.12014" lon="11.965085"><ele>357.5</ele><time>2026-04-19T11:22:52.346Z</time></trkpt><trkpt lat="42.120085" lon="11.9649283"><ele>360.0</ele><time>2026-04-19T11:22:53.351Z</time></trkpt><trkpt lat="42.1200117" lon="11.96478"><ele>362.5</ele><time>2026-04-19T11:22:54.349Z</time></trkpt><trkpt lat="42.119935" lon="11.9646417"><ele>365.0</ele><time>2026-04-19T11:22:55.346Z</time></trkpt><trkpt lat="42.1198683" lon="11.9645067"><ele>365.0</ele><time>2026-04-19T11:22:56.345Z</time></trkpt><trkpt lat="42.1198183" lon="11.9643733"><ele>365.0</ele><time>2026-04-19T11:22:57.349Z</time></trkpt><trkpt lat="42.1197717" lon="11.964235"><ele>365.0</ele><time>2026-04-19T11:22:58.352Z</time></trkpt><trkpt lat="42.1197267" lon="11.964095"><ele>365.0</ele><time>2026-04-19T11:22:59.347Z</time></trkpt><trkpt lat="42.1196733" lon="11.963945"><ele>360.75</ele><time>2026-04-19T11:23:00.35Z</time></trkpt><trkpt lat="42.11962" lon="11.9637867"><ele>356.5</ele><time>2026-04-19T11:23:01.355Z</time></trkpt><trkpt lat="42.1195717" lon="11.9636183"><ele>352.25</ele><time>2026-04-19T11:23:02.345Z</time></trkpt><trkpt lat="42.11953" lon="11.96345"><ele>348.0</ele><time>2026-04-19T11:23:03.357Z</time></trkpt><trkpt lat="42.1195117" lon="11.9632817"><ele>346.25</ele><time>2026-04-19T11:23:04.354Z</time></trkpt><trkpt lat="42.119515" lon="11.9631183"><ele>344.5</ele><time>2026-04-19T11:23:05.355Z</time></trkpt><trkpt lat="42.119535" lon="11.9629583"><ele>342.75</ele><time>2026-04-19T11:23:06.338Z</time></trkpt><trkpt lat="42.119585" lon="11.9628183"><ele>341.0</ele><time>2026-04-19T11:23:07.353Z</time></trkpt><trkpt lat="42.1196633" lon="11.9626933"><ele>341.0</ele><time>2026-04-19T11:23:08.363Z</time></trkpt><trkpt lat="42.119765" lon="11.96259"><ele>341.0</ele><time>2026-04-19T11:23:09.352Z</time></trkpt><trkpt lat="42.1198667" lon="11.9625017"><ele>341.0</ele><time>2026-04-19T11:23:10.349Z</time></trkpt><trkpt lat="42.1199583" lon="11.9624083"><ele>341.0</ele><time>2026-04-19T11:23:11.352Z</time></trkpt><trkpt lat="42.120025" lon="11.9622967"><ele>338.20000000000005</ele><time>2026-04-19T11:23:12.347Z</time></trkpt><trkpt lat="42.12007" lon="11.9621683"><ele>335.40000000000003</ele><time>2026-04-19T11:23:13.349Z</time></trkpt><trkpt lat="42.12009" lon="11.9620333"><ele>332.6</ele><time>2026-04-19T11:23:14.355Z</time></trkpt><trkpt lat="42.1200783" lon="11.9618967"><ele>329.8</ele><time>2026-04-19T11:23:15.353Z</time></trkpt><trkpt lat="42.120045" lon="11.9617633"><ele>327.0</ele><time>2026-04-19T11:23:16.349Z</time></trkpt><trkpt lat="42.12001" lon="11.9616283"><ele>327.0</ele><time>2026-04-19T11:23:17.346Z</time></trkpt><trkpt lat="42.1199933" lon="11.9614933"><ele>327.0</ele><time>2026-04-19T11:23:18.348Z</time></trkpt><trkpt lat="42.1200133" lon="11.9613633"><ele>327.0</ele><time>2026-04-19T11:23:19.365Z</time></trkpt><trkpt lat="42.12007" lon="11.9612633"><ele>327.0</ele><time>2026-04-19T11:23:20.358Z</time></trkpt><trkpt lat="42.1201567" lon="11.9611933"><ele>327.0</ele><time>2026-04-19T11:23:21.349Z</time></trkpt><trkpt lat="42.1202633" lon="11.9611417"><ele>327.0</ele><time>2026-04-19T11:23:22.355Z</time></trkpt><trkpt lat="42.1203783" lon="11.9610917"><ele>327.0</ele><time>2026-04-19T11:23:23.351Z</time></trkpt><trkpt lat="42.12048" lon="11.961025"><ele>327.0</ele><time>2026-04-19T11:23:24.35Z</time></trkpt><trkpt lat="42.120555" lon="11.9609383"><ele>327.0</ele><time>2026-04-19T11:23:25.346Z</time></trkpt><trkpt lat="42.1205967" lon="11.9608333"><ele>327.0</ele><time>2026-04-19T11:23:26.363Z</time></trkpt><trkpt lat="42.1206117" lon="11.96071"><ele>328.75</ele><time>2026-04-19T11:23:27.351Z</time></trkpt><trkpt lat="42.1205833" lon="11.96056"><ele>330.5</ele><time>2026-04-19T11:23:28.346Z</time></trkpt><trkpt lat="42.120535" lon="11.960405"><ele>332.25</ele><time>2026-04-19T11:23:29.344Z</time></trkpt><trkpt lat="42.1204967" lon="11.960245"><ele>334.0</ele><time>2026-04-19T11:23:30.357Z</time></trkpt><trkpt lat="42.1204917" lon="11.9600883"><ele>336.25</ele><time>2026-04-19T11:23:31.351Z</time></trkpt><trkpt lat="42.1205233" lon="11.959935"><ele>338.5</ele><time>2026-04-19T11:23:32.35Z</time></trkpt><trkpt lat="42.1205783" lon="11.9597867"><ele>340.75</ele><time>2026-04-19T11:23:33.347Z</time></trkpt><trkpt lat="42.120635" lon="11.9596367"><ele>343.0</ele><time>2026-04-19T11:23:34.363Z</time></trkpt><trkpt lat="42.1206767" lon="11.9594933"><ele>343.0</ele><time>2026-04-19T11:23:35.348Z</time></trkpt><trkpt lat="42.1206933" lon="11.9593567"><ele>343.0</ele><time>2026-04-19T11:23:36.352Z</time></trkpt><trkpt lat="42.1206833" lon="11.9592183"><ele>343.0</ele><time>2026-04-19T11:23:37.341Z</time></trkpt><trkpt lat="42.120645" lon="11.9590783"><ele>343.0</ele><time>2026-04-19T11:23:38.359Z</time></trkpt><trkpt lat="42.120585" lon="11.9589433"><ele>343.0</ele><time>2026-04-19T11:23:39.345Z</time></trkpt><trkpt lat="42.1205167" lon="11.9588117"><ele>342.5</ele><time>2026-04-19T11:23:40.355Z</time></trkpt><trkpt lat="42.120465" lon="11.9586833"><ele>342.0</ele><time>2026-04-19T11:23:41.35Z</time></trkpt><trkpt lat="42.1204317" lon="11.95854"><ele>341.5</ele><time>2026-04-19T11:23:42.352Z</time></trkpt><trkpt lat="42.1204217" lon="11.9583883"><ele>341.0</ele><time>2026-04-19T11:23:43.35Z</time></trkpt><trkpt lat="42.1204233" lon="11.9582233"><ele>339.8</ele><time>2026-04-19T11:23:44.35Z</time></trkpt><trkpt lat="42.1204317" lon="11.958065"><ele>338.6</ele><time>2026-04-19T11:23:45.347Z</time></trkpt><trkpt lat="42.1204383" lon="11.9579283"><ele>337.4</ele><time>2026-04-19T11:23:46.34Z</time></trkpt><trkpt lat="42.1204467" lon="11.95782"><ele>336.2</ele><time>2026-04-19T11:23:47.35Z</time></trkpt><trkpt lat="42.1204517" lon="11.9577267"><ele>335.0</ele><time>2026-04-19T11:23:48.347Z</time></trkpt><trkpt lat="42.1204667" lon="11.9575817"><ele>335.0</ele><time>2026-04-19T11:23:50.35Z</time></trkpt><trkpt lat="42.1204783" lon="11.9574867"><ele>335.0</ele><time>2026-04-19T11:23:52.337Z</time></trkpt><trkpt lat="42.12047" lon="11.9573783"><ele>335.0</ele><time>2026-04-19T11:23:55.348Z</time></trkpt><trkpt lat="42.12045" lon="11.9572917"><ele>335.0</ele><time>2026-04-19T11:26:41.347Z</time></trkpt><trkpt lat="42.1205102" lon="11.957154"><ele>335.0</ele><time>2026-04-19T11:26:58.344Z</time></trkpt><trkpt lat="42.1205448" lon="11.9570753"><ele>335.0</ele><time>2026-04-19T11:27:00.348Z</time></trkpt><trkpt lat="42.1205871" lon="11.956993"><ele>335.0</ele><time>2026-04-19T11:27:09.344Z</time></trkpt><trkpt lat="42.120593" lon="11.9568482"><ele>335.0</ele><time>2026-04-19T11:27:13.348Z</time></trkpt><trkpt lat="42.1206142" lon="11.9567253"><ele>335.0</ele><time>2026-04-19T11:27:26.341Z</time></trkpt><trkpt lat="42.1206228" lon="11.9566197"><ele>335.0</ele><time>2026-04-19T11:27:33.336Z</time></trkpt><trkpt lat="42.1206372" lon="11.9565343"><ele>335.0</ele><time>2026-04-19T11:27:49.347Z</time></trkpt><trkpt lat="42.1206499" lon="11.9564497"><ele>335.0</ele><time>2026-04-19T11:27:50.338Z</time></trkpt><trkpt lat="42.1206711" lon="11.956354"><ele>335.33333333333337</ele><time>2026-04-19T11:27:56.35Z</time></trkpt><trkpt lat="42.1206952" lon="11.9562687"><ele>335.6666666666667</ele><time>2026-04-19T11:28:16.341Z</time></trkpt><trkpt lat="42.1207305" lon="11.956182"><ele>336.0</ele><time>2026-04-19T11:28:17.337Z</time></trkpt><trkpt lat="42.1208141" lon="11.9560582"><ele>336.3333333333333</ele><time>2026-04-19T11:28:31.34Z</time></trkpt><trkpt lat="42.1208682" lon="11.9560123"><ele>336.66666666666663</ele><time>2026-04-19T11:28:46.333Z</time></trkpt><trkpt lat="42.1208877" lon="11.9559114"><ele>337.0</ele><time>2026-04-19T11:28:48.331Z</time></trkpt><trkpt lat="42.1209066" lon="11.9558257"><ele>337.00000000000006</ele><time>2026-04-19T11:28:52.278Z</time></trkpt><trkpt lat="42.1209317" lon="11.955719"><ele>337.0</ele><time>2026-04-19T11:29:02.346Z</time></trkpt><trkpt lat="42.1209314" lon="11.9556222"><ele>337.0</ele><time>2026-04-19T11:29:09.331Z</time></trkpt><trkpt lat="42.1209248" lon="11.955534"><ele>337.0</ele><time>2026-04-19T11:29:16.336Z</time></trkpt><trkpt lat="42.1209717" lon="11.9554605"><ele>337.0</ele><time>2026-04-19T11:29:22.334Z</time></trkpt><trkpt lat="42.1210215" lon="11.9554038"><ele>337.00000000000006</ele><time>2026-04-19T11:29:29.337Z</time></trkpt><trkpt lat="42.1210664" lon="11.9553254"><ele>337.0</ele><time>2026-04-19T11:29:36.342Z</time></trkpt><trkpt lat="42.1210967" lon="11.9552395"><ele>337.0</ele><time>2026-04-19T11:29:41.333Z</time></trkpt><trkpt lat="42.1211234" lon="11.9551541"><ele>337.0</ele><time>2026-04-19T11:29:48.238Z</time></trkpt><trkpt lat="42.121152" lon="11.9550682"><ele>337.0</ele><time>2026-04-19T11:29:54.338Z</time></trkpt><trkpt lat="42.1211901" lon="11.9549959"><ele>337.0</ele><time>2026-04-19T11:30:08.341Z</time></trkpt><trkpt lat="42.1212457" lon="11.9549194"><ele>337.0</ele><time>2026-04-19T11:30:11.34Z</time></trkpt><trkpt lat="42.1212842" lon="11.9548356"><ele>337.0</ele><time>2026-04-19T11:30:17.337Z</time></trkpt><trkpt lat="42.1213602" lon="11.9547238"><ele>337.40000000000003</ele><time>2026-04-19T11:30:35.362Z</time></trkpt><trkpt lat="42.1214595" lon="11.9546456"><ele>337.8</ele><time>2026-04-19T11:30:51.349Z</time></trkpt><trkpt lat="42.1215534" lon="11.9546273"><ele>338.2</ele><time>2026-04-19T11:31:04.335Z</time></trkpt><trkpt lat="42.1216149" lon="11.9546478"><ele>338.6</ele><time>2026-04-19T11:31:07.349Z</time></trkpt><trkpt lat="42.1217306" lon="11.9546798"><ele>339.0</ele><time>2026-04-19T11:31:38.343Z</time></trkpt><trkpt lat="42.1216192" lon="11.9546158"><ele>340.6666666666667</ele><time>2026-04-19T11:32:41.339Z</time></trkpt><trkpt lat="42.1215571" lon="11.9546323"><ele>342.3333333333333</ele><time>2026-04-19T11:32:44.347Z</time></trkpt><trkpt lat="42.1214547" lon="11.9546817"><ele>344.0</ele><time>2026-04-19T11:32:56.344Z</time></trkpt><trkpt lat="42.121392" lon="11.9546961"><ele>345.66666666666663</ele><time>2026-04-19T11:33:01.351Z</time></trkpt><trkpt lat="42.1213029" lon="11.9547901"><ele>347.3333333333333</ele><time>2026-04-19T11:33:14.338Z</time></trkpt><trkpt lat="42.1212484" lon="11.9548653"><ele>349.0</ele><time>2026-04-19T11:33:19.347Z</time></trkpt><trkpt lat="42.121201" lon="11.9549268"><ele>348.99999999999994</ele><time>2026-04-19T11:33:22.336Z</time></trkpt><trkpt lat="42.1211619" lon="11.954996"><ele>349.0</ele><time>2026-04-19T11:33:28.334Z</time></trkpt><trkpt lat="42.1211181" lon="11.9550735"><ele>349.0</ele><time>2026-04-19T11:33:32.33Z</time></trkpt><trkpt lat="42.12108" lon="11.9551719"><ele>349.0</ele><time>2026-04-19T11:33:41.336Z</time></trkpt><trkpt lat="42.1210679" lon="11.9552654"><ele>349.0</ele><time>2026-04-19T11:33:45.28Z</time></trkpt><trkpt lat="42.1210508" lon="11.9553629"><ele>348.99999999999994</ele><time>2026-04-19T11:33:55.339Z</time></trkpt><trkpt lat="42.1210213" lon="11.9554639"><ele>349.0</ele><time>2026-04-19T11:34:00.34Z</time></trkpt><trkpt lat="42.1209954" lon="11.9555419"><ele>347.4285714285714</ele><time>2026-04-19T11:34:05.319Z</time></trkpt><trkpt lat="42.1209731" lon="11.9556297"><ele>345.85714285714283</ele><time>2026-04-19T11:34:12.259Z</time></trkpt><trkpt lat="42.1209302" lon="11.9557065"><ele>344.2857142857143</ele><time>2026-04-19T11:34:19.327Z</time></trkpt><trkpt lat="42.1208996" lon="11.9557839"><ele>342.71428571428567</ele><time>2026-04-19T11:34:25.334Z</time></trkpt><trkpt lat="42.1208505" lon="11.9558588"><ele>341.1428571428571</ele><time>2026-04-19T11:34:29.301Z</time></trkpt><trkpt lat="42.1208296" lon="11.9559575"><ele>339.57142857142856</ele><time>2026-04-19T11:34:35.335Z</time></trkpt><trkpt lat="42.1207876" lon="11.956023"><ele>338.0</ele><time>2026-04-19T11:34:42.338Z</time></trkpt><trkpt lat="42.1207289" lon="11.9560644"><ele>338.0</ele><time>2026-04-19T11:34:46.342Z</time></trkpt><trkpt lat="42.1206659" lon="11.9560868"><ele>338.0</ele><time>2026-04-19T11:34:50.957Z</time></trkpt><trkpt lat="42.1206414" lon="11.9561683"><ele>338.0</ele><time>2026-04-19T11:35:06.296Z</time></trkpt><trkpt lat="42.1206458" lon="11.9562995"><ele>338.0</ele><time>2026-04-19T11:35:14.315Z</time></trkpt><trkpt lat="42.1206277" lon="11.9563978"><ele>338.0</ele><time>2026-04-19T11:35:18.331Z</time></trkpt><trkpt lat="42.1206109" lon="11.9564896"><ele>338.0</ele><time>2026-04-19T11:35:22.387Z</time></trkpt><trkpt lat="42.1206326" lon="11.9565843"><ele>338.0</ele><time>2026-04-19T11:35:35.34Z</time></trkpt><trkpt lat="42.1206139" lon="11.95673"><ele>337.57142857142856</ele><time>2026-04-19T11:35:38.335Z</time></trkpt><trkpt lat="42.1205886" lon="11.9568193"><ele>337.1428571428571</ele><time>2026-04-19T11:35:40.349Z</time></trkpt><trkpt lat="42.1205744" lon="11.9569033"><ele>336.71428571428567</ele><time>2026-04-19T11:35:45.33Z</time></trkpt><trkpt lat="42.1205238" lon="11.9569993"><ele>336.2857142857143</ele><time>2026-04-19T11:35:52.334Z</time></trkpt><trkpt lat="42.1204892" lon="11.9570742"><ele>335.85714285714283</ele><time>2026-04-19T11:35:57.297Z</time></trkpt><trkpt lat="42.1204755" lon="11.957162"><ele>335.4285714285714</ele><time>2026-04-19T11:36:17.339Z</time></trkpt><trkpt lat="42.1204783" lon="11.9572617"><ele>335.0</ele><time>2026-04-19T11:38:31.338Z</time></trkpt><trkpt lat="42.120575" lon="11.9572033"><ele>335.0</ele><time>2026-04-19T11:38:34.341Z</time></trkpt><trkpt lat="42.120625" lon="11.9571417"><ele>335.0</ele><time>2026-04-19T11:38:35.362Z</time></trkpt><trkpt lat="42.120685" lon="11.9570617"><ele>335.0</ele><time>2026-04-19T11:38:36.341Z</time></trkpt><trkpt lat="42.12075" lon="11.95697"><ele>335.0</ele><time>2026-04-19T11:38:37.34Z</time></trkpt><trkpt lat="42.1208167" lon="11.9568683"><ele>335.0</ele><time>2026-04-19T11:38:38.334Z</time></trkpt><trkpt lat="42.1208867" lon="11.95676"><ele>333.25</ele><time>2026-04-19T11:38:39.333Z</time></trkpt><trkpt lat="42.12096" lon="11.95666"><ele>331.5</ele><time>2026-04-19T11:38:40.347Z</time></trkpt><trkpt lat="42.1210383" lon="11.956565"><ele>329.75</ele><time>2026-04-19T11:38:41.337Z</time></trkpt><trkpt lat="42.1211367" lon="11.95648"><ele>328.0</ele><time>2026-04-19T11:38:42.342Z</time></trkpt><trkpt lat="42.1212583" lon="11.9563983"><ele>328.0</ele><time>2026-04-19T11:38:43.339Z</time></trkpt><trkpt lat="42.1213867" lon="11.9563283"><ele>328.0</ele><time>2026-04-19T11:38:44.343Z</time></trkpt><trkpt lat="42.1215067" lon="11.9562917"><ele>328.0</ele><time>2026-04-19T11:38:45.34Z</time></trkpt><trkpt lat="42.1216233" lon="11.9562983"><ele>328.0</ele><time>2026-04-19T11:38:46.337Z</time></trkpt><trkpt lat="42.1217333" lon="11.95636"><ele>323.66666666666663</ele><time>2026-04-19T11:38:47.339Z</time></trkpt><trkpt lat="42.1218533" lon="11.9564567"><ele>319.3333333333333</ele><time>2026-04-19T11:38:48.335Z</time></trkpt><trkpt lat="42.121975" lon="11.95658"><ele>315.0</ele><time>2026-04-19T11:38:49.336Z</time></trkpt><trkpt lat="42.1221033" lon="11.956715"><ele>313.0</ele><time>2026-04-19T11:38:50.339Z</time></trkpt><trkpt lat="42.1222317" lon="11.9568567"><ele>311.0</ele><time>2026-04-19T11:38:51.34Z</time></trkpt><trkpt lat="42.12236" lon="11.957"><ele>309.0</ele><time>2026-04-19T11:38:52.331Z</time></trkpt><trkpt lat="42.122485" lon="11.95714"><ele>309.0</ele><time>2026-04-19T11:38:53.335Z</time></trkpt><trkpt lat="42.122605" lon="11.957275"><ele>309.0</ele><time>2026-04-19T11:38:54.333Z</time></trkpt><trkpt lat="42.122725" lon="11.957415"><ele>309.0</ele><time>2026-04-19T11:38:55.332Z</time></trkpt><trkpt lat="42.1228467" lon="11.9575633"><ele>305.3333333333333</ele><time>2026-04-19T11:38:56.342Z</time></trkpt><trkpt lat="42.12297" lon="11.9577167"><ele>301.66666666666663</ele><time>2026-04-19T11:38:57.339Z</time></trkpt><trkpt lat="42.1230867" lon="11.9578683"><ele>298.0</ele><time>2026-04-19T11:38:58.332Z</time></trkpt><trkpt lat="42.1231933" lon="11.9580117"><ele>299.25</ele><time>2026-04-19T11:38:59.34Z</time></trkpt><trkpt lat="42.1232983" lon="11.9581267"><ele>300.5</ele><time>2026-04-19T11:39:00.334Z</time></trkpt><trkpt lat="42.123405" lon="11.9582033"><ele>301.75</ele><time>2026-04-19T11:39:01.339Z</time></trkpt><trkpt lat="42.123515" lon="11.9582267"><ele>303.0</ele><time>2026-04-19T11:39:02.336Z</time></trkpt><trkpt lat="42.12364" lon="11.9582183"><ele>303.0</ele><time>2026-04-19T11:39:03.361Z</time></trkpt><trkpt lat="42.1237983" lon="11.958185"><ele>303.0</ele><time>2026-04-19T11:39:04.336Z</time></trkpt><trkpt lat="42.1239767" lon="11.9581633"><ele>303.0</ele><time>2026-04-19T11:39:05.341Z</time></trkpt><trkpt lat="42.12416" lon="11.95816"><ele>303.3333333333333</ele><time>2026-04-19T11:39:06.34Z</time></trkpt><trkpt lat="42.124345" lon="11.958175"><ele>303.66666666666663</ele><time>2026-04-19T11:39:07.349Z</time></trkpt><trkpt lat="42.1245233" lon="11.9581967"><ele>304.0</ele><time>2026-04-19T11:39:08.331Z</time></trkpt><trkpt lat="42.1246833" lon="11.9582133"><ele>304.0</ele><time>2026-04-19T11:39:09.34Z</time></trkpt><trkpt lat="42.1248183" lon="11.9582117"><ele>304.0</ele><time>2026-04-19T11:39:10.348Z</time></trkpt><trkpt lat="42.124925" lon="11.958175"><ele>304.0</ele><time>2026-04-19T11:39:11.338Z</time></trkpt><trkpt lat="42.125015" lon="11.9580933"><ele>304.0</ele><time>2026-04-19T11:39:12.328Z</time></trkpt><trkpt lat="42.1250867" lon="11.957975"><ele>304.0</ele><time>2026-04-19T11:39:13.344Z</time></trkpt><trkpt lat="42.125135" lon="11.9578183"><ele>304.0</ele><time>2026-04-19T11:39:14.337Z</time></trkpt><trkpt lat="42.1251483" lon="11.957625"><ele>304.0</ele><time>2026-04-19T11:39:15.339Z</time></trkpt><trkpt lat="42.1251467" lon="11.95741"><ele>304.0</ele><time>2026-04-19T11:39:16.337Z</time></trkpt><trkpt lat="42.1251417" lon="11.95719"><ele>304.25</ele><time>2026-04-19T11:39:17.338Z</time></trkpt><trkpt lat="42.125145" lon="11.95699"><ele>304.5</ele><time>2026-04-19T11:39:18.34Z</time></trkpt><trkpt lat="42.12517" lon="11.956805"><ele>304.75</ele><time>2026-04-19T11:39:19.334Z</time></trkpt><trkpt lat="42.1252267" lon="11.9566467"><ele>305.0</ele><time>2026-04-19T11:39:20.342Z</time></trkpt><trkpt lat="42.1253217" lon="11.9565233"><ele>305.6666666666667</ele><time>2026-04-19T11:39:21.336Z</time></trkpt><trkpt lat="42.125445" lon="11.9564167"><ele>306.3333333333333</ele><time>2026-04-19T11:39:22.334Z</time></trkpt><trkpt lat="42.1255833" lon="11.9563217"><ele>307.0</ele><time>2026-04-19T11:39:23.331Z</time></trkpt><trkpt lat="42.1257265" lon="11.956231"><ele>303.75</ele><time>2026-04-19T11:39:24.338Z</time></trkpt><trkpt lat="42.12586" lon="11.9561468"><ele>300.5</ele><time>2026-04-19T11:39:25.329Z</time></trkpt><trkpt lat="42.1259798" lon="11.9560633"><ele>297.25</ele><time>2026-04-19T11:39:26.335Z</time></trkpt><trkpt lat="42.1260789" lon="11.9559817"><ele>294.0</ele><time>2026-04-19T11:39:27.337Z</time></trkpt><trkpt lat="42.126156" lon="11.9558865"><ele>294.8</ele><time>2026-04-19T11:39:28.334Z</time></trkpt><trkpt lat="42.1262073" lon="11.9557729"><ele>295.59999999999997</ele><time>2026-04-19T11:39:29.334Z</time></trkpt><trkpt lat="42.1262275" lon="11.9556423"><ele>296.4</ele><time>2026-04-19T11:39:30.343Z</time></trkpt><trkpt lat="42.12622" lon="11.9555008"><ele>297.2</ele><time>2026-04-19T11:39:31.332Z</time></trkpt><trkpt lat="42.1261984" lon="11.9553567"><ele>298.0</ele><time>2026-04-19T11:39:32.332Z</time></trkpt><trkpt lat="42.1261733" lon="11.9552208"><ele>298.0</ele><time>2026-04-19T11:39:33.332Z</time></trkpt><trkpt lat="42.1261591" lon="11.9550923"><ele>298.0</ele><time>2026-04-19T11:39:34.336Z</time></trkpt><trkpt lat="42.1261584" lon="11.954972"><ele>298.0</ele><time>2026-04-19T11:39:35.337Z</time></trkpt><trkpt lat="42.1261751" lon="11.9548552"><ele>298.0</ele><time>2026-04-19T11:39:36.328Z</time></trkpt><trkpt lat="42.1262148" lon="11.9547396"><ele>298.0</ele><time>2026-04-19T11:39:37.344Z</time></trkpt><trkpt lat="42.1262823" lon="11.9546336"><ele>298.5</ele><time>2026-04-19T11:39:38.336Z</time></trkpt><trkpt lat="42.1263753" lon="11.9545428"><ele>299.0</ele><time>2026-04-19T11:39:39.334Z</time></trkpt><trkpt lat="42.1264817" lon="11.954468"><ele>299.5</ele><time>2026-04-19T11:39:40.336Z</time></trkpt><trkpt lat="42.1265975" lon="11.954409"><ele>300.0</ele><time>2026-04-19T11:39:41.337Z</time></trkpt><trkpt lat="42.1267157" lon="11.9543803"><ele>296.25</ele><time>2026-04-19T11:39:42.33Z</time></trkpt><trkpt lat="42.1268389" lon="11.9543835"><ele>292.5</ele><time>2026-04-19T11:39:43.326Z</time></trkpt><trkpt lat="42.1269709" lon="11.9544152"><ele>288.75</ele><time>2026-04-19T11:39:44.332Z</time></trkpt><trkpt lat="42.1271061" lon="11.9544593"><ele>285.0</ele><time>2026-04-19T11:39:45.331Z</time></trkpt><trkpt lat="42.1272438" lon="11.9544975"><ele>280.3333333333333</ele><time>2026-04-19T11:39:46.327Z</time></trkpt><trkpt lat="42.1273939" lon="11.9545078"><ele>275.66666666666663</ele><time>2026-04-19T11:39:47.329Z</time></trkpt><trkpt lat="42.127548" lon="11.9544773"><ele>271.0</ele><time>2026-04-19T11:39:48.342Z</time></trkpt><trkpt lat="42.127707" lon="11.954426"><ele>271.0</ele><time>2026-04-19T11:39:49.336Z</time></trkpt><trkpt lat="42.1278695" lon="11.9543836"><ele>271.0</ele><time>2026-04-19T11:39:50.337Z</time></trkpt><trkpt lat="42.1280366" lon="11.9543655"><ele>271.0</ele><time>2026-04-19T11:39:51.33Z</time></trkpt><trkpt lat="42.1282088" lon="11.9543739"><ele>269.66666666666663</ele><time>2026-04-19T11:39:52.331Z</time></trkpt><trkpt lat="42.1283872" lon="11.954399"><ele>268.3333333333333</ele><time>2026-04-19T11:39:53.339Z</time></trkpt><trkpt lat="42.1285703" lon="11.9544338"><ele>267.0</ele><time>2026-04-19T11:39:54.333Z</time></trkpt><trkpt lat="42.1287546" lon="11.9544718"><ele>267.0</ele><time>2026-04-19T11:39:55.348Z</time></trkpt><trkpt lat="42.1289337" lon="11.9545078"><ele>267.0</ele><time>2026-04-19T11:39:56.368Z</time></trkpt><trkpt lat="42.1290969" lon="11.9545408"><ele>267.0</ele><time>2026-04-19T11:39:57.343Z</time></trkpt><trkpt lat="42.1292471" lon="11.9545548"><ele>266.25</ele><time>2026-04-19T11:39:58.333Z</time></trkpt><trkpt lat="42.1293854" lon="11.95454"><ele>265.5</ele><time>2026-04-19T11:39:59.33Z</time></trkpt><trkpt lat="42.1295087" lon="11.9544813"><ele>264.75</ele><time>2026-04-19T11:40:00.337Z</time></trkpt><trkpt lat="42.1296101" lon="11.9543858"><ele>264.0</ele><time>2026-04-19T11:40:01.341Z</time></trkpt><trkpt lat="42.1296861" lon="11.9542615"><ele>267.0</ele><time>2026-04-19T11:40:02.342Z</time></trkpt><trkpt lat="42.1297355" lon="11.9541111"><ele>270.0</ele><time>2026-04-19T11:40:03.335Z</time></trkpt><trkpt lat="42.1297659" lon="11.9539379"><ele>273.0</ele><time>2026-04-19T11:40:04.333Z</time></trkpt><trkpt lat="42.1297934" lon="11.9537656"><ele>276.0</ele><time>2026-04-19T11:40:05.334Z</time></trkpt><trkpt lat="42.1298442" lon="11.9536078"><ele>273.5</ele><time>2026-04-19T11:40:06.362Z</time></trkpt><trkpt lat="42.1299224" lon="11.9534721"><ele>271.0</ele><time>2026-04-19T11:40:07.336Z</time></trkpt><trkpt lat="42.1300275" lon="11.95334"><ele>268.5</ele><time>2026-04-19T11:40:08.334Z</time></trkpt><trkpt lat="42.1301448" lon="11.953212"><ele>266.0</ele><time>2026-04-19T11:40:09.344Z</time></trkpt><trkpt lat="42.1302577" lon="11.9530892"><ele>266.0</ele><time>2026-04-19T11:40:10.336Z</time></trkpt><trkpt lat="42.1303565" lon="11.9529741"><ele>266.0</ele><time>2026-04-19T11:40:11.343Z</time></trkpt><trkpt lat="42.1304395" lon="11.9528736"><ele>266.0</ele><time>2026-04-19T11:40:12.341Z</time></trkpt><trkpt lat="42.1305006" lon="11.9527775"><ele>266.0</ele><time>2026-04-19T11:40:13.358Z</time></trkpt><trkpt lat="42.1305457" lon="11.9526737"><ele>266.0</ele><time>2026-04-19T11:40:14.348Z</time></trkpt><trkpt lat="42.1305714" lon="11.9525451"><ele>267.75</ele><time>2026-04-19T11:40:15.342Z</time></trkpt><trkpt lat="42.1305852" lon="11.9523927"><ele>269.5</ele><time>2026-04-19T11:40:16.334Z</time></trkpt><trkpt lat="42.1305919" lon="11.952223"><ele>271.25</ele><time>2026-04-19T11:40:17.336Z</time></trkpt><trkpt lat="42.1305911" lon="11.9520433"><ele>273.0</ele><time>2026-04-19T11:40:18.339Z</time></trkpt><trkpt lat="42.1305704" lon="11.9518559"><ele>269.3333333333333</ele><time>2026-04-19T11:40:19.337Z</time></trkpt><trkpt lat="42.1305256" lon="11.9516603"><ele>265.66666666666663</ele><time>2026-04-19T11:40:20.34Z</time></trkpt><trkpt lat="42.1304697" lon="11.9514573"><ele>262.0</ele><time>2026-04-19T11:40:21.337Z</time></trkpt><trkpt lat="42.130427" lon="11.9512555"><ele>262.0</ele><time>2026-04-19T11:40:22.327Z</time></trkpt><trkpt lat="42.1304127" lon="11.9510601"><ele>262.0</ele><time>2026-04-19T11:40:23.34Z</time></trkpt><trkpt lat="42.1304355" lon="11.9508721"><ele>262.0</ele><time>2026-04-19T11:40:24.344Z</time></trkpt><trkpt lat="42.130485" lon="11.9506958"><ele>262.0</ele><time>2026-04-19T11:40:25.335Z</time></trkpt><trkpt lat="42.1305633" lon="11.9505317"><ele>260.3333333333333</ele><time>2026-04-19T11:40:26.338Z</time></trkpt><trkpt lat="42.1306533" lon="11.9503767"><ele>258.6666666666667</ele><time>2026-04-19T11:40:27.335Z</time></trkpt><trkpt lat="42.1307683" lon="11.9502283"><ele>257.0</ele><time>2026-04-19T11:40:28.333Z</time></trkpt><trkpt lat="42.1309033" lon="11.9500783"><ele>254.66666666666669</ele><time>2026-04-19T11:40:29.335Z</time></trkpt><trkpt lat="42.1310483" lon="11.949925"><ele>252.33333333333331</ele><time>2026-04-19T11:40:30.337Z</time></trkpt><trkpt lat="42.1312017" lon="11.949765"><ele>250.0</ele><time>2026-04-19T11:40:31.339Z</time></trkpt><trkpt lat="42.13136" lon="11.9495967"><ele>250.0</ele><time>2026-04-19T11:40:32.339Z</time></trkpt><trkpt lat="42.13152" lon="11.94943"><ele>250.0</ele><time>2026-04-19T11:40:33.329Z</time></trkpt><trkpt lat="42.1316717" lon="11.9492667"><ele>250.0</ele><time>2026-04-19T11:40:34.332Z</time></trkpt><trkpt lat="42.1318133" lon="11.9491167"><ele>249.33333333333331</ele><time>2026-04-19T11:40:35.34Z</time></trkpt><trkpt lat="42.13194" lon="11.948975"><ele>248.66666666666669</ele><time>2026-04-19T11:40:36.335Z</time></trkpt><trkpt lat="42.1320633" lon="11.9488267"><ele>248.0</ele><time>2026-04-19T11:40:37.339Z</time></trkpt><trkpt lat="42.1321817" lon="11.948665"><ele>248.0</ele><time>2026-04-19T11:40:38.336Z</time></trkpt><trkpt lat="42.1322967" lon="11.948495"><ele>248.0</ele><time>2026-04-19T11:40:39.34Z</time></trkpt><trkpt lat="42.13241" lon="11.9483183"><ele>248.0</ele><time>2026-04-19T11:40:40.338Z</time></trkpt><trkpt lat="42.1325217" lon="11.9481367"><ele>249.33333333333334</ele><time>2026-04-19T11:40:41.342Z</time></trkpt><trkpt lat="42.1326333" lon="11.947955"><ele>250.66666666666669</ele><time>2026-04-19T11:40:42.345Z</time></trkpt><trkpt lat="42.1327433" lon="11.9477733"><ele>252.0</ele><time>2026-04-19T11:40:43.337Z</time></trkpt><trkpt lat="42.1328467" lon="11.9476017"><ele>253.5</ele><time>2026-04-19T11:40:44.337Z</time></trkpt><trkpt lat="42.1329417" lon="11.9474467"><ele>255.0</ele><time>2026-04-19T11:40:45.339Z</time></trkpt><trkpt lat="42.133035" lon="11.9473167"><ele>256.5</ele><time>2026-04-19T11:40:46.336Z</time></trkpt><trkpt lat="42.1331317" lon="11.9472083"><ele>258.0</ele><time>2026-04-19T11:40:47.34Z</time></trkpt><trkpt lat="42.1332367" lon="11.9471267"><ele>258.5</ele><time>2026-04-19T11:40:48.345Z</time></trkpt><trkpt lat="42.1333517" lon="11.9470783"><ele>259.0</ele><time>2026-04-19T11:40:49.331Z</time></trkpt><trkpt lat="42.1334717" lon="11.947065"><ele>259.5</ele><time>2026-04-19T11:40:50.328Z</time></trkpt><trkpt lat="42.1335967" lon="11.9470817"><ele>260.0</ele><time>2026-04-19T11:40:51.332Z</time></trkpt><trkpt lat="42.1337267" lon="11.94712"><ele>260.0</ele><time>2026-04-19T11:40:52.34Z</time></trkpt><trkpt lat="42.1338533" lon="11.9471733"><ele>260.0</ele><time>2026-04-19T11:40:53.334Z</time></trkpt><trkpt lat="42.1339817" lon="11.94724"><ele>260.0</ele><time>2026-04-19T11:40:54.344Z</time></trkpt><trkpt lat="42.1341133" lon="11.9473167"><ele>260.0</ele><time>2026-04-19T11:40:55.34Z</time></trkpt><trkpt lat="42.1342433" lon="11.9474"><ele>259.33333333333337</ele><time>2026-04-19T11:40:56.332Z</time></trkpt><trkpt lat="42.1343767" lon="11.947495"><ele>258.6666666666667</ele><time>2026-04-19T11:40:57.336Z</time></trkpt><trkpt lat="42.1345133" lon="11.9476033"><ele>258.0</ele><time>2026-04-19T11:40:58.331Z</time></trkpt><trkpt lat="42.1346517" lon="11.9477317"><ele>258.0</ele><time>2026-04-19T11:40:59.334Z</time></trkpt><trkpt lat="42.1347833" lon="11.94787"><ele>258.0</ele><time>2026-04-19T11:41:00.334Z</time></trkpt><trkpt lat="42.1349033" lon="11.9480217"><ele>258.0</ele><time>2026-04-19T11:41:01.334Z</time></trkpt><trkpt lat="42.1350067" lon="11.9481883"><ele>259.3333333333333</ele><time>2026-04-19T11:41:02.337Z</time></trkpt><trkpt lat="42.1351017" lon="11.948375"><ele>260.66666666666663</ele><time>2026-04-19T11:41:03.335Z</time></trkpt><trkpt lat="42.1351967" lon="11.9485733"><ele>262.0</ele><time>2026-04-19T11:41:04.339Z</time></trkpt><trkpt lat="42.1353" lon="11.9487717"><ele>262.0</ele><time>2026-04-19T11:41:05.335Z</time></trkpt><trkpt lat="42.1354117" lon="11.9489667"><ele>262.0</ele><time>2026-04-19T11:41:06.342Z</time></trkpt><trkpt lat="42.1355267" lon="11.949145"><ele>262.0</ele><time>2026-04-19T11:41:07.337Z</time></trkpt><trkpt lat="42.13564" lon="11.9493"><ele>264.25</ele><time>2026-04-19T11:41:08.332Z</time></trkpt><trkpt lat="42.135755" lon="11.9494233"><ele>266.5</ele><time>2026-04-19T11:41:09.336Z</time></trkpt><trkpt lat="42.1358683" lon="11.9495133"><ele>268.75</ele><time>2026-04-19T11:41:10.329Z</time></trkpt><trkpt lat="42.13598" lon="11.9495683"><ele>271.0</ele><time>2026-04-19T11:41:11.335Z</time></trkpt><trkpt lat="42.136085" lon="11.9495717"><ele>271.0</ele><time>2026-04-19T11:41:12.352Z</time></trkpt><trkpt lat="42.1361867" lon="11.9495333"><ele>271.0</ele><time>2026-04-19T11:41:13.336Z</time></trkpt><trkpt lat="42.1362783" lon="11.9494533"><ele>271.0</ele><time>2026-04-19T11:41:14.334Z</time></trkpt><trkpt lat="42.136345" lon="11.949335"><ele>271.0</ele><time>2026-04-19T11:41:15.337Z</time></trkpt><trkpt lat="42.1363867" lon="11.949185"><ele>271.0</ele><time>2026-04-19T11:41:16.343Z</time></trkpt><trkpt lat="42.1364083" lon="11.9490117"><ele>274.25</ele><time>2026-04-19T11:41:17.331Z</time></trkpt><trkpt lat="42.13642" lon="11.948825"><ele>277.5</ele><time>2026-04-19T11:41:18.344Z</time></trkpt><trkpt lat="42.1364283" lon="11.948635"><ele>280.75</ele><time>2026-04-19T11:41:19.35Z</time></trkpt><trkpt lat="42.13643" lon="11.948445"><ele>284.0</ele><time>2026-04-19T11:41:20.335Z</time></trkpt><trkpt lat="42.136425" lon="11.9482667"><ele>286.75</ele><time>2026-04-19T11:41:21.342Z</time></trkpt><trkpt lat="42.136405" lon="11.9480867"><ele>289.5</ele><time>2026-04-19T11:41:22.355Z</time></trkpt><trkpt lat="42.136365" lon="11.947915"><ele>292.25</ele><time>2026-04-19T11:41:23.333Z</time></trkpt><trkpt lat="42.13632" lon="11.9477433"><ele>295.0</ele><time>2026-04-19T11:41:24.332Z</time></trkpt><trkpt lat="42.1362933" lon="11.9475733"><ele>295.5</ele><time>2026-04-19T11:41:25.346Z</time></trkpt><trkpt lat="42.1362983" lon="11.94741"><ele>296.0</ele><time>2026-04-19T11:41:26.364Z</time></trkpt><trkpt lat="42.13634" lon="11.9472533"><ele>296.5</ele><time>2026-04-19T11:41:27.34Z</time></trkpt><trkpt lat="42.1364017" lon="11.9471033"><ele>297.0</ele><time>2026-04-19T11:41:28.333Z</time></trkpt><trkpt lat="42.1364817" lon="11.946965"><ele>296.25</ele><time>2026-04-19T11:41:29.329Z</time></trkpt><trkpt lat="42.13657" lon="11.9468433"><ele>295.5</ele><time>2026-04-19T11:41:30.339Z</time></trkpt><trkpt lat="42.1366767" lon="11.9467483"><ele>294.75</ele><time>2026-04-19T11:41:31.336Z</time></trkpt><trkpt lat="42.1368033" lon="11.946685"><ele>294.0</ele><time>2026-04-19T11:41:32.33Z</time></trkpt><trkpt lat="42.1369467" lon="11.9466317"><ele>299.0</ele><time>2026-04-19T11:41:33.344Z</time></trkpt><trkpt lat="42.1371033" lon="11.94659"><ele>304.0</ele><time>2026-04-19T11:41:34.333Z</time></trkpt><trkpt lat="42.1372733" lon="11.94656"><ele>309.0</ele><time>2026-04-19T11:41:35.334Z</time></trkpt><trkpt lat="42.13744" lon="11.9465283"><ele>309.0</ele><time>2026-04-19T11:41:36.334Z</time></trkpt><trkpt lat="42.1376083" lon="11.9465"><ele>309.0</ele><time>2026-04-19T11:41:37.334Z</time></trkpt><trkpt lat="42.1377717" lon="11.94647"><ele>309.0</ele><time>2026-04-19T11:41:38.338Z</time></trkpt><trkpt lat="42.1379233" lon="11.94643"><ele>309.0</ele><time>2026-04-19T11:41:39.331Z</time></trkpt><trkpt lat="42.1380583" lon="11.9463833"><ele>309.0</ele><time>2026-04-19T11:41:40.34Z</time></trkpt><trkpt lat="42.1381867" lon="11.94633"><ele>309.0</ele><time>2026-04-19T11:41:41.347Z</time></trkpt><trkpt lat="42.13831" lon="11.9462583"><ele>309.0</ele><time>2026-04-19T11:41:42.36Z</time></trkpt><trkpt lat="42.1384367" lon="11.9461633"><ele>309.0</ele><time>2026-04-19T11:41:43.367Z</time></trkpt><trkpt lat="42.138565" lon="11.9460567"><ele>309.0</ele><time>2026-04-19T11:41:44.35Z</time></trkpt><trkpt lat="42.1386967" lon="11.945945"><ele>309.0</ele><time>2026-04-19T11:41:45.363Z</time></trkpt><trkpt lat="42.138825" lon="11.9458383"><ele>311.0</ele><time>2026-04-19T11:41:46.397Z</time></trkpt><trkpt lat="42.1389367" lon="11.9457367"><ele>313.0</ele><time>2026-04-19T11:41:47.346Z</time></trkpt><trkpt lat="42.13903" lon="11.9456383"><ele>315.0</ele><time>2026-04-19T11:41:48.354Z</time></trkpt><trkpt lat="42.1391583" lon="11.9453967"><ele>315.0</ele><time>2026-04-19T11:41:50.469Z</time></trkpt><trkpt lat="42.1391917" lon="11.9450783"><ele>315.0</ele><time>2026-04-19T11:41:52.372Z</time></trkpt><trkpt lat="42.1391917" lon="11.9448917"><ele>315.0</ele><time>2026-04-19T11:41:53.362Z</time></trkpt><trkpt lat="42.1391933" lon="11.9447083"><ele>318.5</ele><time>2026-04-19T11:41:54.351Z</time></trkpt><trkpt lat="42.1392067" lon="11.9445233"><ele>322.0</ele><time>2026-04-19T11:41:55.349Z</time></trkpt><trkpt lat="42.1392483" lon="11.9443517"><ele>325.5</ele><time>2026-04-19T11:41:56.358Z</time></trkpt><trkpt lat="42.1393217" lon="11.9442117"><ele>329.0</ele><time>2026-04-19T11:41:57.339Z</time></trkpt><trkpt lat="42.1394217" lon="11.9441167"><ele>329.5</ele><time>2026-04-19T11:41:58.337Z</time></trkpt><trkpt lat="42.13954" lon="11.9440683"><ele>330.0</ele><time>2026-04-19T11:41:59.341Z</time></trkpt><trkpt lat="42.1396683" lon="11.94406"><ele>330.5</ele><time>2026-04-19T11:42:00.35Z</time></trkpt><trkpt lat="42.1397967" lon="11.9440617"><ele>331.0</ele><time>2026-04-19T11:42:01.352Z</time></trkpt><trkpt lat="42.139915" lon="11.94405"><ele>331.0</ele><time>2026-04-19T11:42:02.349Z</time></trkpt><trkpt lat="42.1400167" lon="11.9440117"><ele>331.0</ele><time>2026-04-19T11:42:03.347Z</time></trkpt><trkpt lat="42.1401017" lon="11.9439483"><ele>331.0</ele><time>2026-04-19T11:42:04.413Z</time></trkpt><trkpt lat="42.1401717" lon="11.9438667"><ele>331.0</ele><time>2026-04-19T11:42:05.358Z</time></trkpt><trkpt lat="42.1402233" lon="11.9437633"><ele>331.0</ele><time>2026-04-19T11:42:06.34Z</time></trkpt><trkpt lat="42.140265" lon="11.943625"><ele>331.0</ele><time>2026-04-19T11:42:07.334Z</time></trkpt><trkpt lat="42.1402783" lon="11.9434267"><ele>331.0</ele><time>2026-04-19T11:42:08.339Z</time></trkpt><trkpt lat="42.1402883" lon="11.9432167"><ele>331.0</ele><time>2026-04-19T11:42:09.333Z</time></trkpt><trkpt lat="42.1402933" lon="11.94297"><ele>332.66666666666663</ele><time>2026-04-19T11:42:10.335Z</time></trkpt><trkpt lat="42.140305" lon="11.942715"><ele>334.3333333333333</ele><time>2026-04-19T11:42:11.33Z</time></trkpt><trkpt lat="42.1403217" lon="11.9424483"><ele>336.0</ele><time>2026-04-19T11:42:12.335Z</time></trkpt><trkpt lat="42.1403333" lon="11.9421667"><ele>336.0</ele><time>2026-04-19T11:42:13.359Z</time></trkpt><trkpt lat="42.140345" lon="11.9418833"><ele>336.0</ele><time>2026-04-19T11:42:14.334Z</time></trkpt><trkpt lat="42.1403533" lon="11.941605"><ele>336.0</ele><time>2026-04-19T11:42:15.352Z</time></trkpt><trkpt lat="42.1403667" lon="11.9413533"><ele>334.6666666666667</ele><time>2026-04-19T11:42:16.348Z</time></trkpt><trkpt lat="42.140375" lon="11.94111"><ele>333.33333333333337</ele><time>2026-04-19T11:42:17.334Z</time></trkpt><trkpt lat="42.1403883" lon="11.9408717"><ele>332.0</ele><time>2026-04-19T11:42:18.332Z</time></trkpt><trkpt lat="42.1404117" lon="11.94064"><ele>331.6666666666667</ele><time>2026-04-19T11:42:19.34Z</time></trkpt><trkpt lat="42.1404417" lon="11.94041"><ele>331.3333333333333</ele><time>2026-04-19T11:42:20.341Z</time></trkpt><trkpt lat="42.1404817" lon="11.9401817"><ele>331.0</ele><time>2026-04-19T11:42:21.342Z</time></trkpt><trkpt lat="42.1405283" lon="11.93995"><ele>331.0</ele><time>2026-04-19T11:42:22.34Z</time></trkpt><trkpt lat="42.1405783" lon="11.9397217"><ele>331.0</ele><time>2026-04-19T11:42:23.335Z</time></trkpt><trkpt lat="42.14063" lon="11.9394967"><ele>331.0</ele><time>2026-04-19T11:42:24.346Z</time></trkpt><trkpt lat="42.1406817" lon="11.93927"><ele>327.66666666666663</ele><time>2026-04-19T11:42:25.336Z</time></trkpt><trkpt lat="42.1407317" lon="11.93904"><ele>324.3333333333333</ele><time>2026-04-19T11:42:26.351Z</time></trkpt><trkpt lat="42.1407783" lon="11.9388183"><ele>321.0</ele><time>2026-04-19T11:42:27.329Z</time></trkpt><trkpt lat="42.14082" lon="11.9386"><ele>323.3333333333333</ele><time>2026-04-19T11:42:28.338Z</time></trkpt><trkpt lat="42.14087" lon="11.9383833"><ele>325.66666666666663</ele><time>2026-04-19T11:42:29.331Z</time></trkpt><trkpt lat="42.1409217" lon="11.9381633"><ele>328.0</ele><time>2026-04-19T11:42:30.334Z</time></trkpt><trkpt lat="42.1409767" lon="11.9379333"><ele>328.0</ele><time>2026-04-19T11:42:31.33Z</time></trkpt><trkpt lat="42.1410333" lon="11.9376983"><ele>328.0</ele><time>2026-04-19T11:42:32.328Z</time></trkpt><trkpt lat="42.1410933" lon="11.9374633"><ele>328.0</ele><time>2026-04-19T11:42:33.329Z</time></trkpt><trkpt lat="42.1411483" lon="11.9372283"><ele>329.3333333333333</ele><time>2026-04-19T11:42:34.343Z</time></trkpt><trkpt lat="42.1412067" lon="11.9369917"><ele>330.6666666666667</ele><time>2026-04-19T11:42:35.337Z</time></trkpt><trkpt lat="42.141265" lon="11.9367583"><ele>332.0</ele><time>2026-04-19T11:42:36.34Z</time></trkpt><trkpt lat="42.1413233" lon="11.93653"><ele>332.33333333333337</ele><time>2026-04-19T11:42:37.334Z</time></trkpt><trkpt lat="42.1413733" lon="11.9363083"><ele>332.6666666666667</ele><time>2026-04-19T11:42:38.328Z</time></trkpt><trkpt lat="42.1414083" lon="11.93608"><ele>333.0</ele><time>2026-04-19T11:42:39.327Z</time></trkpt><trkpt lat="42.1414383" lon="11.935845"><ele>335.0</ele><time>2026-04-19T11:42:40.336Z</time></trkpt><trkpt lat="42.1414644" lon="11.935605"><ele>337.0</ele><time>2026-04-19T11:42:41.349Z</time></trkpt><trkpt lat="42.1414884" lon="11.9353706"><ele>339.0</ele><time>2026-04-19T11:42:42.331Z</time></trkpt><trkpt lat="42.1415113" lon="11.9351326"><ele>340.6666666666667</ele><time>2026-04-19T11:42:43.338Z</time></trkpt><trkpt lat="42.1415332" lon="11.9348949"><ele>342.33333333333337</ele><time>2026-04-19T11:42:44.332Z</time></trkpt><trkpt lat="42.1415531" lon="11.9346589"><ele>344.0</ele><time>2026-04-19T11:42:45.335Z</time></trkpt><trkpt lat="42.1415746" lon="11.9344361"><ele>341.0</ele><time>2026-04-19T11:42:46.334Z</time></trkpt><trkpt lat="42.1415965" lon="11.9342189"><ele>338.0</ele><time>2026-04-19T11:42:47.336Z</time></trkpt><trkpt lat="42.1416196" lon="11.9340093"><ele>335.0</ele><time>2026-04-19T11:42:48.332Z</time></trkpt><trkpt lat="42.1416441" lon="11.9337988"><ele>335.0</ele><time>2026-04-19T11:42:49.337Z</time></trkpt><trkpt lat="42.141664" lon="11.9335877"><ele>335.0</ele><time>2026-04-19T11:42:50.341Z</time></trkpt><trkpt lat="42.1416831" lon="11.9333761"><ele>335.0</ele><time>2026-04-19T11:42:51.331Z</time></trkpt><trkpt lat="42.141698" lon="11.9331593"><ele>336.33333333333337</ele><time>2026-04-19T11:42:52.331Z</time></trkpt><trkpt lat="42.1417111" lon="11.932935"><ele>337.6666666666667</ele><time>2026-04-19T11:42:53.338Z</time></trkpt><trkpt lat="42.1417139" lon="11.9327079"><ele>339.0</ele><time>2026-04-19T11:42:54.348Z</time></trkpt><trkpt lat="42.1417016" lon="11.9324785"><ele>339.3333333333333</ele><time>2026-04-19T11:42:55.352Z</time></trkpt><trkpt lat="42.141669" lon="11.9322507"><ele>339.66666666666663</ele><time>2026-04-19T11:42:56.337Z</time></trkpt><trkpt lat="42.1416252" lon="11.9320288"><ele>340.0</ele><time>2026-04-19T11:42:57.335Z</time></trkpt><trkpt lat="42.1415798" lon="11.9318235"><ele>345.0</ele><time>2026-04-19T11:42:58.338Z</time></trkpt><trkpt lat="42.1415383" lon="11.9316289"><ele>350.0</ele><time>2026-04-19T11:42:59.333Z</time></trkpt><trkpt lat="42.1415004" lon="11.9314426"><ele>355.0</ele><time>2026-04-19T11:43:00.33Z</time></trkpt><trkpt lat="42.1414653" lon="11.931262"><ele>360.0</ele><time>2026-04-19T11:43:01.341Z</time></trkpt><trkpt lat="42.1414467" lon="11.9310891"><ele>360.0</ele><time>2026-04-19T11:43:02.338Z</time></trkpt><trkpt lat="42.1414535" lon="11.9309193"><ele>360.0</ele><time>2026-04-19T11:43:03.34Z</time></trkpt><trkpt lat="42.1414805" lon="11.9307504"><ele>360.0</ele><time>2026-04-19T11:43:04.334Z</time></trkpt><trkpt lat="42.1415287" lon="11.9305795"><ele>360.0</ele><time>2026-04-19T11:43:05.328Z</time></trkpt><trkpt lat="42.1415938" lon="11.9304074"><ele>358.5</ele><time>2026-04-19T11:43:06.332Z</time></trkpt><trkpt lat="42.1416596" lon="11.9302381"><ele>357.0</ele><time>2026-04-19T11:43:07.332Z</time></trkpt><trkpt lat="42.1417132" lon="11.9300721"><ele>355.5</ele><time>2026-04-19T11:43:08.337Z</time></trkpt><trkpt lat="42.1417494" lon="11.9299099"><ele>354.0</ele><time>2026-04-19T11:43:09.335Z</time></trkpt><trkpt lat="42.1417636" lon="11.9297463"><ele>354.0</ele><time>2026-04-19T11:43:10.336Z</time></trkpt><trkpt lat="42.1417656" lon="11.9295749"><ele>354.0</ele><time>2026-04-19T11:43:11.332Z</time></trkpt><trkpt lat="42.1417614" lon="11.9293921"><ele>354.0</ele><time>2026-04-19T11:43:12.342Z</time></trkpt><trkpt lat="42.1417543" lon="11.9291971"><ele>354.0</ele><time>2026-04-19T11:43:13.335Z</time></trkpt><trkpt lat="42.14175" lon="11.9289917"><ele>354.0</ele><time>2026-04-19T11:43:14.349Z</time></trkpt><trkpt lat="42.1417467" lon="11.9287867"><ele>354.0</ele><time>2026-04-19T11:43:15.336Z</time></trkpt><trkpt lat="42.1417417" lon="11.9285783"><ele>354.0</ele><time>2026-04-19T11:43:16.342Z</time></trkpt><trkpt lat="42.1417417" lon="11.9283717"><ele>354.0</ele><time>2026-04-19T11:43:17.336Z</time></trkpt><trkpt lat="42.1417367" lon="11.9281667"><ele>354.0</ele><time>2026-04-19T11:43:18.336Z</time></trkpt><trkpt lat="42.1417317" lon="11.9279533"><ele>354.0</ele><time>2026-04-19T11:43:19.342Z</time></trkpt><trkpt lat="42.1417283" lon="11.9277267"><ele>354.6666666666667</ele><time>2026-04-19T11:43:20.33Z</time></trkpt><trkpt lat="42.1417217" lon="11.9274867"><ele>355.33333333333337</ele><time>2026-04-19T11:43:21.337Z</time></trkpt><trkpt lat="42.1417133" lon="11.9272383"><ele>356.0</ele><time>2026-04-19T11:43:22.337Z</time></trkpt><trkpt lat="42.141705" lon="11.9269967"><ele>356.0</ele><time>2026-04-19T11:43:23.353Z</time></trkpt><trkpt lat="42.1416967" lon="11.9267583"><ele>356.0</ele><time>2026-04-19T11:43:24.345Z</time></trkpt><trkpt lat="42.1416867" lon="11.926525"><ele>356.0</ele><time>2026-04-19T11:43:25.334Z</time></trkpt><trkpt lat="42.1416767" lon="11.9263083"><ele>356.0</ele><time>2026-04-19T11:43:26.342Z</time></trkpt><trkpt lat="42.1416683" lon="11.9261083"><ele>356.0</ele><time>2026-04-19T11:43:27.34Z</time></trkpt><trkpt lat="42.141685" lon="11.9259183"><ele>356.0</ele><time>2026-04-19T11:43:28.335Z</time></trkpt><trkpt lat="42.1417233" lon="11.9257283"><ele>356.0</ele><time>2026-04-19T11:43:29.344Z</time></trkpt><trkpt lat="42.1417767" lon="11.92554"><ele>356.33333333333337</ele><time>2026-04-19T11:43:30.331Z</time></trkpt><trkpt lat="42.1418417" lon="11.9253533"><ele>356.6666666666667</ele><time>2026-04-19T11:43:31.333Z</time></trkpt><trkpt lat="42.141915" lon="11.92517"><ele>357.0</ele><time>2026-04-19T11:43:32.334Z</time></trkpt><trkpt lat="42.142" lon="11.9249883"><ele>361.3333333333333</ele><time>2026-04-19T11:43:33.329Z</time></trkpt><trkpt lat="42.14209" lon="11.9248167"><ele>365.66666666666663</ele><time>2026-04-19T11:43:34.337Z</time></trkpt><trkpt lat="42.14219" lon="11.92465"><ele>370.0</ele><time>2026-04-19T11:43:35.329Z</time></trkpt><trkpt lat="42.14229" lon="11.9244933"><ele>368.5</ele><time>2026-04-19T11:43:36.335Z</time></trkpt><trkpt lat="42.142385" lon="11.9243433"><ele>367.0</ele><time>2026-04-19T11:43:37.342Z</time></trkpt><trkpt lat="42.1424583" lon="11.924195"><ele>365.5</ele><time>2026-04-19T11:43:38.335Z</time></trkpt><trkpt lat="42.1425117" lon="11.9240267"><ele>364.0</ele><time>2026-04-19T11:43:39.339Z</time></trkpt><trkpt lat="42.1425533" lon="11.9238533"><ele>364.0</ele><time>2026-04-19T11:43:40.34Z</time></trkpt><trkpt lat="42.142585" lon="11.92367"><ele>364.0</ele><time>2026-04-19T11:43:41.339Z</time></trkpt><trkpt lat="42.1426167" lon="11.923495"><ele>364.0</ele><time>2026-04-19T11:43:42.333Z</time></trkpt><trkpt lat="42.1426517" lon="11.9233433"><ele>364.0</ele><time>2026-04-19T11:43:43.329Z</time></trkpt><trkpt lat="42.142695" lon="11.9232167"><ele>364.4</ele><time>2026-04-19T11:43:44.33Z</time></trkpt><trkpt lat="42.1427633" lon="11.92312"><ele>364.79999999999995</ele><time>2026-04-19T11:43:45.332Z</time></trkpt><trkpt lat="42.142855" lon="11.923055"><ele>365.20000000000005</ele><time>2026-04-19T11:43:46.327Z</time></trkpt><trkpt lat="42.142975" lon="11.923035"><ele>365.6</ele><time>2026-04-19T11:43:47.331Z</time></trkpt><trkpt lat="42.1430983" lon="11.923035"><ele>366.0</ele><time>2026-04-19T11:43:48.331Z</time></trkpt><trkpt lat="42.1432217" lon="11.92305"><ele>366.0</ele><time>2026-04-19T11:43:49.322Z</time></trkpt><trkpt lat="42.1433333" lon="11.9230717"><ele>366.0</ele><time>2026-04-19T11:43:50.327Z</time></trkpt><trkpt lat="42.143435" lon="11.923115"><ele>366.0</ele><time>2026-04-19T11:43:51.324Z</time></trkpt><trkpt lat="42.1435167" lon="11.9231867"><ele>366.0</ele><time>2026-04-19T11:43:52.328Z</time></trkpt><trkpt lat="42.1435767" lon="11.9232817"><ele>366.0</ele><time>2026-04-19T11:43:53.331Z</time></trkpt><trkpt lat="42.143615" lon="11.9234067"><ele>365.5</ele><time>2026-04-19T11:43:54.329Z</time></trkpt><trkpt lat="42.1436383" lon="11.9235667"><ele>365.0</ele><time>2026-04-19T11:43:55.335Z</time></trkpt><trkpt lat="42.143655" lon="11.9237383"><ele>364.5</ele><time>2026-04-19T11:43:56.331Z</time></trkpt><trkpt lat="42.1436683" lon="11.9239117"><ele>364.0</ele><time>2026-04-19T11:43:57.337Z</time></trkpt><trkpt lat="42.1436833" lon="11.9240783"><ele>363.5</ele><time>2026-04-19T11:43:58.332Z</time></trkpt><trkpt lat="42.1436967" lon="11.9242517"><ele>363.0</ele><time>2026-04-19T11:43:59.334Z</time></trkpt><trkpt lat="42.1437067" lon="11.9244233"><ele>362.5</ele><time>2026-04-19T11:44:00.332Z</time></trkpt><trkpt lat="42.14372" lon="11.9245933"><ele>362.0</ele><time>2026-04-19T11:44:01.333Z</time></trkpt><trkpt lat="42.1437433" lon="11.9247533"><ele>362.0</ele><time>2026-04-19T11:44:02.334Z</time></trkpt><trkpt lat="42.1437817" lon="11.924905"><ele>362.0</ele><time>2026-04-19T11:44:03.335Z</time></trkpt><trkpt lat="42.14383" lon="11.9250383"><ele>362.0</ele><time>2026-04-19T11:44:04.334Z</time></trkpt><trkpt lat="42.143895" lon="11.9251483"><ele>362.0</ele><time>2026-04-19T11:44:05.331Z</time></trkpt><trkpt lat="42.1439767" lon="11.92524"><ele>362.0</ele><time>2026-04-19T11:44:06.332Z</time></trkpt><trkpt lat="42.1440767" lon="11.9253233"><ele>366.25</ele><time>2026-04-19T11:44:07.333Z</time></trkpt><trkpt lat="42.14419" lon="11.9254"><ele>370.5</ele><time>2026-04-19T11:44:08.334Z</time></trkpt><trkpt lat="42.1443133" lon="11.9254717"><ele>374.75</ele><time>2026-04-19T11:44:09.331Z</time></trkpt><trkpt lat="42.1444217" lon="11.9255533"><ele>379.0</ele><time>2026-04-19T11:44:10.335Z</time></trkpt><trkpt lat="42.1445083" lon="11.92564"><ele>379.0</ele><time>2026-04-19T11:44:11.331Z</time></trkpt><trkpt lat="42.1445617" lon="11.925745"><ele>379.0</ele><time>2026-04-19T11:44:12.337Z</time></trkpt><trkpt lat="42.1445817" lon="11.9258733"><ele>379.0</ele><time>2026-04-19T11:44:13.332Z</time></trkpt><trkpt lat="42.1445617" lon="11.9260083"><ele>379.0</ele><time>2026-04-19T11:44:14.331Z</time></trkpt><trkpt lat="42.1445183" lon="11.9261407"><ele>379.0</ele><time>2026-04-19T11:44:15.343Z</time></trkpt><trkpt lat="42.1444452" lon="11.9262576"><ele>381.25</ele><time>2026-04-19T11:44:16.334Z</time></trkpt><trkpt lat="42.1443556" lon="11.9263608"><ele>383.5</ele><time>2026-04-19T11:44:17.339Z</time></trkpt><trkpt lat="42.1442628" lon="11.9264586"><ele>385.75</ele><time>2026-04-19T11:44:18.335Z</time></trkpt><trkpt lat="42.1441721" lon="11.9265621"><ele>388.0</ele><time>2026-04-19T11:44:19.341Z</time></trkpt><trkpt lat="42.1440908" lon="11.926675"><ele>384.79999999999995</ele><time>2026-04-19T11:44:20.345Z</time></trkpt><trkpt lat="42.1440239" lon="11.9268014"><ele>381.6</ele><time>2026-04-19T11:44:21.335Z</time></trkpt><trkpt lat="42.1439778" lon="11.9269366"><ele>378.4</ele><time>2026-04-19T11:44:22.337Z</time></trkpt><trkpt lat="42.1439602" lon="11.9270743"><ele>375.20000000000005</ele><time>2026-04-19T11:44:23.336Z</time></trkpt><trkpt lat="42.1439695" lon="11.9272145"><ele>372.0</ele><time>2026-04-19T11:44:24.333Z</time></trkpt><trkpt lat="42.1440107" lon="11.9273508"><ele>375.25</ele><time>2026-04-19T11:44:25.337Z</time></trkpt><trkpt lat="42.1440778" lon="11.9274778"><ele>378.5</ele><time>2026-04-19T11:44:26.337Z</time></trkpt><trkpt lat="42.1441617" lon="11.9275913"><ele>381.75</ele><time>2026-04-19T11:44:27.334Z</time></trkpt><trkpt lat="42.1442546" lon="11.9276776"><ele>385.0</ele><time>2026-04-19T11:44:28.332Z</time></trkpt><trkpt lat="42.1443587" lon="11.9277241"><ele>385.0</ele><time>2026-04-19T11:44:29.343Z</time></trkpt><trkpt lat="42.144471" lon="11.9277454"><ele>385.0</ele><time>2026-04-19T11:44:30.337Z</time></trkpt><trkpt lat="42.1445887" lon="11.9277534"><ele>385.0</ele><time>2026-04-19T11:44:31.338Z</time></trkpt><trkpt lat="42.1447117" lon="11.9277421"><ele>385.0</ele><time>2026-04-19T11:44:32.336Z</time></trkpt><trkpt lat="42.1448439" lon="11.9277001"><ele>386.25</ele><time>2026-04-19T11:44:33.33Z</time></trkpt><trkpt lat="42.144983" lon="11.9276289"><ele>387.5</ele><time>2026-04-19T11:44:34.332Z</time></trkpt><trkpt lat="42.1451177" lon="11.9275473"><ele>388.75</ele><time>2026-04-19T11:44:35.33Z</time></trkpt><trkpt lat="42.1452368" lon="11.9274567"><ele>390.0</ele><time>2026-04-19T11:44:36.338Z</time></trkpt><trkpt lat="42.1453425" lon="11.9273473"><ele>393.5</ele><time>2026-04-19T11:44:37.334Z</time></trkpt><trkpt lat="42.1454414" lon="11.9272246"><ele>397.0</ele><time>2026-04-19T11:44:38.34Z</time></trkpt><trkpt lat="42.1455384" lon="11.9271108"><ele>400.5</ele><time>2026-04-19T11:44:39.333Z</time></trkpt><trkpt lat="42.1456438" lon="11.9270096"><ele>404.0</ele><time>2026-04-19T11:44:40.333Z</time></trkpt><trkpt lat="42.1457596" lon="11.926935"><ele>405.25</ele><time>2026-04-19T11:44:41.342Z</time></trkpt><trkpt lat="42.1458841" lon="11.9268947"><ele>406.5</ele><time>2026-04-19T11:44:42.336Z</time></trkpt><trkpt lat="42.1460145" lon="11.9268967"><ele>407.75</ele><time>2026-04-19T11:44:43.331Z</time></trkpt><trkpt lat="42.1461483" lon="11.9269533"><ele>409.0</ele><time>2026-04-19T11:44:44.339Z</time></trkpt><trkpt lat="42.1462817" lon="11.92703"><ele>409.0</ele><time>2026-04-19T11:44:45.333Z</time></trkpt><trkpt lat="42.146415" lon="11.9271417"><ele>409.0</ele><time>2026-04-19T11:44:46.349Z</time></trkpt><trkpt lat="42.1465517" lon="11.92727"><ele>409.0</ele><time>2026-04-19T11:44:47.334Z</time></trkpt><trkpt lat="42.1466867" lon="11.9274017"><ele>410.5</ele><time>2026-04-19T11:44:48.34Z</time></trkpt><trkpt lat="42.146815" lon="11.927525"><ele>412.0</ele><time>2026-04-19T11:44:49.342Z</time></trkpt><trkpt lat="42.1469317" lon="11.92764"><ele>413.5</ele><time>2026-04-19T11:44:50.34Z</time></trkpt><trkpt lat="42.1470317" lon="11.927765"><ele>415.0</ele><time>2026-04-19T11:44:51.333Z</time></trkpt><trkpt lat="42.147115" lon="11.9279133"><ele>415.0</ele><time>2026-04-19T11:44:52.332Z</time></trkpt><trkpt lat="42.14718" lon="11.928095"><ele>415.0</ele><time>2026-04-19T11:44:53.339Z</time></trkpt><trkpt lat="42.1472333" lon="11.9282983"><ele>415.0</ele><time>2026-04-19T11:44:54.347Z</time></trkpt><trkpt lat="42.1472783" lon="11.9285167"><ele>413.6666666666667</ele><time>2026-04-19T11:44:55.334Z</time></trkpt><trkpt lat="42.1473217" lon="11.9287383"><ele>412.33333333333337</ele><time>2026-04-19T11:44:56.335Z</time></trkpt><trkpt lat="42.1473633" lon="11.9289483"><ele>411.0</ele><time>2026-04-19T11:44:57.331Z</time></trkpt><trkpt lat="42.1474083" lon="11.9291383"><ele>415.25</ele><time>2026-04-19T11:44:58.333Z</time></trkpt><trkpt lat="42.1474617" lon="11.9293067"><ele>419.5</ele><time>2026-04-19T11:44:59.337Z</time></trkpt><trkpt lat="42.1475367" lon="11.92947"><ele>423.75</ele><time>2026-04-19T11:45:00.339Z</time></trkpt><trkpt lat="42.14763" lon="11.92963"><ele>428.0</ele><time>2026-04-19T11:45:01.334Z</time></trkpt><trkpt lat="42.1477333" lon="11.929795"><ele>428.0</ele><time>2026-04-19T11:45:02.328Z</time></trkpt><trkpt lat="42.147835" lon="11.92997"><ele>428.0</ele><time>2026-04-19T11:45:03.332Z</time></trkpt><trkpt lat="42.147925" lon="11.9301317"><ele>428.0</ele><time>2026-04-19T11:45:04.332Z</time></trkpt><trkpt lat="42.1480117" lon="11.9302917"><ele>429.0</ele><time>2026-04-19T11:45:05.332Z</time></trkpt><trkpt lat="42.14809" lon="11.9304417"><ele>430.0</ele><time>2026-04-19T11:45:06.333Z</time></trkpt><trkpt lat="42.14816" lon="11.9305767"><ele>431.0</ele><time>2026-04-19T11:45:07.336Z</time></trkpt><trkpt lat="42.14821" lon="11.930705"><ele>432.0</ele><time>2026-04-19T11:45:08.334Z</time></trkpt><trkpt lat="42.1482267" lon="11.9308367"><ele>431.75</ele><time>2026-04-19T11:45:09.344Z</time></trkpt><trkpt lat="42.14821" lon="11.9309733"><ele>431.5</ele><time>2026-04-19T11:45:10.335Z</time></trkpt><trkpt lat="42.14817" lon="11.9311117"><ele>431.25</ele><time>2026-04-19T11:45:11.338Z</time></trkpt><trkpt lat="42.1481267" lon="11.9312667"><ele>431.0</ele><time>2026-04-19T11:45:12.334Z</time></trkpt><trkpt lat="42.148095" lon="11.9314283"><ele>431.0</ele><time>2026-04-19T11:45:13.337Z</time></trkpt><trkpt lat="42.1480817" lon="11.9315967"><ele>431.0</ele><time>2026-04-19T11:45:14.347Z</time></trkpt><trkpt lat="42.1480867" lon="11.9317733"><ele>431.0</ele><time>2026-04-19T11:45:15.332Z</time></trkpt><trkpt lat="42.1481" lon="11.9319533"><ele>431.0</ele><time>2026-04-19T11:45:16.337Z</time></trkpt><trkpt lat="42.1481167" lon="11.932135"><ele>429.5</ele><time>2026-04-19T11:45:17.334Z</time></trkpt><trkpt lat="42.14815" lon="11.9323117"><ele>428.0</ele><time>2026-04-19T11:45:18.344Z</time></trkpt><trkpt lat="42.1482033" lon="11.9324817"><ele>426.5</ele><time>2026-04-19T11:45:19.334Z</time></trkpt><trkpt lat="42.1482717" lon="11.932645"><ele>425.0</ele><time>2026-04-19T11:45:20.342Z</time></trkpt><trkpt lat="42.1483617" lon="11.932795"><ele>430.66666666666663</ele><time>2026-04-19T11:45:21.33Z</time></trkpt><trkpt lat="42.1484617" lon="11.932945"><ele>436.33333333333337</ele><time>2026-04-19T11:45:22.336Z</time></trkpt><trkpt lat="42.1485717" lon="11.933095"><ele>442.0</ele><time>2026-04-19T11:45:23.333Z</time></trkpt><trkpt lat="42.1486817" lon="11.9332433"><ele>442.0</ele><time>2026-04-19T11:45:24.336Z</time></trkpt><trkpt lat="42.1487867" lon="11.933385"><ele>442.0</ele><time>2026-04-19T11:45:25.333Z</time></trkpt><trkpt lat="42.148885" lon="11.9335133"><ele>442.0</ele><time>2026-04-19T11:45:26.338Z</time></trkpt><trkpt lat="42.1489783" lon="11.9336317"><ele>442.0</ele><time>2026-04-19T11:45:27.333Z</time></trkpt><trkpt lat="42.14906" lon="11.9337483"><ele>446.6</ele><time>2026-04-19T11:45:28.335Z</time></trkpt><trkpt lat="42.1491267" lon="11.9338717"><ele>451.20000000000005</ele><time>2026-04-19T11:45:29.336Z</time></trkpt><trkpt lat="42.1491733" lon="11.934005"><ele>455.8</ele><time>2026-04-19T11:45:30.338Z</time></trkpt><trkpt lat="42.1492033" lon="11.9341467"><ele>460.4</ele><time>2026-04-19T11:45:31.336Z</time></trkpt><trkpt lat="42.1492217" lon="11.9342933"><ele>465.0</ele><time>2026-04-19T11:45:32.331Z</time></trkpt><trkpt lat="42.14924" lon="11.9344367"><ele>465.0</ele><time>2026-04-19T11:45:33.339Z</time></trkpt><trkpt lat="42.14927" lon="11.9345683"><ele>465.0</ele><time>2026-04-19T11:45:34.339Z</time></trkpt><trkpt lat="42.1493133" lon="11.9346883"><ele>465.0</ele><time>2026-04-19T11:45:35.33Z</time></trkpt><trkpt lat="42.1493633" lon="11.9347983"><ele>465.0</ele><time>2026-04-19T11:45:36.335Z</time></trkpt><trkpt lat="42.149415" lon="11.9349067"><ele>465.0</ele><time>2026-04-19T11:45:37.333Z</time></trkpt><trkpt lat="42.149465" lon="11.935005"><ele>465.6666666666667</ele><time>2026-04-19T11:45:38.33Z</time></trkpt><trkpt lat="42.1495017" lon="11.9351033"><ele>466.33333333333337</ele><time>2026-04-19T11:45:39.337Z</time></trkpt><trkpt lat="42.149535" lon="11.9352017"><ele>467.0</ele><time>2026-04-19T11:45:40.331Z</time></trkpt><trkpt lat="42.1495533" lon="11.9353067"><ele>467.6666666666667</ele><time>2026-04-19T11:45:41.334Z</time></trkpt><trkpt lat="42.1495617" lon="11.93541"><ele>468.33333333333337</ele><time>2026-04-19T11:45:42.337Z</time></trkpt><trkpt lat="42.149565" lon="11.9355233"><ele>469.0</ele><time>2026-04-19T11:45:43.335Z</time></trkpt><trkpt lat="42.1495683" lon="11.9356517"><ele>469.0</ele><time>2026-04-19T11:45:44.337Z</time></trkpt><trkpt lat="42.1495667" lon="11.9357883"><ele>469.0</ele><time>2026-04-19T11:45:45.33Z</time></trkpt><trkpt lat="42.1495583" lon="11.9359183"><ele>469.0</ele><time>2026-04-19T11:45:46.339Z</time></trkpt><trkpt lat="42.149555" lon="11.9360383"><ele>469.0</ele><time>2026-04-19T11:45:47.328Z</time></trkpt><trkpt lat="42.149555" lon="11.9361617"><ele>469.0</ele><time>2026-04-19T11:45:48.334Z</time></trkpt><trkpt lat="42.149555" lon="11.936285"><ele>470.0</ele><time>2026-04-19T11:45:49.342Z</time></trkpt><trkpt lat="42.1495517" lon="11.9364033"><ele>471.0</ele><time>2026-04-19T11:45:50.332Z</time></trkpt><trkpt lat="42.1495483" lon="11.936525"><ele>472.0</ele><time>2026-04-19T11:45:51.339Z</time></trkpt><trkpt lat="42.1495467" lon="11.9366483"><ele>473.0</ele><time>2026-04-19T11:45:52.332Z</time></trkpt><trkpt lat="42.149545" lon="11.9367867"><ele>474.0</ele><time>2026-04-19T11:45:53.338Z</time></trkpt><trkpt lat="42.1495433" lon="11.936915"><ele>473.8333333333333</ele><time>2026-04-19T11:45:54.337Z</time></trkpt><trkpt lat="42.14954" lon="11.9370267"><ele>473.66666666666663</ele><time>2026-04-19T11:45:55.336Z</time></trkpt><trkpt lat="42.1495367" lon="11.9371317"><ele>473.5</ele><time>2026-04-19T11:45:56.333Z</time></trkpt><trkpt lat="42.1495383" lon="11.9372367"><ele>473.3333333333333</ele><time>2026-04-19T11:45:57.339Z</time></trkpt><trkpt lat="42.1495467" lon="11.9373467"><ele>473.16666666666663</ele><time>2026-04-19T11:45:58.338Z</time></trkpt><trkpt lat="42.1495633" lon="11.9374583"><ele>473.0</ele><time>2026-04-19T11:45:59.338Z</time></trkpt><trkpt lat="42.1495817" lon="11.9375617"><ele>473.0</ele><time>2026-04-19T11:46:00.339Z</time></trkpt><trkpt lat="42.1495967" lon="11.9376483"><ele>472.99999999999994</ele><time>2026-04-19T11:46:01.334Z</time></trkpt><trkpt lat="42.1496167" lon="11.9377917"><ele>472.99999999999994</ele><time>2026-04-19T11:46:03.344Z</time></trkpt><trkpt lat="42.14964" lon="11.93794"><ele>473.0</ele><time>2026-04-19T11:46:05.334Z</time></trkpt><trkpt lat="42.149695" lon="11.93808"><ele>473.0</ele><time>2026-04-19T11:46:07.338Z</time></trkpt><trkpt lat="42.1497583" lon="11.9381833"><ele>472.99999999999994</ele><time>2026-04-19T11:46:09.337Z</time></trkpt><trkpt lat="42.1498383" lon="11.938285"><ele>473.0</ele><time>2026-04-19T11:46:11.333Z</time></trkpt><trkpt lat="42.1498883" lon="11.9383383"><ele>473.0</ele><time>2026-04-19T11:46:12.333Z</time></trkpt><trkpt lat="42.1499767" lon="11.9384217"><ele>473.0</ele><time>2026-04-19T11:46:14.339Z</time></trkpt><trkpt lat="42.1500667" lon="11.9384317"><ele>472.99999999999994</ele><time>2026-04-19T11:46:17.348Z</time></trkpt><trkpt lat="42.1501117" lon="11.93837"><ele>473.0</ele><time>2026-04-19T11:46:19.346Z</time></trkpt><trkpt lat="42.1501433" lon="11.9382217"><ele>475.2</ele><time>2026-04-19T11:46:21.339Z</time></trkpt><trkpt lat="42.1501533" lon="11.9381167"><ele>477.4</ele><time>2026-04-19T11:46:22.328Z</time></trkpt><trkpt lat="42.1501583" lon="11.937995"><ele>479.59999999999997</ele><time>2026-04-19T11:46:23.335Z</time></trkpt><trkpt lat="42.1501567" lon="11.9378567"><ele>481.79999999999995</ele><time>2026-04-19T11:46:24.335Z</time></trkpt><trkpt lat="42.150155" lon="11.9377167"><ele>484.0</ele><time>2026-04-19T11:46:25.342Z</time></trkpt><trkpt lat="42.1501567" lon="11.9375733"><ele>484.4</ele><time>2026-04-19T11:46:26.329Z</time></trkpt><trkpt lat="42.1501583" lon="11.937425"><ele>484.79999999999995</ele><time>2026-04-19T11:46:27.333Z</time></trkpt><trkpt lat="42.1501583" lon="11.93727"><ele>485.20000000000005</ele><time>2026-04-19T11:46:28.337Z</time></trkpt><trkpt lat="42.1501617" lon="11.93712"><ele>485.6</ele><time>2026-04-19T11:46:29.335Z</time></trkpt><trkpt lat="42.150165" lon="11.9369717"><ele>486.0</ele><time>2026-04-19T11:46:30.334Z</time></trkpt><trkpt lat="42.15017" lon="11.9368183"><ele>485.75</ele><time>2026-04-19T11:46:31.341Z</time></trkpt><trkpt lat="42.1501717" lon="11.9366483"><ele>485.5</ele><time>2026-04-19T11:46:32.338Z</time></trkpt><trkpt lat="42.15017" lon="11.9364667"><ele>485.25</ele><time>2026-04-19T11:46:33.353Z</time></trkpt><trkpt lat="42.1501783" lon="11.93628"><ele>485.0</ele><time>2026-04-19T11:46:34.339Z</time></trkpt><trkpt lat="42.1501817" lon="11.93608"><ele>485.25</ele><time>2026-04-19T11:46:35.345Z</time></trkpt><trkpt lat="42.150185" lon="11.935885"><ele>485.5</ele><time>2026-04-19T11:46:36.343Z</time></trkpt><trkpt lat="42.1501833" lon="11.9356867"><ele>485.75</ele><time>2026-04-19T11:46:37.338Z</time></trkpt><trkpt lat="42.1501717" lon="11.9354817"><ele>486.0</ele><time>2026-04-19T11:46:38.349Z</time></trkpt><trkpt lat="42.1501633" lon="11.935285"><ele>486.0</ele><time>2026-04-19T11:46:39.353Z</time></trkpt><trkpt lat="42.150165" lon="11.9351"><ele>486.0</ele><time>2026-04-19T11:46:40.333Z</time></trkpt><trkpt lat="42.1501567" lon="11.9349017"><ele>486.0</ele><time>2026-04-19T11:46:41.358Z</time></trkpt><trkpt lat="42.1501467" lon="11.9347167"><ele>486.0</ele><time>2026-04-19T11:46:42.355Z</time></trkpt><trkpt lat="42.1501233" lon="11.934535"><ele>486.25</ele><time>2026-04-19T11:46:43.345Z</time></trkpt><trkpt lat="42.1500867" lon="11.9343533"><ele>486.5</ele><time>2026-04-19T11:46:44.336Z</time></trkpt><trkpt lat="42.150025" lon="11.9341783"><ele>486.75</ele><time>2026-04-19T11:46:45.34Z</time></trkpt><trkpt lat="42.149945" lon="11.934005"><ele>487.0</ele><time>2026-04-19T11:46:46.339Z</time></trkpt><trkpt lat="42.1498533" lon="11.93383"><ele>484.6666666666667</ele><time>2026-04-19T11:46:47.346Z</time></trkpt><trkpt lat="42.149765" lon="11.9336633"><ele>482.33333333333337</ele><time>2026-04-19T11:46:48.346Z</time></trkpt><trkpt lat="42.149675" lon="11.9334983"><ele>480.0</ele><time>2026-04-19T11:46:49.342Z</time></trkpt><trkpt lat="42.1495917" lon="11.9333367"><ele>480.0</ele><time>2026-04-19T11:46:50.341Z</time></trkpt><trkpt lat="42.149515" lon="11.93317"><ele>480.0</ele><time>2026-04-19T11:46:51.335Z</time></trkpt><trkpt lat="42.1494517" lon="11.9329983"><ele>480.0</ele><time>2026-04-19T11:46:52.348Z</time></trkpt><trkpt lat="42.1494033" lon="11.9328183"><ele>480.0</ele><time>2026-04-19T11:46:53.375Z</time></trkpt><trkpt lat="42.1493717" lon="11.9326317"><ele>483.5</ele><time>2026-04-19T11:46:54.339Z</time></trkpt><trkpt lat="42.1493533" lon="11.9324383"><ele>487.0</ele><time>2026-04-19T11:46:55.342Z</time></trkpt><trkpt lat="42.1493483" lon="11.93225"><ele>490.5</ele><time>2026-04-19T11:46:56.366Z</time></trkpt><trkpt lat="42.149355" lon="11.9320617"><ele>494.0</ele><time>2026-04-19T11:46:57.353Z</time></trkpt><trkpt lat="42.1493783" lon="11.931875"><ele>494.66666666666663</ele><time>2026-04-19T11:46:58.345Z</time></trkpt><trkpt lat="42.1494233" lon="11.9316867"><ele>495.33333333333337</ele><time>2026-04-19T11:46:59.341Z</time></trkpt><trkpt lat="42.1494867" lon="11.931495"><ele>496.0</ele><time>2026-04-19T11:47:00.334Z</time></trkpt><trkpt lat="42.1495517" lon="11.931305"><ele>496.0</ele><time>2026-04-19T11:47:01.345Z</time></trkpt><trkpt lat="42.1496217" lon="11.9311283"><ele>496.0</ele><time>2026-04-19T11:47:02.341Z</time></trkpt><trkpt lat="42.1496883" lon="11.9309483"><ele>496.0</ele><time>2026-04-19T11:47:03.339Z</time></trkpt><trkpt lat="42.1497483" lon="11.9307633"><ele>496.0</ele><time>2026-04-19T11:47:04.34Z</time></trkpt><trkpt lat="42.1498083" lon="11.93058"><ele>493.6666666666667</ele><time>2026-04-19T11:47:05.335Z</time></trkpt><trkpt lat="42.1498667" lon="11.930395"><ele>491.33333333333337</ele><time>2026-04-19T11:47:06.334Z</time></trkpt><trkpt lat="42.1499217" lon="11.930205"><ele>489.0</ele><time>2026-04-19T11:47:07.335Z</time></trkpt><trkpt lat="42.149975" lon="11.930015"><ele>493.5</ele><time>2026-04-19T11:47:08.338Z</time></trkpt><trkpt lat="42.1500283" lon="11.929835"><ele>498.0</ele><time>2026-04-19T11:47:09.335Z</time></trkpt><trkpt lat="42.1500817" lon="11.9296783"><ele>502.5</ele><time>2026-04-19T11:47:10.347Z</time></trkpt><trkpt lat="42.1501383" lon="11.929545"><ele>507.0</ele><time>2026-04-19T11:47:11.333Z</time></trkpt><trkpt lat="42.1501983" lon="11.9294383"><ele>507.0</ele><time>2026-04-19T11:47:12.341Z</time></trkpt><trkpt lat="42.150255" lon="11.9293617"><ele>507.0</ele><time>2026-04-19T11:47:13.344Z</time></trkpt><trkpt lat="42.1503067" lon="11.9292917"><ele>507.0</ele><time>2026-04-19T11:47:14.34Z</time></trkpt><trkpt lat="42.1503533" lon="11.9292167"><ele>507.0</ele><time>2026-04-19T11:47:15.346Z</time></trkpt><trkpt lat="42.1503958" lon="11.9291229"><ele>507.0</ele><time>2026-04-19T11:47:16.334Z</time></trkpt><trkpt lat="42.1504287" lon="11.9290061"><ele>507.0</ele><time>2026-04-19T11:47:17.363Z</time></trkpt><trkpt lat="42.1504487" lon="11.9288817"><ele>507.8</ele><time>2026-04-19T11:47:18.335Z</time></trkpt><trkpt lat="42.1504732" lon="11.9287532"><ele>508.6</ele><time>2026-04-19T11:47:19.335Z</time></trkpt><trkpt lat="42.1504993" lon="11.9286213"><ele>509.40000000000003</ele><time>2026-04-19T11:47:20.338Z</time></trkpt><trkpt lat="42.1505295" lon="11.928488"><ele>510.20000000000005</ele><time>2026-04-19T11:47:21.336Z</time></trkpt><trkpt lat="42.15056" lon="11.9283488"><ele>511.0</ele><time>2026-04-19T11:47:22.339Z</time></trkpt><trkpt lat="42.150586" lon="11.9282065"><ele>512.0</ele><time>2026-04-19T11:47:23.365Z</time></trkpt><trkpt lat="42.1506118" lon="11.9280634"><ele>513.0</ele><time>2026-04-19T11:47:24.355Z</time></trkpt><trkpt lat="42.1506398" lon="11.9279105"><ele>514.0</ele><time>2026-04-19T11:47:25.328Z</time></trkpt><trkpt lat="42.1506655" lon="11.9277495"><ele>515.0</ele><time>2026-04-19T11:47:26.35Z</time></trkpt><trkpt lat="42.1506824" lon="11.9275845"><ele>516.25</ele><time>2026-04-19T11:47:27.351Z</time></trkpt><trkpt lat="42.1506981" lon="11.9274099"><ele>517.5</ele><time>2026-04-19T11:47:28.338Z</time></trkpt><trkpt lat="42.1507145" lon="11.9272317"><ele>518.75</ele><time>2026-04-19T11:47:29.344Z</time></trkpt><trkpt lat="42.150733" lon="11.9270426"><ele>520.0</ele><time>2026-04-19T11:47:30.355Z</time></trkpt><trkpt lat="42.1507541" lon="11.9268538"><ele>523.0</ele><time>2026-04-19T11:47:31.338Z</time></trkpt><trkpt lat="42.1507747" lon="11.9266651"><ele>526.0</ele><time>2026-04-19T11:47:32.355Z</time></trkpt><trkpt lat="42.1507913" lon="11.9264809"><ele>529.0</ele><time>2026-04-19T11:47:33.349Z</time></trkpt><trkpt lat="42.1508097" lon="11.926295"><ele>532.0</ele><time>2026-04-19T11:47:34.357Z</time></trkpt><trkpt lat="42.1508294" lon="11.9261084"><ele>532.0</ele><time>2026-04-19T11:47:35.342Z</time></trkpt><trkpt lat="42.1508568" lon="11.9259185"><ele>532.0</ele><time>2026-04-19T11:47:36.346Z</time></trkpt><trkpt lat="42.1508888" lon="11.9257344"><ele>532.0</ele><time>2026-04-19T11:47:37.335Z</time></trkpt><trkpt lat="42.1509199" lon="11.9255444"><ele>532.0</ele><time>2026-04-19T11:47:38.336Z</time></trkpt><trkpt lat="42.1509516" lon="11.925355"><ele>532.5</ele><time>2026-04-19T11:47:39.329Z</time></trkpt><trkpt lat="42.1509791" lon="11.9251674"><ele>533.0</ele><time>2026-04-19T11:47:40.331Z</time></trkpt><trkpt lat="42.1510142" lon="11.924993"><ele>533.5</ele><time>2026-04-19T11:47:41.337Z</time></trkpt><trkpt lat="42.151078" lon="11.9248403"><ele>534.0</ele><time>2026-04-19T11:47:42.33Z</time></trkpt><trkpt lat="42.1511599" lon="11.9246963"><ele>535.25</ele><time>2026-04-19T11:47:43.332Z</time></trkpt><trkpt lat="42.1512623" lon="11.9245666"><ele>536.5</ele><time>2026-04-19T11:47:44.331Z</time></trkpt><trkpt lat="42.15137" lon="11.9244483"><ele>537.75</ele><time>2026-04-19T11:47:45.339Z</time></trkpt><trkpt lat="42.151455" lon="11.9243333"><ele>539.0</ele><time>2026-04-19T11:47:46.33Z</time></trkpt><trkpt lat="42.1515267" lon="11.92422"><ele>536.5</ele><time>2026-04-19T11:47:47.335Z</time></trkpt><trkpt lat="42.1515833" lon="11.924095"><ele>534.0</ele><time>2026-04-19T11:47:48.339Z</time></trkpt><trkpt lat="42.15161" lon="11.923935"><ele>531.5</ele><time>2026-04-19T11:47:49.331Z</time></trkpt><trkpt lat="42.1516167" lon="11.9237467"><ele>529.0</ele><time>2026-04-19T11:47:50.335Z</time></trkpt><trkpt lat="42.1516083" lon="11.9235417"><ele>529.3333333333334</ele><time>2026-04-19T11:47:51.33Z</time></trkpt><trkpt lat="42.1515967" lon="11.92333"><ele>529.6666666666666</ele><time>2026-04-19T11:47:52.334Z</time></trkpt><trkpt lat="42.1515883" lon="11.923125"><ele>530.0</ele><time>2026-04-19T11:47:53.337Z</time></trkpt><trkpt lat="42.1515833" lon="11.9229317"><ele>530.0</ele><time>2026-04-19T11:47:54.341Z</time></trkpt><trkpt lat="42.1515767" lon="11.922745"><ele>530.0</ele><time>2026-04-19T11:47:55.336Z</time></trkpt><trkpt lat="42.1515633" lon="11.9225633"><ele>530.0</ele><time>2026-04-19T11:47:56.332Z</time></trkpt><trkpt lat="42.1515467" lon="11.9223917"><ele>530.0</ele><time>2026-04-19T11:47:57.337Z</time></trkpt><trkpt lat="42.151525" lon="11.9222383"><ele>529.0</ele><time>2026-04-19T11:47:58.339Z</time></trkpt><trkpt lat="42.1514867" lon="11.9220983"><ele>528.0</ele><time>2026-04-19T11:47:59.343Z</time></trkpt><trkpt lat="42.1514283" lon="11.921965"><ele>527.0</ele><time>2026-04-19T11:48:00.338Z</time></trkpt><trkpt lat="42.151355" lon="11.9218233"><ele>526.0</ele><time>2026-04-19T11:48:01.336Z</time></trkpt><trkpt lat="42.15127" lon="11.9216767"><ele>524.75</ele><time>2026-04-19T11:48:02.34Z</time></trkpt><trkpt lat="42.15118" lon="11.9215283"><ele>523.5</ele><time>2026-04-19T11:48:03.337Z</time></trkpt><trkpt lat="42.1510917" lon="11.9213817"><ele>522.25</ele><time>2026-04-19T11:48:04.334Z</time></trkpt><trkpt lat="42.151005" lon="11.92124"><ele>521.0</ele><time>2026-04-19T11:48:05.336Z</time></trkpt><trkpt lat="42.1509117" lon="11.9210967"><ele>521.0</ele><time>2026-04-19T11:48:06.335Z</time></trkpt><trkpt lat="42.1508217" lon="11.9209533"><ele>521.0</ele><time>2026-04-19T11:48:07.332Z</time></trkpt><trkpt lat="42.150735" lon="11.9208033"><ele>521.0</ele><time>2026-04-19T11:48:08.343Z</time></trkpt><trkpt lat="42.1506483" lon="11.920645"><ele>521.0</ele><time>2026-04-19T11:48:09.33Z</time></trkpt><trkpt lat="42.1505633" lon="11.9204817"><ele>519.5</ele><time>2026-04-19T11:48:10.337Z</time></trkpt><trkpt lat="42.1504883" lon="11.9203283"><ele>518.0</ele><time>2026-04-19T11:48:11.338Z</time></trkpt><trkpt lat="42.1503967" lon="11.9201667"><ele>516.5</ele><time>2026-04-19T11:48:12.337Z</time></trkpt><trkpt lat="42.150325" lon="11.9200183"><ele>515.0</ele><time>2026-04-19T11:48:13.338Z</time></trkpt><trkpt lat="42.150235" lon="11.9198583"><ele>515.0</ele><time>2026-04-19T11:48:14.346Z</time></trkpt><trkpt lat="42.1501533" lon="11.9196983"><ele>515.0</ele><time>2026-04-19T11:48:15.374Z</time></trkpt><trkpt lat="42.1500617" lon="11.9195383"><ele>515.0</ele><time>2026-04-19T11:48:16.343Z</time></trkpt><trkpt lat="42.1499683" lon="11.919385"><ele>515.0</ele><time>2026-04-19T11:48:17.342Z</time></trkpt><trkpt lat="42.1498867" lon="11.919235"><ele>515.75</ele><time>2026-04-19T11:48:18.334Z</time></trkpt><trkpt lat="42.1498067" lon="11.919095"><ele>516.5</ele><time>2026-04-19T11:48:19.333Z</time></trkpt><trkpt lat="42.1497367" lon="11.91897"><ele>517.25</ele><time>2026-04-19T11:48:20.329Z</time></trkpt><trkpt lat="42.1496667" lon="11.9188467"><ele>518.0</ele><time>2026-04-19T11:48:21.333Z</time></trkpt><trkpt lat="42.14959" lon="11.9187183"><ele>518.0</ele><time>2026-04-19T11:48:22.335Z</time></trkpt><trkpt lat="42.1495033" lon="11.9185867"><ele>518.0</ele><time>2026-04-19T11:48:23.333Z</time></trkpt><trkpt lat="42.1494017" lon="11.91846"><ele>518.0</ele><time>2026-04-19T11:48:24.339Z</time></trkpt><trkpt lat="42.1492867" lon="11.918345"><ele>518.0</ele><time>2026-04-19T11:48:25.329Z</time></trkpt><trkpt lat="42.1491667" lon="11.918245"><ele>517.5</ele><time>2026-04-19T11:48:26.338Z</time></trkpt><trkpt lat="42.1490533" lon="11.9181617"><ele>517.0</ele><time>2026-04-19T11:48:27.358Z</time></trkpt><trkpt lat="42.1489533" lon="11.918085"><ele>516.5</ele><time>2026-04-19T11:48:28.334Z</time></trkpt><trkpt lat="42.148865" lon="11.9180117"><ele>516.0</ele><time>2026-04-19T11:48:29.339Z</time></trkpt><trkpt lat="42.14878" lon="11.9179333"><ele>516.0</ele><time>2026-04-19T11:48:30.341Z</time></trkpt><trkpt lat="42.1487133" lon="11.9178517"><ele>516.0</ele><time>2026-04-19T11:48:31.353Z</time></trkpt><trkpt lat="42.148665" lon="11.9177517"><ele>516.0</ele><time>2026-04-19T11:48:32.343Z</time></trkpt><trkpt lat="42.1486217" lon="11.9176333"><ele>516.0</ele><time>2026-04-19T11:48:33.339Z</time></trkpt><trkpt lat="42.1485933" lon="11.9175017"><ele>516.0</ele><time>2026-04-19T11:48:34.335Z</time></trkpt><trkpt lat="42.14859" lon="11.9173617"><ele>518.25</ele><time>2026-04-19T11:48:35.343Z</time></trkpt><trkpt lat="42.1486017" lon="11.91723"><ele>520.5</ele><time>2026-04-19T11:48:36.331Z</time></trkpt><trkpt lat="42.1486317" lon="11.917105"><ele>522.75</ele><time>2026-04-19T11:48:37.343Z</time></trkpt><trkpt lat="42.1486817" lon="11.9169967"><ele>525.0</ele><time>2026-04-19T11:48:38.335Z</time></trkpt><trkpt lat="42.148965" lon="11.9167983"><ele>525.25</ele><time>2026-04-19T11:48:41.338Z</time></trkpt><trkpt lat="42.149095" lon="11.9167483"><ele>525.5</ele><time>2026-04-19T11:48:42.342Z</time></trkpt><trkpt lat="42.1492283" lon="11.9166967"><ele>525.75</ele><time>2026-04-19T11:48:43.358Z</time></trkpt><trkpt lat="42.149355" lon="11.9166367"><ele>526.0</ele><time>2026-04-19T11:48:44.358Z</time></trkpt><trkpt lat="42.149475" lon="11.916565"><ele>526.0</ele><time>2026-04-19T11:48:45.34Z</time></trkpt><trkpt lat="42.14958" lon="11.9164883"><ele>526.0</ele><time>2026-04-19T11:48:46.336Z</time></trkpt><trkpt lat="42.149675" lon="11.916385"><ele>526.0</ele><time>2026-04-19T11:48:47.331Z</time></trkpt><trkpt lat="42.149755" lon="11.9162633"><ele>526.0</ele><time>2026-04-19T11:48:48.334Z</time></trkpt><trkpt lat="42.1498217" lon="11.916125"><ele>531.25</ele><time>2026-04-19T11:48:49.331Z</time></trkpt><trkpt lat="42.1498767" lon="11.9159817"><ele>536.5</ele><time>2026-04-19T11:48:50.34Z</time></trkpt><trkpt lat="42.1499117" lon="11.9158333"><ele>541.75</ele><time>2026-04-19T11:48:51.331Z</time></trkpt><trkpt lat="42.149925" lon="11.915675"><ele>547.0</ele><time>2026-04-19T11:48:52.341Z</time></trkpt><trkpt lat="42.1499217" lon="11.91551"><ele>547.0</ele><time>2026-04-19T11:48:53.336Z</time></trkpt><trkpt lat="42.1499017" lon="11.9153417"><ele>547.0</ele><time>2026-04-19T11:48:54.338Z</time></trkpt><trkpt lat="42.14989" lon="11.9151733"><ele>547.0</ele><time>2026-04-19T11:48:55.346Z</time></trkpt><trkpt lat="42.1499033" lon="11.9150017"><ele>547.0</ele><time>2026-04-19T11:48:56.333Z</time></trkpt><trkpt lat="42.1499283" lon="11.9148217"><ele>547.25</ele><time>2026-04-19T11:48:57.334Z</time></trkpt><trkpt lat="42.14995" lon="11.91464"><ele>547.5</ele><time>2026-04-19T11:48:58.329Z</time></trkpt><trkpt lat="42.1499667" lon="11.9144333"><ele>547.75</ele><time>2026-04-19T11:48:59.339Z</time></trkpt><trkpt lat="42.1499817" lon="11.9142233"><ele>548.0</ele><time>2026-04-19T11:49:00.337Z</time></trkpt><trkpt lat="42.1499917" lon="11.9140167"><ele>547.6</ele><time>2026-04-19T11:49:01.341Z</time></trkpt><trkpt lat="42.1500017" lon="11.91385"><ele>547.1999999999999</ele><time>2026-04-19T11:49:02.342Z</time></trkpt><trkpt lat="42.1499917" lon="11.9136783"><ele>546.8</ele><time>2026-04-19T11:49:03.342Z</time></trkpt><trkpt lat="42.1499733" lon="11.913535"><ele>546.4</ele><time>2026-04-19T11:49:04.336Z</time></trkpt><trkpt lat="42.1499317" lon="11.9134333"><ele>546.0</ele><time>2026-04-19T11:49:05.334Z</time></trkpt><trkpt lat="42.14986" lon="11.913335"><ele>543.25</ele><time>2026-04-19T11:49:06.338Z</time></trkpt><trkpt lat="42.1497717" lon="11.913245"><ele>540.5</ele><time>2026-04-19T11:49:07.333Z</time></trkpt><trkpt lat="42.149675" lon="11.913145"><ele>537.75</ele><time>2026-04-19T11:49:08.343Z</time></trkpt><trkpt lat="42.1495767" lon="11.9130383"><ele>535.0</ele><time>2026-04-19T11:49:09.34Z</time></trkpt><trkpt lat="42.1495" lon="11.9129183"><ele>535.0</ele><time>2026-04-19T11:49:10.346Z</time></trkpt><trkpt lat="42.1494417" lon="11.9127817"><ele>535.0</ele><time>2026-04-19T11:49:11.333Z</time></trkpt><trkpt lat="42.1493883" lon="11.91263"><ele>535.0</ele><time>2026-04-19T11:49:12.331Z</time></trkpt><trkpt lat="42.1493433" lon="11.9124683"><ele>535.0</ele><time>2026-04-19T11:49:13.335Z</time></trkpt><trkpt lat="42.1493033" lon="11.9122917"><ele>537.25</ele><time>2026-04-19T11:49:14.328Z</time></trkpt><trkpt lat="42.1492667" lon="11.91212"><ele>539.5</ele><time>2026-04-19T11:49:15.333Z</time></trkpt><trkpt lat="42.1492183" lon="11.91195"><ele>541.75</ele><time>2026-04-19T11:49:16.335Z</time></trkpt><trkpt lat="42.149155" lon="11.9117817"><ele>544.0</ele><time>2026-04-19T11:49:17.33Z</time></trkpt><trkpt lat="42.1490817" lon="11.9116133"><ele>539.0</ele><time>2026-04-19T11:49:18.336Z</time></trkpt><trkpt lat="42.1490033" lon="11.9114483"><ele>534.0</ele><time>2026-04-19T11:49:19.336Z</time></trkpt><trkpt lat="42.148925" lon="11.9112933"><ele>529.0</ele><time>2026-04-19T11:49:20.337Z</time></trkpt><trkpt lat="42.1488433" lon="11.9111483"><ele>524.0</ele><time>2026-04-19T11:49:21.33Z</time></trkpt><trkpt lat="42.148765" lon="11.9110067"><ele>528.0</ele><time>2026-04-19T11:49:22.33Z</time></trkpt><trkpt lat="42.1486733" lon="11.9108683"><ele>532.0</ele><time>2026-04-19T11:49:23.329Z</time></trkpt><trkpt lat="42.1485817" lon="11.910735"><ele>536.0</ele><time>2026-04-19T11:49:24.333Z</time></trkpt><trkpt lat="42.14849" lon="11.9106233"><ele>540.0</ele><time>2026-04-19T11:49:25.334Z</time></trkpt><trkpt lat="42.1483983" lon="11.91052"><ele>540.0</ele><time>2026-04-19T11:49:26.337Z</time></trkpt><trkpt lat="42.1483017" lon="11.910395"><ele>540.0</ele><time>2026-04-19T11:49:27.33Z</time></trkpt><trkpt lat="42.1482083" lon="11.9102533"><ele>540.0</ele><time>2026-04-19T11:49:28.329Z</time></trkpt><trkpt lat="42.1481267" lon="11.91011"><ele>540.0</ele><time>2026-04-19T11:49:29.338Z</time></trkpt><trkpt lat="42.1480583" lon="11.9099567"><ele>535.25</ele><time>2026-04-19T11:49:30.333Z</time></trkpt><trkpt lat="42.1480017" lon="11.90981"><ele>530.5</ele><time>2026-04-19T11:49:31.336Z</time></trkpt><trkpt lat="42.147945" lon="11.9096667"><ele>525.75</ele><time>2026-04-19T11:49:32.335Z</time></trkpt><trkpt lat="42.1478933" lon="11.9095317"><ele>521.0</ele><time>2026-04-19T11:49:33.345Z</time></trkpt><trkpt lat="42.1478467" lon="11.9094133"><ele>521.0</ele><time>2026-04-19T11:49:34.338Z</time></trkpt><trkpt lat="42.147805" lon="11.9093067"><ele>521.0</ele><time>2026-04-19T11:49:35.333Z</time></trkpt><trkpt lat="42.1477583" lon="11.9092033"><ele>521.0</ele><time>2026-04-19T11:49:36.334Z</time></trkpt><trkpt lat="42.1477283" lon="11.9090967"><ele>521.0</ele><time>2026-04-19T11:49:37.331Z</time></trkpt><trkpt lat="42.14772" lon="11.9089883"><ele>521.0</ele><time>2026-04-19T11:49:38.333Z</time></trkpt><trkpt lat="42.1477233" lon="11.9088867"><ele>521.0</ele><time>2026-04-19T11:49:39.34Z</time></trkpt><trkpt lat="42.1477417" lon="11.9087933"><ele>521.5</ele><time>2026-04-19T11:49:40.336Z</time></trkpt><trkpt lat="42.1477767" lon="11.9086967"><ele>522.0</ele><time>2026-04-19T11:49:41.334Z</time></trkpt><trkpt lat="42.1478233" lon="11.9085933"><ele>522.5</ele><time>2026-04-19T11:49:42.336Z</time></trkpt><trkpt lat="42.147865" lon="11.9084833"><ele>523.0</ele><time>2026-04-19T11:49:43.338Z</time></trkpt><trkpt lat="42.1478983" lon="11.9083717"><ele>523.5</ele><time>2026-04-19T11:49:44.33Z</time></trkpt><trkpt lat="42.1479217" lon="11.9082617"><ele>524.0</ele><time>2026-04-19T11:49:45.334Z</time></trkpt><trkpt lat="42.147935" lon="11.90815"><ele>524.0</ele><time>2026-04-19T11:49:46.339Z</time></trkpt><trkpt lat="42.1479367" lon="11.9080333"><ele>524.0</ele><time>2026-04-19T11:49:47.337Z</time></trkpt><trkpt lat="42.14792" lon="11.9079133"><ele>524.0</ele><time>2026-04-19T11:49:48.338Z</time></trkpt><trkpt lat="42.1478983" lon="11.9078"><ele>524.0</ele><time>2026-04-19T11:49:49.335Z</time></trkpt><trkpt lat="42.14788" lon="11.9076867"><ele>524.0</ele><time>2026-04-19T11:49:50.34Z</time></trkpt><trkpt lat="42.1478717" lon="11.90757"><ele>524.0</ele><time>2026-04-19T11:49:51.352Z</time></trkpt><trkpt lat="42.1478683" lon="11.90746"><ele>523.5</ele><time>2026-04-19T11:49:52.376Z</time></trkpt><trkpt lat="42.1478733" lon="11.90737"><ele>523.0</ele><time>2026-04-19T11:49:53.347Z</time></trkpt><trkpt lat="42.1478833" lon="11.9072533"><ele>522.5</ele><time>2026-04-19T11:49:55.325Z</time></trkpt><trkpt lat="42.1478917" lon="11.9071367"><ele>522.0</ele><time>2026-04-19T11:49:58.344Z</time></trkpt><trkpt lat="42.1478883" lon="11.90702"><ele>521.5</ele><time>2026-04-19T11:50:00.333Z</time></trkpt><trkpt lat="42.147885" lon="11.9069333"><ele>521.0</ele><time>2026-04-19T11:50:01.34Z</time></trkpt><trkpt lat="42.1478683" lon="11.9068167"><ele>521.1666666666666</ele><time>2026-04-19T11:50:02.34Z</time></trkpt><trkpt lat="42.1478483" lon="11.9067"><ele>521.3333333333333</ele><time>2026-04-19T11:50:03.337Z</time></trkpt><trkpt lat="42.147825" lon="11.906575"><ele>521.5</ele><time>2026-04-19T11:50:04.333Z</time></trkpt><trkpt lat="42.147805" lon="11.9064567"><ele>521.6666666666666</ele><time>2026-04-19T11:50:05.338Z</time></trkpt><trkpt lat="42.147795" lon="11.9063417"><ele>521.8333333333334</ele><time>2026-04-19T11:50:06.333Z</time></trkpt><trkpt lat="42.1477933" lon="11.90623"><ele>522.0</ele><time>2026-04-19T11:50:07.335Z</time></trkpt><trkpt lat="42.1477967" lon="11.90612"><ele>522.0</ele><time>2026-04-19T11:50:08.335Z</time></trkpt><trkpt lat="42.1478183" lon="11.9060083"><ele>522.0</ele><time>2026-04-19T11:50:09.334Z</time></trkpt><trkpt lat="42.147845" lon="11.9058867"><ele>522.0</ele><time>2026-04-19T11:50:10.335Z</time></trkpt><trkpt lat="42.14787" lon="11.905755"><ele>522.0</ele><time>2026-04-19T11:50:11.338Z</time></trkpt><trkpt lat="42.147895" lon="11.9056117"><ele>522.0</ele><time>2026-04-19T11:50:12.338Z</time></trkpt><trkpt lat="42.1479117" lon="11.905455"><ele>521.25</ele><time>2026-04-19T11:50:13.339Z</time></trkpt><trkpt lat="42.1479183" lon="11.9052833"><ele>520.5</ele><time>2026-04-19T11:50:14.34Z</time></trkpt><trkpt lat="42.1479167" lon="11.9051117"><ele>519.75</ele><time>2026-04-19T11:50:15.33Z</time></trkpt><trkpt lat="42.1479117" lon="11.9049467"><ele>519.0</ele><time>2026-04-19T11:50:16.336Z</time></trkpt><trkpt lat="42.147908" lon="11.9047865"><ele>517.2</ele><time>2026-04-19T11:50:17.334Z</time></trkpt><trkpt lat="42.1479082" lon="11.9046325"><ele>515.4</ele><time>2026-04-19T11:50:18.331Z</time></trkpt><trkpt lat="42.147916" lon="11.9044813"><ele>513.6</ele><time>2026-04-19T11:50:19.341Z</time></trkpt><trkpt lat="42.1479296" lon="11.9043362"><ele>511.8</ele><time>2026-04-19T11:50:20.338Z</time></trkpt><trkpt lat="42.1479459" lon="11.9041927"><ele>510.0</ele><time>2026-04-19T11:50:21.337Z</time></trkpt><trkpt lat="42.147965" lon="11.9040513"><ele>508.4</ele><time>2026-04-19T11:50:22.335Z</time></trkpt><trkpt lat="42.1479807" lon="11.9039083"><ele>506.8</ele><time>2026-04-19T11:50:23.338Z</time></trkpt><trkpt lat="42.1479768" lon="11.9037648"><ele>505.20000000000005</ele><time>2026-04-19T11:50:24.339Z</time></trkpt><trkpt lat="42.1479529" lon="11.9036183"><ele>503.6</ele><time>2026-04-19T11:50:25.336Z</time></trkpt><trkpt lat="42.1479183" lon="11.9034718"><ele>502.0</ele><time>2026-04-19T11:50:26.343Z</time></trkpt><trkpt lat="42.1478811" lon="11.9033261"><ele>501.40000000000003</ele><time>2026-04-19T11:50:27.341Z</time></trkpt><trkpt lat="42.1478487" lon="11.903184"><ele>500.80000000000007</ele><time>2026-04-19T11:50:28.34Z</time></trkpt><trkpt lat="42.1478272" lon="11.9030463"><ele>500.2</ele><time>2026-04-19T11:50:29.335Z</time></trkpt><trkpt lat="42.1478204" lon="11.9029075"><ele>499.6</ele><time>2026-04-19T11:50:30.336Z</time></trkpt><trkpt lat="42.1478337" lon="11.9027549"><ele>499.0</ele><time>2026-04-19T11:50:31.34Z</time></trkpt><trkpt lat="42.1478714" lon="11.9026035"><ele>499.5</ele><time>2026-04-19T11:50:32.332Z</time></trkpt><trkpt lat="42.1479331" lon="11.9024693"><ele>500.0</ele><time>2026-04-19T11:50:33.342Z</time></trkpt><trkpt lat="42.1480119" lon="11.9023599"><ele>500.5</ele><time>2026-04-19T11:50:34.333Z</time></trkpt><trkpt lat="42.1481033" lon="11.9022646"><ele>501.0</ele><time>2026-04-19T11:50:35.337Z</time></trkpt><trkpt lat="42.1482027" lon="11.9021788"><ele>501.20000000000005</ele><time>2026-04-19T11:50:36.332Z</time></trkpt><trkpt lat="42.1482979" lon="11.9020918"><ele>501.40000000000003</ele><time>2026-04-19T11:50:37.335Z</time></trkpt><trkpt lat="42.1483795" lon="11.9019975"><ele>501.6</ele><time>2026-04-19T11:50:38.337Z</time></trkpt><trkpt lat="42.1484475" lon="11.9018831"><ele>501.8</ele><time>2026-04-19T11:50:39.342Z</time></trkpt><trkpt lat="42.1484946" lon="11.9017482"><ele>502.0</ele><time>2026-04-19T11:50:40.337Z</time></trkpt><trkpt lat="42.1485124" lon="11.9015918"><ele>502.0</ele><time>2026-04-19T11:50:41.332Z</time></trkpt><trkpt lat="42.1484944" lon="11.9014148"><ele>502.0</ele><time>2026-04-19T11:50:42.346Z</time></trkpt><trkpt lat="42.1484493" lon="11.9012223"><ele>502.0</ele><time>2026-04-19T11:50:43.333Z</time></trkpt><trkpt lat="42.148387" lon="11.9010174"><ele>502.0</ele><time>2026-04-19T11:50:44.338Z</time></trkpt><trkpt lat="42.1483219" lon="11.9008105"><ele>500.75</ele><time>2026-04-19T11:50:45.33Z</time></trkpt><trkpt lat="42.1482605" lon="11.9006112"><ele>499.5</ele><time>2026-04-19T11:50:46.334Z</time></trkpt><trkpt lat="42.1482046" lon="11.9004258"><ele>498.25</ele><time>2026-04-19T11:50:47.334Z</time></trkpt><trkpt lat="42.148163" lon="11.9002598"><ele>497.0</ele><time>2026-04-19T11:50:48.332Z</time></trkpt><trkpt lat="42.1481296" lon="11.9001235"><ele>495.0</ele><time>2026-04-19T11:50:49.34Z</time></trkpt><trkpt lat="42.1481034" lon="11.9000086"><ele>493.00000000000006</ele><time>2026-04-19T11:50:50.342Z</time></trkpt><trkpt lat="42.1480894" lon="11.8999148"><ele>491.00000000000006</ele><time>2026-04-19T11:50:51.381Z</time></trkpt><trkpt lat="42.1480854" lon="11.8997727"><ele>489.0</ele><time>2026-04-19T11:50:53.345Z</time></trkpt><trkpt lat="42.1480508" lon="11.8996601"><ele>487.0</ele><time>2026-04-19T11:50:55.335Z</time></trkpt><trkpt lat="42.147968" lon="11.8995581"><ele>487.00000000000006</ele><time>2026-04-19T11:50:57.335Z</time></trkpt><trkpt lat="42.1479107" lon="11.8995186"><ele>487.0</ele><time>2026-04-19T11:50:58.356Z</time></trkpt><trkpt lat="42.1478474" lon="11.899492"><ele>487.0</ele><time>2026-04-19T11:50:59.344Z</time></trkpt><trkpt lat="42.1477764" lon="11.8994622"><ele>487.0</ele><time>2026-04-19T11:51:00.335Z</time></trkpt><trkpt lat="42.1477032" lon="11.899419"><ele>487.00000000000006</ele><time>2026-04-19T11:51:01.345Z</time></trkpt><trkpt lat="42.1476324" lon="11.8993663"><ele>487.0</ele><time>2026-04-19T11:51:02.332Z</time></trkpt><trkpt lat="42.1475567" lon="11.8993132"><ele>487.0</ele><time>2026-04-19T11:51:03.335Z</time></trkpt><trkpt lat="42.1474753" lon="11.8992745"><ele>487.00000000000006</ele><time>2026-04-19T11:51:04.332Z</time></trkpt><trkpt lat="42.1473899" lon="11.8992594"><ele>487.00000000000006</ele><time>2026-04-19T11:51:05.353Z</time></trkpt><trkpt lat="42.1472996" lon="11.8992764"><ele>487.0</ele><time>2026-04-19T11:51:06.336Z</time></trkpt><trkpt lat="42.1472029" lon="11.8993085"><ele>487.0</ele><time>2026-04-19T11:51:07.34Z</time></trkpt><trkpt lat="42.147112" lon="11.8993348"><ele>485.6</ele><time>2026-04-19T11:51:08.346Z</time></trkpt><trkpt lat="42.1470195" lon="11.8993449"><ele>484.20000000000005</ele><time>2026-04-19T11:51:09.333Z</time></trkpt><trkpt lat="42.1469296" lon="11.8993281"><ele>482.8</ele><time>2026-04-19T11:51:10.336Z</time></trkpt><trkpt lat="42.1468412" lon="11.8992805"><ele>481.4</ele><time>2026-04-19T11:51:11.333Z</time></trkpt><trkpt lat="42.1467419" lon="11.8992046"><ele>480.0</ele><time>2026-04-19T11:51:12.344Z</time></trkpt><trkpt lat="42.1466349" lon="11.8991073"><ele>483.5</ele><time>2026-04-19T11:51:13.338Z</time></trkpt><trkpt lat="42.1465188" lon="11.8989966"><ele>487.0</ele><time>2026-04-19T11:51:14.345Z</time></trkpt><trkpt lat="42.1464031" lon="11.8988844"><ele>490.5</ele><time>2026-04-19T11:51:15.33Z</time></trkpt><trkpt lat="42.14629" lon="11.8987766"><ele>494.0</ele><time>2026-04-19T11:51:16.34Z</time></trkpt><trkpt lat="42.1461889" lon="11.8986757"><ele>494.0</ele><time>2026-04-19T11:51:17.343Z</time></trkpt><trkpt lat="42.1460958" lon="11.8985953"><ele>494.0</ele><time>2026-04-19T11:51:18.346Z</time></trkpt><trkpt lat="42.1459998" lon="11.8985276"><ele>494.0</ele><time>2026-04-19T11:51:19.342Z</time></trkpt><trkpt lat="42.1458951" lon="11.8984689"><ele>494.0</ele><time>2026-04-19T11:51:20.349Z</time></trkpt><trkpt lat="42.1457876" lon="11.8984157"><ele>494.0</ele><time>2026-04-19T11:51:21.343Z</time></trkpt><trkpt lat="42.1456875" lon="11.8983641"><ele>495.0</ele><time>2026-04-19T11:51:22.333Z</time></trkpt><trkpt lat="42.1455928" lon="11.8982989"><ele>496.0</ele><time>2026-04-19T11:51:23.339Z</time></trkpt><trkpt lat="42.1454991" lon="11.8982264"><ele>497.0</ele><time>2026-04-19T11:51:24.342Z</time></trkpt><trkpt lat="42.1453993" lon="11.8981569"><ele>498.0</ele><time>2026-04-19T11:51:25.345Z</time></trkpt><trkpt lat="42.1452952" lon="11.8981002"><ele>499.0</ele><time>2026-04-19T11:51:26.336Z</time></trkpt><trkpt lat="42.1451897" lon="11.8980685"><ele>499.0</ele><time>2026-04-19T11:51:27.334Z</time></trkpt><trkpt lat="42.1450844" lon="11.8980624"><ele>499.0</ele><time>2026-04-19T11:51:28.338Z</time></trkpt><trkpt lat="42.1449746" lon="11.8980878"><ele>499.0</ele><time>2026-04-19T11:51:29.341Z</time></trkpt><trkpt lat="42.1448588" lon="11.8981401"><ele>499.0</ele><time>2026-04-19T11:51:30.344Z</time></trkpt><trkpt lat="42.1447446" lon="11.8981985"><ele>498.5</ele><time>2026-04-19T11:51:31.333Z</time></trkpt><trkpt lat="42.144627" lon="11.8982479"><ele>498.0</ele><time>2026-04-19T11:51:32.337Z</time></trkpt><trkpt lat="42.1445162" lon="11.8982711"><ele>497.5</ele><time>2026-04-19T11:51:33.333Z</time></trkpt><trkpt lat="42.1444082" lon="11.8982614"><ele>497.0</ele><time>2026-04-19T11:51:34.334Z</time></trkpt><trkpt lat="42.1442996" lon="11.8982182"><ele>497.0</ele><time>2026-04-19T11:51:35.33Z</time></trkpt><trkpt lat="42.1441888" lon="11.8981492"><ele>497.0</ele><time>2026-04-19T11:51:36.337Z</time></trkpt><trkpt lat="42.1440781" lon="11.8980587"><ele>497.0</ele><time>2026-04-19T11:51:37.336Z</time></trkpt><trkpt lat="42.1439655" lon="11.8979572"><ele>497.0</ele><time>2026-04-19T11:51:38.34Z</time></trkpt><trkpt lat="42.1438545" lon="11.8978539"><ele>497.75</ele><time>2026-04-19T11:51:39.333Z</time></trkpt><trkpt lat="42.1437473" lon="11.897758"><ele>498.5</ele><time>2026-04-19T11:51:40.357Z</time></trkpt><trkpt lat="42.1436438" lon="11.8976854"><ele>499.25</ele><time>2026-04-19T11:51:41.344Z</time></trkpt><trkpt lat="42.1435377" lon="11.8976335"><ele>500.0</ele><time>2026-04-19T11:51:42.351Z</time></trkpt><trkpt lat="42.1434309" lon="11.8976085"><ele>500.0</ele><time>2026-04-19T11:51:43.345Z</time></trkpt><trkpt lat="42.1433236" lon="11.8976121"><ele>500.0</ele><time>2026-04-19T11:51:44.343Z</time></trkpt><trkpt lat="42.1432112" lon="11.8976429"><ele>500.0</ele><time>2026-04-19T11:51:45.346Z</time></trkpt><trkpt lat="42.1430933" lon="11.8977067"><ele>500.0</ele><time>2026-04-19T11:51:46.346Z</time></trkpt><trkpt lat="42.14299" lon="11.8977817"><ele>498.0</ele><time>2026-04-19T11:51:47.348Z</time></trkpt><trkpt lat="42.1429017" lon="11.8978767"><ele>496.0</ele><time>2026-04-19T11:51:48.343Z</time></trkpt><trkpt lat="42.1428183" lon="11.8979933"><ele>494.0</ele><time>2026-04-19T11:51:49.353Z</time></trkpt><trkpt lat="42.1427433" lon="11.89812"><ele>492.0</ele><time>2026-04-19T11:51:50.342Z</time></trkpt><trkpt lat="42.1426733" lon="11.89824"><ele>492.0</ele><time>2026-04-19T11:51:51.345Z</time></trkpt><trkpt lat="42.1426217" lon="11.898365"><ele>492.00000000000006</ele><time>2026-04-19T11:51:52.334Z</time></trkpt><trkpt lat="42.1425917" lon="11.8985017"><ele>492.00000000000006</ele><time>2026-04-19T11:51:53.333Z</time></trkpt><trkpt lat="42.1425883" lon="11.8986417"><ele>492.0</ele><time>2026-04-19T11:51:54.329Z</time></trkpt><trkpt lat="42.1426083" lon="11.8987917"><ele>492.0</ele><time>2026-04-19T11:51:55.339Z</time></trkpt><trkpt lat="42.14264" lon="11.89895"><ele>490.75</ele><time>2026-04-19T11:51:56.328Z</time></trkpt><trkpt lat="42.142675" lon="11.8991133"><ele>489.5</ele><time>2026-04-19T11:51:57.359Z</time></trkpt><trkpt lat="42.1427017" lon="11.8992883"><ele>488.25</ele><time>2026-04-19T11:51:58.343Z</time></trkpt><trkpt lat="42.14272" lon="11.8994617"><ele>487.0</ele><time>2026-04-19T11:51:59.352Z</time></trkpt><trkpt lat="42.1427283" lon="11.899605"><ele>485.83333333333337</ele><time>2026-04-19T11:52:00.344Z</time></trkpt><trkpt lat="42.142725" lon="11.8997217"><ele>484.6666666666667</ele><time>2026-04-19T11:52:01.342Z</time></trkpt><trkpt lat="42.1427033" lon="11.8998267"><ele>483.5</ele><time>2026-04-19T11:52:02.343Z</time></trkpt><trkpt lat="42.1426583" lon="11.8999133"><ele>482.33333333333337</ele><time>2026-04-19T11:52:03.347Z</time></trkpt><trkpt lat="42.1425817" lon="11.89998"><ele>481.1666666666667</ele><time>2026-04-19T11:52:04.355Z</time></trkpt><trkpt lat="42.1424783" lon="11.900025"><ele>480.0</ele><time>2026-04-19T11:52:05.35Z</time></trkpt><trkpt lat="42.1423583" lon="11.90006"><ele>476.5</ele><time>2026-04-19T11:52:06.354Z</time></trkpt><trkpt lat="42.14224" lon="11.9001033"><ele>473.0</ele><time>2026-04-19T11:52:07.342Z</time></trkpt><trkpt lat="42.142135" lon="11.90016"><ele>469.5</ele><time>2026-04-19T11:52:08.341Z</time></trkpt><trkpt lat="42.1420433" lon="11.9002367"><ele>466.0</ele><time>2026-04-19T11:52:09.35Z</time></trkpt><trkpt lat="42.1419617" lon="11.900335"><ele>466.0</ele><time>2026-04-19T11:52:10.341Z</time></trkpt><trkpt lat="42.1418983" lon="11.9004517"><ele>466.0</ele><time>2026-04-19T11:52:11.341Z</time></trkpt><trkpt lat="42.14184" lon="11.90057"><ele>466.0</ele><time>2026-04-19T11:52:12.343Z</time></trkpt><trkpt lat="42.14179" lon="11.900685"><ele>466.0</ele><time>2026-04-19T11:52:13.344Z</time></trkpt><trkpt lat="42.14174" lon="11.9008"><ele>466.0</ele><time>2026-04-19T11:52:14.36Z</time></trkpt><trkpt lat="42.1416917" lon="11.9009217"><ele>467.33333333333337</ele><time>2026-04-19T11:52:15.352Z</time></trkpt><trkpt lat="42.14164" lon="11.9010233"><ele>468.6666666666667</ele><time>2026-04-19T11:52:16.342Z</time></trkpt><trkpt lat="42.1415767" lon="11.90109"><ele>470.0</ele><time>2026-04-19T11:52:17.345Z</time></trkpt><trkpt lat="42.141505" lon="11.9011267"><ele>471.33333333333337</ele><time>2026-04-19T11:52:18.352Z</time></trkpt><trkpt lat="42.14143" lon="11.90114"><ele>472.6666666666667</ele><time>2026-04-19T11:52:19.35Z</time></trkpt><trkpt lat="42.141355" lon="11.90113"><ele>474.0</ele><time>2026-04-19T11:52:20.346Z</time></trkpt><trkpt lat="42.1412767" lon="11.9011"><ele>473.3333333333333</ele><time>2026-04-19T11:52:21.346Z</time></trkpt><trkpt lat="42.1412033" lon="11.9010483"><ele>472.66666666666663</ele><time>2026-04-19T11:52:22.337Z</time></trkpt><trkpt lat="42.1411333" lon="11.9009817"><ele>472.0</ele><time>2026-04-19T11:52:23.338Z</time></trkpt><trkpt lat="42.1410583" lon="11.9009183"><ele>471.3333333333333</ele><time>2026-04-19T11:52:24.339Z</time></trkpt><trkpt lat="42.1409733" lon="11.9008717"><ele>470.66666666666663</ele><time>2026-04-19T11:52:25.343Z</time></trkpt><trkpt lat="42.1408783" lon="11.900855"><ele>470.0</ele><time>2026-04-19T11:52:26.344Z</time></trkpt><trkpt lat="42.140775" lon="11.9008367"><ele>470.4</ele><time>2026-04-19T11:52:27.338Z</time></trkpt><trkpt lat="42.1406783" lon="11.9008033"><ele>470.8</ele><time>2026-04-19T11:52:28.335Z</time></trkpt><trkpt lat="42.1405933" lon="11.900755"><ele>471.20000000000005</ele><time>2026-04-19T11:52:29.336Z</time></trkpt><trkpt lat="42.1405183" lon="11.9007017"><ele>471.6</ele><time>2026-04-19T11:52:30.341Z</time></trkpt><trkpt lat="42.14044" lon="11.9006533"><ele>472.0</ele><time>2026-04-19T11:52:31.34Z</time></trkpt><trkpt lat="42.1403533" lon="11.9006183"><ele>472.0</ele><time>2026-04-19T11:52:32.342Z</time></trkpt><trkpt lat="42.1402483" lon="11.9006117"><ele>472.0</ele><time>2026-04-19T11:52:33.34Z</time></trkpt><trkpt lat="42.1401267" lon="11.9006167"><ele>472.0</ele><time>2026-04-19T11:52:34.335Z</time></trkpt><trkpt lat="42.139995" lon="11.9006267"><ele>472.0</ele><time>2026-04-19T11:52:35.342Z</time></trkpt><trkpt lat="42.13986" lon="11.900635"><ele>470.75</ele><time>2026-04-19T11:52:36.344Z</time></trkpt><trkpt lat="42.139715" lon="11.9006433"><ele>469.5</ele><time>2026-04-19T11:52:37.337Z</time></trkpt><trkpt lat="42.1395633" lon="11.9006417"><ele>468.25</ele><time>2026-04-19T11:52:38.339Z</time></trkpt><trkpt lat="42.1394133" lon="11.90063"><ele>467.0</ele><time>2026-04-19T11:52:39.338Z</time></trkpt><trkpt lat="42.1392783" lon="11.900595"><ele>467.0</ele><time>2026-04-19T11:52:40.343Z</time></trkpt><trkpt lat="42.1391567" lon="11.9005483"><ele>467.00000000000006</ele><time>2026-04-19T11:52:41.342Z</time></trkpt><trkpt lat="42.1390433" lon="11.90051"><ele>467.00000000000006</ele><time>2026-04-19T11:52:42.332Z</time></trkpt><trkpt lat="42.1389383" lon="11.900495"><ele>467.0</ele><time>2026-04-19T11:52:43.344Z</time></trkpt><trkpt lat="42.1388433" lon="11.9005017"><ele>467.0</ele><time>2026-04-19T11:52:44.332Z</time></trkpt><trkpt lat="42.138755" lon="11.90053"><ele>467.16666666666663</ele><time>2026-04-19T11:52:45.338Z</time></trkpt><trkpt lat="42.13867" lon="11.900575"><ele>467.3333333333333</ele><time>2026-04-19T11:52:46.33Z</time></trkpt><trkpt lat="42.138595" lon="11.9006333"><ele>467.5</ele><time>2026-04-19T11:52:47.332Z</time></trkpt><trkpt lat="42.1385367" lon="11.9007117"><ele>467.66666666666663</ele><time>2026-04-19T11:52:48.341Z</time></trkpt><trkpt lat="42.1384883" lon="11.9008083"><ele>467.8333333333333</ele><time>2026-04-19T11:52:49.331Z</time></trkpt><trkpt lat="42.1384533" lon="11.9009233"><ele>468.0</ele><time>2026-04-19T11:52:50.344Z</time></trkpt><trkpt lat="42.138415" lon="11.9010483"><ele>468.0</ele><time>2026-04-19T11:52:51.335Z</time></trkpt><trkpt lat="42.1383567" lon="11.901165"><ele>467.99999999999994</ele><time>2026-04-19T11:52:52.339Z</time></trkpt><trkpt lat="42.1382917" lon="11.901285"><ele>467.99999999999994</ele><time>2026-04-19T11:52:53.338Z</time></trkpt><trkpt lat="42.13824" lon="11.901415"><ele>468.0</ele><time>2026-04-19T11:52:54.338Z</time></trkpt><trkpt lat="42.1382033" lon="11.901555"><ele>468.0</ele><time>2026-04-19T11:52:55.335Z</time></trkpt><trkpt lat="42.1381683" lon="11.9016917"><ele>468.79999999999995</ele><time>2026-04-19T11:52:56.332Z</time></trkpt><trkpt lat="42.13813" lon="11.9018133"><ele>469.59999999999997</ele><time>2026-04-19T11:52:57.446Z</time></trkpt><trkpt lat="42.1380017" lon="11.9019417"><ele>470.40000000000003</ele><time>2026-04-19T11:52:59.335Z</time></trkpt><trkpt lat="42.13793" lon="11.90197"><ele>471.20000000000005</ele><time>2026-04-19T11:53:00.334Z</time></trkpt><trkpt lat="42.13784" lon="11.90196"><ele>472.0</ele><time>2026-04-19T11:53:01.335Z</time></trkpt><trkpt lat="42.1377467" lon="11.9019383"><ele>472.0</ele><time>2026-04-19T11:53:02.332Z</time></trkpt><trkpt lat="42.1376483" lon="11.901925"><ele>472.00000000000006</ele><time>2026-04-19T11:53:03.331Z</time></trkpt><trkpt lat="42.13755" lon="11.9019333"><ele>472.00000000000006</ele><time>2026-04-19T11:53:04.336Z</time></trkpt><trkpt lat="42.1374483" lon="11.90197"><ele>472.0</ele><time>2026-04-19T11:53:05.344Z</time></trkpt><trkpt lat="42.1373483" lon="11.9020267"><ele>472.0</ele><time>2026-04-19T11:53:06.367Z</time></trkpt><trkpt lat="42.1372583" lon="11.90209"><ele>470.83333333333337</ele><time>2026-04-19T11:53:07.351Z</time></trkpt><trkpt lat="42.1371783" lon="11.9021533"><ele>469.6666666666667</ele><time>2026-04-19T11:53:08.345Z</time></trkpt><trkpt lat="42.1371017" lon="11.9022"><ele>468.5</ele><time>2026-04-19T11:53:09.343Z</time></trkpt><trkpt lat="42.1370233" lon="11.9022317"><ele>467.33333333333337</ele><time>2026-04-19T11:53:10.342Z</time></trkpt><trkpt lat="42.1369483" lon="11.90224"><ele>466.1666666666667</ele><time>2026-04-19T11:53:11.352Z</time></trkpt><trkpt lat="42.1368717" lon="11.9022317"><ele>465.0</ele><time>2026-04-19T11:53:12.347Z</time></trkpt><trkpt lat="42.13679" lon="11.9022267"><ele>465.0</ele><time>2026-04-19T11:53:13.34Z</time></trkpt><trkpt lat="42.1367017" lon="11.9022217"><ele>465.0</ele><time>2026-04-19T11:53:14.343Z</time></trkpt><trkpt lat="42.1366133" lon="11.9022333"><ele>465.0</ele><time>2026-04-19T11:53:15.346Z</time></trkpt><trkpt lat="42.13652" lon="11.90227"><ele>465.0</ele><time>2026-04-19T11:53:16.349Z</time></trkpt><trkpt lat="42.13642" lon="11.9023167"><ele>465.0</ele><time>2026-04-19T11:53:17.351Z</time></trkpt><trkpt lat="42.1363167" lon="11.902375"><ele>466.8</ele><time>2026-04-19T11:53:18.351Z</time></trkpt><trkpt lat="42.136225" lon="11.9024433"><ele>468.6</ele><time>2026-04-19T11:53:19.347Z</time></trkpt><trkpt lat="42.1361467" lon="11.90252"><ele>470.4</ele><time>2026-04-19T11:53:20.353Z</time></trkpt><trkpt lat="42.1360733" lon="11.9026217"><ele>472.2</ele><time>2026-04-19T11:53:21.35Z</time></trkpt><trkpt lat="42.1360033" lon="11.9027433"><ele>474.0</ele><time>2026-04-19T11:53:22.346Z</time></trkpt><trkpt lat="42.1359433" lon="11.9028883"><ele>474.0</ele><time>2026-04-19T11:53:23.349Z</time></trkpt><trkpt lat="42.13589" lon="11.9030483"><ele>474.0</ele><time>2026-04-19T11:53:24.342Z</time></trkpt><trkpt lat="42.135835" lon="11.9032017"><ele>474.0</ele><time>2026-04-19T11:53:25.358Z</time></trkpt><trkpt lat="42.13578" lon="11.903325"><ele>474.0</ele><time>2026-04-19T11:53:26.347Z</time></trkpt><trkpt lat="42.1357183" lon="11.9034217"><ele>471.8333333333333</ele><time>2026-04-19T11:53:27.335Z</time></trkpt><trkpt lat="42.1356517" lon="11.903495"><ele>469.66666666666663</ele><time>2026-04-19T11:53:28.346Z</time></trkpt><trkpt lat="42.1355867" lon="11.9035433"><ele>467.5</ele><time>2026-04-19T11:53:29.341Z</time></trkpt><trkpt lat="42.1355183" lon="11.9035683"><ele>465.3333333333333</ele><time>2026-04-19T11:53:30.34Z</time></trkpt><trkpt lat="42.1354367" lon="11.90355"><ele>463.16666666666663</ele><time>2026-04-19T11:53:31.344Z</time></trkpt><trkpt lat="42.1353433" lon="11.9035133"><ele>461.0</ele><time>2026-04-19T11:53:32.34Z</time></trkpt><trkpt lat="42.1352317" lon="11.9034517"><ele>466.0</ele><time>2026-04-19T11:53:33.353Z</time></trkpt><trkpt lat="42.1350983" lon="11.9033833"><ele>471.0</ele><time>2026-04-19T11:53:34.34Z</time></trkpt><trkpt lat="42.13494" lon="11.903325"><ele>476.0</ele><time>2026-04-19T11:53:35.339Z</time></trkpt><trkpt lat="42.1347883" lon="11.9032767"><ele>476.0</ele><time>2026-04-19T11:53:36.327Z</time></trkpt><trkpt lat="42.1346483" lon="11.903225"><ele>476.0</ele><time>2026-04-19T11:53:37.334Z</time></trkpt><trkpt lat="42.1345167" lon="11.9031533"><ele>476.0</ele><time>2026-04-19T11:53:38.339Z</time></trkpt><trkpt lat="42.1343933" lon="11.9030617"><ele>476.0</ele><time>2026-04-19T11:53:39.346Z</time></trkpt><trkpt lat="42.1342833" lon="11.9029533"><ele>476.0</ele><time>2026-04-19T11:53:40.352Z</time></trkpt><trkpt lat="42.13418" lon="11.9028633"><ele>476.0</ele><time>2026-04-19T11:53:41.346Z</time></trkpt><trkpt lat="42.13408" lon="11.90281"><ele>476.0</ele><time>2026-04-19T11:53:42.352Z</time></trkpt><trkpt lat="42.1339833" lon="11.902785"><ele>476.0</ele><time>2026-04-19T11:53:43.34Z</time></trkpt><trkpt lat="42.1338833" lon="11.9027967"><ele>476.0</ele><time>2026-04-19T11:53:44.348Z</time></trkpt><trkpt lat="42.1337767" lon="11.9028467"><ele>477.5</ele><time>2026-04-19T11:53:45.339Z</time></trkpt><trkpt lat="42.1336567" lon="11.90293"><ele>479.0</ele><time>2026-04-19T11:53:46.34Z</time></trkpt><trkpt lat="42.13353" lon="11.9030267"><ele>480.5</ele><time>2026-04-19T11:53:47.334Z</time></trkpt><trkpt lat="42.1333967" lon="11.9031283"><ele>482.0</ele><time>2026-04-19T11:53:48.333Z</time></trkpt><trkpt lat="42.133255" lon="11.9032267"><ele>484.25</ele><time>2026-04-19T11:53:49.352Z</time></trkpt><trkpt lat="42.133115" lon="11.9033067"><ele>486.5</ele><time>2026-04-19T11:53:50.338Z</time></trkpt><trkpt lat="42.1329783" lon="11.9033517"><ele>488.75</ele><time>2026-04-19T11:53:51.344Z</time></trkpt><trkpt lat="42.1328438" lon="11.9033662"><ele>491.0</ele><time>2026-04-19T11:53:52.34Z</time></trkpt><trkpt lat="42.1327048" lon="11.903349"><ele>491.0</ele><time>2026-04-19T11:53:53.344Z</time></trkpt><trkpt lat="42.132564" lon="11.903324"><ele>491.0</ele><time>2026-04-19T11:53:54.341Z</time></trkpt><trkpt lat="42.132422" lon="11.9033105"><ele>491.0</ele><time>2026-04-19T11:53:55.342Z</time></trkpt><trkpt lat="42.132286" lon="11.9033031"><ele>491.0</ele><time>2026-04-19T11:53:56.349Z</time></trkpt><trkpt lat="42.1321571" lon="11.9032946"><ele>491.75</ele><time>2026-04-19T11:53:57.352Z</time></trkpt><trkpt lat="42.1320312" lon="11.9032881"><ele>492.5</ele><time>2026-04-19T11:53:58.365Z</time></trkpt><trkpt lat="42.1319129" lon="11.903281"><ele>493.25</ele><time>2026-04-19T11:53:59.348Z</time></trkpt><trkpt lat="42.1317965" lon="11.9032929"><ele>494.0</ele><time>2026-04-19T11:54:00.346Z</time></trkpt><trkpt lat="42.1316892" lon="11.9033277"><ele>494.0</ele><time>2026-04-19T11:54:01.348Z</time></trkpt><trkpt lat="42.1315939" lon="11.90339"><ele>494.0</ele><time>2026-04-19T11:54:02.344Z</time></trkpt><trkpt lat="42.1315114" lon="11.9034761"><ele>494.0</ele><time>2026-04-19T11:54:03.342Z</time></trkpt><trkpt lat="42.1314418" lon="11.9035832"><ele>494.0</ele><time>2026-04-19T11:54:04.352Z</time></trkpt><trkpt lat="42.1313769" lon="11.9036962"><ele>494.0</ele><time>2026-04-19T11:54:05.328Z</time></trkpt><trkpt lat="42.1313057" lon="11.9038051"><ele>494.2</ele><time>2026-04-19T11:54:06.449Z</time></trkpt><trkpt lat="42.1312338" lon="11.9038885"><ele>494.4</ele><time>2026-04-19T11:54:07.381Z</time></trkpt><trkpt lat="42.1311505" lon="11.9039583"><ele>494.6</ele><time>2026-04-19T11:54:08.361Z</time></trkpt><trkpt lat="42.1310608" lon="11.904012"><ele>494.8</ele><time>2026-04-19T11:54:09.338Z</time></trkpt><trkpt lat="42.1309648" lon="11.9040612"><ele>495.0</ele><time>2026-04-19T11:54:10.336Z</time></trkpt><trkpt lat="42.1308605" lon="11.9041076"><ele>495.0</ele><time>2026-04-19T11:54:11.345Z</time></trkpt><trkpt lat="42.1307535" lon="11.9041496"><ele>495.0</ele><time>2026-04-19T11:54:12.331Z</time></trkpt><trkpt lat="42.1306303" lon="11.9041885"><ele>495.0</ele><time>2026-04-19T11:54:13.344Z</time></trkpt><trkpt lat="42.1304933" lon="11.9042302"><ele>495.0</ele><time>2026-04-19T11:54:14.339Z</time></trkpt><trkpt lat="42.1303443" lon="11.9042813"><ele>492.25</ele><time>2026-04-19T11:54:15.344Z</time></trkpt><trkpt lat="42.1301948" lon="11.9043357"><ele>489.5</ele><time>2026-04-19T11:54:16.337Z</time></trkpt><trkpt lat="42.1300486" lon="11.9043936"><ele>486.75</ele><time>2026-04-19T11:54:17.353Z</time></trkpt><trkpt lat="42.1299172" lon="11.9044474"><ele>484.0</ele><time>2026-04-19T11:54:18.327Z</time></trkpt><trkpt lat="42.1298009" lon="11.904492"><ele>484.0</ele><time>2026-04-19T11:54:19.343Z</time></trkpt><trkpt lat="42.129695" lon="11.904531"><ele>484.0</ele><time>2026-04-19T11:54:20.347Z</time></trkpt><trkpt lat="42.129587" lon="11.9045728"><ele>484.0</ele><time>2026-04-19T11:54:21.341Z</time></trkpt><trkpt lat="42.1294785" lon="11.9046157"><ele>484.0</ele><time>2026-04-19T11:54:22.339Z</time></trkpt><trkpt lat="42.1293701" lon="11.9046613"><ele>484.0</ele><time>2026-04-19T11:54:23.339Z</time></trkpt><trkpt lat="42.1292618" lon="11.9047038"><ele>484.0</ele><time>2026-04-19T11:54:24.367Z</time></trkpt><trkpt lat="42.129157" lon="11.9047331"><ele>484.0</ele><time>2026-04-19T11:54:25.341Z</time></trkpt><trkpt lat="42.1290581" lon="11.9047649"><ele>484.0</ele><time>2026-04-19T11:54:26.335Z</time></trkpt><trkpt lat="42.1289715" lon="11.9048097"><ele>484.0</ele><time>2026-04-19T11:54:27.337Z</time></trkpt><trkpt lat="42.1288944" lon="11.9048809"><ele>484.0</ele><time>2026-04-19T11:54:28.338Z</time></trkpt><trkpt lat="42.1288217" lon="11.904995"><ele>484.79999999999995</ele><time>2026-04-19T11:54:29.346Z</time></trkpt><trkpt lat="42.1287567" lon="11.905115"><ele>485.59999999999997</ele><time>2026-04-19T11:54:30.336Z</time></trkpt><trkpt lat="42.1286983" lon="11.90523"><ele>486.4</ele><time>2026-04-19T11:54:31.337Z</time></trkpt><trkpt lat="42.12865" lon="11.9053383"><ele>487.2</ele><time>2026-04-19T11:54:32.339Z</time></trkpt><trkpt lat="42.128615" lon="11.9054417"><ele>488.0</ele><time>2026-04-19T11:54:33.341Z</time></trkpt><trkpt lat="42.1285983" lon="11.90555"><ele>487.99999999999994</ele><time>2026-04-19T11:54:34.33Z</time></trkpt><trkpt lat="42.1285967" lon="11.9056717"><ele>488.0</ele><time>2026-04-19T11:54:35.335Z</time></trkpt><trkpt lat="42.1286117" lon="11.905795"><ele>488.0</ele><time>2026-04-19T11:54:36.34Z</time></trkpt><trkpt lat="42.1286433" lon="11.9059083"><ele>488.0</ele><time>2026-04-19T11:54:37.334Z</time></trkpt><trkpt lat="42.1286867" lon="11.9060133"><ele>487.99999999999994</ele><time>2026-04-19T11:54:38.332Z</time></trkpt><trkpt lat="42.1287317" lon="11.90611"><ele>488.0</ele><time>2026-04-19T11:54:39.339Z</time></trkpt><trkpt lat="42.12878" lon="11.9062017"><ele>488.2</ele><time>2026-04-19T11:54:40.346Z</time></trkpt><trkpt lat="42.1288133" lon="11.906295"><ele>488.4</ele><time>2026-04-19T11:54:41.33Z</time></trkpt><trkpt lat="42.128835" lon="11.906395"><ele>488.59999999999997</ele><time>2026-04-19T11:54:42.342Z</time></trkpt><trkpt lat="42.128845" lon="11.9065183"><ele>488.79999999999995</ele><time>2026-04-19T11:54:43.346Z</time></trkpt><trkpt lat="42.1288383" lon="11.9066567"><ele>489.0</ele><time>2026-04-19T11:54:44.34Z</time></trkpt><trkpt lat="42.128825" lon="11.9068083"><ele>489.0</ele><time>2026-04-19T11:54:45.354Z</time></trkpt><trkpt lat="42.1288067" lon="11.9069783"><ele>489.0</ele><time>2026-04-19T11:54:46.382Z</time></trkpt><trkpt lat="42.1287933" lon="11.907165"><ele>489.0</ele><time>2026-04-19T11:54:47.362Z</time></trkpt><trkpt lat="42.1287833" lon="11.9073583"><ele>489.0</ele><time>2026-04-19T11:54:48.35Z</time></trkpt><trkpt lat="42.12878" lon="11.9075583"><ele>485.75</ele><time>2026-04-19T11:54:49.372Z</time></trkpt><trkpt lat="42.128775" lon="11.9077483"><ele>482.5</ele><time>2026-04-19T11:54:50.362Z</time></trkpt><trkpt lat="42.1287667" lon="11.907925"><ele>479.25</ele><time>2026-04-19T11:54:51.389Z</time></trkpt><trkpt lat="42.12876" lon="11.9081017"><ele>476.0</ele><time>2026-04-19T11:54:52.414Z</time></trkpt><trkpt lat="42.1287533" lon="11.908285"><ele>474.0</ele><time>2026-04-19T11:54:53.371Z</time></trkpt><trkpt lat="42.1287483" lon="11.9084683"><ele>472.0</ele><time>2026-04-19T11:54:54.383Z</time></trkpt><trkpt lat="42.128745" lon="11.908655"><ele>470.0</ele><time>2026-04-19T11:54:55.4Z</time></trkpt><trkpt lat="42.128745" lon="11.9088417"><ele>468.0</ele><time>2026-04-19T11:54:56.435Z</time></trkpt><trkpt lat="42.1287467" lon="11.9090133"><ele>468.0</ele><time>2026-04-19T11:54:57.354Z</time></trkpt><trkpt lat="42.1287467" lon="11.9091517"><ele>468.0</ele><time>2026-04-19T11:54:58.358Z</time></trkpt><trkpt lat="42.1287467" lon="11.909265"><ele>468.0</ele><time>2026-04-19T11:54:59.407Z</time></trkpt><trkpt lat="42.128745" lon="11.9093767"><ele>468.0</ele><time>2026-04-19T11:55:00.36Z</time></trkpt><trkpt lat="42.1287417" lon="11.9094933"><ele>468.0</ele><time>2026-04-19T11:55:01.397Z</time></trkpt><trkpt lat="42.1287367" lon="11.9096117"><ele>468.0</ele><time>2026-04-19T11:55:02.462Z</time></trkpt><trkpt lat="42.1287283" lon="11.909725"><ele>467.5</ele><time>2026-04-19T11:55:03.444Z</time></trkpt><trkpt lat="42.1287133" lon="11.909835"><ele>467.0</ele><time>2026-04-19T11:55:04.425Z</time></trkpt><trkpt lat="42.1286967" lon="11.90994"><ele>466.5</ele><time>2026-04-19T11:55:05.38Z</time></trkpt><trkpt lat="42.1286767" lon="11.9100433"><ele>466.0</ele><time>2026-04-19T11:55:06.478Z</time></trkpt><trkpt lat="42.1285567" lon="11.9103933"><ele>467.0</ele><time>2026-04-19T11:55:09.397Z</time></trkpt><trkpt lat="42.128495" lon="11.91052"><ele>468.0</ele><time>2026-04-19T11:55:10.359Z</time></trkpt><trkpt lat="42.128425" lon="11.91065"><ele>469.0</ele><time>2026-04-19T11:55:11.355Z</time></trkpt><trkpt lat="42.12835" lon="11.91078"><ele>470.0</ele><time>2026-04-19T11:55:12.35Z</time></trkpt><trkpt lat="42.1282767" lon="11.9109067"><ele>467.16666666666663</ele><time>2026-04-19T11:55:13.383Z</time></trkpt><trkpt lat="42.1282133" lon="11.9110183"><ele>464.3333333333333</ele><time>2026-04-19T11:55:14.336Z</time></trkpt><trkpt lat="42.1281633" lon="11.9111117"><ele>461.5</ele><time>2026-04-19T11:55:15.367Z</time></trkpt><trkpt lat="42.1281217" lon="11.911205"><ele>458.66666666666663</ele><time>2026-04-19T11:55:16.367Z</time></trkpt><trkpt lat="42.1280833" lon="11.9112983"><ele>455.8333333333333</ele><time>2026-04-19T11:55:17.408Z</time></trkpt><trkpt lat="42.1280517" lon="11.9113917"><ele>453.0</ele><time>2026-04-19T11:55:18.33Z</time></trkpt><trkpt lat="42.12802" lon="11.9114883"><ele>453.0</ele><time>2026-04-19T11:55:19.347Z</time></trkpt><trkpt lat="42.12799" lon="11.9115783"><ele>452.99999999999994</ele><time>2026-04-19T11:55:20.353Z</time></trkpt><trkpt lat="42.1279533" lon="11.9116683"><ele>452.99999999999994</ele><time>2026-04-19T11:55:21.329Z</time></trkpt><trkpt lat="42.1279067" lon="11.911765"><ele>453.0</ele><time>2026-04-19T11:55:22.337Z</time></trkpt><trkpt lat="42.1278383" lon="11.91189"><ele>453.0</ele><time>2026-04-19T11:55:23.333Z</time></trkpt><trkpt lat="42.12776" lon="11.9120283"><ele>455.66666666666663</ele><time>2026-04-19T11:55:24.325Z</time></trkpt><trkpt lat="42.12767" lon="11.9121883"><ele>458.3333333333333</ele><time>2026-04-19T11:55:25.346Z</time></trkpt><trkpt lat="42.127575" lon="11.9123517"><ele>461.0</ele><time>2026-04-19T11:55:26.334Z</time></trkpt><trkpt lat="42.1274833" lon="11.91251"><ele>459.75</ele><time>2026-04-19T11:55:27.351Z</time></trkpt><trkpt lat="42.1274" lon="11.9126583"><ele>458.5</ele><time>2026-04-19T11:55:28.35Z</time></trkpt><trkpt lat="42.127315" lon="11.9128117"><ele>457.25</ele><time>2026-04-19T11:55:29.344Z</time></trkpt><trkpt lat="42.1272267" lon="11.9129667"><ele>456.0</ele><time>2026-04-19T11:55:30.335Z</time></trkpt><trkpt lat="42.1271367" lon="11.91311"><ele>459.5</ele><time>2026-04-19T11:55:31.339Z</time></trkpt><trkpt lat="42.127055" lon="11.9132433"><ele>463.0</ele><time>2026-04-19T11:55:32.345Z</time></trkpt><trkpt lat="42.1269783" lon="11.9133667"><ele>466.5</ele><time>2026-04-19T11:55:33.344Z</time></trkpt><trkpt lat="42.1269033" lon="11.9134783"><ele>470.0</ele><time>2026-04-19T11:55:34.357Z</time></trkpt><trkpt lat="42.1268233" lon="11.91359"><ele>470.0</ele><time>2026-04-19T11:55:35.345Z</time></trkpt><trkpt lat="42.1267417" lon="11.9136983"><ele>470.0</ele><time>2026-04-19T11:55:36.346Z</time></trkpt><trkpt lat="42.12666" lon="11.91381"><ele>470.0</ele><time>2026-04-19T11:55:37.346Z</time></trkpt><trkpt lat="42.1265883" lon="11.9139067"><ele>470.0</ele><time>2026-04-19T11:55:38.356Z</time></trkpt><trkpt lat="42.1265283" lon="11.9139983"><ele>470.0</ele><time>2026-04-19T11:55:39.35Z</time></trkpt><trkpt lat="42.1264867" lon="11.9140783"><ele>470.4</ele><time>2026-04-19T11:55:40.354Z</time></trkpt><trkpt lat="42.1264617" lon="11.9141617"><ele>470.8</ele><time>2026-04-19T11:55:41.363Z</time></trkpt><trkpt lat="42.1265133" lon="11.91428"><ele>471.20000000000005</ele><time>2026-04-19T11:55:43.333Z</time></trkpt><trkpt lat="42.1265983" lon="11.9143567"><ele>471.6</ele><time>2026-04-19T11:55:44.343Z</time></trkpt><trkpt lat="42.1266883" lon="11.9144583"><ele>472.0</ele><time>2026-04-19T11:55:45.333Z</time></trkpt><trkpt lat="42.1267617" lon="11.91456"><ele>472.0</ele><time>2026-04-19T11:55:46.34Z</time></trkpt><trkpt lat="42.126815" lon="11.9146817"><ele>472.00000000000006</ele><time>2026-04-19T11:55:47.342Z</time></trkpt><trkpt lat="42.126845" lon="11.914825"><ele>472.00000000000006</ele><time>2026-04-19T11:55:48.344Z</time></trkpt><trkpt lat="42.1268367" lon="11.9149633"><ele>472.0</ele><time>2026-04-19T11:55:49.349Z</time></trkpt><trkpt lat="42.1268083" lon="11.91508"><ele>472.0</ele><time>2026-04-19T11:55:50.343Z</time></trkpt><trkpt lat="42.1267617" lon="11.9151717"><ele>470.8</ele><time>2026-04-19T11:55:51.326Z</time></trkpt><trkpt lat="42.1266983" lon="11.91525"><ele>469.6</ele><time>2026-04-19T11:55:52.355Z</time></trkpt><trkpt lat="42.1266183" lon="11.9153317"><ele>468.40000000000003</ele><time>2026-04-19T11:55:53.344Z</time></trkpt><trkpt lat="42.1265333" lon="11.9154467"><ele>467.20000000000005</ele><time>2026-04-19T11:55:54.343Z</time></trkpt><trkpt lat="42.1264517" lon="11.915585"><ele>466.0</ele><time>2026-04-19T11:55:55.344Z</time></trkpt><trkpt lat="42.1263683" lon="11.9157433"><ele>466.5</ele><time>2026-04-19T11:55:56.35Z</time></trkpt><trkpt lat="42.12628" lon="11.9159017"><ele>467.0</ele><time>2026-04-19T11:55:57.356Z</time></trkpt><trkpt lat="42.12619" lon="11.9160567"><ele>467.5</ele><time>2026-04-19T11:55:58.342Z</time></trkpt><trkpt lat="42.12611" lon="11.9162033"><ele>468.0</ele><time>2026-04-19T11:55:59.344Z</time></trkpt><trkpt lat="42.1260433" lon="11.9163483"><ele>468.0</ele><time>2026-04-19T11:56:00.348Z</time></trkpt><trkpt lat="42.1259983" lon="11.916495"><ele>468.0</ele><time>2026-04-19T11:56:01.335Z</time></trkpt><trkpt lat="42.1259683" lon="11.9166483"><ele>468.0</ele><time>2026-04-19T11:56:02.351Z</time></trkpt><trkpt lat="42.12595" lon="11.9168033"><ele>468.0</ele><time>2026-04-19T11:56:03.337Z</time></trkpt><trkpt lat="42.125945" lon="11.91697"><ele>467.0</ele><time>2026-04-19T11:56:04.329Z</time></trkpt><trkpt lat="42.1259467" lon="11.9171283"><ele>465.99999999999994</ele><time>2026-04-19T11:56:05.347Z</time></trkpt><trkpt lat="42.1259567" lon="11.9172733"><ele>464.99999999999994</ele><time>2026-04-19T11:56:06.341Z</time></trkpt><trkpt lat="42.1259683" lon="11.9174033"><ele>464.0</ele><time>2026-04-19T11:56:07.336Z</time></trkpt><trkpt lat="42.1259783" lon="11.9175283"><ele>463.0</ele><time>2026-04-19T11:56:08.337Z</time></trkpt><trkpt lat="42.1259867" lon="11.9176467"><ele>463.0</ele><time>2026-04-19T11:56:09.342Z</time></trkpt><trkpt lat="42.125995" lon="11.9177633"><ele>462.99999999999994</ele><time>2026-04-19T11:56:10.34Z</time></trkpt><trkpt lat="42.1259983" lon="11.9178817"><ele>462.99999999999994</ele><time>2026-04-19T11:56:11.355Z</time></trkpt><trkpt lat="42.1259983" lon="11.91801"><ele>463.0</ele><time>2026-04-19T11:56:12.343Z</time></trkpt><trkpt lat="42.125985" lon="11.91815"><ele>463.0</ele><time>2026-04-19T11:56:13.341Z</time></trkpt><trkpt lat="42.12596" lon="11.9182867"><ele>463.25</ele><time>2026-04-19T11:56:14.337Z</time></trkpt><trkpt lat="42.12591" lon="11.918425"><ele>463.5</ele><time>2026-04-19T11:56:15.337Z</time></trkpt><trkpt lat="42.1258417" lon="11.918555"><ele>463.75</ele><time>2026-04-19T11:56:16.343Z</time></trkpt><trkpt lat="42.12577" lon="11.9186783"><ele>464.0</ele><time>2026-04-19T11:56:17.346Z</time></trkpt><trkpt lat="42.1256967" lon="11.9188"><ele>461.25</ele><time>2026-04-19T11:56:18.347Z</time></trkpt><trkpt lat="42.125615" lon="11.91892"><ele>458.5</ele><time>2026-04-19T11:56:19.359Z</time></trkpt><trkpt lat="42.1255267" lon="11.919045"><ele>455.75</ele><time>2026-04-19T11:56:20.353Z</time></trkpt><trkpt lat="42.1254367" lon="11.9191717"><ele>453.0</ele><time>2026-04-19T11:56:21.34Z</time></trkpt><trkpt lat="42.125345" lon="11.9192983"><ele>453.0</ele><time>2026-04-19T11:56:22.346Z</time></trkpt><trkpt lat="42.12525" lon="11.9194367"><ele>453.0</ele><time>2026-04-19T11:56:23.34Z</time></trkpt><trkpt lat="42.1251567" lon="11.9195717"><ele>453.0</ele><time>2026-04-19T11:56:24.351Z</time></trkpt><trkpt lat="42.1250633" lon="11.9197083"><ele>453.0</ele><time>2026-04-19T11:56:25.344Z</time></trkpt><trkpt lat="42.12497" lon="11.919835"><ele>452.59999999999997</ele><time>2026-04-19T11:56:26.349Z</time></trkpt><trkpt lat="42.12488" lon="11.9199583"><ele>452.19999999999993</ele><time>2026-04-19T11:56:27.339Z</time></trkpt><trkpt lat="42.1248067" lon="11.92007"><ele>451.8</ele><time>2026-04-19T11:56:28.334Z</time></trkpt><trkpt lat="42.1247467" lon="11.9201733"><ele>451.4</ele><time>2026-04-19T11:56:29.348Z</time></trkpt><trkpt lat="42.124695" lon="11.9202767"><ele>451.0</ele><time>2026-04-19T11:56:30.35Z</time></trkpt><trkpt lat="42.1246517" lon="11.9203867"><ele>453.8</ele><time>2026-04-19T11:56:31.339Z</time></trkpt><trkpt lat="42.1246167" lon="11.9205167"><ele>456.6</ele><time>2026-04-19T11:56:32.347Z</time></trkpt><trkpt lat="42.12459" lon="11.9206633"><ele>459.4</ele><time>2026-04-19T11:56:33.348Z</time></trkpt><trkpt lat="42.12457" lon="11.920815"><ele>462.2</ele><time>2026-04-19T11:56:34.336Z</time></trkpt><trkpt lat="42.1245517" lon="11.920965"><ele>465.0</ele><time>2026-04-19T11:56:35.359Z</time></trkpt><trkpt lat="42.1245417" lon="11.9211033"><ele>465.0</ele><time>2026-04-19T11:56:36.339Z</time></trkpt><trkpt lat="42.1245233" lon="11.921235"><ele>465.0</ele><time>2026-04-19T11:56:37.34Z</time></trkpt><trkpt lat="42.124495" lon="11.9213583"><ele>465.0</ele><time>2026-04-19T11:56:38.36Z</time></trkpt><trkpt lat="42.1244533" lon="11.9214733"><ele>465.0</ele><time>2026-04-19T11:56:39.343Z</time></trkpt><trkpt lat="42.1244033" lon="11.9215883"><ele>465.0</ele><time>2026-04-19T11:56:40.354Z</time></trkpt><trkpt lat="42.1243417" lon="11.9217067"><ele>463.6666666666667</ele><time>2026-04-19T11:56:41.334Z</time></trkpt><trkpt lat="42.1242833" lon="11.9218167"><ele>462.33333333333337</ele><time>2026-04-19T11:56:42.335Z</time></trkpt><trkpt lat="42.1242283" lon="11.921905"><ele>461.0</ele><time>2026-04-19T11:56:43.333Z</time></trkpt><trkpt lat="42.12417" lon="11.9219867"><ele>459.6666666666667</ele><time>2026-04-19T11:56:44.347Z</time></trkpt><trkpt lat="42.1241017" lon="11.9220617"><ele>458.33333333333337</ele><time>2026-04-19T11:56:45.346Z</time></trkpt><trkpt lat="42.1240267" lon="11.9221267"><ele>457.0</ele><time>2026-04-19T11:56:46.35Z</time></trkpt><trkpt lat="42.12395" lon="11.9221883"><ele>457.0</ele><time>2026-04-19T11:56:47.35Z</time></trkpt><trkpt lat="42.1238767" lon="11.922265"><ele>457.00000000000006</ele><time>2026-04-19T11:56:48.341Z</time></trkpt><trkpt lat="42.1238133" lon="11.922345"><ele>457.00000000000006</ele><time>2026-04-19T11:56:49.344Z</time></trkpt><trkpt lat="42.1237567" lon="11.9224433"><ele>457.0</ele><time>2026-04-19T11:56:50.347Z</time></trkpt><trkpt lat="42.1237083" lon="11.9225583"><ele>457.0</ele><time>2026-04-19T11:56:51.357Z</time></trkpt><trkpt lat="42.1236633" lon="11.922665"><ele>454.33333333333337</ele><time>2026-04-19T11:56:52.345Z</time></trkpt><trkpt lat="42.1236117" lon="11.9227417"><ele>451.6666666666667</ele><time>2026-04-19T11:56:53.341Z</time></trkpt><trkpt lat="42.1235533" lon="11.92281"><ele>449.0</ele><time>2026-04-19T11:56:54.348Z</time></trkpt><trkpt lat="42.1234783" lon="11.9228583"><ele>446.33333333333337</ele><time>2026-04-19T11:56:55.349Z</time></trkpt><trkpt lat="42.123385" lon="11.9228983"><ele>443.6666666666667</ele><time>2026-04-19T11:56:56.341Z</time></trkpt><trkpt lat="42.1232833" lon="11.9229433"><ele>441.0</ele><time>2026-04-19T11:56:57.334Z</time></trkpt><trkpt lat="42.123175" lon="11.922995"><ele>440.75</ele><time>2026-04-19T11:56:58.331Z</time></trkpt><trkpt lat="42.1230633" lon="11.9230533"><ele>440.5</ele><time>2026-04-19T11:56:59.351Z</time></trkpt><trkpt lat="42.12294" lon="11.9231283"><ele>440.25</ele><time>2026-04-19T11:57:00.333Z</time></trkpt><trkpt lat="42.12282" lon="11.9232117"><ele>440.0</ele><time>2026-04-19T11:57:01.347Z</time></trkpt><trkpt lat="42.122705" lon="11.9232933"><ele>440.0</ele><time>2026-04-19T11:57:02.351Z</time></trkpt><trkpt lat="42.122585" lon="11.9233767"><ele>440.0</ele><time>2026-04-19T11:57:03.331Z</time></trkpt><trkpt lat="42.12246" lon="11.9234617"><ele>440.0</ele><time>2026-04-19T11:57:04.341Z</time></trkpt><trkpt lat="42.12233" lon="11.92355"><ele>440.0</ele><time>2026-04-19T11:57:05.336Z</time></trkpt><trkpt lat="42.1221917" lon="11.923635"><ele>438.0</ele><time>2026-04-19T11:57:06.341Z</time></trkpt><trkpt lat="42.1220517" lon="11.923715"><ele>436.0</ele><time>2026-04-19T11:57:07.334Z</time></trkpt><trkpt lat="42.1219067" lon="11.9237833"><ele>434.0</ele><time>2026-04-19T11:57:08.348Z</time></trkpt><trkpt lat="42.1217617" lon="11.92384"><ele>434.0</ele><time>2026-04-19T11:57:09.333Z</time></trkpt><trkpt lat="42.1216217" lon="11.92389"><ele>434.0</ele><time>2026-04-19T11:57:10.335Z</time></trkpt><trkpt lat="42.121495" lon="11.9239317"><ele>434.0</ele><time>2026-04-19T11:57:11.334Z</time></trkpt><trkpt lat="42.1213783" lon="11.9239717"><ele>434.0</ele><time>2026-04-19T11:57:12.36Z</time></trkpt><trkpt lat="42.12127" lon="11.9240167"><ele>434.5</ele><time>2026-04-19T11:57:13.338Z</time></trkpt><trkpt lat="42.121165" lon="11.924075"><ele>435.0</ele><time>2026-04-19T11:57:14.334Z</time></trkpt><trkpt lat="42.1210583" lon="11.9241517"><ele>435.5</ele><time>2026-04-19T11:57:15.333Z</time></trkpt><trkpt lat="42.12095" lon="11.924245"><ele>436.0</ele><time>2026-04-19T11:57:16.337Z</time></trkpt><trkpt lat="42.1208417" lon="11.92435"><ele>437.5</ele><time>2026-04-19T11:57:17.341Z</time></trkpt><trkpt lat="42.1207283" lon="11.9244667"><ele>439.0</ele><time>2026-04-19T11:57:18.332Z</time></trkpt><trkpt lat="42.1206133" lon="11.9245917"><ele>440.5</ele><time>2026-04-19T11:57:19.333Z</time></trkpt><trkpt lat="42.1205017" lon="11.92472"><ele>442.0</ele><time>2026-04-19T11:57:20.345Z</time></trkpt><trkpt lat="42.1203967" lon="11.924845"><ele>442.0</ele><time>2026-04-19T11:57:21.347Z</time></trkpt><trkpt lat="42.1203067" lon="11.9249533"><ele>442.00000000000006</ele><time>2026-04-19T11:57:22.338Z</time></trkpt><trkpt lat="42.12024" lon="11.9250333"><ele>442.00000000000006</ele><time>2026-04-19T11:57:23.335Z</time></trkpt><trkpt lat="42.1201717" lon="11.9251233"><ele>442.0</ele><time>2026-04-19T11:57:25.349Z</time></trkpt><trkpt lat="42.120115" lon="11.9252017"><ele>442.0</ele><time>2026-04-19T11:57:28.346Z</time></trkpt><trkpt lat="42.1200517" lon="11.9253067"><ele>443.6</ele><time>2026-04-19T11:57:31.346Z</time></trkpt><trkpt lat="42.1199783" lon="11.925425"><ele>445.20000000000005</ele><time>2026-04-19T11:57:33.346Z</time></trkpt><trkpt lat="42.1199233" lon="11.9255017"><ele>446.8</ele><time>2026-04-19T11:57:34.353Z</time></trkpt><trkpt lat="42.1198633" lon="11.925585"><ele>448.4</ele><time>2026-04-19T11:57:35.344Z</time></trkpt><trkpt lat="42.1198033" lon="11.9256733"><ele>450.0</ele><time>2026-04-19T11:57:36.35Z</time></trkpt><trkpt lat="42.1197467" lon="11.92576"><ele>450.0</ele><time>2026-04-19T11:57:37.343Z</time></trkpt><trkpt lat="42.1196917" lon="11.9258383"><ele>450.0</ele><time>2026-04-19T11:57:38.348Z</time></trkpt><trkpt lat="42.1196317" lon="11.9259233"><ele>450.0</ele><time>2026-04-19T11:57:39.34Z</time></trkpt><trkpt lat="42.1195617" lon="11.92603"><ele>450.0</ele><time>2026-04-19T11:57:40.359Z</time></trkpt><trkpt lat="42.119485" lon="11.92615"><ele>450.0</ele><time>2026-04-19T11:57:41.331Z</time></trkpt><trkpt lat="42.1194117" lon="11.92627"><ele>449.8</ele><time>2026-04-19T11:57:42.336Z</time></trkpt><trkpt lat="42.1193417" lon="11.92638"><ele>449.6</ele><time>2026-04-19T11:57:43.341Z</time></trkpt><trkpt lat="42.119275" lon="11.92648"><ele>449.4</ele><time>2026-04-19T11:57:44.34Z</time></trkpt><trkpt lat="42.119205" lon="11.926585"><ele>449.2</ele><time>2026-04-19T11:57:45.336Z</time></trkpt><trkpt lat="42.1191233" lon="11.9266867"><ele>449.0</ele><time>2026-04-19T11:57:46.328Z</time></trkpt><trkpt lat="42.1190283" lon="11.92678"><ele>448.2</ele><time>2026-04-19T11:57:47.348Z</time></trkpt><trkpt lat="42.11893" lon="11.9268667"><ele>447.4</ele><time>2026-04-19T11:57:48.346Z</time></trkpt><trkpt lat="42.1188483" lon="11.926935"><ele>446.6</ele><time>2026-04-19T11:57:49.341Z</time></trkpt><trkpt lat="42.11878" lon="11.9269917"><ele>445.8</ele><time>2026-04-19T11:57:50.341Z</time></trkpt><trkpt lat="42.1187217" lon="11.9270367"><ele>445.0</ele><time>2026-04-19T11:57:51.332Z</time></trkpt><trkpt lat="42.1186317" lon="11.9271083"><ele>445.00000000000006</ele><time>2026-04-19T11:57:53.343Z</time></trkpt><trkpt lat="42.1185633" lon="11.9271483"><ele>445.0</ele><time>2026-04-19T11:57:55.348Z</time></trkpt><trkpt lat="42.1184683" lon="11.927165"><ele>445.0</ele><time>2026-04-19T11:58:33.333Z</time></trkpt><trkpt lat="42.1183633" lon="11.9271867"><ele>445.0</ele><time>2026-04-19T11:58:35.339Z</time></trkpt><trkpt lat="42.1182933" lon="11.9271917"><ele>445.00000000000006</ele><time>2026-04-19T11:58:36.342Z</time></trkpt><trkpt lat="42.11822" lon="11.9271933"><ele>445.0</ele><time>2026-04-19T11:58:37.342Z</time></trkpt><trkpt lat="42.118135" lon="11.9271967"><ele>446.0</ele><time>2026-04-19T11:58:38.338Z</time></trkpt><trkpt lat="42.1180417" lon="11.9272"><ele>447.0</ele><time>2026-04-19T11:58:39.343Z</time></trkpt><trkpt lat="42.1179383" lon="11.9272017"><ele>448.0</ele><time>2026-04-19T11:58:40.345Z</time></trkpt><trkpt lat="42.1178317" lon="11.9272033"><ele>449.0</ele><time>2026-04-19T11:58:41.34Z</time></trkpt><trkpt lat="42.1177267" lon="11.9271983"><ele>450.0</ele><time>2026-04-19T11:58:42.343Z</time></trkpt><trkpt lat="42.1176333" lon="11.9271933"><ele>450.0</ele><time>2026-04-19T11:58:43.339Z</time></trkpt><trkpt lat="42.1175467" lon="11.927195"><ele>450.0</ele><time>2026-04-19T11:58:44.342Z</time></trkpt><trkpt lat="42.117455" lon="11.9272017"><ele>450.0</ele><time>2026-04-19T11:58:45.337Z</time></trkpt><trkpt lat="42.1173567" lon="11.9272133"><ele>450.0</ele><time>2026-04-19T11:58:46.343Z</time></trkpt><trkpt lat="42.1172633" lon="11.92723"><ele>450.0</ele><time>2026-04-19T11:58:47.344Z</time></trkpt><trkpt lat="42.11718" lon="11.9272483"><ele>450.0</ele><time>2026-04-19T11:58:48.342Z</time></trkpt><trkpt lat="42.1171017" lon="11.9272717"><ele>450.0</ele><time>2026-04-19T11:58:49.332Z</time></trkpt><trkpt lat="42.11703" lon="11.927295"><ele>450.0</ele><time>2026-04-19T11:58:50.329Z</time></trkpt><trkpt lat="42.116955" lon="11.927325"><ele>450.0</ele><time>2026-04-19T11:58:51.334Z</time></trkpt><trkpt lat="42.1168783" lon="11.9273567"><ele>450.0</ele><time>2026-04-19T11:58:52.347Z</time></trkpt><trkpt lat="42.1168067" lon="11.9273917"><ele>450.0</ele><time>2026-04-19T11:58:53.343Z</time></trkpt><trkpt lat="42.1167483" lon="11.9274333"><ele>450.0</ele><time>2026-04-19T11:58:54.335Z</time></trkpt><trkpt lat="42.1166517" lon="11.927515"><ele>450.0</ele><time>2026-04-19T11:58:56.335Z</time></trkpt><trkpt lat="42.1165667" lon="11.92759"><ele>450.0</ele><time>2026-04-19T11:58:58.336Z</time></trkpt><trkpt lat="42.116485" lon="11.9276733"><ele>450.0</ele><time>2026-04-19T11:59:00.34Z</time></trkpt><trkpt lat="42.1164" lon="11.9277617"><ele>450.0</ele><time>2026-04-19T11:59:02.335Z</time></trkpt><trkpt lat="42.1163233" lon="11.9278467"><ele>450.5</ele><time>2026-04-19T11:59:04.342Z</time></trkpt><trkpt lat="42.11626" lon="11.92791"><ele>451.0</ele><time>2026-04-19T11:59:06.335Z</time></trkpt><trkpt lat="42.1162033" lon="11.9279667"><ele>451.5</ele><time>2026-04-19T11:59:08.336Z</time></trkpt><trkpt lat="42.11615" lon="11.92803"><ele>452.0</ele><time>2026-04-19T11:59:11.337Z</time></trkpt><trkpt lat="42.11608" lon="11.9280983"><ele>452.5</ele><time>2026-04-19T11:59:15.347Z</time></trkpt><trkpt lat="42.11601" lon="11.9281733"><ele>453.0</ele><time>2026-04-19T11:59:17.336Z</time></trkpt><trkpt lat="42.1159283" lon="11.92827"><ele>453.0</ele><time>2026-04-19T11:59:19.332Z</time></trkpt><trkpt lat="42.11583" lon="11.928385"><ele>453.0</ele><time>2026-04-19T11:59:21.334Z</time></trkpt><trkpt lat="42.115775" lon="11.9284483"><ele>453.0</ele><time>2026-04-19T11:59:22.338Z</time></trkpt><trkpt lat="42.115715" lon="11.928515"><ele>453.0</ele><time>2026-04-19T11:59:23.342Z</time></trkpt><trkpt lat="42.1156517" lon="11.9285833"><ele>453.0</ele><time>2026-04-19T11:59:24.332Z</time></trkpt><trkpt lat="42.1155867" lon="11.92865"><ele>453.0</ele><time>2026-04-19T11:59:25.331Z</time></trkpt><trkpt lat="42.11552" lon="11.9287117"><ele>453.0</ele><time>2026-04-19T11:59:26.343Z</time></trkpt><trkpt lat="42.1154517" lon="11.928765"><ele>453.0</ele><time>2026-04-19T11:59:27.334Z</time></trkpt><trkpt lat="42.1153867" lon="11.928815"><ele>453.0</ele><time>2026-04-19T11:59:28.348Z</time></trkpt><trkpt lat="42.1153217" lon="11.9288617"><ele>453.0</ele><time>2026-04-19T11:59:29.341Z</time></trkpt><trkpt lat="42.1152583" lon="11.92891"><ele>453.0</ele><time>2026-04-19T11:59:30.337Z</time></trkpt><trkpt lat="42.1151983" lon="11.9289683"><ele>453.0</ele><time>2026-04-19T11:59:31.335Z</time></trkpt><trkpt lat="42.1151433" lon="11.9290383"><ele>453.0</ele><time>2026-04-19T11:59:32.335Z</time></trkpt><trkpt lat="42.11509" lon="11.929125"><ele>452.99999999999994</ele><time>2026-04-19T11:59:33.34Z</time></trkpt><trkpt lat="42.1150417" lon="11.9292267"><ele>452.99999999999994</ele><time>2026-04-19T11:59:34.33Z</time></trkpt><trkpt lat="42.1149917" lon="11.9293417"><ele>453.0</ele><time>2026-04-19T11:59:35.338Z</time></trkpt><trkpt lat="42.11494" lon="11.92946"><ele>453.0</ele><time>2026-04-19T11:59:36.339Z</time></trkpt><trkpt lat="42.1148833" lon="11.92958"><ele>452.5</ele><time>2026-04-19T11:59:37.347Z</time></trkpt><trkpt lat="42.1148167" lon="11.9297017"><ele>452.0</ele><time>2026-04-19T11:59:38.331Z</time></trkpt><trkpt lat="42.1147367" lon="11.9298267"><ele>451.5</ele><time>2026-04-19T11:59:39.341Z</time></trkpt><trkpt lat="42.11465" lon="11.9299633"><ele>451.0</ele><time>2026-04-19T11:59:40.339Z</time></trkpt><trkpt lat="42.1145567" lon="11.9301167"><ele>452.5</ele><time>2026-04-19T11:59:41.349Z</time></trkpt><trkpt lat="42.1144617" lon="11.9302783"><ele>454.0</ele><time>2026-04-19T11:59:42.345Z</time></trkpt><trkpt lat="42.1143683" lon="11.930435"><ele>455.5</ele><time>2026-04-19T11:59:43.341Z</time></trkpt><trkpt lat="42.1142883" lon="11.93057"><ele>457.0</ele><time>2026-04-19T11:59:44.34Z</time></trkpt><trkpt lat="42.1142167" lon="11.9306883"><ele>457.0</ele><time>2026-04-19T11:59:45.337Z</time></trkpt><trkpt lat="42.114155" lon="11.930795"><ele>457.00000000000006</ele><time>2026-04-19T11:59:46.355Z</time></trkpt><trkpt lat="42.1141017" lon="11.9308967"><ele>457.00000000000006</ele><time>2026-04-19T11:59:47.34Z</time></trkpt><trkpt lat="42.1140533" lon="11.930985"><ele>457.0</ele><time>2026-04-19T11:59:48.346Z</time></trkpt><trkpt lat="42.114015" lon="11.93106"><ele>457.0</ele><time>2026-04-19T11:59:49.339Z</time></trkpt><trkpt lat="42.1139483" lon="11.93118"><ele>455.5714285714286</ele><time>2026-04-19T11:59:51.336Z</time></trkpt><trkpt lat="42.1139" lon="11.93126"><ele>454.14285714285717</ele><time>2026-04-19T11:59:53.338Z</time></trkpt><trkpt lat="42.11385" lon="11.931315"><ele>452.7142857142857</ele><time>2026-04-19T11:59:55.342Z</time></trkpt><trkpt lat="42.11384" lon="11.9314067"><ele>451.28571428571433</ele><time>2026-04-19T12:12:53.371Z</time></trkpt><trkpt lat="42.1138933" lon="11.931355"><ele>449.8571428571429</ele><time>2026-04-19T12:12:57.357Z</time></trkpt><trkpt lat="42.1139233" lon="11.931265"><ele>448.4285714285714</ele><time>2026-04-19T12:13:00.35Z</time></trkpt><trkpt lat="42.11398" lon="11.9311583"><ele>447.0</ele><time>2026-04-19T12:13:03.351Z</time></trkpt><trkpt lat="42.11402" lon="11.9310767"><ele>448.6666666666667</ele><time>2026-04-19T12:13:05.343Z</time></trkpt><trkpt lat="42.1140917" lon="11.93094"><ele>450.33333333333337</ele><time>2026-04-19T12:13:07.343Z</time></trkpt><trkpt lat="42.11413" lon="11.9308667"><ele>452.0</ele><time>2026-04-19T12:13:08.332Z</time></trkpt><trkpt lat="42.1141733" lon="11.9307967"><ele>453.6666666666667</ele><time>2026-04-19T12:13:09.346Z</time></trkpt><trkpt lat="42.1142083" lon="11.930725"><ele>455.33333333333337</ele><time>2026-04-19T12:13:10.34Z</time></trkpt><trkpt lat="42.1142633" lon="11.9306267"><ele>457.0</ele><time>2026-04-19T12:13:11.365Z</time></trkpt><trkpt lat="42.1143283" lon="11.9305233"><ele>457.00000000000006</ele><time>2026-04-19T12:13:12.366Z</time></trkpt><trkpt lat="42.114385" lon="11.9304233"><ele>457.0</ele><time>2026-04-19T12:13:13.356Z</time></trkpt><trkpt lat="42.1144367" lon="11.93033"><ele>457.0</ele><time>2026-04-19T12:13:14.364Z</time></trkpt><trkpt lat="42.1144833" lon="11.9302533"><ele>457.0</ele><time>2026-04-19T12:13:15.367Z</time></trkpt><trkpt lat="42.114525" lon="11.9301817"><ele>457.00000000000006</ele><time>2026-04-19T12:13:16.368Z</time></trkpt><trkpt lat="42.1145683" lon="11.930115"><ele>457.0</ele><time>2026-04-19T12:13:17.362Z</time></trkpt><trkpt lat="42.11465" lon="11.9299833"><ele>456.1428571428572</ele><time>2026-04-19T12:13:19.368Z</time></trkpt><trkpt lat="42.1146967" lon="11.9299117"><ele>455.28571428571433</ele><time>2026-04-19T12:13:20.36Z</time></trkpt><trkpt lat="42.114745" lon="11.9298383"><ele>454.42857142857144</ele><time>2026-04-19T12:13:21.358Z</time></trkpt><trkpt lat="42.11479" lon="11.9297633"><ele>453.5714285714286</ele><time>2026-04-19T12:13:22.365Z</time></trkpt><trkpt lat="42.1148317" lon="11.929685"><ele>452.7142857142858</ele><time>2026-04-19T12:13:23.366Z</time></trkpt><trkpt lat="42.1148717" lon="11.9296083"><ele>451.85714285714283</ele><time>2026-04-19T12:13:24.367Z</time></trkpt><trkpt lat="42.11491" lon="11.92953"><ele>451.0</ele><time>2026-04-19T12:13:25.367Z</time></trkpt><trkpt lat="42.1149483" lon="11.9294517"><ele>451.2857142857143</ele><time>2026-04-19T12:13:26.367Z</time></trkpt><trkpt lat="42.1149867" lon="11.92937"><ele>451.57142857142856</ele><time>2026-04-19T12:13:27.359Z</time></trkpt><trkpt lat="42.1150217" lon="11.9292883"><ele>451.85714285714283</ele><time>2026-04-19T12:13:28.354Z</time></trkpt><trkpt lat="42.115055" lon="11.9292083"><ele>452.1428571428571</ele><time>2026-04-19T12:13:29.367Z</time></trkpt><trkpt lat="42.1150933" lon="11.92913"><ele>452.42857142857144</ele><time>2026-04-19T12:13:30.359Z</time></trkpt><trkpt lat="42.11514" lon="11.9290567"><ele>452.71428571428567</ele><time>2026-04-19T12:13:31.367Z</time></trkpt><trkpt lat="42.1151967" lon="11.92899"><ele>452.99999999999994</ele><time>2026-04-19T12:13:32.369Z</time></trkpt><trkpt lat="42.1152633" lon="11.9289367"><ele>453.0</ele><time>2026-04-19T12:13:33.366Z</time></trkpt><trkpt lat="42.1153333" lon="11.9288867"><ele>453.0</ele><time>2026-04-19T12:13:34.365Z</time></trkpt><trkpt lat="42.1154067" lon="11.9288367"><ele>453.0</ele><time>2026-04-19T12:13:35.36Z</time></trkpt><trkpt lat="42.1154783" lon="11.9287783"><ele>453.0</ele><time>2026-04-19T12:13:36.345Z</time></trkpt><trkpt lat="42.1155467" lon="11.9287133"><ele>453.0</ele><time>2026-04-19T12:13:37.364Z</time></trkpt><trkpt lat="42.1156133" lon="11.9286483"><ele>453.0</ele><time>2026-04-19T12:13:38.369Z</time></trkpt><trkpt lat="42.1156733" lon="11.9285867"><ele>453.0</ele><time>2026-04-19T12:13:39.366Z</time></trkpt><trkpt lat="42.1157283" lon="11.928525"><ele>453.0</ele><time>2026-04-19T12:13:40.373Z</time></trkpt><trkpt lat="42.1157883" lon="11.928455"><ele>453.0</ele><time>2026-04-19T12:13:41.369Z</time></trkpt><trkpt lat="42.1158583" lon="11.9283767"><ele>453.0</ele><time>2026-04-19T12:13:42.366Z</time></trkpt><trkpt lat="42.1159283" lon="11.9283"><ele>453.0</ele><time>2026-04-19T12:13:43.369Z</time></trkpt><trkpt lat="42.1160033" lon="11.9282183"><ele>453.0</ele><time>2026-04-19T12:13:44.369Z</time></trkpt><trkpt lat="42.1160783" lon="11.9281367"><ele>453.0</ele><time>2026-04-19T12:13:45.342Z</time></trkpt><trkpt lat="42.116155" lon="11.9280567"><ele>452.99999999999994</ele><time>2026-04-19T12:13:46.366Z</time></trkpt><trkpt lat="42.1162333" lon="11.92797"><ele>452.99999999999994</ele><time>2026-04-19T12:13:47.35Z</time></trkpt><trkpt lat="42.1163117" lon="11.9278867"><ele>453.0</ele><time>2026-04-19T12:13:48.37Z</time></trkpt><trkpt lat="42.11639" lon="11.9278083"><ele>453.0</ele><time>2026-04-19T12:13:49.368Z</time></trkpt><trkpt lat="42.11647" lon="11.92773"><ele>453.0</ele><time>2026-04-19T12:13:50.371Z</time></trkpt><trkpt lat="42.116545" lon="11.9276533"><ele>452.99999999999994</ele><time>2026-04-19T12:13:51.368Z</time></trkpt><trkpt lat="42.1166167" lon="11.92758"><ele>452.99999999999994</ele><time>2026-04-19T12:13:52.365Z</time></trkpt><trkpt lat="42.1166867" lon="11.9275133"><ele>453.0</ele><time>2026-04-19T12:13:53.372Z</time></trkpt><trkpt lat="42.116765" lon="11.92745"><ele>453.0</ele><time>2026-04-19T12:13:54.355Z</time></trkpt><trkpt lat="42.11685" lon="11.9273967"><ele>452.4</ele><time>2026-04-19T12:13:55.374Z</time></trkpt><trkpt lat="42.1169417" lon="11.9273567"><ele>451.79999999999995</ele><time>2026-04-19T12:13:56.366Z</time></trkpt><trkpt lat="42.1170383" lon="11.9273217"><ele>451.2</ele><time>2026-04-19T12:13:57.362Z</time></trkpt><trkpt lat="42.117135" lon="11.9272917"><ele>450.6</ele><time>2026-04-19T12:13:58.354Z</time></trkpt><trkpt lat="42.1172317" lon="11.9272683"><ele>450.0</ele><time>2026-04-19T12:13:59.364Z</time></trkpt><trkpt lat="42.117325" lon="11.927255"><ele>450.0</ele><time>2026-04-19T12:14:00.368Z</time></trkpt><trkpt lat="42.11742" lon="11.9272433"><ele>450.0</ele><time>2026-04-19T12:14:01.368Z</time></trkpt><trkpt lat="42.1175117" lon="11.927235"><ele>450.0</ele><time>2026-04-19T12:14:02.37Z</time></trkpt><trkpt lat="42.1176017" lon="11.9272267"><ele>450.0</ele><time>2026-04-19T12:14:03.371Z</time></trkpt><trkpt lat="42.1176917" lon="11.9272233"><ele>450.0</ele><time>2026-04-19T12:14:04.366Z</time></trkpt><trkpt lat="42.1177883" lon="11.9272283"><ele>450.0</ele><time>2026-04-19T12:14:05.366Z</time></trkpt><trkpt lat="42.1178967" lon="11.9272367"><ele>450.0</ele><time>2026-04-19T12:14:06.366Z</time></trkpt><trkpt lat="42.1180067" lon="11.9272367"><ele>450.0</ele><time>2026-04-19T12:14:07.366Z</time></trkpt><trkpt lat="42.11812" lon="11.92723"><ele>450.0</ele><time>2026-04-19T12:14:08.37Z</time></trkpt><trkpt lat="42.1182267" lon="11.92723"><ele>450.0</ele><time>2026-04-19T12:14:09.372Z</time></trkpt><trkpt lat="42.118335" lon="11.9272283"><ele>448.75</ele><time>2026-04-19T12:14:10.364Z</time></trkpt><trkpt lat="42.11845" lon="11.9272083"><ele>447.5</ele><time>2026-04-19T12:14:11.366Z</time></trkpt><trkpt lat="42.1185633" lon="11.927165"><ele>446.25</ele><time>2026-04-19T12:14:12.367Z</time></trkpt><trkpt lat="42.118675" lon="11.9271"><ele>445.0</ele><time>2026-04-19T12:14:13.376Z</time></trkpt><trkpt lat="42.1187817" lon="11.92702"><ele>445.0</ele><time>2026-04-19T12:14:14.37Z</time></trkpt><trkpt lat="42.1188867" lon="11.926935"><ele>445.0</ele><time>2026-04-19T12:14:15.364Z</time></trkpt><trkpt lat="42.1189933" lon="11.9268417"><ele>445.0</ele><time>2026-04-19T12:14:16.372Z</time></trkpt><trkpt lat="42.1190983" lon="11.9267333"><ele>445.0</ele><time>2026-04-19T12:14:17.362Z</time></trkpt><trkpt lat="42.1191983" lon="11.92661"><ele>446.0</ele><time>2026-04-19T12:14:18.37Z</time></trkpt><trkpt lat="42.1192933" lon="11.9264683"><ele>447.0</ele><time>2026-04-19T12:14:19.369Z</time></trkpt><trkpt lat="42.119385" lon="11.926315"><ele>448.0</ele><time>2026-04-19T12:14:20.352Z</time></trkpt><trkpt lat="42.1194767" lon="11.9261617"><ele>449.0</ele><time>2026-04-19T12:14:21.361Z</time></trkpt><trkpt lat="42.1195667" lon="11.926015"><ele>449.25</ele><time>2026-04-19T12:14:22.371Z</time></trkpt><trkpt lat="42.1196567" lon="11.92587"><ele>449.5</ele><time>2026-04-19T12:14:23.367Z</time></trkpt><trkpt lat="42.1197533" lon="11.9257267"><ele>449.75</ele><time>2026-04-19T12:14:24.36Z</time></trkpt><trkpt lat="42.1198517" lon="11.925585"><ele>450.0</ele><time>2026-04-19T12:14:25.364Z</time></trkpt><trkpt lat="42.1199417" lon="11.9254467"><ele>450.25</ele><time>2026-04-19T12:14:26.36Z</time></trkpt><trkpt lat="42.12003" lon="11.9253117"><ele>450.5</ele><time>2026-04-19T12:14:27.361Z</time></trkpt><trkpt lat="42.1201233" lon="11.9251833"><ele>450.75</ele><time>2026-04-19T12:14:28.364Z</time></trkpt><trkpt lat="42.1202233" lon="11.9250617"><ele>451.0</ele><time>2026-04-19T12:14:29.37Z</time></trkpt><trkpt lat="42.1203267" lon="11.9249383"><ele>448.75</ele><time>2026-04-19T12:14:30.373Z</time></trkpt><trkpt lat="42.1204233" lon="11.9248183"><ele>446.5</ele><time>2026-04-19T12:14:31.367Z</time></trkpt><trkpt lat="42.120515" lon="11.92471"><ele>444.25</ele><time>2026-04-19T12:14:32.373Z</time></trkpt><trkpt lat="42.12061" lon="11.9246067"><ele>442.0</ele><time>2026-04-19T12:14:33.37Z</time></trkpt><trkpt lat="42.1207133" lon="11.9245"><ele>442.25</ele><time>2026-04-19T12:14:34.37Z</time></trkpt><trkpt lat="42.12082" lon="11.92439"><ele>442.5</ele><time>2026-04-19T12:14:35.371Z</time></trkpt><trkpt lat="42.1209267" lon="11.92429"><ele>442.75</ele><time>2026-04-19T12:14:36.373Z</time></trkpt><trkpt lat="42.1210333" lon="11.924195"><ele>443.0</ele><time>2026-04-19T12:14:37.37Z</time></trkpt><trkpt lat="42.1211383" lon="11.924115"><ele>441.59999999999997</ele><time>2026-04-19T12:14:38.364Z</time></trkpt><trkpt lat="42.1212433" lon="11.924055"><ele>440.19999999999993</ele><time>2026-04-19T12:14:39.369Z</time></trkpt><trkpt lat="42.12134" lon="11.92401"><ele>438.8</ele><time>2026-04-19T12:14:40.359Z</time></trkpt><trkpt lat="42.121435" lon="11.9239733"><ele>437.4</ele><time>2026-04-19T12:14:41.362Z</time></trkpt><trkpt lat="42.1215433" lon="11.9239367"><ele>436.0</ele><time>2026-04-19T12:14:42.362Z</time></trkpt><trkpt lat="42.1216683" lon="11.923895"><ele>435.5</ele><time>2026-04-19T12:14:43.365Z</time></trkpt><trkpt lat="42.1217933" lon="11.9238483"><ele>435.0</ele><time>2026-04-19T12:14:44.37Z</time></trkpt><trkpt lat="42.1219183" lon="11.9237967"><ele>434.5</ele><time>2026-04-19T12:14:45.367Z</time></trkpt><trkpt lat="42.1220417" lon="11.923735"><ele>434.0</ele><time>2026-04-19T12:14:46.368Z</time></trkpt><trkpt lat="42.1221633" lon="11.923665"><ele>434.0</ele><time>2026-04-19T12:14:47.37Z</time></trkpt><trkpt lat="42.1222833" lon="11.9235833"><ele>434.0</ele><time>2026-04-19T12:14:48.342Z</time></trkpt><trkpt lat="42.1224067" lon="11.9235"><ele>434.0</ele><time>2026-04-19T12:14:49.371Z</time></trkpt><trkpt lat="42.1225283" lon="11.9234167"><ele>434.0</ele><time>2026-04-19T12:14:50.364Z</time></trkpt><trkpt lat="42.1226517" lon="11.9233333"><ele>435.5</ele><time>2026-04-19T12:14:51.368Z</time></trkpt><trkpt lat="42.1227733" lon="11.9232533"><ele>437.0</ele><time>2026-04-19T12:14:52.359Z</time></trkpt><trkpt lat="42.122895" lon="11.923175"><ele>438.5</ele><time>2026-04-19T12:14:53.365Z</time></trkpt><trkpt lat="42.123015" lon="11.9230983"><ele>440.0</ele><time>2026-04-19T12:14:54.367Z</time></trkpt><trkpt lat="42.1231383" lon="11.92303"><ele>440.25</ele><time>2026-04-19T12:14:55.367Z</time></trkpt><trkpt lat="42.123265" lon="11.9229767"><ele>440.5</ele><time>2026-04-19T12:14:56.369Z</time></trkpt><trkpt lat="42.123385" lon="11.9229367"><ele>440.75</ele><time>2026-04-19T12:14:57.37Z</time></trkpt><trkpt lat="42.1234933" lon="11.9229"><ele>441.0</ele><time>2026-04-19T12:14:58.372Z</time></trkpt><trkpt lat="42.123575" lon="11.92286"><ele>441.0</ele><time>2026-04-19T12:14:59.373Z</time></trkpt><trkpt lat="42.1236417" lon="11.9228017"><ele>441.0</ele><time>2026-04-19T12:15:00.37Z</time></trkpt><trkpt lat="42.1236983" lon="11.9227183"><ele>441.0</ele><time>2026-04-19T12:15:01.371Z</time></trkpt><trkpt lat="42.123745" lon="11.9225983"><ele>441.0</ele><time>2026-04-19T12:15:02.372Z</time></trkpt><trkpt lat="42.123795" lon="11.9224733"><ele>441.0</ele><time>2026-04-19T12:15:03.373Z</time></trkpt><trkpt lat="42.123855" lon="11.9223567"><ele>442.8</ele><time>2026-04-19T12:15:04.37Z</time></trkpt><trkpt lat="42.1239367" lon="11.9222617"><ele>444.6</ele><time>2026-04-19T12:15:05.338Z</time></trkpt><trkpt lat="42.124035" lon="11.9221867"><ele>446.4</ele><time>2026-04-19T12:15:06.363Z</time></trkpt><trkpt lat="42.1241267" lon="11.922115"><ele>448.2</ele><time>2026-04-19T12:15:07.354Z</time></trkpt><trkpt lat="42.1242067" lon="11.9220217"><ele>450.0</ele><time>2026-04-19T12:15:08.345Z</time></trkpt><trkpt lat="42.1242717" lon="11.921905"><ele>450.0</ele><time>2026-04-19T12:15:09.362Z</time></trkpt><trkpt lat="42.1243417" lon="11.9217683"><ele>450.0</ele><time>2026-04-19T12:15:10.366Z</time></trkpt><trkpt lat="42.12441" lon="11.9216333"><ele>450.0</ele><time>2026-04-19T12:15:11.371Z</time></trkpt><trkpt lat="42.12447" lon="11.9215117"><ele>450.0</ele><time>2026-04-19T12:15:12.37Z</time></trkpt><trkpt lat="42.12452" lon="11.9213883"><ele>453.75</ele><time>2026-04-19T12:15:13.376Z</time></trkpt><trkpt lat="42.124555" lon="11.9212517"><ele>457.5</ele><time>2026-04-19T12:15:14.367Z</time></trkpt><trkpt lat="42.1245783" lon="11.9211017"><ele>461.25</ele><time>2026-04-19T12:15:15.335Z</time></trkpt><trkpt lat="42.1245917" lon="11.92094"><ele>465.0</ele><time>2026-04-19T12:15:16.333Z</time></trkpt><trkpt lat="42.1246017" lon="11.9207783"><ele>465.0</ele><time>2026-04-19T12:15:17.414Z</time></trkpt><trkpt lat="42.1246183" lon="11.9206267"><ele>465.0</ele><time>2026-04-19T12:15:18.368Z</time></trkpt><trkpt lat="42.1246383" lon="11.9204817"><ele>465.0</ele><time>2026-04-19T12:15:19.329Z</time></trkpt><trkpt lat="42.12467" lon="11.92034"><ele>465.0</ele><time>2026-04-19T12:15:20.335Z</time></trkpt><trkpt lat="42.12472" lon="11.9202083"><ele>465.0</ele><time>2026-04-19T12:15:21.343Z</time></trkpt><trkpt lat="42.1247967" lon="11.9200817"><ele>462.0</ele><time>2026-04-19T12:15:22.35Z</time></trkpt><trkpt lat="42.1248833" lon="11.9199467"><ele>459.0</ele><time>2026-04-19T12:15:23.348Z</time></trkpt><trkpt lat="42.1249667" lon="11.9198117"><ele>456.0</ele><time>2026-04-19T12:15:24.34Z</time></trkpt><trkpt lat="42.1250617" lon="11.91968"><ele>453.0</ele><time>2026-04-19T12:15:25.334Z</time></trkpt><trkpt lat="42.125155" lon="11.9195517"><ele>453.0</ele><time>2026-04-19T12:15:26.362Z</time></trkpt><trkpt lat="42.1252533" lon="11.9194233"><ele>453.0</ele><time>2026-04-19T12:15:27.366Z</time></trkpt><trkpt lat="42.1253483" lon="11.9192983"><ele>453.0</ele><time>2026-04-19T12:15:28.338Z</time></trkpt><trkpt lat="42.125435" lon="11.9191767"><ele>453.0</ele><time>2026-04-19T12:15:29.344Z</time></trkpt><trkpt lat="42.12552" lon="11.9190583"><ele>452.75</ele><time>2026-04-19T12:15:30.355Z</time></trkpt><trkpt lat="42.1255983" lon="11.9189367"><ele>452.5</ele><time>2026-04-19T12:15:31.354Z</time></trkpt><trkpt lat="42.1256767" lon="11.918815"><ele>452.25</ele><time>2026-04-19T12:15:32.367Z</time></trkpt><trkpt lat="42.1257517" lon="11.9186917"><ele>452.0</ele><time>2026-04-19T12:15:33.37Z</time></trkpt><trkpt lat="42.1258217" lon="11.9185683"><ele>454.20000000000005</ele><time>2026-04-19T12:15:34.335Z</time></trkpt><trkpt lat="42.1258817" lon="11.9184483"><ele>456.40000000000003</ele><time>2026-04-19T12:15:35.365Z</time></trkpt><trkpt lat="42.1259367" lon="11.9183217"><ele>458.59999999999997</ele><time>2026-04-19T12:15:36.343Z</time></trkpt><trkpt lat="42.1259867" lon="11.9181867"><ele>460.79999999999995</ele><time>2026-04-19T12:15:37.335Z</time></trkpt><trkpt lat="42.1260383" lon="11.9180483"><ele>463.0</ele><time>2026-04-19T12:15:38.348Z</time></trkpt><trkpt lat="42.1260567" lon="11.9178883"><ele>463.0</ele><time>2026-04-19T12:15:39.343Z</time></trkpt><trkpt lat="42.1260417" lon="11.9177233"><ele>463.0</ele><time>2026-04-19T12:15:40.347Z</time></trkpt><trkpt lat="42.12602" lon="11.917565"><ele>463.0</ele><time>2026-04-19T12:15:41.348Z</time></trkpt><trkpt lat="42.1259967" lon="11.91741"><ele>463.0</ele><time>2026-04-19T12:15:42.361Z</time></trkpt><trkpt lat="42.1259767" lon="11.917255"><ele>463.0</ele><time>2026-04-19T12:15:43.337Z</time></trkpt><trkpt lat="42.1259617" lon="11.9170983"><ele>462.99999999999994</ele><time>2026-04-19T12:15:44.361Z</time></trkpt><trkpt lat="42.1259567" lon="11.91695"><ele>462.99999999999994</ele><time>2026-04-19T12:15:45.366Z</time></trkpt><trkpt lat="42.1259533" lon="11.916805"><ele>463.0</ele><time>2026-04-19T12:15:46.367Z</time></trkpt><trkpt lat="42.12596" lon="11.9166583"><ele>463.0</ele><time>2026-04-19T12:15:47.355Z</time></trkpt><trkpt lat="42.12598" lon="11.916515"><ele>464.25</ele><time>2026-04-19T12:15:48.352Z</time></trkpt><trkpt lat="42.1260167" lon="11.9163733"><ele>465.5</ele><time>2026-04-19T12:15:49.363Z</time></trkpt><trkpt lat="42.126075" lon="11.9162367"><ele>466.75</ele><time>2026-04-19T12:15:50.368Z</time></trkpt><trkpt lat="42.12615" lon="11.9161"><ele>468.0</ele><time>2026-04-19T12:15:51.369Z</time></trkpt><trkpt lat="42.1262317" lon="11.9159583"><ele>467.5</ele><time>2026-04-19T12:15:52.37Z</time></trkpt><trkpt lat="42.1263167" lon="11.9158117"><ele>467.0</ele><time>2026-04-19T12:15:53.369Z</time></trkpt><trkpt lat="42.1264" lon="11.91567"><ele>466.5</ele><time>2026-04-19T12:15:54.369Z</time></trkpt><trkpt lat="42.1264817" lon="11.9155367"><ele>466.0</ele><time>2026-04-19T12:15:55.368Z</time></trkpt><trkpt lat="42.126565" lon="11.9154167"><ele>466.0</ele><time>2026-04-19T12:15:56.36Z</time></trkpt><trkpt lat="42.1266467" lon="11.9153167"><ele>466.0</ele><time>2026-04-19T12:15:57.366Z</time></trkpt><trkpt lat="42.126725" lon="11.915235"><ele>466.0</ele><time>2026-04-19T12:15:58.359Z</time></trkpt><trkpt lat="42.126785" lon="11.9151517"><ele>466.0</ele><time>2026-04-19T12:15:59.375Z</time></trkpt><trkpt lat="42.126835" lon="11.9150633"><ele>466.0</ele><time>2026-04-19T12:16:00.358Z</time></trkpt><trkpt lat="42.1268667" lon="11.914955"><ele>467.20000000000005</ele><time>2026-04-19T12:16:01.369Z</time></trkpt><trkpt lat="42.126875" lon="11.9148333"><ele>468.40000000000003</ele><time>2026-04-19T12:16:02.371Z</time></trkpt><trkpt lat="42.1268483" lon="11.9147083"><ele>469.6</ele><time>2026-04-19T12:16:03.365Z</time></trkpt><trkpt lat="42.1267783" lon="11.9145817"><ele>470.8</ele><time>2026-04-19T12:16:04.355Z</time></trkpt><trkpt lat="42.1266933" lon="11.9144667"><ele>472.0</ele><time>2026-04-19T12:16:05.367Z</time></trkpt><trkpt lat="42.1266083" lon="11.9143617"><ele>471.6666666666667</ele><time>2026-04-19T12:16:06.373Z</time></trkpt><trkpt lat="42.126545" lon="11.9142683"><ele>471.33333333333337</ele><time>2026-04-19T12:16:07.34Z</time></trkpt><trkpt lat="42.1265" lon="11.9141767"><ele>471.0</ele><time>2026-04-19T12:16:08.348Z</time></trkpt><trkpt lat="42.1264783" lon="11.91408"><ele>470.66666666666663</ele><time>2026-04-19T12:16:09.368Z</time></trkpt><trkpt lat="42.1265017" lon="11.91398"><ele>470.3333333333333</ele><time>2026-04-19T12:16:10.369Z</time></trkpt><trkpt lat="42.1265533" lon="11.91389"><ele>470.0</ele><time>2026-04-19T12:16:11.373Z</time></trkpt><trkpt lat="42.1266267" lon="11.9138117"><ele>470.0</ele><time>2026-04-19T12:16:12.353Z</time></trkpt><trkpt lat="42.1267117" lon="11.9137267"><ele>470.0</ele><time>2026-04-19T12:16:13.368Z</time></trkpt><trkpt lat="42.1268017" lon="11.91361"><ele>470.0</ele><time>2026-04-19T12:16:14.369Z</time></trkpt><trkpt lat="42.1269" lon="11.9134683"><ele>470.0</ele><time>2026-04-19T12:16:15.369Z</time></trkpt><trkpt lat="42.1269967" lon="11.9133233"><ele>470.5</ele><time>2026-04-19T12:16:16.364Z</time></trkpt><trkpt lat="42.127085" lon="11.91318"><ele>471.0</ele><time>2026-04-19T12:16:17.373Z</time></trkpt><trkpt lat="42.1271717" lon="11.9130383"><ele>471.5</ele><time>2026-04-19T12:16:18.364Z</time></trkpt><trkpt lat="42.1272567" lon="11.9128933"><ele>472.0</ele><time>2026-04-19T12:16:19.368Z</time></trkpt><trkpt lat="42.12734" lon="11.912745"><ele>469.25</ele><time>2026-04-19T12:16:20.36Z</time></trkpt><trkpt lat="42.12743" lon="11.9125917"><ele>466.5</ele><time>2026-04-19T12:16:21.37Z</time></trkpt><trkpt lat="42.127525" lon="11.9124367"><ele>463.75</ele><time>2026-04-19T12:16:22.373Z</time></trkpt><trkpt lat="42.1276167" lon="11.9122833"><ele>461.0</ele><time>2026-04-19T12:16:23.364Z</time></trkpt><trkpt lat="42.1277017" lon="11.9121383"><ele>461.0</ele><time>2026-04-19T12:16:24.365Z</time></trkpt><trkpt lat="42.1277817" lon="11.9120017"><ele>461.0</ele><time>2026-04-19T12:16:25.364Z</time></trkpt><trkpt lat="42.1278633" lon="11.9118667"><ele>461.0</ele><time>2026-04-19T12:16:26.358Z</time></trkpt><trkpt lat="42.12794" lon="11.91173"><ele>461.0</ele><time>2026-04-19T12:16:27.359Z</time></trkpt><trkpt lat="42.1280083" lon="11.9115783"><ele>459.0</ele><time>2026-04-19T12:16:28.364Z</time></trkpt><trkpt lat="42.1280683" lon="11.9114183"><ele>457.0</ele><time>2026-04-19T12:16:29.334Z</time></trkpt><trkpt lat="42.128125" lon="11.91126"><ele>455.0</ele><time>2026-04-19T12:16:30.339Z</time></trkpt><trkpt lat="42.1281867" lon="11.9111067"><ele>453.0</ele><time>2026-04-19T12:16:31.336Z</time></trkpt><trkpt lat="42.1282533" lon="11.9109633"><ele>457.25</ele><time>2026-04-19T12:16:32.365Z</time></trkpt><trkpt lat="42.12833" lon="11.910825"><ele>461.5</ele><time>2026-04-19T12:16:33.341Z</time></trkpt><trkpt lat="42.12841" lon="11.910695"><ele>465.75</ele><time>2026-04-19T12:16:34.369Z</time></trkpt><trkpt lat="42.128485" lon="11.9105717"><ele>470.0</ele><time>2026-04-19T12:16:35.365Z</time></trkpt><trkpt lat="42.1285567" lon="11.9104433"><ele>470.0</ele><time>2026-04-19T12:16:36.354Z</time></trkpt><trkpt lat="42.128615" lon="11.9103017"><ele>470.0</ele><time>2026-04-19T12:16:37.369Z</time></trkpt><trkpt lat="42.128665" lon="11.9101467"><ele>470.0</ele><time>2026-04-19T12:16:38.368Z</time></trkpt><trkpt lat="42.1287033" lon="11.9099783"><ele>470.0</ele><time>2026-04-19T12:16:39.364Z</time></trkpt><trkpt lat="42.128725" lon="11.9098"><ele>469.3333333333333</ele><time>2026-04-19T12:16:40.369Z</time></trkpt><trkpt lat="42.1287317" lon="11.9096017"><ele>468.66666666666663</ele><time>2026-04-19T12:16:41.372Z</time></trkpt><trkpt lat="42.1287367" lon="11.9093767"><ele>468.0</ele><time>2026-04-19T12:16:42.37Z</time></trkpt><trkpt lat="42.1287383" lon="11.909125"><ele>468.0</ele><time>2026-04-19T12:16:43.372Z</time></trkpt><trkpt lat="42.1287433" lon="11.908865"><ele>468.0</ele><time>2026-04-19T12:16:44.369Z</time></trkpt><trkpt lat="42.128755" lon="11.9086"><ele>468.0</ele><time>2026-04-19T12:16:45.369Z</time></trkpt><trkpt lat="42.12877" lon="11.9083467"><ele>470.66666666666663</ele><time>2026-04-19T12:16:46.363Z</time></trkpt><trkpt lat="42.1287783" lon="11.9081067"><ele>473.3333333333333</ele><time>2026-04-19T12:16:47.368Z</time></trkpt><trkpt lat="42.128785" lon="11.90788"><ele>476.0</ele><time>2026-04-19T12:16:48.367Z</time></trkpt><trkpt lat="42.1287917" lon="11.9076633"><ele>479.25</ele><time>2026-04-19T12:16:49.334Z</time></trkpt><trkpt lat="42.1287933" lon="11.9074583"><ele>482.5</ele><time>2026-04-19T12:16:50.324Z</time></trkpt><trkpt lat="42.1287933" lon="11.907265"><ele>485.75</ele><time>2026-04-19T12:16:51.33Z</time></trkpt><trkpt lat="42.1288033" lon="11.9070867"><ele>489.0</ele><time>2026-04-19T12:16:52.336Z</time></trkpt><trkpt lat="42.1288267" lon="11.906905"><ele>490.75</ele><time>2026-04-19T12:16:53.344Z</time></trkpt><trkpt lat="42.1288517" lon="11.9067267"><ele>492.5</ele><time>2026-04-19T12:16:54.333Z</time></trkpt><trkpt lat="42.12887" lon="11.9065517"><ele>494.25</ele><time>2026-04-19T12:16:55.344Z</time></trkpt><trkpt lat="42.1288633" lon="11.9064017"><ele>496.0</ele><time>2026-04-19T12:16:56.329Z</time></trkpt><trkpt lat="42.1288333" lon="11.90625"><ele>496.0</ele><time>2026-04-19T12:16:57.327Z</time></trkpt><trkpt lat="42.12879" lon="11.9061133"><ele>496.0</ele><time>2026-04-19T12:16:58.329Z</time></trkpt><trkpt lat="42.1287133" lon="11.9059683"><ele>496.0</ele><time>2026-04-19T12:16:59.329Z</time></trkpt><trkpt lat="42.128645" lon="11.905805"><ele>496.0</ele><time>2026-04-19T12:17:00.327Z</time></trkpt><trkpt lat="42.1286083" lon="11.9056517"><ele>494.0</ele><time>2026-04-19T12:17:01.331Z</time></trkpt><trkpt lat="42.128605" lon="11.9055067"><ele>492.0</ele><time>2026-04-19T12:17:02.325Z</time></trkpt><trkpt lat="42.12864" lon="11.90536"><ele>490.0</ele><time>2026-04-19T12:17:03.33Z</time></trkpt><trkpt lat="42.1287" lon="11.9052133"><ele>488.0</ele><time>2026-04-19T12:17:04.358Z</time></trkpt><trkpt lat="42.1287733" lon="11.9050683"><ele>487.5</ele><time>2026-04-19T12:17:05.35Z</time></trkpt><trkpt lat="42.1288533" lon="11.9049333"><ele>487.0</ele><time>2026-04-19T12:17:06.374Z</time></trkpt><trkpt lat="42.1289317" lon="11.9048217"><ele>486.5</ele><time>2026-04-19T12:17:07.367Z</time></trkpt><trkpt lat="42.1290267" lon="11.90475"><ele>486.0</ele><time>2026-04-19T12:17:08.332Z</time></trkpt><trkpt lat="42.1291467" lon="11.9047083"><ele>485.5</ele><time>2026-04-19T12:17:09.361Z</time></trkpt><trkpt lat="42.12928" lon="11.90468"><ele>485.0</ele><time>2026-04-19T12:17:10.366Z</time></trkpt><trkpt lat="42.1294033" lon="11.9046367"><ele>484.5</ele><time>2026-04-19T12:17:11.367Z</time></trkpt><trkpt lat="42.12952" lon="11.9045883"><ele>484.0</ele><time>2026-04-19T12:17:12.354Z</time></trkpt><trkpt lat="42.12963" lon="11.9045433"><ele>484.0</ele><time>2026-04-19T12:17:13.352Z</time></trkpt><trkpt lat="42.1297417" lon="11.9045017"><ele>484.0</ele><time>2026-04-19T12:17:14.364Z</time></trkpt><trkpt lat="42.1298517" lon="11.9044567"><ele>484.0</ele><time>2026-04-19T12:17:15.371Z</time></trkpt><trkpt lat="42.1299583" lon="11.90441"><ele>484.0</ele><time>2026-04-19T12:17:16.367Z</time></trkpt><trkpt lat="42.1300667" lon="11.904365"><ele>483.0</ele><time>2026-04-19T12:17:17.37Z</time></trkpt><trkpt lat="42.1301767" lon="11.9043217"><ele>482.0</ele><time>2026-04-19T12:17:18.361Z</time></trkpt><trkpt lat="42.13029" lon="11.90428"><ele>481.0</ele><time>2026-04-19T12:17:19.371Z</time></trkpt><trkpt lat="42.1304083" lon="11.904235"><ele>480.0</ele><time>2026-04-19T12:17:20.355Z</time></trkpt><trkpt lat="42.13053" lon="11.9042"><ele>482.0</ele><time>2026-04-19T12:17:21.367Z</time></trkpt><trkpt lat="42.1306517" lon="11.90416"><ele>484.0</ele><time>2026-04-19T12:17:22.368Z</time></trkpt><trkpt lat="42.1307717" lon="11.9041167"><ele>486.0</ele><time>2026-04-19T12:17:23.365Z</time></trkpt><trkpt lat="42.1308917" lon="11.90407"><ele>488.0</ele><time>2026-04-19T12:17:24.364Z</time></trkpt><trkpt lat="42.13101" lon="11.904025"><ele>489.4</ele><time>2026-04-19T12:17:25.366Z</time></trkpt><trkpt lat="42.1311217" lon="11.9039733"><ele>490.79999999999995</ele><time>2026-04-19T12:17:26.373Z</time></trkpt><trkpt lat="42.13122" lon="11.9039117"><ele>492.2</ele><time>2026-04-19T12:17:27.368Z</time></trkpt><trkpt lat="42.1313033" lon="11.9038333"><ele>493.6</ele><time>2026-04-19T12:17:28.356Z</time></trkpt><trkpt lat="42.1313733" lon="11.9037433"><ele>495.0</ele><time>2026-04-19T12:17:29.363Z</time></trkpt><trkpt lat="42.13144" lon="11.9036367"><ele>495.0</ele><time>2026-04-19T12:17:30.368Z</time></trkpt><trkpt lat="42.13151" lon="11.9035233"><ele>495.0</ele><time>2026-04-19T12:17:31.372Z</time></trkpt><trkpt lat="42.1315867" lon="11.9034233"><ele>495.0</ele><time>2026-04-19T12:17:32.37Z</time></trkpt><trkpt lat="42.1316733" lon="11.9033583"><ele>495.0</ele><time>2026-04-19T12:17:33.364Z</time></trkpt><trkpt lat="42.1317583" lon="11.9033233"><ele>495.0</ele><time>2026-04-19T12:17:34.367Z</time></trkpt><trkpt lat="42.13184" lon="11.90331"><ele>494.8</ele><time>2026-04-19T12:17:35.357Z</time></trkpt><trkpt lat="42.1319233" lon="11.9033067"><ele>494.6</ele><time>2026-04-19T12:17:36.369Z</time></trkpt><trkpt lat="42.1320067" lon="11.9033067"><ele>494.4</ele><time>2026-04-19T12:17:37.368Z</time></trkpt><trkpt lat="42.1320967" lon="11.90331"><ele>494.2</ele><time>2026-04-19T12:17:38.371Z</time></trkpt><trkpt lat="42.132195" lon="11.9033133"><ele>494.0</ele><time>2026-04-19T12:17:39.368Z</time></trkpt><trkpt lat="42.1323" lon="11.9033117"><ele>493.4</ele><time>2026-04-19T12:17:40.365Z</time></trkpt><trkpt lat="42.1324033" lon="11.9033067"><ele>492.79999999999995</ele><time>2026-04-19T12:17:41.369Z</time></trkpt><trkpt lat="42.132505" lon="11.903305"><ele>492.20000000000005</ele><time>2026-04-19T12:17:42.374Z</time></trkpt><trkpt lat="42.132605" lon="11.9033117"><ele>491.6</ele><time>2026-04-19T12:17:43.373Z</time></trkpt><trkpt lat="42.132705" lon="11.903325"><ele>491.0</ele><time>2026-04-19T12:17:44.374Z</time></trkpt><trkpt lat="42.132805" lon="11.9033467"><ele>491.0</ele><time>2026-04-19T12:17:45.372Z</time></trkpt><trkpt lat="42.1329" lon="11.9033617"><ele>491.0</ele><time>2026-04-19T12:17:46.368Z</time></trkpt><trkpt lat="42.132995" lon="11.903355"><ele>491.0</ele><time>2026-04-19T12:17:47.339Z</time></trkpt><trkpt lat="42.1330933" lon="11.9033267"><ele>491.0</ele><time>2026-04-19T12:17:48.349Z</time></trkpt><trkpt lat="42.133195" lon="11.9032767"><ele>491.0</ele><time>2026-04-19T12:17:49.333Z</time></trkpt><trkpt lat="42.1332967" lon="11.9032083"><ele>488.75</ele><time>2026-04-19T12:17:50.339Z</time></trkpt><trkpt lat="42.1334" lon="11.90313"><ele>486.5</ele><time>2026-04-19T12:17:51.353Z</time></trkpt><trkpt lat="42.1335" lon="11.9030483"><ele>484.25</ele><time>2026-04-19T12:17:52.353Z</time></trkpt><trkpt lat="42.1335967" lon="11.90297"><ele>482.0</ele><time>2026-04-19T12:17:53.34Z</time></trkpt><trkpt lat="42.1336867" lon="11.9029067"><ele>482.0</ele><time>2026-04-19T12:17:54.334Z</time></trkpt><trkpt lat="42.1337767" lon="11.90285"><ele>482.00000000000006</ele><time>2026-04-19T12:17:55.359Z</time></trkpt><trkpt lat="42.1338683" lon="11.9028033"><ele>482.00000000000006</ele><time>2026-04-19T12:17:56.363Z</time></trkpt><trkpt lat="42.1339567" lon="11.9027717"><ele>482.0</ele><time>2026-04-19T12:17:57.357Z</time></trkpt><trkpt lat="42.1340483" lon="11.9027717"><ele>482.0</ele><time>2026-04-19T12:17:58.33Z</time></trkpt><trkpt lat="42.13414" lon="11.90281"><ele>480.5</ele><time>2026-04-19T12:17:59.366Z</time></trkpt><trkpt lat="42.1342333" lon="11.902885"><ele>479.0</ele><time>2026-04-19T12:18:00.369Z</time></trkpt><trkpt lat="42.1343267" lon="11.9029733"><ele>477.5</ele><time>2026-04-19T12:18:01.371Z</time></trkpt><trkpt lat="42.1344267" lon="11.9030617"><ele>476.0</ele><time>2026-04-19T12:18:02.333Z</time></trkpt><trkpt lat="42.1345317" lon="11.9031433"><ele>476.0</ele><time>2026-04-19T12:18:03.365Z</time></trkpt><trkpt lat="42.1346433" lon="11.9032117"><ele>476.0</ele><time>2026-04-19T12:18:04.349Z</time></trkpt><trkpt lat="42.1347633" lon="11.90326"><ele>476.0</ele><time>2026-04-19T12:18:05.329Z</time></trkpt><trkpt lat="42.13489" lon="11.9033033"><ele>476.0</ele><time>2026-04-19T12:18:06.34Z</time></trkpt><trkpt lat="42.1350228" lon="11.9033381"><ele>477.5</ele><time>2026-04-19T12:18:07.355Z</time></trkpt><trkpt lat="42.1351512" lon="11.9033953"><ele>479.0</ele><time>2026-04-19T12:18:08.352Z</time></trkpt><trkpt lat="42.135265" lon="11.9034661"><ele>480.5</ele><time>2026-04-19T12:18:09.357Z</time></trkpt><trkpt lat="42.1353573" lon="11.9035373"><ele>482.0</ele><time>2026-04-19T12:18:10.328Z</time></trkpt><trkpt lat="42.1354297" lon="11.9035989"><ele>480.66666666666663</ele><time>2026-04-19T12:18:11.342Z</time></trkpt><trkpt lat="42.1354977" lon="11.9036084"><ele>479.3333333333333</ele><time>2026-04-19T12:18:12.331Z</time></trkpt><trkpt lat="42.1355667" lon="11.9035845"><ele>478.0</ele><time>2026-04-19T12:18:13.333Z</time></trkpt><trkpt lat="42.1356403" lon="11.9035214"><ele>476.66666666666663</ele><time>2026-04-19T12:18:14.366Z</time></trkpt><trkpt lat="42.1357134" lon="11.9034255"><ele>475.3333333333333</ele><time>2026-04-19T12:18:15.355Z</time></trkpt><trkpt lat="42.1357807" lon="11.9032962"><ele>474.0</ele><time>2026-04-19T12:18:16.342Z</time></trkpt><trkpt lat="42.1358332" lon="11.9031185"><ele>474.0</ele><time>2026-04-19T12:18:17.367Z</time></trkpt><trkpt lat="42.1358864" lon="11.9029347"><ele>474.0</ele><time>2026-04-19T12:18:18.356Z</time></trkpt><trkpt lat="42.1359519" lon="11.9027641"><ele>474.0</ele><time>2026-04-19T12:18:19.364Z</time></trkpt><trkpt lat="42.136026" lon="11.9026305"><ele>474.0</ele><time>2026-04-19T12:18:20.365Z</time></trkpt><trkpt lat="42.136112" lon="11.9025363"><ele>471.75</ele><time>2026-04-19T12:18:21.357Z</time></trkpt><trkpt lat="42.1362148" lon="11.9024671"><ele>469.5</ele><time>2026-04-19T12:18:22.368Z</time></trkpt><trkpt lat="42.1363293" lon="11.9024062"><ele>467.25</ele><time>2026-04-19T12:18:23.365Z</time></trkpt><trkpt lat="42.1364467" lon="11.9023438"><ele>465.0</ele><time>2026-04-19T12:18:24.368Z</time></trkpt><trkpt lat="42.1365631" lon="11.9023011"><ele>465.0</ele><time>2026-04-19T12:18:25.361Z</time></trkpt><trkpt lat="42.1366669" lon="11.9022886"><ele>465.0</ele><time>2026-04-19T12:18:26.362Z</time></trkpt><trkpt lat="42.1367662" lon="11.9022918"><ele>465.0</ele><time>2026-04-19T12:18:27.367Z</time></trkpt><trkpt lat="42.1368548" lon="11.902297"><ele>465.0</ele><time>2026-04-19T12:18:28.359Z</time></trkpt><trkpt lat="42.136935" lon="11.9022885"><ele>465.0</ele><time>2026-04-19T12:18:29.342Z</time></trkpt><trkpt lat="42.1370167" lon="11.9022633"><ele>465.0</ele><time>2026-04-19T12:18:30.341Z</time></trkpt><trkpt lat="42.1371033" lon="11.9022283"><ele>465.0</ele><time>2026-04-19T12:18:31.345Z</time></trkpt><trkpt lat="42.1371883" lon="11.902155"><ele>465.0</ele><time>2026-04-19T12:18:32.326Z</time></trkpt><trkpt lat="42.13727" lon="11.9020733"><ele>465.0</ele><time>2026-04-19T12:18:33.341Z</time></trkpt><trkpt lat="42.137355" lon="11.9020117"><ele>465.0</ele><time>2026-04-19T12:18:34.332Z</time></trkpt><trkpt lat="42.13744" lon="11.90198"><ele>466.1666666666667</ele><time>2026-04-19T12:18:35.336Z</time></trkpt><trkpt lat="42.1375117" lon="11.9019717"><ele>467.33333333333337</ele><time>2026-04-19T12:18:36.338Z</time></trkpt><trkpt lat="42.137625" lon="11.9019667"><ele>468.5</ele><time>2026-04-19T12:18:38.359Z</time></trkpt><trkpt lat="42.1376983" lon="11.9019967"><ele>469.6666666666667</ele><time>2026-04-19T12:18:39.374Z</time></trkpt><trkpt lat="42.1377767" lon="11.902015"><ele>470.83333333333337</ele><time>2026-04-19T12:18:40.348Z</time></trkpt><trkpt lat="42.1378467" lon="11.9020233"><ele>472.0</ele><time>2026-04-19T12:18:41.363Z</time></trkpt><trkpt lat="42.1379617" lon="11.9020117"><ele>472.00000000000006</ele><time>2026-04-19T12:18:43.371Z</time></trkpt><trkpt lat="42.1380733" lon="11.901935"><ele>472.0</ele><time>2026-04-19T12:18:45.368Z</time></trkpt><trkpt lat="42.1381233" lon="11.9018617"><ele>472.0</ele><time>2026-04-19T12:18:46.368Z</time></trkpt><trkpt lat="42.1381617" lon="11.90178"><ele>472.0</ele><time>2026-04-19T12:18:47.371Z</time></trkpt><trkpt lat="42.1381867" lon="11.9016917"><ele>472.00000000000006</ele><time>2026-04-19T12:18:48.37Z</time></trkpt><trkpt lat="42.1382033" lon="11.9016033"><ele>472.0</ele><time>2026-04-19T12:18:49.351Z</time></trkpt><trkpt lat="42.1382333" lon="11.9014417"><ele>471.33333333333337</ele><time>2026-04-19T12:18:51.36Z</time></trkpt><trkpt lat="42.13826" lon="11.9013583"><ele>470.6666666666667</ele><time>2026-04-19T12:18:52.381Z</time></trkpt><trkpt lat="42.1382967" lon="11.90128"><ele>470.0</ele><time>2026-04-19T12:18:53.369Z</time></trkpt><trkpt lat="42.1383433" lon="11.90121"><ele>469.33333333333337</ele><time>2026-04-19T12:18:54.36Z</time></trkpt><trkpt lat="42.1383883" lon="11.9011417"><ele>468.6666666666667</ele><time>2026-04-19T12:18:55.363Z</time></trkpt><trkpt lat="42.1384267" lon="11.9010733"><ele>468.0</ele><time>2026-04-19T12:18:56.366Z</time></trkpt><trkpt lat="42.138475" lon="11.9009283"><ele>465.8333333333333</ele><time>2026-04-19T12:18:58.378Z</time></trkpt><trkpt lat="42.1385" lon="11.9008483"><ele>463.66666666666663</ele><time>2026-04-19T12:18:59.357Z</time></trkpt><trkpt lat="42.1385583" lon="11.9007183"><ele>461.5</ele><time>2026-04-19T12:19:01.37Z</time></trkpt><trkpt lat="42.138645" lon="11.9006133"><ele>459.3333333333333</ele><time>2026-04-19T12:19:03.363Z</time></trkpt><trkpt lat="42.1387033" lon="11.900575"><ele>457.16666666666663</ele><time>2026-04-19T12:19:04.366Z</time></trkpt><trkpt lat="42.1387683" lon="11.900545"><ele>455.0</ele><time>2026-04-19T12:19:05.364Z</time></trkpt><trkpt lat="42.13883" lon="11.900525"><ele>454.99999999999994</ele><time>2026-04-19T12:19:06.34Z</time></trkpt><trkpt lat="42.1388933" lon="11.9005117"><ele>455.0</ele><time>2026-04-19T12:19:07.349Z</time></trkpt><trkpt lat="42.13896" lon="11.9005033"><ele>455.0</ele><time>2026-04-19T12:19:08.34Z</time></trkpt><trkpt lat="42.1390267" lon="11.9005033"><ele>455.0</ele><time>2026-04-19T12:19:09.362Z</time></trkpt><trkpt lat="42.13913" lon="11.9005367"><ele>454.99999999999994</ele><time>2026-04-19T12:19:11.354Z</time></trkpt><trkpt lat="42.1392167" lon="11.9005983"><ele>455.0</ele><time>2026-04-19T12:19:13.366Z</time></trkpt><trkpt lat="42.1393267" lon="11.9006333"><ele>456.7142857142857</ele><time>2026-04-19T12:19:15.362Z</time></trkpt><trkpt lat="42.1393917" lon="11.9006383"><ele>458.42857142857144</ele><time>2026-04-19T12:19:16.369Z</time></trkpt><trkpt lat="42.1394583" lon="11.9006367"><ele>460.1428571428571</ele><time>2026-04-19T12:19:17.333Z</time></trkpt><trkpt lat="42.139525" lon="11.9006283"><ele>461.85714285714283</ele><time>2026-04-19T12:19:18.358Z</time></trkpt><trkpt lat="42.1395983" lon="11.900615"><ele>463.57142857142856</ele><time>2026-04-19T12:19:19.37Z</time></trkpt><trkpt lat="42.1396783" lon="11.9006033"><ele>465.2857142857142</ele><time>2026-04-19T12:19:20.365Z</time></trkpt><trkpt lat="42.1397583" lon="11.9005933"><ele>466.99999999999994</ele><time>2026-04-19T12:19:21.363Z</time></trkpt><trkpt lat="42.1398283" lon="11.9005933"><ele>467.8333333333333</ele><time>2026-04-19T12:19:22.346Z</time></trkpt><trkpt lat="42.1399483" lon="11.9005883"><ele>468.66666666666663</ele><time>2026-04-19T12:19:24.366Z</time></trkpt><trkpt lat="42.140015" lon="11.9005883"><ele>469.5</ele><time>2026-04-19T12:19:25.371Z</time></trkpt><trkpt lat="42.1400833" lon="11.9005883"><ele>470.33333333333337</ele><time>2026-04-19T12:19:26.335Z</time></trkpt><trkpt lat="42.1401517" lon="11.9005833"><ele>471.1666666666667</ele><time>2026-04-19T12:19:27.366Z</time></trkpt><trkpt lat="42.14022" lon="11.9005733"><ele>472.0</ele><time>2026-04-19T12:19:28.338Z</time></trkpt><trkpt lat="42.1402867" lon="11.900565"><ele>472.0</ele><time>2026-04-19T12:19:29.335Z</time></trkpt><trkpt lat="42.1404017" lon="11.9005717"><ele>472.00000000000006</ele><time>2026-04-19T12:19:31.347Z</time></trkpt><trkpt lat="42.1405033" lon="11.90066"><ele>472.00000000000006</ele><time>2026-04-19T12:19:33.34Z</time></trkpt><trkpt lat="42.140555" lon="11.90072"><ele>472.0</ele><time>2026-04-19T12:19:34.325Z</time></trkpt><trkpt lat="42.1406183" lon="11.9007767"><ele>472.0</ele><time>2026-04-19T12:19:35.33Z</time></trkpt><trkpt lat="42.1406967" lon="11.9007867"><ele>471.6666666666667</ele><time>2026-04-19T12:19:36.325Z</time></trkpt><trkpt lat="42.1407683" lon="11.9007867"><ele>471.33333333333337</ele><time>2026-04-19T12:19:37.337Z</time></trkpt><trkpt lat="42.140835" lon="11.9007917"><ele>471.0</ele><time>2026-04-19T12:19:38.34Z</time></trkpt><trkpt lat="42.140905" lon="11.9008033"><ele>470.66666666666663</ele><time>2026-04-19T12:19:39.344Z</time></trkpt><trkpt lat="42.14098" lon="11.900825"><ele>470.3333333333333</ele><time>2026-04-19T12:19:40.344Z</time></trkpt><trkpt lat="42.1410417" lon="11.9008667"><ele>470.0</ele><time>2026-04-19T12:19:41.357Z</time></trkpt><trkpt lat="42.1411317" lon="11.9009617"><ele>470.66666666666663</ele><time>2026-04-19T12:19:43.34Z</time></trkpt><trkpt lat="42.1411833" lon="11.90103"><ele>471.3333333333333</ele><time>2026-04-19T12:19:45.357Z</time></trkpt><trkpt lat="42.1412617" lon="11.9010667"><ele>472.0</ele><time>2026-04-19T12:19:47.361Z</time></trkpt><trkpt lat="42.1413867" lon="11.9010983"><ele>472.66666666666663</ele><time>2026-04-19T12:19:49.359Z</time></trkpt><trkpt lat="42.14146" lon="11.9010867"><ele>473.3333333333333</ele><time>2026-04-19T12:19:50.365Z</time></trkpt><trkpt lat="42.14153" lon="11.9010533"><ele>474.0</ele><time>2026-04-19T12:19:51.344Z</time></trkpt><trkpt lat="42.1415933" lon="11.9009917"><ele>473.99999999999994</ele><time>2026-04-19T12:19:52.354Z</time></trkpt><trkpt lat="42.14165" lon="11.9009183"><ele>474.0</ele><time>2026-04-19T12:19:53.358Z</time></trkpt><trkpt lat="42.1416967" lon="11.900845"><ele>473.99999999999994</ele><time>2026-04-19T12:19:54.365Z</time></trkpt><trkpt lat="42.14174" lon="11.9007733"><ele>473.99999999999994</ele><time>2026-04-19T12:19:55.363Z</time></trkpt><trkpt lat="42.1417833" lon="11.9006933"><ele>474.0</ele><time>2026-04-19T12:19:56.366Z</time></trkpt><trkpt lat="42.14182" lon="11.900615"><ele>473.99999999999994</ele><time>2026-04-19T12:19:57.349Z</time></trkpt><trkpt lat="42.1418567" lon="11.9005417"><ele>473.99999999999994</ele><time>2026-04-19T12:19:58.366Z</time></trkpt><trkpt lat="42.1418917" lon="11.900465"><ele>473.1666666666667</ele><time>2026-04-19T12:19:59.364Z</time></trkpt><trkpt lat="42.1419317" lon="11.900385"><ele>472.33333333333337</ele><time>2026-04-19T12:20:00.355Z</time></trkpt><trkpt lat="42.14198" lon="11.90031"><ele>471.5</ele><time>2026-04-19T12:20:01.367Z</time></trkpt><trkpt lat="42.1420283" lon="11.9002483"><ele>470.6666666666667</ele><time>2026-04-19T12:20:02.367Z</time></trkpt><trkpt lat="42.14208" lon="11.9001983"><ele>469.83333333333337</ele><time>2026-04-19T12:20:03.369Z</time></trkpt><trkpt lat="42.14218" lon="11.9001283"><ele>469.0</ele><time>2026-04-19T12:20:05.364Z</time></trkpt><trkpt lat="42.1422817" lon="11.90008"><ele>469.0</ele><time>2026-04-19T12:20:07.365Z</time></trkpt><trkpt lat="42.1423733" lon="11.9000417"><ele>469.0</ele><time>2026-04-19T12:20:09.363Z</time></trkpt><trkpt lat="42.14246" lon="11.9000033"><ele>469.0</ele><time>2026-04-19T12:20:11.331Z</time></trkpt><trkpt lat="42.1425417" lon="11.8999717"><ele>469.0</ele><time>2026-04-19T12:20:13.335Z</time></trkpt><trkpt lat="42.1426083" lon="11.8999083"><ele>469.0</ele><time>2026-04-19T12:20:15.352Z</time></trkpt><trkpt lat="42.1426917" lon="11.899835"><ele>471.2</ele><time>2026-04-19T12:20:19.354Z</time></trkpt><trkpt lat="42.1427267" lon="11.8997267"><ele>473.4</ele><time>2026-04-19T12:20:21.357Z</time></trkpt><trkpt lat="42.1427217" lon="11.8995867"><ele>475.6</ele><time>2026-04-19T12:20:23.37Z</time></trkpt><trkpt lat="42.1427117" lon="11.8994117"><ele>477.8</ele><time>2026-04-19T12:20:25.362Z</time></trkpt><trkpt lat="42.142705" lon="11.8993133"><ele>480.0</ele><time>2026-04-19T12:20:26.373Z</time></trkpt><trkpt lat="42.1426867" lon="11.89921"><ele>481.4</ele><time>2026-04-19T12:20:27.355Z</time></trkpt><trkpt lat="42.14266" lon="11.8990867"><ele>482.8</ele><time>2026-04-19T12:20:28.372Z</time></trkpt><trkpt lat="42.14263" lon="11.8989417"><ele>484.20000000000005</ele><time>2026-04-19T12:20:29.362Z</time></trkpt><trkpt lat="42.142605" lon="11.8987917"><ele>485.6</ele><time>2026-04-19T12:20:30.359Z</time></trkpt><trkpt lat="42.1425879" lon="11.8986497"><ele>487.0</ele><time>2026-04-19T12:20:31.373Z</time></trkpt><trkpt lat="42.1425894" lon="11.8985223"><ele>488.0</ele><time>2026-04-19T12:20:32.372Z</time></trkpt><trkpt lat="42.1426104" lon="11.8984048"><ele>489.00000000000006</ele><time>2026-04-19T12:20:33.376Z</time></trkpt><trkpt lat="42.1426542" lon="11.8982879"><ele>490.00000000000006</ele><time>2026-04-19T12:20:34.376Z</time></trkpt><trkpt lat="42.1427152" lon="11.8981717"><ele>491.0</ele><time>2026-04-19T12:20:35.375Z</time></trkpt><trkpt lat="42.1427859" lon="11.8980586"><ele>492.0</ele><time>2026-04-19T12:20:36.366Z</time></trkpt><trkpt lat="42.1428615" lon="11.8979556"><ele>492.0</ele><time>2026-04-19T12:20:37.339Z</time></trkpt><trkpt lat="42.1429462" lon="11.8978608"><ele>492.00000000000006</ele><time>2026-04-19T12:20:38.368Z</time></trkpt><trkpt lat="42.1430371" lon="11.8977825"><ele>492.00000000000006</ele><time>2026-04-19T12:20:39.345Z</time></trkpt><trkpt lat="42.1431396" lon="11.8977241"><ele>492.0</ele><time>2026-04-19T12:20:40.364Z</time></trkpt><trkpt lat="42.1432465" lon="11.8976826"><ele>492.0</ele><time>2026-04-19T12:20:41.37Z</time></trkpt><trkpt lat="42.1433528" lon="11.897661"><ele>493.6</ele><time>2026-04-19T12:20:42.369Z</time></trkpt><trkpt lat="42.1434546" lon="11.897667"><ele>495.20000000000005</ele><time>2026-04-19T12:20:43.369Z</time></trkpt><trkpt lat="42.143555" lon="11.8976947"><ele>496.8</ele><time>2026-04-19T12:20:44.368Z</time></trkpt><trkpt lat="42.1436555" lon="11.8977454"><ele>498.4</ele><time>2026-04-19T12:20:45.368Z</time></trkpt><trkpt lat="42.1437574" lon="11.8978186"><ele>500.0</ele><time>2026-04-19T12:20:46.368Z</time></trkpt><trkpt lat="42.1438623" lon="11.8979109"><ele>500.0</ele><time>2026-04-19T12:20:47.356Z</time></trkpt><trkpt lat="42.143971" lon="11.8980138"><ele>500.0</ele><time>2026-04-19T12:20:48.372Z</time></trkpt><trkpt lat="42.1440821" lon="11.8981174"><ele>500.0</ele><time>2026-04-19T12:20:49.37Z</time></trkpt><trkpt lat="42.1441978" lon="11.8982101"><ele>500.0</ele><time>2026-04-19T12:20:50.373Z</time></trkpt><trkpt lat="42.1443145" lon="11.8982792"><ele>499.25</ele><time>2026-04-19T12:20:51.371Z</time></trkpt><trkpt lat="42.1444323" lon="11.8983105"><ele>498.5</ele><time>2026-04-19T12:20:52.361Z</time></trkpt><trkpt lat="42.1445555" lon="11.898305"><ele>497.75</ele><time>2026-04-19T12:20:53.367Z</time></trkpt><trkpt lat="42.14468" lon="11.8982684"><ele>497.0</ele><time>2026-04-19T12:20:54.367Z</time></trkpt><trkpt lat="42.1448085" lon="11.8982111"><ele>497.5</ele><time>2026-04-19T12:20:55.37Z</time></trkpt><trkpt lat="42.1449298" lon="11.8981516"><ele>498.0</ele><time>2026-04-19T12:20:56.349Z</time></trkpt><trkpt lat="42.1450452" lon="11.8981167"><ele>498.5</ele><time>2026-04-19T12:20:57.342Z</time></trkpt><trkpt lat="42.1451604" lon="11.8981135"><ele>499.0</ele><time>2026-04-19T12:20:58.365Z</time></trkpt><trkpt lat="42.1452734" lon="11.8981442"><ele>499.0</ele><time>2026-04-19T12:20:59.362Z</time></trkpt><trkpt lat="42.1453899" lon="11.8982046"><ele>499.0</ele><time>2026-04-19T12:21:00.338Z</time></trkpt><trkpt lat="42.145505" lon="11.898285"><ele>499.0</ele><time>2026-04-19T12:21:01.361Z</time></trkpt><trkpt lat="42.1456133" lon="11.89836"><ele>499.0</ele><time>2026-04-19T12:21:02.355Z</time></trkpt><trkpt lat="42.1457283" lon="11.8984283"><ele>497.75</ele><time>2026-04-19T12:21:03.368Z</time></trkpt><trkpt lat="42.1458517" lon="11.8984867"><ele>496.5</ele><time>2026-04-19T12:21:04.364Z</time></trkpt><trkpt lat="42.1459717" lon="11.8985517"><ele>495.25</ele><time>2026-04-19T12:21:05.373Z</time></trkpt><trkpt lat="42.1460883" lon="11.8986383"><ele>494.0</ele><time>2026-04-19T12:21:06.356Z</time></trkpt><trkpt lat="42.1462033" lon="11.8987383"><ele>494.0</ele><time>2026-04-19T12:21:07.344Z</time></trkpt><trkpt lat="42.1463133" lon="11.8988433"><ele>494.0</ele><time>2026-04-19T12:21:08.368Z</time></trkpt><trkpt lat="42.1464217" lon="11.8989467"><ele>494.0</ele><time>2026-04-19T12:21:09.356Z</time></trkpt><trkpt lat="42.146525" lon="11.899045"><ele>494.0</ele><time>2026-04-19T12:21:10.367Z</time></trkpt><trkpt lat="42.1466217" lon="11.8991383"><ele>494.4</ele><time>2026-04-19T12:21:11.369Z</time></trkpt><trkpt lat="42.146715" lon="11.899225"><ele>494.79999999999995</ele><time>2026-04-19T12:21:12.358Z</time></trkpt><trkpt lat="42.1468017" lon="11.8992967"><ele>495.20000000000005</ele><time>2026-04-19T12:21:13.371Z</time></trkpt><trkpt lat="42.146885" lon="11.8993467"><ele>495.6</ele><time>2026-04-19T12:21:14.367Z</time></trkpt><trkpt lat="42.1469717" lon="11.8993767"><ele>496.0</ele><time>2026-04-19T12:21:15.367Z</time></trkpt><trkpt lat="42.14706" lon="11.8993833"><ele>494.20000000000005</ele><time>2026-04-19T12:21:16.37Z</time></trkpt><trkpt lat="42.147155" lon="11.899355"><ele>492.40000000000003</ele><time>2026-04-19T12:21:17.365Z</time></trkpt><trkpt lat="42.1472567" lon="11.8993283"><ele>490.6</ele><time>2026-04-19T12:21:18.369Z</time></trkpt><trkpt lat="42.1473517" lon="11.8993167"><ele>488.8</ele><time>2026-04-19T12:21:19.371Z</time></trkpt><trkpt lat="42.1474483" lon="11.8993333"><ele>487.0</ele><time>2026-04-19T12:21:20.366Z</time></trkpt><trkpt lat="42.1475383" lon="11.89937"><ele>487.00000000000006</ele><time>2026-04-19T12:21:21.373Z</time></trkpt><trkpt lat="42.14761" lon="11.8994267"><ele>487.0</ele><time>2026-04-19T12:21:22.37Z</time></trkpt><trkpt lat="42.1476767" lon="11.8995033"><ele>487.0</ele><time>2026-04-19T12:21:23.333Z</time></trkpt><trkpt lat="42.1477417" lon="11.8995867"><ele>487.0</ele><time>2026-04-19T12:21:24.336Z</time></trkpt><trkpt lat="42.1478017" lon="11.8996583"><ele>487.00000000000006</ele><time>2026-04-19T12:21:25.331Z</time></trkpt><trkpt lat="42.14787" lon="11.8997167"><ele>487.0</ele><time>2026-04-19T12:21:26.333Z</time></trkpt><trkpt lat="42.14795" lon="11.8997383"><ele>487.0</ele><time>2026-04-19T12:21:27.334Z</time></trkpt><trkpt lat="42.1480283" lon="11.899715"><ele>487.00000000000006</ele><time>2026-04-19T12:21:29.356Z</time></trkpt><trkpt lat="42.1481317" lon="11.8996517"><ele>487.00000000000006</ele><time>2026-04-19T12:21:31.355Z</time></trkpt><trkpt lat="42.1482117" lon="11.8995767"><ele>487.0</ele><time>2026-04-19T12:21:32.334Z</time></trkpt><trkpt lat="42.1483117" lon="11.899495"><ele>487.0</ele><time>2026-04-19T12:21:33.349Z</time></trkpt><trkpt lat="42.148415" lon="11.8994183"><ele>486.75</ele><time>2026-04-19T12:21:34.363Z</time></trkpt><trkpt lat="42.1485217" lon="11.8993483"><ele>486.5</ele><time>2026-04-19T12:21:35.368Z</time></trkpt><trkpt lat="42.1486333" lon="11.8992733"><ele>486.25</ele><time>2026-04-19T12:21:36.365Z</time></trkpt><trkpt lat="42.14875" lon="11.899195"><ele>486.0</ele><time>2026-04-19T12:21:37.34Z</time></trkpt><trkpt lat="42.1488633" lon="11.8991167"><ele>486.0</ele><time>2026-04-19T12:21:38.364Z</time></trkpt><trkpt lat="42.1489767" lon="11.89905"><ele>486.0</ele><time>2026-04-19T12:21:39.363Z</time></trkpt><trkpt lat="42.1490917" lon="11.899005"><ele>486.0</ele><time>2026-04-19T12:21:40.373Z</time></trkpt><trkpt lat="42.1492117" lon="11.8989917"><ele>486.0</ele><time>2026-04-19T12:21:41.371Z</time></trkpt><trkpt lat="42.1493283" lon="11.899015"><ele>485.75</ele><time>2026-04-19T12:21:42.369Z</time></trkpt><trkpt lat="42.1494367" lon="11.899075"><ele>485.5</ele><time>2026-04-19T12:21:43.371Z</time></trkpt><trkpt lat="42.14954" lon="11.8991767"><ele>485.25</ele><time>2026-04-19T12:21:44.37Z</time></trkpt><trkpt lat="42.1496383" lon="11.8992967"><ele>485.0</ele><time>2026-04-19T12:21:45.361Z</time></trkpt><trkpt lat="42.149735" lon="11.8994033"><ele>489.25</ele><time>2026-04-19T12:21:46.366Z</time></trkpt><trkpt lat="42.1498383" lon="11.89949"><ele>493.5</ele><time>2026-04-19T12:21:47.369Z</time></trkpt><trkpt lat="42.14995" lon="11.8995517"><ele>497.75</ele><time>2026-04-19T12:21:48.369Z</time></trkpt><trkpt lat="42.150075" lon="11.899585"><ele>502.0</ele><time>2026-04-19T12:21:49.332Z</time></trkpt><trkpt lat="42.1502" lon="11.8995967"><ele>502.00000000000006</ele><time>2026-04-19T12:21:50.361Z</time></trkpt><trkpt lat="42.1503117" lon="11.89959"><ele>502.0</ele><time>2026-04-19T12:21:51.366Z</time></trkpt><trkpt lat="42.1504033" lon="11.8995717"><ele>502.0</ele><time>2026-04-19T12:21:52.363Z</time></trkpt><trkpt lat="42.1504783" lon="11.8995317"><ele>502.0</ele><time>2026-04-19T12:21:53.366Z</time></trkpt><trkpt lat="42.1505383" lon="11.8994717"><ele>502.00000000000006</ele><time>2026-04-19T12:21:54.361Z</time></trkpt><trkpt lat="42.150585" lon="11.8993933"><ele>502.0</ele><time>2026-04-19T12:21:55.366Z</time></trkpt><trkpt lat="42.1506167" lon="11.8993067"><ele>496.8</ele><time>2026-04-19T12:21:56.361Z</time></trkpt><trkpt lat="42.1506433" lon="11.8991783"><ele>491.6</ele><time>2026-04-19T12:21:58.332Z</time></trkpt><trkpt lat="42.1506283" lon="11.8990917"><ele>486.40000000000003</ele><time>2026-04-19T12:22:02.345Z</time></trkpt><trkpt lat="42.1504983" lon="11.8990483"><ele>481.20000000000005</ele><time>2026-04-19T12:22:05.347Z</time></trkpt><trkpt lat="42.15041" lon="11.8990467"><ele>476.0</ele><time>2026-04-19T12:22:06.341Z</time></trkpt><trkpt lat="42.150305" lon="11.899055"><ele>476.0</ele><time>2026-04-19T12:22:07.339Z</time></trkpt><trkpt lat="42.150195" lon="11.89909"><ele>476.0</ele><time>2026-04-19T12:22:08.367Z</time></trkpt><trkpt lat="42.1500933" lon="11.8991183"><ele>476.0</ele><time>2026-04-19T12:22:09.366Z</time></trkpt><trkpt lat="42.14998" lon="11.8991417"><ele>476.0</ele><time>2026-04-19T12:22:10.368Z</time></trkpt><trkpt lat="42.1498633" lon="11.8991417"><ele>476.0</ele><time>2026-04-19T12:22:11.365Z</time></trkpt><trkpt lat="42.149755" lon="11.8991133"><ele>477.8</ele><time>2026-04-19T12:22:12.369Z</time></trkpt><trkpt lat="42.1496583" lon="11.899055"><ele>479.6</ele><time>2026-04-19T12:22:13.368Z</time></trkpt><trkpt lat="42.1495667" lon="11.8989733"><ele>481.4</ele><time>2026-04-19T12:22:14.359Z</time></trkpt><trkpt lat="42.14947" lon="11.8988867"><ele>483.2</ele><time>2026-04-19T12:22:15.361Z</time></trkpt><trkpt lat="42.149365" lon="11.8988167"><ele>485.0</ele><time>2026-04-19T12:22:16.362Z</time></trkpt><trkpt lat="42.149255" lon="11.89876"><ele>485.0</ele><time>2026-04-19T12:22:17.367Z</time></trkpt><trkpt lat="42.1491383" lon="11.8987333"><ele>485.0</ele><time>2026-04-19T12:22:18.367Z</time></trkpt><trkpt lat="42.1490153" lon="11.8987234"><ele>485.0</ele><time>2026-04-19T12:22:19.374Z</time></trkpt><trkpt lat="42.1488861" lon="11.8987179"><ele>485.0</ele><time>2026-04-19T12:22:20.365Z</time></trkpt><trkpt lat="42.1487649" lon="11.8987076"><ele>485.25</ele><time>2026-04-19T12:22:21.369Z</time></trkpt><trkpt lat="42.1486526" lon="11.8986813"><ele>485.5</ele><time>2026-04-19T12:22:22.365Z</time></trkpt><trkpt lat="42.1485467" lon="11.8986157"><ele>485.75</ele><time>2026-04-19T12:22:23.364Z</time></trkpt><trkpt lat="42.148455" lon="11.8985127"><ele>486.0</ele><time>2026-04-19T12:22:24.369Z</time></trkpt><trkpt lat="42.148383" lon="11.8983849"><ele>483.25</ele><time>2026-04-19T12:22:25.37Z</time></trkpt><trkpt lat="42.1483256" lon="11.898248"><ele>480.5</ele><time>2026-04-19T12:22:26.362Z</time></trkpt><trkpt lat="42.1482786" lon="11.8981007"><ele>477.75</ele><time>2026-04-19T12:22:27.36Z</time></trkpt><trkpt lat="42.1482314" lon="11.8979401"><ele>475.0</ele><time>2026-04-19T12:22:28.368Z</time></trkpt><trkpt lat="42.1481805" lon="11.8977746"><ele>480.0</ele><time>2026-04-19T12:22:29.367Z</time></trkpt><trkpt lat="42.1481302" lon="11.8976018"><ele>485.0</ele><time>2026-04-19T12:22:30.367Z</time></trkpt><trkpt lat="42.1480846" lon="11.8974285"><ele>490.0</ele><time>2026-04-19T12:22:31.363Z</time></trkpt><trkpt lat="42.1480354" lon="11.8972557"><ele>495.0</ele><time>2026-04-19T12:22:32.369Z</time></trkpt><trkpt lat="42.1479956" lon="11.8970874"><ele>495.0</ele><time>2026-04-19T12:22:33.365Z</time></trkpt><trkpt lat="42.1479685" lon="11.896919"><ele>495.0</ele><time>2026-04-19T12:22:34.372Z</time></trkpt><trkpt lat="42.1479565" lon="11.8967504"><ele>495.0</ele><time>2026-04-19T12:22:35.373Z</time></trkpt><trkpt lat="42.1479562" lon="11.8965834"><ele>495.0</ele><time>2026-04-19T12:22:36.352Z</time></trkpt><trkpt lat="42.1479588" lon="11.8964248"><ele>491.6</ele><time>2026-04-19T12:22:37.37Z</time></trkpt><trkpt lat="42.1479515" lon="11.8962818"><ele>488.2</ele><time>2026-04-19T12:22:38.372Z</time></trkpt><trkpt lat="42.1479286" lon="11.8961473"><ele>484.79999999999995</ele><time>2026-04-19T12:22:39.367Z</time></trkpt><trkpt lat="42.1478845" lon="11.8960235"><ele>481.4</ele><time>2026-04-19T12:22:40.367Z</time></trkpt><trkpt lat="42.1478159" lon="11.895916"><ele>478.0</ele><time>2026-04-19T12:22:41.368Z</time></trkpt><trkpt lat="42.1477304" lon="11.8958317"><ele>472.75</ele><time>2026-04-19T12:22:42.361Z</time></trkpt><trkpt lat="42.147627" lon="11.8957736"><ele>467.5</ele><time>2026-04-19T12:22:43.371Z</time></trkpt><trkpt lat="42.1475195" lon="11.8957483"><ele>462.25</ele><time>2026-04-19T12:22:44.367Z</time></trkpt><trkpt lat="42.147404" lon="11.8957605"><ele>457.0</ele><time>2026-04-19T12:22:45.355Z</time></trkpt><trkpt lat="42.1472832" lon="11.8958107"><ele>455.5</ele><time>2026-04-19T12:22:46.371Z</time></trkpt><trkpt lat="42.1471655" lon="11.8958867"><ele>454.0</ele><time>2026-04-19T12:22:47.366Z</time></trkpt><trkpt lat="42.1470456" lon="11.8959795"><ele>452.5</ele><time>2026-04-19T12:22:48.368Z</time></trkpt><trkpt lat="42.146924" lon="11.8960791"><ele>451.0</ele><time>2026-04-19T12:22:49.37Z</time></trkpt><trkpt lat="42.1467893" lon="11.8961772"><ele>455.6666666666667</ele><time>2026-04-19T12:22:50.37Z</time></trkpt><trkpt lat="42.1466334" lon="11.8962682"><ele>460.33333333333337</ele><time>2026-04-19T12:22:51.369Z</time></trkpt><trkpt lat="42.146469" lon="11.8963444"><ele>465.0</ele><time>2026-04-19T12:22:52.361Z</time></trkpt><trkpt lat="42.1463078" lon="11.8964053"><ele>465.0</ele><time>2026-04-19T12:22:53.367Z</time></trkpt><trkpt lat="42.1461575" lon="11.8964493"><ele>465.0</ele><time>2026-04-19T12:22:54.37Z</time></trkpt><trkpt lat="42.1460177" lon="11.8964649"><ele>465.0</ele><time>2026-04-19T12:22:55.374Z</time></trkpt><trkpt lat="42.1458872" lon="11.8964353"><ele>465.0</ele><time>2026-04-19T12:22:56.37Z</time></trkpt><trkpt lat="42.1457667" lon="11.8963637"><ele>464.5</ele><time>2026-04-19T12:22:57.358Z</time></trkpt><trkpt lat="42.1456671" lon="11.8962507"><ele>464.0</ele><time>2026-04-19T12:22:58.368Z</time></trkpt><trkpt lat="42.1455914" lon="11.8960959"><ele>463.5</ele><time>2026-04-19T12:22:59.37Z</time></trkpt><trkpt lat="42.1455235" lon="11.8959251"><ele>463.0</ele><time>2026-04-19T12:23:00.357Z</time></trkpt><trkpt lat="42.1454452" lon="11.8957648"><ele>463.0</ele><time>2026-04-19T12:23:01.369Z</time></trkpt><trkpt lat="42.14535" lon="11.8956344"><ele>463.0</ele><time>2026-04-19T12:23:02.365Z</time></trkpt><trkpt lat="42.1452351" lon="11.8955389"><ele>463.0</ele><time>2026-04-19T12:23:03.366Z</time></trkpt><trkpt lat="42.1451042" lon="11.8954707"><ele>463.0</ele><time>2026-04-19T12:23:04.368Z</time></trkpt><trkpt lat="42.1449704" lon="11.8954266"><ele>462.25</ele><time>2026-04-19T12:23:05.37Z</time></trkpt><trkpt lat="42.144845" lon="11.8953789"><ele>461.5</ele><time>2026-04-19T12:23:06.358Z</time></trkpt><trkpt lat="42.1447342" lon="11.8952986"><ele>460.75</ele><time>2026-04-19T12:23:07.369Z</time></trkpt><trkpt lat="42.1446457" lon="11.8951827"><ele>460.0</ele><time>2026-04-19T12:23:08.364Z</time></trkpt><trkpt lat="42.1445772" lon="11.895039"><ele>460.0</ele><time>2026-04-19T12:23:09.362Z</time></trkpt><trkpt lat="42.1445323" lon="11.8948654"><ele>460.0</ele><time>2026-04-19T12:23:10.365Z</time></trkpt><trkpt lat="42.1445148" lon="11.8946578"><ele>460.0</ele><time>2026-04-19T12:23:11.338Z</time></trkpt><trkpt lat="42.1445252" lon="11.8944173"><ele>462.33333333333337</ele><time>2026-04-19T12:23:12.362Z</time></trkpt><trkpt lat="42.1445695" lon="11.894178"><ele>464.66666666666663</ele><time>2026-04-19T12:23:13.368Z</time></trkpt><trkpt lat="42.1446366" lon="11.8939472"><ele>467.0</ele><time>2026-04-19T12:23:14.368Z</time></trkpt><trkpt lat="42.1447051" lon="11.8937283"><ele>467.0</ele><time>2026-04-19T12:23:15.359Z</time></trkpt><trkpt lat="42.1447709" lon="11.8935101"><ele>467.0</ele><time>2026-04-19T12:23:16.363Z</time></trkpt><trkpt lat="42.1448352" lon="11.8932926"><ele>467.0</ele><time>2026-04-19T12:23:17.357Z</time></trkpt><trkpt lat="42.1448977" lon="11.8930797"><ele>459.66666666666663</ele><time>2026-04-19T12:23:18.365Z</time></trkpt><trkpt lat="42.1449539" lon="11.8928678"><ele>452.33333333333337</ele><time>2026-04-19T12:23:19.364Z</time></trkpt><trkpt lat="42.1450085" lon="11.8926605"><ele>445.0</ele><time>2026-04-19T12:23:20.362Z</time></trkpt><trkpt lat="42.1450629" lon="11.8924625"><ele>445.0</ele><time>2026-04-19T12:23:21.364Z</time></trkpt><trkpt lat="42.1451114" lon="11.892274"><ele>445.0</ele><time>2026-04-19T12:23:22.36Z</time></trkpt><trkpt lat="42.1451448" lon="11.8920854"><ele>445.0</ele><time>2026-04-19T12:23:23.368Z</time></trkpt><trkpt lat="42.1451585" lon="11.8918841"><ele>445.0</ele><time>2026-04-19T12:23:24.369Z</time></trkpt><trkpt lat="42.1451524" lon="11.8916747"><ele>446.33333333333337</ele><time>2026-04-19T12:23:25.33Z</time></trkpt><trkpt lat="42.1451366" lon="11.8914548"><ele>447.66666666666663</ele><time>2026-04-19T12:23:26.363Z</time></trkpt><trkpt lat="42.145123" lon="11.8912459"><ele>449.0</ele><time>2026-04-19T12:23:27.37Z</time></trkpt><trkpt lat="42.1451136" lon="11.8910471"><ele>448.75</ele><time>2026-04-19T12:23:28.366Z</time></trkpt><trkpt lat="42.1451168" lon="11.8908596"><ele>448.5</ele><time>2026-04-19T12:23:29.352Z</time></trkpt><trkpt lat="42.1451438" lon="11.8906781"><ele>448.25</ele><time>2026-04-19T12:23:30.348Z</time></trkpt><trkpt lat="42.1452006" lon="11.8904993"><ele>448.0</ele><time>2026-04-19T12:23:31.364Z</time></trkpt><trkpt lat="42.1452673" lon="11.890324"><ele>448.0</ele><time>2026-04-19T12:23:32.367Z</time></trkpt><trkpt lat="42.1453289" lon="11.8901534"><ele>448.0</ele><time>2026-04-19T12:23:33.367Z</time></trkpt><trkpt lat="42.1453762" lon="11.8899861"><ele>448.0</ele><time>2026-04-19T12:23:34.365Z</time></trkpt><trkpt lat="42.1454034" lon="11.889813"><ele>448.0</ele><time>2026-04-19T12:23:35.368Z</time></trkpt><trkpt lat="42.1453969" lon="11.8896193"><ele>449.33333333333337</ele><time>2026-04-19T12:23:36.364Z</time></trkpt><trkpt lat="42.1453673" lon="11.8894059"><ele>450.66666666666663</ele><time>2026-04-19T12:23:37.365Z</time></trkpt><trkpt lat="42.1453383" lon="11.8891859"><ele>452.0</ele><time>2026-04-19T12:23:38.367Z</time></trkpt><trkpt lat="42.1453143" lon="11.8889828"><ele>449.5</ele><time>2026-04-19T12:23:39.358Z</time></trkpt><trkpt lat="42.1452873" lon="11.8888025"><ele>447.0</ele><time>2026-04-19T12:23:40.365Z</time></trkpt><trkpt lat="42.1452436" lon="11.8886478"><ele>444.5</ele><time>2026-04-19T12:23:41.369Z</time></trkpt><trkpt lat="42.1451701" lon="11.8885298"><ele>442.0</ele><time>2026-04-19T12:23:42.371Z</time></trkpt><trkpt lat="42.1450726" lon="11.8884489"><ele>444.25</ele><time>2026-04-19T12:23:43.356Z</time></trkpt><trkpt lat="42.1449598" lon="11.888408"><ele>446.5</ele><time>2026-04-19T12:23:44.366Z</time></trkpt><trkpt lat="42.1448292" lon="11.888429"><ele>448.75</ele><time>2026-04-19T12:23:45.352Z</time></trkpt><trkpt lat="42.1446925" lon="11.8884668"><ele>451.0</ele><time>2026-04-19T12:23:46.361Z</time></trkpt><trkpt lat="42.1445696" lon="11.8884599"><ele>447.25</ele><time>2026-04-19T12:23:47.368Z</time></trkpt><trkpt lat="42.1444698" lon="11.888399"><ele>443.5</ele><time>2026-04-19T12:23:48.35Z</time></trkpt><trkpt lat="42.1443955" lon="11.8882971"><ele>439.75</ele><time>2026-04-19T12:23:49.368Z</time></trkpt><trkpt lat="42.1443567" lon="11.8881561"><ele>436.0</ele><time>2026-04-19T12:23:50.364Z</time></trkpt><trkpt lat="42.1443628" lon="11.8879902"><ele>436.0</ele><time>2026-04-19T12:23:51.366Z</time></trkpt><trkpt lat="42.1444153" lon="11.8878306"><ele>436.0</ele><time>2026-04-19T12:23:52.367Z</time></trkpt><trkpt lat="42.1444821" lon="11.8876826"><ele>436.0</ele><time>2026-04-19T12:23:53.366Z</time></trkpt><trkpt lat="42.1445297" lon="11.8875379"><ele>436.0</ele><time>2026-04-19T12:23:54.365Z</time></trkpt><trkpt lat="42.144529" lon="11.8873855"><ele>435.75</ele><time>2026-04-19T12:23:55.364Z</time></trkpt><trkpt lat="42.1444875" lon="11.8872316"><ele>435.5</ele><time>2026-04-19T12:23:56.37Z</time></trkpt><trkpt lat="42.1444108" lon="11.8870997"><ele>435.25</ele><time>2026-04-19T12:23:57.367Z</time></trkpt><trkpt lat="42.1443029" lon="11.8870125"><ele>435.0</ele><time>2026-04-19T12:23:58.366Z</time></trkpt><trkpt lat="42.1441796" lon="11.8869481"><ele>435.0</ele><time>2026-04-19T12:23:59.352Z</time></trkpt><trkpt lat="42.1440589" lon="11.8868643"><ele>435.0</ele><time>2026-04-19T12:24:00.358Z</time></trkpt><trkpt lat="42.143972" lon="11.886738"><ele>435.0</ele><time>2026-04-19T12:24:01.363Z</time></trkpt><trkpt lat="42.1439184" lon="11.8865828"><ele>435.0</ele><time>2026-04-19T12:24:02.362Z</time></trkpt><trkpt lat="42.1439013" lon="11.8864186"><ele>435.25</ele><time>2026-04-19T12:24:03.356Z</time></trkpt><trkpt lat="42.1439235" lon="11.8862498"><ele>435.5</ele><time>2026-04-19T12:24:04.366Z</time></trkpt><trkpt lat="42.1439853" lon="11.886093"><ele>435.75</ele><time>2026-04-19T12:24:05.361Z</time></trkpt><trkpt lat="42.1440692" lon="11.8859511"><ele>436.0</ele><time>2026-04-19T12:24:06.36Z</time></trkpt><trkpt lat="42.144153" lon="11.8858229"><ele>431.5</ele><time>2026-04-19T12:24:07.36Z</time></trkpt><trkpt lat="42.1442108" lon="11.885686"><ele>427.0</ele><time>2026-04-19T12:24:08.364Z</time></trkpt><trkpt lat="42.1442353" lon="11.8855343"><ele>422.5</ele><time>2026-04-19T12:24:09.362Z</time></trkpt><trkpt lat="42.1442352" lon="11.8853698"><ele>418.0</ele><time>2026-04-19T12:24:10.356Z</time></trkpt><trkpt lat="42.1442249" lon="11.8851969"><ele>419.0</ele><time>2026-04-19T12:24:11.364Z</time></trkpt><trkpt lat="42.1442367" lon="11.8850212"><ele>420.0</ele><time>2026-04-19T12:24:12.361Z</time></trkpt><trkpt lat="42.1442878" lon="11.8848554"><ele>421.0</ele><time>2026-04-19T12:24:13.339Z</time></trkpt><trkpt lat="42.1443759" lon="11.884715"><ele>422.0</ele><time>2026-04-19T12:24:14.339Z</time></trkpt><trkpt lat="42.1444899" lon="11.8846159"><ele>422.0</ele><time>2026-04-19T12:24:15.355Z</time></trkpt><trkpt lat="42.1446104" lon="11.8845455"><ele>422.0</ele><time>2026-04-19T12:24:16.342Z</time></trkpt><trkpt lat="42.1447301" lon="11.8844873"><ele>422.0</ele><time>2026-04-19T12:24:17.336Z</time></trkpt><trkpt lat="42.1448349" lon="11.8844304"><ele>422.0</ele><time>2026-04-19T12:24:18.336Z</time></trkpt><trkpt lat="42.1449352" lon="11.8843613"><ele>419.0</ele><time>2026-04-19T12:24:19.355Z</time></trkpt><trkpt lat="42.14502" lon="11.8842901"><ele>416.0</ele><time>2026-04-19T12:24:20.348Z</time></trkpt><trkpt lat="42.1450741" lon="11.8842121"><ele>413.0</ele><time>2026-04-19T12:24:21.348Z</time></trkpt><trkpt lat="42.1450997" lon="11.8841178"><ele>410.0</ele><time>2026-04-19T12:24:22.34Z</time></trkpt><trkpt lat="42.1450778" lon="11.8839992"><ele>407.0</ele><time>2026-04-19T12:24:23.342Z</time></trkpt><trkpt lat="42.1450236" lon="11.8838725"><ele>407.0</ele><time>2026-04-19T12:24:24.336Z</time></trkpt><trkpt lat="42.1449285" lon="11.8837516"><ele>407.0</ele><time>2026-04-19T12:24:25.333Z</time></trkpt><trkpt lat="42.1448157" lon="11.8836445"><ele>407.0</ele><time>2026-04-19T12:24:26.348Z</time></trkpt><trkpt lat="42.144693" lon="11.8835584"><ele>407.0</ele><time>2026-04-19T12:24:27.335Z</time></trkpt><trkpt lat="42.1445612" lon="11.8834753"><ele>408.6</ele><time>2026-04-19T12:24:28.356Z</time></trkpt><trkpt lat="42.1444444" lon="11.8834074"><ele>410.20000000000005</ele><time>2026-04-19T12:24:29.354Z</time></trkpt><trkpt lat="42.1443472" lon="11.8833301"><ele>411.8</ele><time>2026-04-19T12:24:30.359Z</time></trkpt><trkpt lat="42.1442737" lon="11.8832299"><ele>413.4</ele><time>2026-04-19T12:24:31.369Z</time></trkpt><trkpt lat="42.1442303" lon="11.8831034"><ele>415.0</ele><time>2026-04-19T12:24:32.363Z</time></trkpt><trkpt lat="42.1442151" lon="11.8829615"><ele>415.0</ele><time>2026-04-19T12:24:33.361Z</time></trkpt><trkpt lat="42.1442417" lon="11.8828249"><ele>415.0</ele><time>2026-04-19T12:24:34.343Z</time></trkpt><trkpt lat="42.1443107" lon="11.8826955"><ele>415.0</ele><time>2026-04-19T12:24:35.361Z</time></trkpt><trkpt lat="42.1444105" lon="11.8825771"><ele>415.0</ele><time>2026-04-19T12:24:36.34Z</time></trkpt><trkpt lat="42.1445192" lon="11.8824713"><ele>414.5</ele><time>2026-04-19T12:24:37.351Z</time></trkpt><trkpt lat="42.144622" lon="11.8823732"><ele>414.0</ele><time>2026-04-19T12:24:38.36Z</time></trkpt><trkpt lat="42.1447134" lon="11.8822799"><ele>413.5</ele><time>2026-04-19T12:24:39.361Z</time></trkpt><trkpt lat="42.1447977" lon="11.8821901"><ele>413.0</ele><time>2026-04-19T12:24:40.357Z</time></trkpt><trkpt lat="42.144877" lon="11.8821014"><ele>412.0</ele><time>2026-04-19T12:24:41.364Z</time></trkpt><trkpt lat="42.1449558" lon="11.8820104"><ele>411.0</ele><time>2026-04-19T12:24:42.356Z</time></trkpt><trkpt lat="42.1450306" lon="11.8819027"><ele>410.0</ele><time>2026-04-19T12:24:43.368Z</time></trkpt><trkpt lat="42.1450916" lon="11.8817774"><ele>409.0</ele><time>2026-04-19T12:24:44.368Z</time></trkpt><trkpt lat="42.1451389" lon="11.8816371"><ele>408.0</ele><time>2026-04-19T12:24:45.362Z</time></trkpt><trkpt lat="42.1451718" lon="11.8814838"><ele>408.0</ele><time>2026-04-19T12:24:46.366Z</time></trkpt><trkpt lat="42.1451967" lon="11.881315"><ele>408.0</ele><time>2026-04-19T12:24:47.335Z</time></trkpt><trkpt lat="42.1452367" lon="11.8811567"><ele>408.0</ele><time>2026-04-19T12:24:48.358Z</time></trkpt><trkpt lat="42.145285" lon="11.8809917"><ele>408.0</ele><time>2026-04-19T12:24:49.363Z</time></trkpt><trkpt lat="42.1453483" lon="11.8808317"><ele>408.4</ele><time>2026-04-19T12:24:50.365Z</time></trkpt><trkpt lat="42.1454033" lon="11.8806817"><ele>408.79999999999995</ele><time>2026-04-19T12:24:51.36Z</time></trkpt><trkpt lat="42.1454483" lon="11.8805433"><ele>409.2</ele><time>2026-04-19T12:24:52.367Z</time></trkpt><trkpt lat="42.145475" lon="11.880405"><ele>409.6</ele><time>2026-04-19T12:24:53.368Z</time></trkpt><trkpt lat="42.1454783" lon="11.880265"><ele>410.0</ele><time>2026-04-19T12:24:54.362Z</time></trkpt><trkpt lat="42.1454583" lon="11.8801183"><ele>407.5</ele><time>2026-04-19T12:24:55.373Z</time></trkpt><trkpt lat="42.145405" lon="11.8799883"><ele>405.0</ele><time>2026-04-19T12:24:56.365Z</time></trkpt><trkpt lat="42.1453183" lon="11.8798783"><ele>402.5</ele><time>2026-04-19T12:24:57.367Z</time></trkpt><trkpt lat="42.1452033" lon="11.8797933"><ele>400.0</ele><time>2026-04-19T12:24:58.365Z</time></trkpt><trkpt lat="42.14507" lon="11.8797217"><ele>400.0</ele><time>2026-04-19T12:24:59.366Z</time></trkpt><trkpt lat="42.1449383" lon="11.8796533"><ele>400.0</ele><time>2026-04-19T12:25:00.362Z</time></trkpt><trkpt lat="42.1448167" lon="11.8795867"><ele>400.0</ele><time>2026-04-19T12:25:01.362Z</time></trkpt><trkpt lat="42.1447033" lon="11.87952"><ele>400.0</ele><time>2026-04-19T12:25:02.36Z</time></trkpt><trkpt lat="42.1445933" lon="11.8794617"><ele>400.25</ele><time>2026-04-19T12:25:03.372Z</time></trkpt><trkpt lat="42.1444833" lon="11.8794083"><ele>400.5</ele><time>2026-04-19T12:25:04.353Z</time></trkpt><trkpt lat="42.1443717" lon="11.8793683"><ele>400.75</ele><time>2026-04-19T12:25:05.365Z</time></trkpt><trkpt lat="42.14426" lon="11.879345"><ele>401.0</ele><time>2026-04-19T12:25:06.36Z</time></trkpt><trkpt lat="42.1441417" lon="11.8793417"><ele>396.5</ele><time>2026-04-19T12:25:07.37Z</time></trkpt><trkpt lat="42.1440217" lon="11.8793567"><ele>392.0</ele><time>2026-04-19T12:25:08.353Z</time></trkpt><trkpt lat="42.1438933" lon="11.8793783"><ele>387.5</ele><time>2026-04-19T12:25:09.365Z</time></trkpt><trkpt lat="42.14376" lon="11.8793917"><ele>383.0</ele><time>2026-04-19T12:25:10.365Z</time></trkpt><trkpt lat="42.143625" lon="11.87939"><ele>383.0</ele><time>2026-04-19T12:25:11.366Z</time></trkpt><trkpt lat="42.1434883" lon="11.8793617"><ele>383.0</ele><time>2026-04-19T12:25:12.367Z</time></trkpt><trkpt lat="42.1433533" lon="11.879305"><ele>383.0</ele><time>2026-04-19T12:25:13.369Z</time></trkpt><trkpt lat="42.1432183" lon="11.8792267"><ele>383.0</ele><time>2026-04-19T12:25:14.367Z</time></trkpt><trkpt lat="42.14309" lon="11.879125"><ele>384.6666666666667</ele><time>2026-04-19T12:25:15.365Z</time></trkpt><trkpt lat="42.1429567" lon="11.8790117"><ele>386.33333333333337</ele><time>2026-04-19T12:25:16.36Z</time></trkpt><trkpt lat="42.1428233" lon="11.878895"><ele>388.0</ele><time>2026-04-19T12:25:17.348Z</time></trkpt><trkpt lat="42.1426917" lon="11.878775"><ele>388.0</ele><time>2026-04-19T12:25:18.366Z</time></trkpt><trkpt lat="42.1425617" lon="11.8786533"><ele>388.0</ele><time>2026-04-19T12:25:19.364Z</time></trkpt><trkpt lat="42.1424283" lon="11.8785317"><ele>388.0</ele><time>2026-04-19T12:25:20.362Z</time></trkpt><trkpt lat="42.142295" lon="11.8784067"><ele>392.6666666666667</ele><time>2026-04-19T12:25:21.362Z</time></trkpt><trkpt lat="42.1421583" lon="11.8782833"><ele>397.33333333333337</ele><time>2026-04-19T12:25:22.359Z</time></trkpt><trkpt lat="42.1420183" lon="11.8781567"><ele>402.0</ele><time>2026-04-19T12:25:23.368Z</time></trkpt><trkpt lat="42.1418767" lon="11.8780283"><ele>402.0</ele><time>2026-04-19T12:25:24.368Z</time></trkpt><trkpt lat="42.141735" lon="11.8779"><ele>402.0</ele><time>2026-04-19T12:25:25.363Z</time></trkpt><trkpt lat="42.1415967" lon="11.8777767"><ele>402.0</ele><time>2026-04-19T12:25:26.364Z</time></trkpt><trkpt lat="42.1414683" lon="11.8776617"><ele>404.0</ele><time>2026-04-19T12:25:27.353Z</time></trkpt><trkpt lat="42.14135" lon="11.877555"><ele>406.0</ele><time>2026-04-19T12:25:28.365Z</time></trkpt><trkpt lat="42.14124" lon="11.877455"><ele>408.0</ele><time>2026-04-19T12:25:29.368Z</time></trkpt><trkpt lat="42.1411433" lon="11.8773467"><ele>410.0</ele><time>2026-04-19T12:25:30.357Z</time></trkpt><trkpt lat="42.1410483" lon="11.8772183"><ele>410.0</ele><time>2026-04-19T12:25:31.355Z</time></trkpt><trkpt lat="42.140965" lon="11.8770767"><ele>410.0</ele><time>2026-04-19T12:25:32.368Z</time></trkpt><trkpt lat="42.14089" lon="11.8769217"><ele>410.0</ele><time>2026-04-19T12:25:33.36Z</time></trkpt><trkpt lat="42.14083" lon="11.8767583"><ele>410.0</ele><time>2026-04-19T12:25:34.367Z</time></trkpt><trkpt lat="42.1407783" lon="11.876585"><ele>410.75</ele><time>2026-04-19T12:25:35.37Z</time></trkpt><trkpt lat="42.140725" lon="11.8764067"><ele>411.5</ele><time>2026-04-19T12:25:36.369Z</time></trkpt><trkpt lat="42.1406617" lon="11.8762383"><ele>412.25</ele><time>2026-04-19T12:25:37.364Z</time></trkpt><trkpt lat="42.1405883" lon="11.87608"><ele>413.0</ele><time>2026-04-19T12:25:38.366Z</time></trkpt><trkpt lat="42.1405033" lon="11.8759267"><ele>413.0</ele><time>2026-04-19T12:25:39.339Z</time></trkpt><trkpt lat="42.1404217" lon="11.8757767"><ele>413.0</ele><time>2026-04-19T12:25:40.358Z</time></trkpt><trkpt lat="42.1403567" lon="11.875615"><ele>413.0</ele><time>2026-04-19T12:25:41.368Z</time></trkpt><trkpt lat="42.1403033" lon="11.8754483"><ele>413.0</ele><time>2026-04-19T12:25:42.365Z</time></trkpt><trkpt lat="42.1402667" lon="11.8752667"><ele>411.75</ele><time>2026-04-19T12:25:43.365Z</time></trkpt><trkpt lat="42.1402433" lon="11.8750783"><ele>410.5</ele><time>2026-04-19T12:25:44.351Z</time></trkpt><trkpt lat="42.140225" lon="11.8748917"><ele>409.25</ele><time>2026-04-19T12:25:45.363Z</time></trkpt><trkpt lat="42.1402083" lon="11.87472"><ele>408.0</ele><time>2026-04-19T12:25:46.367Z</time></trkpt><trkpt lat="42.1401817" lon="11.8745633"><ele>408.0</ele><time>2026-04-19T12:25:47.368Z</time></trkpt><trkpt lat="42.14014" lon="11.87441"><ele>408.0</ele><time>2026-04-19T12:25:48.37Z</time></trkpt><trkpt lat="42.14008" lon="11.8742667"><ele>408.0</ele><time>2026-04-19T12:25:49.367Z</time></trkpt><trkpt lat="42.1400033" lon="11.8741367"><ele>408.0</ele><time>2026-04-19T12:25:50.371Z</time></trkpt><trkpt lat="42.1399117" lon="11.8740167"><ele>411.5</ele><time>2026-04-19T12:25:51.368Z</time></trkpt><trkpt lat="42.1398133" lon="11.8739033"><ele>415.0</ele><time>2026-04-19T12:25:52.368Z</time></trkpt><trkpt lat="42.1397133" lon="11.8737917"><ele>418.5</ele><time>2026-04-19T12:25:53.349Z</time></trkpt><trkpt lat="42.13961" lon="11.87368"><ele>422.0</ele><time>2026-04-19T12:25:54.357Z</time></trkpt><trkpt lat="42.1395083" lon="11.873575"><ele>422.0</ele><time>2026-04-19T12:25:55.366Z</time></trkpt><trkpt lat="42.13941" lon="11.8734733"><ele>422.0</ele><time>2026-04-19T12:25:56.365Z</time></trkpt><trkpt lat="42.1393167" lon="11.8733633"><ele>422.0</ele><time>2026-04-19T12:25:57.358Z</time></trkpt><trkpt lat="42.139235" lon="11.8732433"><ele>422.0</ele><time>2026-04-19T12:25:58.362Z</time></trkpt><trkpt lat="42.1391633" lon="11.8731017"><ele>422.5</ele><time>2026-04-19T12:25:59.358Z</time></trkpt><trkpt lat="42.1391" lon="11.8729517"><ele>423.0</ele><time>2026-04-19T12:26:00.368Z</time></trkpt><trkpt lat="42.1390417" lon="11.8727967"><ele>423.5</ele><time>2026-04-19T12:26:01.367Z</time></trkpt><trkpt lat="42.138985" lon="11.8726467"><ele>424.0</ele><time>2026-04-19T12:26:02.371Z</time></trkpt><trkpt lat="42.138935" lon="11.872495"><ele>422.25</ele><time>2026-04-19T12:26:03.364Z</time></trkpt><trkpt lat="42.138885" lon="11.8723467"><ele>420.5</ele><time>2026-04-19T12:26:04.36Z</time></trkpt><trkpt lat="42.13883" lon="11.8721983"><ele>418.75</ele><time>2026-04-19T12:26:05.365Z</time></trkpt><trkpt lat="42.1387633" lon="11.8720583"><ele>417.0</ele><time>2026-04-19T12:26:06.366Z</time></trkpt><trkpt lat="42.1386767" lon="11.8719317"><ele>417.0</ele><time>2026-04-19T12:26:07.366Z</time></trkpt><trkpt lat="42.1385767" lon="11.8718183"><ele>417.0</ele><time>2026-04-19T12:26:08.367Z</time></trkpt><trkpt lat="42.13847" lon="11.871715"><ele>417.0</ele><time>2026-04-19T12:26:09.362Z</time></trkpt><trkpt lat="42.138365" lon="11.871635"><ele>417.0</ele><time>2026-04-19T12:26:10.37Z</time></trkpt><trkpt lat="42.1382583" lon="11.8715667"><ele>414.0</ele><time>2026-04-19T12:26:11.365Z</time></trkpt><trkpt lat="42.138145" lon="11.8715233"><ele>411.0</ele><time>2026-04-19T12:26:12.364Z</time></trkpt><trkpt lat="42.1380267" lon="11.8715033"><ele>408.0</ele><time>2026-04-19T12:26:13.366Z</time></trkpt><trkpt lat="42.1379017" lon="11.87151"><ele>405.0</ele><time>2026-04-19T12:26:14.37Z</time></trkpt><trkpt lat="42.1377783" lon="11.87154"><ele>405.0</ele><time>2026-04-19T12:26:15.364Z</time></trkpt><trkpt lat="42.13765" lon="11.87158"><ele>405.0</ele><time>2026-04-19T12:26:16.367Z</time></trkpt><trkpt lat="42.1375283" lon="11.8716183"><ele>405.0</ele><time>2026-04-19T12:26:17.362Z</time></trkpt><trkpt lat="42.1374017" lon="11.8716483"><ele>405.0</ele><time>2026-04-19T12:26:18.353Z</time></trkpt><trkpt lat="42.1372783" lon="11.8716683"><ele>402.0</ele><time>2026-04-19T12:26:19.334Z</time></trkpt><trkpt lat="42.1371533" lon="11.8716733"><ele>399.0</ele><time>2026-04-19T12:26:20.331Z</time></trkpt><trkpt lat="42.1370267" lon="11.87164"><ele>396.0</ele><time>2026-04-19T12:26:21.333Z</time></trkpt><trkpt lat="42.1369067" lon="11.8715817"><ele>393.0</ele><time>2026-04-19T12:26:22.336Z</time></trkpt><trkpt lat="42.1367917" lon="11.8715067"><ele>393.0</ele><time>2026-04-19T12:26:23.341Z</time></trkpt><trkpt lat="42.1366883" lon="11.87141"><ele>393.0</ele><time>2026-04-19T12:26:24.331Z</time></trkpt><trkpt lat="42.1365883" lon="11.8713067"><ele>393.0</ele><time>2026-04-19T12:26:25.331Z</time></trkpt><trkpt lat="42.136485" lon="11.8712033"><ele>393.0</ele><time>2026-04-19T12:26:26.361Z</time></trkpt><trkpt lat="42.1363867" lon="11.871105"><ele>392.25</ele><time>2026-04-19T12:26:27.367Z</time></trkpt><trkpt lat="42.13629" lon="11.87102"><ele>391.5</ele><time>2026-04-19T12:26:28.356Z</time></trkpt><trkpt lat="42.1361917" lon="11.870945"><ele>390.75</ele><time>2026-04-19T12:26:29.367Z</time></trkpt><trkpt lat="42.136085" lon="11.8708683"><ele>390.0</ele><time>2026-04-19T12:26:30.368Z</time></trkpt><trkpt lat="42.1359733" lon="11.870795"><ele>390.0</ele><time>2026-04-19T12:26:31.374Z</time></trkpt><trkpt lat="42.1358617" lon="11.8707267"><ele>390.0</ele><time>2026-04-19T12:26:32.368Z</time></trkpt><trkpt lat="42.1357583" lon="11.87066"><ele>390.0</ele><time>2026-04-19T12:26:33.367Z</time></trkpt><trkpt lat="42.1356583" lon="11.8705967"><ele>390.0</ele><time>2026-04-19T12:26:34.336Z</time></trkpt><trkpt lat="42.1355567" lon="11.8705233"><ele>387.0</ele><time>2026-04-19T12:26:35.365Z</time></trkpt><trkpt lat="42.13545" lon="11.8704483"><ele>384.0</ele><time>2026-04-19T12:26:36.369Z</time></trkpt><trkpt lat="42.1353517" lon="11.8703733"><ele>381.0</ele><time>2026-04-19T12:26:37.368Z</time></trkpt><trkpt lat="42.1352517" lon="11.8703017"><ele>378.0</ele><time>2026-04-19T12:26:38.364Z</time></trkpt><trkpt lat="42.135145" lon="11.8702233"><ele>378.0</ele><time>2026-04-19T12:26:39.331Z</time></trkpt><trkpt lat="42.1350383" lon="11.870145"><ele>378.0</ele><time>2026-04-19T12:26:40.335Z</time></trkpt><trkpt lat="42.1349317" lon="11.87007"><ele>378.0</ele><time>2026-04-19T12:26:41.369Z</time></trkpt><trkpt lat="42.1348233" lon="11.8699983"><ele>378.0</ele><time>2026-04-19T12:26:42.356Z</time></trkpt><trkpt lat="42.1347067" lon="11.8699317"><ele>379.0</ele><time>2026-04-19T12:26:43.37Z</time></trkpt><trkpt lat="42.1345833" lon="11.8698683"><ele>380.0</ele><time>2026-04-19T12:26:44.365Z</time></trkpt><trkpt lat="42.1344567" lon="11.8698133"><ele>381.0</ele><time>2026-04-19T12:26:45.364Z</time></trkpt><trkpt lat="42.1343267" lon="11.8697683"><ele>382.0</ele><time>2026-04-19T12:26:46.368Z</time></trkpt><trkpt lat="42.1342017" lon="11.8697333"><ele>382.0</ele><time>2026-04-19T12:26:47.369Z</time></trkpt><trkpt lat="42.13408" lon="11.8697117"><ele>382.0</ele><time>2026-04-19T12:26:48.366Z</time></trkpt><trkpt lat="42.1339633" lon="11.869695"><ele>382.0</ele><time>2026-04-19T12:26:49.37Z</time></trkpt><trkpt lat="42.133845" lon="11.8696833"><ele>382.0</ele><time>2026-04-19T12:26:50.369Z</time></trkpt><trkpt lat="42.1337267" lon="11.8696767"><ele>380.25</ele><time>2026-04-19T12:26:51.366Z</time></trkpt><trkpt lat="42.1335983" lon="11.8696683"><ele>378.5</ele><time>2026-04-19T12:26:52.366Z</time></trkpt><trkpt lat="42.1334583" lon="11.8696583"><ele>376.75</ele><time>2026-04-19T12:26:53.364Z</time></trkpt><trkpt lat="42.1333133" lon="11.8696517"><ele>375.0</ele><time>2026-04-19T12:26:54.358Z</time></trkpt><trkpt lat="42.1331767" lon="11.8696467"><ele>373.5</ele><time>2026-04-19T12:26:55.368Z</time></trkpt><trkpt lat="42.1330483" lon="11.8696383"><ele>372.0</ele><time>2026-04-19T12:26:56.368Z</time></trkpt><trkpt lat="42.1329283" lon="11.8696267"><ele>370.5</ele><time>2026-04-19T12:26:57.367Z</time></trkpt><trkpt lat="42.13281" lon="11.869605"><ele>369.0</ele><time>2026-04-19T12:26:58.366Z</time></trkpt><trkpt lat="42.1326883" lon="11.8695733"><ele>369.0</ele><time>2026-04-19T12:26:59.36Z</time></trkpt><trkpt lat="42.132575" lon="11.869525"><ele>369.0</ele><time>2026-04-19T12:27:00.368Z</time></trkpt><trkpt lat="42.1324683" lon="11.8694617"><ele>369.0</ele><time>2026-04-19T12:27:01.36Z</time></trkpt><trkpt lat="42.1323667" lon="11.8693883"><ele>369.0</ele><time>2026-04-19T12:27:02.354Z</time></trkpt><trkpt lat="42.1322683" lon="11.8692983"><ele>367.0</ele><time>2026-04-19T12:27:03.334Z</time></trkpt><trkpt lat="42.132185" lon="11.8691867"><ele>365.0</ele><time>2026-04-19T12:27:04.368Z</time></trkpt><trkpt lat="42.1321083" lon="11.8690617"><ele>363.0</ele><time>2026-04-19T12:27:05.367Z</time></trkpt><trkpt lat="42.1320317" lon="11.868935"><ele>361.0</ele><time>2026-04-19T12:27:06.37Z</time></trkpt><trkpt lat="42.1319583" lon="11.86881"><ele>361.0</ele><time>2026-04-19T12:27:07.369Z</time></trkpt><trkpt lat="42.1318883" lon="11.8686833"><ele>361.0</ele><time>2026-04-19T12:27:08.371Z</time></trkpt><trkpt lat="42.131825" lon="11.8685567"><ele>361.0</ele><time>2026-04-19T12:27:09.362Z</time></trkpt><trkpt lat="42.1317617" lon="11.86843"><ele>361.0</ele><time>2026-04-19T12:27:10.368Z</time></trkpt><trkpt lat="42.131705" lon="11.8683017"><ele>362.75</ele><time>2026-04-19T12:27:11.364Z</time></trkpt><trkpt lat="42.1316483" lon="11.86817"><ele>364.5</ele><time>2026-04-19T12:27:12.365Z</time></trkpt><trkpt lat="42.131595" lon="11.8680367"><ele>366.25</ele><time>2026-04-19T12:27:13.37Z</time></trkpt><trkpt lat="42.131535" lon="11.8679"><ele>368.0</ele><time>2026-04-19T12:27:14.37Z</time></trkpt><trkpt lat="42.1314583" lon="11.867765"><ele>365.75</ele><time>2026-04-19T12:27:15.37Z</time></trkpt><trkpt lat="42.1313667" lon="11.8676367"><ele>363.5</ele><time>2026-04-19T12:27:16.364Z</time></trkpt><trkpt lat="42.1312667" lon="11.867515"><ele>361.25</ele><time>2026-04-19T12:27:17.367Z</time></trkpt><trkpt lat="42.13117" lon="11.8673967"><ele>359.0</ele><time>2026-04-19T12:27:18.343Z</time></trkpt><trkpt lat="42.1310717" lon="11.8672717"><ele>359.0</ele><time>2026-04-19T12:27:19.36Z</time></trkpt><trkpt lat="42.1309717" lon="11.8671567"><ele>359.0</ele><time>2026-04-19T12:27:20.36Z</time></trkpt><trkpt lat="42.1308683" lon="11.86706"><ele>359.0</ele><time>2026-04-19T12:27:21.368Z</time></trkpt><trkpt lat="42.13076" lon="11.8669767"><ele>359.0</ele><time>2026-04-19T12:27:22.368Z</time></trkpt><trkpt lat="42.130635" lon="11.8669033"><ele>358.0</ele><time>2026-04-19T12:27:23.369Z</time></trkpt><trkpt lat="42.1304933" lon="11.866835"><ele>357.0</ele><time>2026-04-19T12:27:24.365Z</time></trkpt><trkpt lat="42.13033" lon="11.8667733"><ele>356.0</ele><time>2026-04-19T12:27:25.365Z</time></trkpt><trkpt lat="42.1301467" lon="11.8667067"><ele>356.0</ele><time>2026-04-19T12:27:26.366Z</time></trkpt><trkpt lat="42.1299433" lon="11.86663"><ele>356.0</ele><time>2026-04-19T12:27:27.37Z</time></trkpt><trkpt lat="42.1297267" lon="11.8665433"><ele>356.0</ele><time>2026-04-19T12:27:28.362Z</time></trkpt><trkpt lat="42.12952" lon="11.8664517"><ele>352.6666666666667</ele><time>2026-04-19T12:27:29.37Z</time></trkpt><trkpt lat="42.1293417" lon="11.8663617"><ele>349.3333333333333</ele><time>2026-04-19T12:27:30.367Z</time></trkpt><trkpt lat="42.12918" lon="11.8662867"><ele>346.0</ele><time>2026-04-19T12:27:31.368Z</time></trkpt><trkpt lat="42.1290167" lon="11.866215"><ele>343.66666666666663</ele><time>2026-04-19T12:27:32.365Z</time></trkpt><trkpt lat="42.1288517" lon="11.866145"><ele>341.3333333333333</ele><time>2026-04-19T12:27:33.373Z</time></trkpt><trkpt lat="42.1286883" lon="11.866075"><ele>339.0</ele><time>2026-04-19T12:27:34.337Z</time></trkpt><trkpt lat="42.1285217" lon="11.865995"><ele>339.3333333333333</ele><time>2026-04-19T12:27:35.364Z</time></trkpt><trkpt lat="42.128335" lon="11.8659017"><ele>339.66666666666663</ele><time>2026-04-19T12:27:36.364Z</time></trkpt><trkpt lat="42.128145" lon="11.8658033"><ele>340.0</ele><time>2026-04-19T12:27:37.364Z</time></trkpt><trkpt lat="42.1279533" lon="11.8657033"><ele>340.0</ele><time>2026-04-19T12:27:38.37Z</time></trkpt><trkpt lat="42.12776" lon="11.8656017"><ele>340.0</ele><time>2026-04-19T12:27:39.362Z</time></trkpt><trkpt lat="42.1275783" lon="11.8654967"><ele>340.0</ele><time>2026-04-19T12:27:40.374Z</time></trkpt><trkpt lat="42.1273983" lon="11.86539"><ele>339.66666666666663</ele><time>2026-04-19T12:27:41.371Z</time></trkpt><trkpt lat="42.1272217" lon="11.8652883"><ele>339.3333333333333</ele><time>2026-04-19T12:27:42.371Z</time></trkpt><trkpt lat="42.1270433" lon="11.8651883"><ele>339.0</ele><time>2026-04-19T12:27:43.362Z</time></trkpt><trkpt lat="42.1268633" lon="11.8650867"><ele>339.0</ele><time>2026-04-19T12:27:44.365Z</time></trkpt><trkpt lat="42.1266883" lon="11.8649933"><ele>339.0</ele><time>2026-04-19T12:27:45.369Z</time></trkpt><trkpt lat="42.1265117" lon="11.8649"><ele>339.0</ele><time>2026-04-19T12:27:46.365Z</time></trkpt><trkpt lat="42.1263383" lon="11.864805"><ele>336.3333333333333</ele><time>2026-04-19T12:27:47.372Z</time></trkpt><trkpt lat="42.1261667" lon="11.8647083"><ele>333.66666666666663</ele><time>2026-04-19T12:27:48.365Z</time></trkpt><trkpt lat="42.1259933" lon="11.864615"><ele>331.0</ele><time>2026-04-19T12:27:49.359Z</time></trkpt><trkpt lat="42.1258233" lon="11.8645233"><ele>331.3333333333333</ele><time>2026-04-19T12:27:50.368Z</time></trkpt><trkpt lat="42.12565" lon="11.8644383"><ele>331.6666666666667</ele><time>2026-04-19T12:27:51.369Z</time></trkpt><trkpt lat="42.1254733" lon="11.8643533"><ele>332.0</ele><time>2026-04-19T12:27:52.368Z</time></trkpt><trkpt lat="42.1253" lon="11.864275"><ele>332.0</ele><time>2026-04-19T12:27:53.369Z</time></trkpt><trkpt lat="42.1251283" lon="11.8641983"><ele>332.0</ele><time>2026-04-19T12:27:54.359Z</time></trkpt><trkpt lat="42.1249517" lon="11.8641217"><ele>332.0</ele><time>2026-04-19T12:27:55.369Z</time></trkpt><trkpt lat="42.1247767" lon="11.8640467"><ele>330.6666666666667</ele><time>2026-04-19T12:27:56.367Z</time></trkpt><trkpt lat="42.1246033" lon="11.86398"><ele>329.3333333333333</ele><time>2026-04-19T12:27:57.365Z</time></trkpt><trkpt lat="42.1244317" lon="11.8639183"><ele>328.0</ele><time>2026-04-19T12:27:58.371Z</time></trkpt><trkpt lat="42.12426" lon="11.8638517"><ele>328.0</ele><time>2026-04-19T12:27:59.367Z</time></trkpt><trkpt lat="42.1240983" lon="11.8637667"><ele>328.0</ele><time>2026-04-19T12:28:00.37Z</time></trkpt><trkpt lat="42.123955" lon="11.8636483"><ele>328.0</ele><time>2026-04-19T12:28:01.369Z</time></trkpt><trkpt lat="42.1238317" lon="11.863505"><ele>325.66666666666663</ele><time>2026-04-19T12:28:02.368Z</time></trkpt><trkpt lat="42.1237183" lon="11.8633583"><ele>323.3333333333333</ele><time>2026-04-19T12:28:03.367Z</time></trkpt><trkpt lat="42.1236017" lon="11.8632367"><ele>321.0</ele><time>2026-04-19T12:28:04.365Z</time></trkpt><trkpt lat="42.12347" lon="11.863145"><ele>321.0</ele><time>2026-04-19T12:28:05.368Z</time></trkpt><trkpt lat="42.1233217" lon="11.8630733"><ele>321.0</ele><time>2026-04-19T12:28:06.371Z</time></trkpt><trkpt lat="42.1231667" lon="11.8630267"><ele>321.0</ele><time>2026-04-19T12:28:07.364Z</time></trkpt><trkpt lat="42.1230083" lon="11.8630183"><ele>320.0</ele><time>2026-04-19T12:28:08.372Z</time></trkpt><trkpt lat="42.1228467" lon="11.86305"><ele>319.0</ele><time>2026-04-19T12:28:09.368Z</time></trkpt><trkpt lat="42.12268" lon="11.8631217"><ele>318.0</ele><time>2026-04-19T12:28:10.368Z</time></trkpt><trkpt lat="42.1225083" lon="11.86323"><ele>316.6666666666667</ele><time>2026-04-19T12:28:11.369Z</time></trkpt><trkpt lat="42.122335" lon="11.8633417"><ele>315.33333333333337</ele><time>2026-04-19T12:28:12.371Z</time></trkpt><trkpt lat="42.1221617" lon="11.86342"><ele>314.0</ele><time>2026-04-19T12:28:13.367Z</time></trkpt><trkpt lat="42.121985" lon="11.8634567"><ele>314.0</ele><time>2026-04-19T12:28:14.338Z</time></trkpt><trkpt lat="42.12181" lon="11.86344"><ele>314.0</ele><time>2026-04-19T12:28:15.363Z</time></trkpt><trkpt lat="42.1216367" lon="11.8633667"><ele>314.0</ele><time>2026-04-19T12:28:16.364Z</time></trkpt><trkpt lat="42.12147" lon="11.86324"><ele>316.0</ele><time>2026-04-19T12:28:17.367Z</time></trkpt><trkpt lat="42.1213083" lon="11.863075"><ele>318.0</ele><time>2026-04-19T12:28:18.364Z</time></trkpt><trkpt lat="42.1211417" lon="11.8629"><ele>320.0</ele><time>2026-04-19T12:28:19.357Z</time></trkpt><trkpt lat="42.1209667" lon="11.86273"><ele>319.33333333333337</ele><time>2026-04-19T12:28:20.364Z</time></trkpt><trkpt lat="42.12079" lon="11.8625717"><ele>318.6666666666667</ele><time>2026-04-19T12:28:21.363Z</time></trkpt><trkpt lat="42.120615" lon="11.86242"><ele>318.0</ele><time>2026-04-19T12:28:22.367Z</time></trkpt><trkpt lat="42.1204517" lon="11.8622767"><ele>318.0</ele><time>2026-04-19T12:28:23.37Z</time></trkpt><trkpt lat="42.1202933" lon="11.8621333"><ele>318.0</ele><time>2026-04-19T12:28:24.365Z</time></trkpt><trkpt lat="42.1201383" lon="11.8619917"><ele>318.0</ele><time>2026-04-19T12:28:25.336Z</time></trkpt><trkpt lat="42.11998" lon="11.8618583"><ele>316.0</ele><time>2026-04-19T12:28:26.363Z</time></trkpt><trkpt lat="42.11982" lon="11.861735"><ele>314.0</ele><time>2026-04-19T12:28:27.362Z</time></trkpt><trkpt lat="42.11966" lon="11.8616333"><ele>312.0</ele><time>2026-04-19T12:28:28.358Z</time></trkpt><trkpt lat="42.119495" lon="11.8615533"><ele>312.0</ele><time>2026-04-19T12:28:29.365Z</time></trkpt><trkpt lat="42.1193217" lon="11.8614967"><ele>312.0</ele><time>2026-04-19T12:28:30.368Z</time></trkpt><trkpt lat="42.1191433" lon="11.8614667"><ele>312.0</ele><time>2026-04-19T12:28:31.364Z</time></trkpt><trkpt lat="42.118965" lon="11.86147"><ele>310.6666666666667</ele><time>2026-04-19T12:28:32.368Z</time></trkpt><trkpt lat="42.118785" lon="11.8614933"><ele>309.33333333333337</ele><time>2026-04-19T12:28:33.359Z</time></trkpt><trkpt lat="42.1186067" lon="11.8615217"><ele>308.0</ele><time>2026-04-19T12:28:34.368Z</time></trkpt><trkpt lat="42.1184283" lon="11.861545"><ele>308.0</ele><time>2026-04-19T12:28:35.367Z</time></trkpt><trkpt lat="42.118245" lon="11.8615667"><ele>308.0</ele><time>2026-04-19T12:28:36.37Z</time></trkpt><trkpt lat="42.1180583" lon="11.8615917"><ele>308.0</ele><time>2026-04-19T12:28:37.363Z</time></trkpt><trkpt lat="42.117865" lon="11.86162"><ele>307.6666666666667</ele><time>2026-04-19T12:28:38.369Z</time></trkpt><trkpt lat="42.1176617" lon="11.8616417"><ele>307.3333333333333</ele><time>2026-04-19T12:28:39.368Z</time></trkpt><trkpt lat="42.117455" lon="11.8616433"><ele>307.0</ele><time>2026-04-19T12:28:40.371Z</time></trkpt><trkpt lat="42.11725" lon="11.8616283"><ele>308.3333333333333</ele><time>2026-04-19T12:28:41.371Z</time></trkpt><trkpt lat="42.11705" lon="11.8615933"><ele>309.6666666666667</ele><time>2026-04-19T12:28:42.369Z</time></trkpt><trkpt lat="42.116855" lon="11.86154"><ele>311.0</ele><time>2026-04-19T12:28:43.371Z</time></trkpt><trkpt lat="42.1166617" lon="11.861465"><ele>313.0</ele><time>2026-04-19T12:28:44.373Z</time></trkpt><trkpt lat="42.1164733" lon="11.86136"><ele>315.0</ele><time>2026-04-19T12:28:45.362Z</time></trkpt><trkpt lat="42.1162833" lon="11.8612283"><ele>317.0</ele><time>2026-04-19T12:28:46.37Z</time></trkpt><trkpt lat="42.1160967" lon="11.8610783"><ele>316.0</ele><time>2026-04-19T12:28:47.371Z</time></trkpt><trkpt lat="42.115915" lon="11.8609283"><ele>315.0</ele><time>2026-04-19T12:28:48.365Z</time></trkpt><trkpt lat="42.1157483" lon="11.8607817"><ele>314.0</ele><time>2026-04-19T12:28:49.33Z</time></trkpt><trkpt lat="42.1155967" lon="11.8606283"><ele>316.33333333333337</ele><time>2026-04-19T12:28:50.367Z</time></trkpt><trkpt lat="42.1154633" lon="11.86045"><ele>318.6666666666667</ele><time>2026-04-19T12:28:51.369Z</time></trkpt><trkpt lat="42.1153433" lon="11.8602517"><ele>321.0</ele><time>2026-04-19T12:28:52.367Z</time></trkpt><trkpt lat="42.11524" lon="11.8600433"><ele>321.0</ele><time>2026-04-19T12:28:53.366Z</time></trkpt><trkpt lat="42.1151567" lon="11.85982"><ele>321.0</ele><time>2026-04-19T12:28:54.366Z</time></trkpt><trkpt lat="42.1150917" lon="11.85958"><ele>321.0</ele><time>2026-04-19T12:28:55.365Z</time></trkpt><trkpt lat="42.115045" lon="11.859325"><ele>319.6666666666667</ele><time>2026-04-19T12:28:56.367Z</time></trkpt><trkpt lat="42.1150117" lon="11.8590567"><ele>318.33333333333337</ele><time>2026-04-19T12:28:57.365Z</time></trkpt><trkpt lat="42.1149817" lon="11.8587817"><ele>317.0</ele><time>2026-04-19T12:28:58.373Z</time></trkpt><trkpt lat="42.1149533" lon="11.858515"><ele>317.0</ele><time>2026-04-19T12:28:59.365Z</time></trkpt><trkpt lat="42.1149233" lon="11.85826"><ele>317.0</ele><time>2026-04-19T12:29:00.365Z</time></trkpt><trkpt lat="42.1148867" lon="11.8580233"><ele>317.0</ele><time>2026-04-19T12:29:01.368Z</time></trkpt><trkpt lat="42.1148333" lon="11.85781"><ele>317.0</ele><time>2026-04-19T12:29:02.37Z</time></trkpt><trkpt lat="42.1147583" lon="11.8576217"><ele>317.0</ele><time>2026-04-19T12:29:03.368Z</time></trkpt><trkpt lat="42.114655" lon="11.8574483"><ele>317.0</ele><time>2026-04-19T12:29:04.362Z</time></trkpt><trkpt lat="42.11454" lon="11.8572833"><ele>314.6666666666667</ele><time>2026-04-19T12:29:05.367Z</time></trkpt><trkpt lat="42.11443" lon="11.857125"><ele>312.3333333333333</ele><time>2026-04-19T12:29:06.37Z</time></trkpt><trkpt lat="42.1143383" lon="11.85696"><ele>310.0</ele><time>2026-04-19T12:29:07.348Z</time></trkpt><trkpt lat="42.1142767" lon="11.8567767"><ele>308.66666666666663</ele><time>2026-04-19T12:29:08.367Z</time></trkpt><trkpt lat="42.11424" lon="11.856565"><ele>307.3333333333333</ele><time>2026-04-19T12:29:09.365Z</time></trkpt><trkpt lat="42.11423" lon="11.8563333"><ele>306.0</ele><time>2026-04-19T12:29:10.37Z</time></trkpt><trkpt lat="42.1142417" lon="11.8560983"><ele>304.6666666666667</ele><time>2026-04-19T12:29:11.364Z</time></trkpt><trkpt lat="42.1142733" lon="11.8558567"><ele>303.33333333333337</ele><time>2026-04-19T12:29:12.359Z</time></trkpt><trkpt lat="42.1143033" lon="11.8556167"><ele>302.0</ele><time>2026-04-19T12:29:13.362Z</time></trkpt><trkpt lat="42.1143283" lon="11.85539"><ele>302.0</ele><time>2026-04-19T12:29:14.368Z</time></trkpt><trkpt lat="42.11435" lon="11.855175"><ele>302.0</ele><time>2026-04-19T12:29:15.39Z</time></trkpt><trkpt lat="42.1143683" lon="11.8549717"><ele>302.0</ele><time>2026-04-19T12:29:16.415Z</time></trkpt><trkpt lat="42.11438" lon="11.8547717"><ele>301.0</ele><time>2026-04-19T12:29:17.413Z</time></trkpt><trkpt lat="42.1143783" lon="11.8545783"><ele>300.0</ele><time>2026-04-19T12:29:18.401Z</time></trkpt><trkpt lat="42.1143483" lon="11.85439"><ele>299.0</ele><time>2026-04-19T12:29:19.392Z</time></trkpt><trkpt lat="42.11429" lon="11.85423"><ele>298.0</ele><time>2026-04-19T12:29:20.386Z</time></trkpt><trkpt lat="42.114195" lon="11.8540867"><ele>296.3333333333333</ele><time>2026-04-19T12:29:21.404Z</time></trkpt><trkpt lat="42.11405" lon="11.8539783"><ele>294.6666666666667</ele><time>2026-04-19T12:29:22.412Z</time></trkpt><trkpt lat="42.11389" lon="11.8538333"><ele>293.0</ele><time>2026-04-19T12:29:23.347Z</time></trkpt><trkpt lat="42.113735" lon="11.8537167"><ele>293.0</ele><time>2026-04-19T12:29:24.344Z</time></trkpt><trkpt lat="42.1135083" lon="11.853595"><ele>293.0</ele><time>2026-04-19T12:29:25.351Z</time></trkpt><trkpt lat="42.1133517" lon="11.8534783"><ele>293.0</ele><time>2026-04-19T12:29:26.346Z</time></trkpt><trkpt lat="42.1131817" lon="11.85337"><ele>288.6666666666667</ele><time>2026-04-19T12:29:27.376Z</time></trkpt><trkpt lat="42.1130083" lon="11.8532567"><ele>284.3333333333333</ele><time>2026-04-19T12:29:28.34Z</time></trkpt><trkpt lat="42.1128383" lon="11.8531483"><ele>280.0</ele><time>2026-04-19T12:29:29.351Z</time></trkpt><trkpt lat="42.1126733" lon="11.8530433"><ele>280.0</ele><time>2026-04-19T12:29:30.332Z</time></trkpt><trkpt lat="42.1125033" lon="11.8529383"><ele>280.0</ele><time>2026-04-19T12:29:31.345Z</time></trkpt><trkpt lat="42.1123417" lon="11.8528383"><ele>280.0</ele><time>2026-04-19T12:29:32.336Z</time></trkpt><trkpt lat="42.1121933" lon="11.852735"><ele>281.3333333333333</ele><time>2026-04-19T12:29:33.362Z</time></trkpt><trkpt lat="42.1120533" lon="11.8526283"><ele>282.6666666666667</ele><time>2026-04-19T12:29:34.356Z</time></trkpt><trkpt lat="42.111925" lon="11.8525033"><ele>284.0</ele><time>2026-04-19T12:29:35.359Z</time></trkpt><trkpt lat="42.11181" lon="11.8523617"><ele>284.0</ele><time>2026-04-19T12:29:36.372Z</time></trkpt><trkpt lat="42.1117033" lon="11.85222"><ele>284.0</ele><time>2026-04-19T12:29:37.336Z</time></trkpt><trkpt lat="42.1116083" lon="11.8520667"><ele>284.0</ele><time>2026-04-19T12:29:38.338Z</time></trkpt><trkpt lat="42.1115417" lon="11.8518967"><ele>284.0</ele><time>2026-04-19T12:29:39.338Z</time></trkpt><trkpt lat="42.1115117" lon="11.8517033"><ele>282.33333333333337</ele><time>2026-04-19T12:29:40.349Z</time></trkpt><trkpt lat="42.111515" lon="11.8514867"><ele>280.6666666666667</ele><time>2026-04-19T12:29:41.362Z</time></trkpt><trkpt lat="42.1115467" lon="11.8512517"><ele>279.0</ele><time>2026-04-19T12:29:42.339Z</time></trkpt><trkpt lat="42.1116" lon="11.851005"><ele>273.0</ele><time>2026-04-19T12:29:43.34Z</time></trkpt><trkpt lat="42.11167" lon="11.850765"><ele>267.0</ele><time>2026-04-19T12:29:44.342Z</time></trkpt><trkpt lat="42.111755" lon="11.85053"><ele>261.0</ele><time>2026-04-19T12:29:45.362Z</time></trkpt><trkpt lat="42.1118433" lon="11.8502883"><ele>263.0</ele><time>2026-04-19T12:29:46.357Z</time></trkpt><trkpt lat="42.1119233" lon="11.8500333"><ele>265.0</ele><time>2026-04-19T12:29:47.338Z</time></trkpt><trkpt lat="42.11199" lon="11.84976"><ele>267.0</ele><time>2026-04-19T12:29:48.362Z</time></trkpt><trkpt lat="42.1120367" lon="11.8494733"><ele>267.6666666666667</ele><time>2026-04-19T12:29:49.332Z</time></trkpt><trkpt lat="42.11207" lon="11.8491867"><ele>268.33333333333337</ele><time>2026-04-19T12:29:50.342Z</time></trkpt><trkpt lat="42.112095" lon="11.848915"><ele>269.0</ele><time>2026-04-19T12:29:51.344Z</time></trkpt><trkpt lat="42.112105" lon="11.84864"><ele>268.0</ele><time>2026-04-19T12:29:52.344Z</time></trkpt><trkpt lat="42.1121167" lon="11.8483633"><ele>267.0</ele><time>2026-04-19T12:29:53.344Z</time></trkpt><trkpt lat="42.1121317" lon="11.84808"><ele>266.0</ele><time>2026-04-19T12:29:54.348Z</time></trkpt><trkpt lat="42.1121483" lon="11.8478117"><ele>265.6666666666667</ele><time>2026-04-19T12:29:55.326Z</time></trkpt><trkpt lat="42.11217" lon="11.8475583"><ele>265.3333333333333</ele><time>2026-04-19T12:29:56.331Z</time></trkpt><trkpt lat="42.1121917" lon="11.847305"><ele>265.0</ele><time>2026-04-19T12:29:57.332Z</time></trkpt><trkpt lat="42.1122133" lon="11.8470567"><ele>265.0</ele><time>2026-04-19T12:29:58.327Z</time></trkpt><trkpt lat="42.1122317" lon="11.846815"><ele>265.0</ele><time>2026-04-19T12:29:59.333Z</time></trkpt><trkpt lat="42.1122433" lon="11.8465783"><ele>265.0</ele><time>2026-04-19T12:30:00.328Z</time></trkpt><trkpt lat="42.11225" lon="11.8463367"><ele>263.66666666666663</ele><time>2026-04-19T12:30:01.331Z</time></trkpt><trkpt lat="42.112245" lon="11.8460983"><ele>262.3333333333333</ele><time>2026-04-19T12:30:02.325Z</time></trkpt><trkpt lat="42.1122133" lon="11.8458633"><ele>261.0</ele><time>2026-04-19T12:30:03.332Z</time></trkpt><trkpt lat="42.1121583" lon="11.8456267"><ele>258.0</ele><time>2026-04-19T12:30:04.352Z</time></trkpt><trkpt lat="42.1120917" lon="11.845395"><ele>255.0</ele><time>2026-04-19T12:30:05.331Z</time></trkpt><trkpt lat="42.1120217" lon="11.8451633"><ele>252.0</ele><time>2026-04-19T12:30:06.334Z</time></trkpt><trkpt lat="42.1119517" lon="11.8449333"><ele>248.66666666666669</ele><time>2026-04-19T12:30:07.33Z</time></trkpt><trkpt lat="42.11188" lon="11.8447083"><ele>245.33333333333334</ele><time>2026-04-19T12:30:08.356Z</time></trkpt><trkpt lat="42.111805" lon="11.8444883"><ele>242.0</ele><time>2026-04-19T12:30:09.361Z</time></trkpt><trkpt lat="42.111735" lon="11.8442767"><ele>240.0</ele><time>2026-04-19T12:30:10.36Z</time></trkpt><trkpt lat="42.1116633" lon="11.8440683"><ele>238.0</ele><time>2026-04-19T12:30:11.359Z</time></trkpt><trkpt lat="42.1115933" lon="11.8438717"><ele>236.0</ele><time>2026-04-19T12:30:12.362Z</time></trkpt><trkpt lat="42.111515" lon="11.8436867"><ele>236.0</ele><time>2026-04-19T12:30:13.349Z</time></trkpt><trkpt lat="42.1114283" lon="11.8435267"><ele>236.0</ele><time>2026-04-19T12:30:14.364Z</time></trkpt><trkpt lat="42.1113267" lon="11.8434067"><ele>236.0</ele><time>2026-04-19T12:30:15.358Z</time></trkpt><trkpt lat="42.111205" lon="11.8433367"><ele>236.0</ele><time>2026-04-19T12:30:16.332Z</time></trkpt><trkpt lat="42.1110633" lon="11.8433183"><ele>234.33333333333334</ele><time>2026-04-19T12:30:17.361Z</time></trkpt><trkpt lat="42.1109167" lon="11.843355"><ele>232.66666666666669</ele><time>2026-04-19T12:30:18.361Z</time></trkpt><trkpt lat="42.110765" lon="11.8434383"><ele>231.0</ele><time>2026-04-19T12:30:19.334Z</time></trkpt><trkpt lat="42.1106183" lon="11.8435417"><ele>230.0</ele><time>2026-04-19T12:30:20.354Z</time></trkpt><trkpt lat="42.1104717" lon="11.8436517"><ele>229.0</ele><time>2026-04-19T12:30:21.355Z</time></trkpt><trkpt lat="42.110335" lon="11.8437467"><ele>228.0</ele><time>2026-04-19T12:30:22.367Z</time></trkpt><trkpt lat="42.1101967" lon="11.84382"><ele>228.0</ele><time>2026-04-19T12:30:23.361Z</time></trkpt><trkpt lat="42.11006" lon="11.843845"><ele>228.0</ele><time>2026-04-19T12:30:24.338Z</time></trkpt><trkpt lat="42.1099267" lon="11.8438267"><ele>228.0</ele><time>2026-04-19T12:30:25.33Z</time></trkpt><trkpt lat="42.1098017" lon="11.8437567"><ele>228.0</ele><time>2026-04-19T12:30:26.338Z</time></trkpt><trkpt lat="42.1096917" lon="11.8436333"><ele>227.33333333333331</ele><time>2026-04-19T12:30:27.361Z</time></trkpt><trkpt lat="42.1096167" lon="11.8434667"><ele>226.66666666666666</ele><time>2026-04-19T12:30:28.358Z</time></trkpt><trkpt lat="42.10958" lon="11.84327"><ele>226.0</ele><time>2026-04-19T12:30:29.362Z</time></trkpt><trkpt lat="42.109575" lon="11.8430433"><ele>226.0</ele><time>2026-04-19T12:30:30.364Z</time></trkpt><trkpt lat="42.1095817" lon="11.8428033"><ele>226.0</ele><time>2026-04-19T12:30:31.365Z</time></trkpt><trkpt lat="42.1095917" lon="11.8425567"><ele>226.0</ele><time>2026-04-19T12:30:32.366Z</time></trkpt><trkpt lat="42.109595" lon="11.8423133"><ele>223.33333333333331</ele><time>2026-04-19T12:30:33.361Z</time></trkpt><trkpt lat="42.109585" lon="11.84207"><ele>220.66666666666669</ele><time>2026-04-19T12:30:34.36Z</time></trkpt><trkpt lat="42.10955" lon="11.8418333"><ele>218.0</ele><time>2026-04-19T12:30:35.349Z</time></trkpt><trkpt lat="42.1094883" lon="11.8415917"><ele>215.66666666666669</ele><time>2026-04-19T12:30:36.357Z</time></trkpt><trkpt lat="42.1093917" lon="11.84135"><ele>213.33333333333331</ele><time>2026-04-19T12:30:37.362Z</time></trkpt><trkpt lat="42.1092717" lon="11.84111"><ele>211.0</ele><time>2026-04-19T12:30:38.363Z</time></trkpt><trkpt lat="42.1091367" lon="11.840865"><ele>209.0</ele><time>2026-04-19T12:30:39.36Z</time></trkpt><trkpt lat="42.108995" lon="11.8406217"><ele>207.0</ele><time>2026-04-19T12:30:40.363Z</time></trkpt><trkpt lat="42.1088567" lon="11.8403933"><ele>205.0</ele><time>2026-04-19T12:30:41.327Z</time></trkpt><trkpt lat="42.1087283" lon="11.840175"><ele>204.33333333333331</ele><time>2026-04-19T12:30:42.353Z</time></trkpt><trkpt lat="42.1085983" lon="11.8399583"><ele>203.66666666666669</ele><time>2026-04-19T12:30:43.338Z</time></trkpt><trkpt lat="42.1084667" lon="11.839735"><ele>203.0</ele><time>2026-04-19T12:30:44.364Z</time></trkpt><trkpt lat="42.1083367" lon="11.8395117"><ele>200.0</ele><time>2026-04-19T12:30:45.362Z</time></trkpt><trkpt lat="42.1082133" lon="11.839295"><ele>197.0</ele><time>2026-04-19T12:30:46.358Z</time></trkpt><trkpt lat="42.108095" lon="11.8390867"><ele>194.0</ele><time>2026-04-19T12:30:47.365Z</time></trkpt><trkpt lat="42.107985" lon="11.838885"><ele>194.0</ele><time>2026-04-19T12:30:48.35Z</time></trkpt><trkpt lat="42.1078783" lon="11.83869"><ele>194.0</ele><time>2026-04-19T12:30:49.359Z</time></trkpt><trkpt lat="42.107775" lon="11.8385083"><ele>194.0</ele><time>2026-04-19T12:30:50.339Z</time></trkpt><trkpt lat="42.1076733" lon="11.838335"><ele>195.0</ele><time>2026-04-19T12:30:51.355Z</time></trkpt><trkpt lat="42.107575" lon="11.8381667"><ele>196.0</ele><time>2026-04-19T12:30:52.356Z</time></trkpt><trkpt lat="42.1074783" lon="11.8379933"><ele>197.0</ele><time>2026-04-19T12:30:53.355Z</time></trkpt><trkpt lat="42.10738" lon="11.8378083"><ele>192.33333333333334</ele><time>2026-04-19T12:30:54.36Z</time></trkpt><trkpt lat="42.10729" lon="11.8376133"><ele>187.66666666666669</ele><time>2026-04-19T12:30:55.341Z</time></trkpt><trkpt lat="42.1072233" lon="11.83741"><ele>183.0</ele><time>2026-04-19T12:30:56.359Z</time></trkpt><trkpt lat="42.1071867" lon="11.83719"><ele>183.0</ele><time>2026-04-19T12:30:57.36Z</time></trkpt><trkpt lat="42.1071767" lon="11.8369517"><ele>183.0</ele><time>2026-04-19T12:30:58.361Z</time></trkpt><trkpt lat="42.1071917" lon="11.8367"><ele>183.0</ele><time>2026-04-19T12:30:59.345Z</time></trkpt><trkpt lat="42.1072333" lon="11.836435"><ele>184.33333333333334</ele><time>2026-04-19T12:31:00.345Z</time></trkpt><trkpt lat="42.1072883" lon="11.8361583"><ele>185.66666666666669</ele><time>2026-04-19T12:31:01.348Z</time></trkpt><trkpt lat="42.1073483" lon="11.835875"><ele>187.0</ele><time>2026-04-19T12:31:02.36Z</time></trkpt><trkpt lat="42.1074067" lon="11.8355867"><ele>187.0</ele><time>2026-04-19T12:31:03.339Z</time></trkpt><trkpt lat="42.107465" lon="11.8352967"><ele>187.0</ele><time>2026-04-19T12:31:04.341Z</time></trkpt><trkpt lat="42.1075233" lon="11.8350167"><ele>187.0</ele><time>2026-04-19T12:31:05.335Z</time></trkpt><trkpt lat="42.10758" lon="11.8347483"><ele>185.66666666666669</ele><time>2026-04-19T12:31:06.327Z</time></trkpt><trkpt lat="42.107635" lon="11.834495"><ele>184.33333333333334</ele><time>2026-04-19T12:31:07.355Z</time></trkpt><trkpt lat="42.1076883" lon="11.8342533"><ele>183.0</ele><time>2026-04-19T12:31:08.363Z</time></trkpt><trkpt lat="42.1077383" lon="11.834025"><ele>182.33333333333334</ele><time>2026-04-19T12:31:09.325Z</time></trkpt><trkpt lat="42.1077867" lon="11.833815"><ele>181.66666666666669</ele><time>2026-04-19T12:31:10.331Z</time></trkpt><trkpt lat="42.1078333" lon="11.8336183"><ele>181.0</ele><time>2026-04-19T12:31:11.357Z</time></trkpt><trkpt lat="42.1078783" lon="11.8334367"><ele>180.8</ele><time>2026-04-19T12:31:12.361Z</time></trkpt><trkpt lat="42.107925" lon="11.8332817"><ele>180.60000000000002</ele><time>2026-04-19T12:31:13.362Z</time></trkpt><trkpt lat="42.1079683" lon="11.8331533"><ele>180.4</ele><time>2026-04-19T12:31:14.357Z</time></trkpt><trkpt lat="42.1080017" lon="11.833035"><ele>180.2</ele><time>2026-04-19T12:31:15.363Z</time></trkpt><trkpt lat="42.1080017" lon="11.8329133"><ele>180.0</ele><time>2026-04-19T12:31:16.331Z</time></trkpt><trkpt lat="42.1079783" lon="11.8327883"><ele>180.0</ele><time>2026-04-19T12:31:17.356Z</time></trkpt><trkpt lat="42.1079183" lon="11.8326517"><ele>180.0</ele><time>2026-04-19T12:31:18.358Z</time></trkpt><trkpt lat="42.1078433" lon="11.8325033"><ele>180.0</ele><time>2026-04-19T12:31:19.345Z</time></trkpt><trkpt lat="42.1077617" lon="11.8323483"><ele>180.0</ele><time>2026-04-19T12:31:20.357Z</time></trkpt><trkpt lat="42.1076833" lon="11.8321933"><ele>179.0</ele><time>2026-04-19T12:31:21.361Z</time></trkpt><trkpt lat="42.1076067" lon="11.8320383"><ele>178.0</ele><time>2026-04-19T12:31:22.367Z</time></trkpt><trkpt lat="42.10753" lon="11.8318783"><ele>177.0</ele><time>2026-04-19T12:31:23.365Z</time></trkpt><trkpt lat="42.1074533" lon="11.8317117"><ele>176.0</ele><time>2026-04-19T12:31:24.358Z</time></trkpt><trkpt lat="42.107375" lon="11.8315417"><ele>174.66666666666666</ele><time>2026-04-19T12:31:25.341Z</time></trkpt><trkpt lat="42.107295" lon="11.8313667"><ele>173.33333333333334</ele><time>2026-04-19T12:31:26.33Z</time></trkpt><trkpt lat="42.1072167" lon="11.83118"><ele>172.0</ele><time>2026-04-19T12:31:27.339Z</time></trkpt><trkpt lat="42.10714" lon="11.8309867"><ele>172.0</ele><time>2026-04-19T12:31:28.359Z</time></trkpt><trkpt lat="42.1070633" lon="11.8307867"><ele>172.0</ele><time>2026-04-19T12:31:29.326Z</time></trkpt><trkpt lat="42.1069867" lon="11.830575"><ele>172.0</ele><time>2026-04-19T12:31:30.326Z</time></trkpt><trkpt lat="42.106905" lon="11.8303567"><ele>171.0</ele><time>2026-04-19T12:31:31.341Z</time></trkpt><trkpt lat="42.1068233" lon="11.83014"><ele>170.0</ele><time>2026-04-19T12:31:32.333Z</time></trkpt><trkpt lat="42.106735" lon="11.8299167"><ele>169.0</ele><time>2026-04-19T12:31:33.329Z</time></trkpt><trkpt lat="42.1066517" lon="11.82969"><ele>169.0</ele><time>2026-04-19T12:31:34.327Z</time></trkpt><trkpt lat="42.1065717" lon="11.8294667"><ele>169.0</ele><time>2026-04-19T12:31:35.326Z</time></trkpt><trkpt lat="42.1064917" lon="11.8292417"><ele>169.0</ele><time>2026-04-19T12:31:36.336Z</time></trkpt><trkpt lat="42.1064133" lon="11.8290183"><ele>169.0</ele><time>2026-04-19T12:31:37.328Z</time></trkpt><trkpt lat="42.1063367" lon="11.8288"><ele>169.0</ele><time>2026-04-19T12:31:38.332Z</time></trkpt><trkpt lat="42.1062633" lon="11.82858"><ele>169.0</ele><time>2026-04-19T12:31:39.33Z</time></trkpt><trkpt lat="42.1061867" lon="11.8283617"><ele>168.0</ele><time>2026-04-19T12:31:40.336Z</time></trkpt><trkpt lat="42.1061183" lon="11.8281383"><ele>167.0</ele><time>2026-04-19T12:31:41.331Z</time></trkpt><trkpt lat="42.106065" lon="11.8279083"><ele>166.0</ele><time>2026-04-19T12:31:42.327Z</time></trkpt><trkpt lat="42.1060217" lon="11.8276667"><ele>165.0</ele><time>2026-04-19T12:31:43.322Z</time></trkpt><trkpt lat="42.1059783" lon="11.82741"><ele>164.0</ele><time>2026-04-19T12:31:44.329Z</time></trkpt><trkpt lat="42.105935" lon="11.827145"><ele>163.0</ele><time>2026-04-19T12:31:45.323Z</time></trkpt><trkpt lat="42.10589" lon="11.826875"><ele>162.0</ele><time>2026-04-19T12:31:46.342Z</time></trkpt><trkpt lat="42.1058417" lon="11.826605"><ele>161.0</ele><time>2026-04-19T12:31:47.325Z</time></trkpt><trkpt lat="42.1057983" lon="11.826345"><ele>160.0</ele><time>2026-04-19T12:31:48.354Z</time></trkpt><trkpt lat="42.1057517" lon="11.8260917"><ele>159.33333333333334</ele><time>2026-04-19T12:31:49.329Z</time></trkpt><trkpt lat="42.105705" lon="11.8258433"><ele>158.66666666666666</ele><time>2026-04-19T12:31:50.334Z</time></trkpt><trkpt lat="42.105665" lon="11.8256"><ele>158.0</ele><time>2026-04-19T12:31:51.349Z</time></trkpt><trkpt lat="42.105625" lon="11.82536"><ele>156.33333333333331</ele><time>2026-04-19T12:31:52.348Z</time></trkpt><trkpt lat="42.1055883" lon="11.8251183"><ele>154.66666666666666</ele><time>2026-04-19T12:31:53.355Z</time></trkpt><trkpt lat="42.1055533" lon="11.8248867"><ele>153.0</ele><time>2026-04-19T12:31:54.355Z</time></trkpt><trkpt lat="42.1055217" lon="11.8246667"><ele>153.0</ele><time>2026-04-19T12:31:55.33Z</time></trkpt><trkpt lat="42.105495" lon="11.82445"><ele>153.0</ele><time>2026-04-19T12:31:56.349Z</time></trkpt><trkpt lat="42.1054633" lon="11.8242317"><ele>153.0</ele><time>2026-04-19T12:31:57.343Z</time></trkpt><trkpt lat="42.1054267" lon="11.8240083"><ele>151.66666666666666</ele><time>2026-04-19T12:31:58.33Z</time></trkpt><trkpt lat="42.1053867" lon="11.8237833"><ele>150.33333333333331</ele><time>2026-04-19T12:31:59.347Z</time></trkpt><trkpt lat="42.105345" lon="11.8235583"><ele>149.0</ele><time>2026-04-19T12:32:00.354Z</time></trkpt><trkpt lat="42.10531" lon="11.8233417"><ele>147.75</ele><time>2026-04-19T12:32:01.342Z</time></trkpt><trkpt lat="42.1052917" lon="11.8231433"><ele>146.5</ele><time>2026-04-19T12:32:02.361Z</time></trkpt><trkpt lat="42.1052917" lon="11.822955"><ele>145.25</ele><time>2026-04-19T12:32:03.332Z</time></trkpt><trkpt lat="42.1053067" lon="11.822755"><ele>144.0</ele><time>2026-04-19T12:32:04.328Z</time></trkpt><trkpt lat="42.105325" lon="11.82253"><ele>142.66666666666666</ele><time>2026-04-19T12:32:05.363Z</time></trkpt><trkpt lat="42.105345" lon="11.8223017"><ele>141.33333333333331</ele><time>2026-04-19T12:32:06.36Z</time></trkpt><trkpt lat="42.1053717" lon="11.8220683"><ele>140.0</ele><time>2026-04-19T12:32:07.333Z</time></trkpt><trkpt lat="42.1053983" lon="11.821835"><ele>139.33333333333331</ele><time>2026-04-19T12:32:08.343Z</time></trkpt><trkpt lat="42.1054317" lon="11.8216"><ele>138.66666666666666</ele><time>2026-04-19T12:32:09.349Z</time></trkpt><trkpt lat="42.1054667" lon="11.8213633"><ele>138.0</ele><time>2026-04-19T12:32:10.364Z</time></trkpt><trkpt lat="42.1054983" lon="11.8211267"><ele>136.66666666666666</ele><time>2026-04-19T12:32:11.362Z</time></trkpt><trkpt lat="42.10552" lon="11.8208933"><ele>135.33333333333331</ele><time>2026-04-19T12:32:12.363Z</time></trkpt><trkpt lat="42.10553" lon="11.8206633"><ele>134.0</ele><time>2026-04-19T12:32:13.364Z</time></trkpt><trkpt lat="42.1055083" lon="11.8204417"><ele>134.0</ele><time>2026-04-19T12:32:14.372Z</time></trkpt><trkpt lat="42.1054683" lon="11.8202233"><ele>134.0</ele><time>2026-04-19T12:32:15.343Z</time></trkpt><trkpt lat="42.1054133" lon="11.8199967"><ele>134.0</ele><time>2026-04-19T12:32:16.336Z</time></trkpt><trkpt lat="42.1053617" lon="11.81978"><ele>133.25</ele><time>2026-04-19T12:32:17.35Z</time></trkpt><trkpt lat="42.1053217" lon="11.8195817"><ele>132.5</ele><time>2026-04-19T12:32:18.365Z</time></trkpt><trkpt lat="42.1053033" lon="11.81939"><ele>131.75</ele><time>2026-04-19T12:32:19.341Z</time></trkpt><trkpt lat="42.10532" lon="11.8192017"><ele>131.0</ele><time>2026-04-19T12:32:20.353Z</time></trkpt><trkpt lat="42.1053683" lon="11.819"><ele>130.66666666666666</ele><time>2026-04-19T12:32:21.349Z</time></trkpt><trkpt lat="42.10543" lon="11.81879"><ele>130.33333333333334</ele><time>2026-04-19T12:32:22.343Z</time></trkpt><trkpt lat="42.1055017" lon="11.8185783"><ele>130.0</ele><time>2026-04-19T12:32:23.368Z</time></trkpt><trkpt lat="42.10557" lon="11.81837"><ele>130.0</ele><time>2026-04-19T12:32:24.367Z</time></trkpt><trkpt lat="42.105635" lon="11.81817"><ele>130.0</ele><time>2026-04-19T12:32:25.363Z</time></trkpt><trkpt lat="42.1057033" lon="11.8179817"><ele>130.0</ele><time>2026-04-19T12:32:26.361Z</time></trkpt><trkpt lat="42.1057733" lon="11.8177983"><ele>129.33333333333334</ele><time>2026-04-19T12:32:27.367Z</time></trkpt><trkpt lat="42.10584" lon="11.8176133"><ele>128.66666666666666</ele><time>2026-04-19T12:32:28.369Z</time></trkpt><trkpt lat="42.1059" lon="11.8174183"><ele>128.0</ele><time>2026-04-19T12:32:29.354Z</time></trkpt><trkpt lat="42.105945" lon="11.8172117"><ele>128.0</ele><time>2026-04-19T12:32:30.365Z</time></trkpt><trkpt lat="42.1059667" lon="11.816985"><ele>128.0</ele><time>2026-04-19T12:32:31.37Z</time></trkpt><trkpt lat="42.1059767" lon="11.81674"><ele>128.0</ele><time>2026-04-19T12:32:32.373Z</time></trkpt><trkpt lat="42.1059783" lon="11.816495"><ele>125.66666666666666</ele><time>2026-04-19T12:32:33.366Z</time></trkpt><trkpt lat="42.1059783" lon="11.816255"><ele>123.33333333333334</ele><time>2026-04-19T12:32:34.359Z</time></trkpt><trkpt lat="42.1059817" lon="11.81603"><ele>121.0</ele><time>2026-04-19T12:32:35.357Z</time></trkpt><trkpt lat="42.1059833" lon="11.8158183"><ele>119.0</ele><time>2026-04-19T12:32:36.347Z</time></trkpt><trkpt lat="42.1059833" lon="11.815615"><ele>117.0</ele><time>2026-04-19T12:32:37.364Z</time></trkpt><trkpt lat="42.105975" lon="11.8154167"><ele>115.0</ele><time>2026-04-19T12:32:38.358Z</time></trkpt><trkpt lat="42.1059417" lon="11.8152217"><ele>113.0</ele><time>2026-04-19T12:32:39.367Z</time></trkpt><trkpt lat="42.105885" lon="11.8150233"><ele>111.66666666666666</ele><time>2026-04-19T12:32:40.37Z</time></trkpt><trkpt lat="42.1058033" lon="11.8148267"><ele>110.33333333333334</ele><time>2026-04-19T12:32:41.374Z</time></trkpt><trkpt lat="42.105715" lon="11.8146433"><ele>109.0</ele><time>2026-04-19T12:32:42.333Z</time></trkpt><trkpt lat="42.1056333" lon="11.8144717"><ele>106.5</ele><time>2026-04-19T12:32:43.365Z</time></trkpt><trkpt lat="42.1055583" lon="11.8143033"><ele>104.0</ele><time>2026-04-19T12:32:44.367Z</time></trkpt><trkpt lat="42.10549" lon="11.8141333"><ele>101.5</ele><time>2026-04-19T12:32:45.368Z</time></trkpt><trkpt lat="42.1054283" lon="11.8139583"><ele>99.0</ele><time>2026-04-19T12:32:46.369Z</time></trkpt><trkpt lat="42.1053767" lon="11.813785"><ele>99.0</ele><time>2026-04-19T12:32:47.368Z</time></trkpt><trkpt lat="42.1053267" lon="11.8136133"><ele>99.0</ele><time>2026-04-19T12:32:48.365Z</time></trkpt><trkpt lat="42.1052717" lon="11.813445"><ele>99.0</ele><time>2026-04-19T12:32:49.369Z</time></trkpt><trkpt lat="42.10521" lon="11.813285"><ele>99.0</ele><time>2026-04-19T12:32:50.335Z</time></trkpt><trkpt lat="42.105135" lon="11.8131233"><ele>97.5</ele><time>2026-04-19T12:32:51.364Z</time></trkpt><trkpt lat="42.1050533" lon="11.8129633"><ele>96.0</ele><time>2026-04-19T12:32:52.359Z</time></trkpt><trkpt lat="42.1049683" lon="11.8128067"><ele>94.5</ele><time>2026-04-19T12:32:53.359Z</time></trkpt><trkpt lat="42.1048883" lon="11.8126583"><ele>93.0</ele><time>2026-04-19T12:32:54.352Z</time></trkpt><trkpt lat="42.1048083" lon="11.8125133"><ele>91.75</ele><time>2026-04-19T12:32:55.356Z</time></trkpt><trkpt lat="42.1047333" lon="11.8123683"><ele>90.5</ele><time>2026-04-19T12:32:56.362Z</time></trkpt><trkpt lat="42.104655" lon="11.8122217"><ele>89.25</ele><time>2026-04-19T12:32:57.362Z</time></trkpt><trkpt lat="42.1045767" lon="11.8120667"><ele>88.0</ele><time>2026-04-19T12:32:58.334Z</time></trkpt><trkpt lat="42.104505" lon="11.8119167"><ele>86.5</ele><time>2026-04-19T12:32:59.362Z</time></trkpt><trkpt lat="42.1044333" lon="11.8117683"><ele>85.0</ele><time>2026-04-19T12:33:00.37Z</time></trkpt><trkpt lat="42.104365" lon="11.811615"><ele>83.5</ele><time>2026-04-19T12:33:01.36Z</time></trkpt><trkpt lat="42.104295" lon="11.8114583"><ele>82.0</ele><time>2026-04-19T12:33:02.369Z</time></trkpt><trkpt lat="42.1042283" lon="11.8113083"><ele>82.0</ele><time>2026-04-19T12:33:03.365Z</time></trkpt><trkpt lat="42.10417" lon="11.8111567"><ele>82.0</ele><time>2026-04-19T12:33:04.359Z</time></trkpt><trkpt lat="42.1041167" lon="11.8109983"><ele>82.0</ele><time>2026-04-19T12:33:05.366Z</time></trkpt><trkpt lat="42.104065" lon="11.8108367"><ele>82.0</ele><time>2026-04-19T12:33:06.366Z</time></trkpt><trkpt lat="42.1040133" lon="11.8106783"><ele>80.75</ele><time>2026-04-19T12:33:07.363Z</time></trkpt><trkpt lat="42.1039533" lon="11.8105183"><ele>79.5</ele><time>2026-04-19T12:33:08.363Z</time></trkpt><trkpt lat="42.1038917" lon="11.8103533"><ele>78.25</ele><time>2026-04-19T12:33:09.355Z</time></trkpt><trkpt lat="42.1038233" lon="11.8101767"><ele>77.0</ele><time>2026-04-19T12:33:10.366Z</time></trkpt><trkpt lat="42.1037533" lon="11.8099933"><ele>76.0</ele><time>2026-04-19T12:33:11.369Z</time></trkpt><trkpt lat="42.1036783" lon="11.8098"><ele>75.0</ele><time>2026-04-19T12:33:12.363Z</time></trkpt><trkpt lat="42.1036017" lon="11.8096033"><ele>74.0</ele><time>2026-04-19T12:33:13.375Z</time></trkpt><trkpt lat="42.103525" lon="11.809415"><ele>73.5</ele><time>2026-04-19T12:33:14.369Z</time></trkpt><trkpt lat="42.103455" lon="11.8092367"><ele>73.0</ele><time>2026-04-19T12:33:15.368Z</time></trkpt><trkpt lat="42.1033967" lon="11.8090633"><ele>72.5</ele><time>2026-04-19T12:33:16.371Z</time></trkpt><trkpt lat="42.1033433" lon="11.8089017"><ele>72.0</ele><time>2026-04-19T12:33:17.373Z</time></trkpt><trkpt lat="42.10329" lon="11.8087517"><ele>71.6</ele><time>2026-04-19T12:33:18.372Z</time></trkpt><trkpt lat="42.1032433" lon="11.80861"><ele>71.2</ele><time>2026-04-19T12:33:19.361Z</time></trkpt><trkpt lat="42.103205" lon="11.808475"><ele>70.8</ele><time>2026-04-19T12:33:20.368Z</time></trkpt><trkpt lat="42.103175" lon="11.80834"><ele>70.4</ele><time>2026-04-19T12:33:21.368Z</time></trkpt><trkpt lat="42.103145" lon="11.8081917"><ele>70.0</ele><time>2026-04-19T12:33:22.371Z</time></trkpt><trkpt lat="42.1031067" lon="11.8080233"><ele>69.66666666666666</ele><time>2026-04-19T12:33:23.375Z</time></trkpt><trkpt lat="42.1030567" lon="11.8078283"><ele>69.33333333333333</ele><time>2026-04-19T12:33:24.367Z</time></trkpt><trkpt lat="42.1029883" lon="11.8076167"><ele>69.0</ele><time>2026-04-19T12:33:25.366Z</time></trkpt><trkpt lat="42.1029117" lon="11.80741"><ele>68.66666666666667</ele><time>2026-04-19T12:33:26.371Z</time></trkpt><trkpt lat="42.1028333" lon="11.8072083"><ele>68.33333333333334</ele><time>2026-04-19T12:33:27.373Z</time></trkpt><trkpt lat="42.1027583" lon="11.807015"><ele>68.0</ele><time>2026-04-19T12:33:28.369Z</time></trkpt><trkpt lat="42.1026867" lon="11.8068283"><ele>67.5</ele><time>2026-04-19T12:33:29.37Z</time></trkpt><trkpt lat="42.1026133" lon="11.80665"><ele>67.0</ele><time>2026-04-19T12:33:30.362Z</time></trkpt><trkpt lat="42.1025383" lon="11.806475"><ele>66.5</ele><time>2026-04-19T12:33:31.362Z</time></trkpt><trkpt lat="42.1024667" lon="11.8063117"><ele>66.0</ele><time>2026-04-19T12:33:32.336Z</time></trkpt><trkpt lat="42.1024017" lon="11.806165"><ele>65.75</ele><time>2026-04-19T12:33:33.366Z</time></trkpt><trkpt lat="42.1023433" lon="11.8060217"><ele>65.5</ele><time>2026-04-19T12:33:34.364Z</time></trkpt><trkpt lat="42.1022833" lon="11.8058783"><ele>65.25</ele><time>2026-04-19T12:33:35.363Z</time></trkpt><trkpt lat="42.10222" lon="11.8057167"><ele>65.0</ele><time>2026-04-19T12:33:36.372Z</time></trkpt><trkpt lat="42.1021433" lon="11.8055383"><ele>64.0</ele><time>2026-04-19T12:33:37.362Z</time></trkpt><trkpt lat="42.1020683" lon="11.8053483"><ele>63.0</ele><time>2026-04-19T12:33:38.358Z</time></trkpt><trkpt lat="42.1019983" lon="11.80516"><ele>62.0</ele><time>2026-04-19T12:33:39.369Z</time></trkpt><trkpt lat="42.1019267" lon="11.8049717"><ele>61.333333333333336</ele><time>2026-04-19T12:33:40.366Z</time></trkpt><trkpt lat="42.1018517" lon="11.804785"><ele>60.66666666666667</ele><time>2026-04-19T12:33:41.343Z</time></trkpt><trkpt lat="42.1017783" lon="11.8046067"><ele>60.0</ele><time>2026-04-19T12:33:42.359Z</time></trkpt><trkpt lat="42.10171" lon="11.804435"><ele>60.0</ele><time>2026-04-19T12:33:43.369Z</time></trkpt><trkpt lat="42.1016417" lon="11.8042717"><ele>60.0</ele><time>2026-04-19T12:33:44.373Z</time></trkpt><trkpt lat="42.1015717" lon="11.804095"><ele>60.0</ele><time>2026-04-19T12:33:45.367Z</time></trkpt><trkpt lat="42.101485" lon="11.803895"><ele>58.33333333333333</ele><time>2026-04-19T12:33:46.343Z</time></trkpt><trkpt lat="42.1013933" lon="11.8036733"><ele>56.666666666666664</ele><time>2026-04-19T12:33:47.334Z</time></trkpt><trkpt lat="42.1013083" lon="11.80345"><ele>55.0</ele><time>2026-04-19T12:33:48.357Z</time></trkpt><trkpt lat="42.1012233" lon="11.8032383"><ele>55.0</ele><time>2026-04-19T12:33:49.34Z</time></trkpt><trkpt lat="42.1011317" lon="11.8030333"><ele>55.0</ele><time>2026-04-19T12:33:50.339Z</time></trkpt><trkpt lat="42.1010233" lon="11.80283"><ele>55.0</ele><time>2026-04-19T12:33:51.343Z</time></trkpt><trkpt lat="42.10091" lon="11.8026267"><ele>54.0</ele><time>2026-04-19T12:33:52.338Z</time></trkpt><trkpt lat="42.100795" lon="11.80242"><ele>53.0</ele><time>2026-04-19T12:33:53.345Z</time></trkpt><trkpt lat="42.10068" lon="11.80223"><ele>52.0</ele><time>2026-04-19T12:33:54.339Z</time></trkpt><trkpt lat="42.1005683" lon="11.802045"><ele>50.5</ele><time>2026-04-19T12:33:55.338Z</time></trkpt><trkpt lat="42.100465" lon="11.8018917"><ele>49.0</ele><time>2026-04-19T12:33:56.333Z</time></trkpt><trkpt lat="42.1003733" lon="11.8017583"><ele>47.5</ele><time>2026-04-19T12:33:57.332Z</time></trkpt><trkpt lat="42.1002933" lon="11.8016183"><ele>46.0</ele><time>2026-04-19T12:33:58.328Z</time></trkpt><trkpt lat="42.1002167" lon="11.8014817"><ele>45.4</ele><time>2026-04-19T12:33:59.36Z</time></trkpt><trkpt lat="42.1001483" lon="11.8013533"><ele>44.8</ele><time>2026-04-19T12:34:00.358Z</time></trkpt><trkpt lat="42.1000883" lon="11.8012383"><ele>44.199999999999996</ele><time>2026-04-19T12:34:01.349Z</time></trkpt><trkpt lat="42.1000317" lon="11.8011333"><ele>43.599999999999994</ele><time>2026-04-19T12:34:02.363Z</time></trkpt><trkpt lat="42.0999783" lon="11.8010367"><ele>43.0</ele><time>2026-04-19T12:34:03.368Z</time></trkpt><trkpt lat="42.0999233" lon="11.800945"><ele>42.4</ele><time>2026-04-19T12:34:04.369Z</time></trkpt><trkpt lat="42.09987" lon="11.8008567"><ele>41.8</ele><time>2026-04-19T12:34:05.363Z</time></trkpt><trkpt lat="42.099815" lon="11.800765"><ele>41.2</ele><time>2026-04-19T12:34:06.365Z</time></trkpt><trkpt lat="42.0997517" lon="11.8006567"><ele>40.6</ele><time>2026-04-19T12:34:07.348Z</time></trkpt><trkpt lat="42.099675" lon="11.8005133"><ele>40.0</ele><time>2026-04-19T12:34:08.356Z</time></trkpt><trkpt lat="42.0995883" lon="11.8003667"><ele>40.0</ele><time>2026-04-19T12:34:09.362Z</time></trkpt><trkpt lat="42.0995067" lon="11.80023"><ele>40.0</ele><time>2026-04-19T12:34:10.363Z</time></trkpt><trkpt lat="42.0994317" lon="11.8001033"><ele>40.0</ele><time>2026-04-19T12:34:11.36Z</time></trkpt><trkpt lat="42.099365" lon="11.799985"><ele>40.0</ele><time>2026-04-19T12:34:12.366Z</time></trkpt><trkpt lat="42.0993083" lon="11.7998817"><ele>39.6</ele><time>2026-04-19T12:34:13.37Z</time></trkpt><trkpt lat="42.099275" lon="11.799805"><ele>39.2</ele><time>2026-04-19T12:34:14.373Z</time></trkpt><trkpt lat="42.09925" lon="11.7996783"><ele>38.8</ele><time>2026-04-19T12:34:16.368Z</time></trkpt><trkpt lat="42.0992833" lon="11.7994867"><ele>38.4</ele><time>2026-04-19T12:34:18.359Z</time></trkpt><trkpt lat="42.0993133" lon="11.79936"><ele>38.0</ele><time>2026-04-19T12:34:19.368Z</time></trkpt><trkpt lat="42.09934" lon="11.7992133"><ele>37.0</ele><time>2026-04-19T12:34:20.367Z</time></trkpt><trkpt lat="42.0993567" lon="11.7990417"><ele>36.0</ele><time>2026-04-19T12:34:21.366Z</time></trkpt><trkpt lat="42.0993767" lon="11.7988433"><ele>35.0</ele><time>2026-04-19T12:34:22.373Z</time></trkpt><trkpt lat="42.0994067" lon="11.798615"><ele>34.0</ele><time>2026-04-19T12:34:23.36Z</time></trkpt><trkpt lat="42.099445" lon="11.7983667"><ele>34.0</ele><time>2026-04-19T12:34:24.37Z</time></trkpt><trkpt lat="42.099485" lon="11.798105"><ele>34.0</ele><time>2026-04-19T12:34:25.37Z</time></trkpt><trkpt lat="42.0995283" lon="11.7978417"><ele>34.0</ele><time>2026-04-19T12:34:26.364Z</time></trkpt><trkpt lat="42.0995867" lon="11.7975767"><ele>33.333333333333336</ele><time>2026-04-19T12:34:27.365Z</time></trkpt><trkpt lat="42.0996617" lon="11.797305"><ele>32.666666666666664</ele><time>2026-04-19T12:34:28.37Z</time></trkpt><trkpt lat="42.0997483" lon="11.797035"><ele>32.0</ele><time>2026-04-19T12:34:29.371Z</time></trkpt><trkpt lat="42.09985" lon="11.7967717"><ele>31.333333333333332</ele><time>2026-04-19T12:34:30.37Z</time></trkpt><trkpt lat="42.099965" lon="11.79651"><ele>30.666666666666664</ele><time>2026-04-19T12:34:31.369Z</time></trkpt><trkpt lat="42.1000883" lon="11.7962617"><ele>30.0</ele><time>2026-04-19T12:34:32.354Z</time></trkpt><trkpt lat="42.100215" lon="11.7960367"><ele>29.0</ele><time>2026-04-19T12:34:33.361Z</time></trkpt><trkpt lat="42.10034" lon="11.7958367"><ele>28.0</ele><time>2026-04-19T12:34:34.37Z</time></trkpt><trkpt lat="42.1004583" lon="11.7956633"><ele>27.0</ele><time>2026-04-19T12:34:35.363Z</time></trkpt><trkpt lat="42.1005667" lon="11.79551"><ele>27.0</ele><time>2026-04-19T12:34:36.357Z</time></trkpt><trkpt lat="42.1006767" lon="11.79538"><ele>27.0</ele><time>2026-04-19T12:34:37.363Z</time></trkpt><trkpt lat="42.1007917" lon="11.7952667"><ele>27.0</ele><time>2026-04-19T12:34:38.368Z</time></trkpt><trkpt lat="42.1008983" lon="11.7951567"><ele>27.0</ele><time>2026-04-19T12:34:39.369Z</time></trkpt><trkpt lat="42.1009883" lon="11.7950317"><ele>26.333333333333336</ele><time>2026-04-19T12:34:40.37Z</time></trkpt><trkpt lat="42.10108" lon="11.7948817"><ele>25.666666666666668</ele><time>2026-04-19T12:34:41.34Z</time></trkpt><trkpt lat="42.1011967" lon="11.7947233"><ele>25.0</ele><time>2026-04-19T12:34:42.334Z</time></trkpt><trkpt lat="42.1013233" lon="11.7945733"><ele>25.0</ele><time>2026-04-19T12:34:43.361Z</time></trkpt><trkpt lat="42.101445" lon="11.79443"><ele>25.0</ele><time>2026-04-19T12:34:44.36Z</time></trkpt><trkpt lat="42.1015633" lon="11.7942983"><ele>25.0</ele><time>2026-04-19T12:34:45.371Z</time></trkpt><trkpt lat="42.1016767" lon="11.7941733"><ele>24.5</ele><time>2026-04-19T12:34:46.365Z</time></trkpt><trkpt lat="42.1017867" lon="11.79406"><ele>24.0</ele><time>2026-04-19T12:34:47.359Z</time></trkpt><trkpt lat="42.10189" lon="11.7939517"><ele>23.5</ele><time>2026-04-19T12:34:48.364Z</time></trkpt><trkpt lat="42.1019917" lon="11.7938533"><ele>23.0</ele><time>2026-04-19T12:34:49.337Z</time></trkpt><trkpt lat="42.10209" lon="11.7937583"><ele>23.0</ele><time>2026-04-19T12:34:50.344Z</time></trkpt><trkpt lat="42.1021883" lon="11.793675"><ele>23.0</ele><time>2026-04-19T12:34:51.369Z</time></trkpt><trkpt lat="42.102285" lon="11.7936"><ele>23.0</ele><time>2026-04-19T12:34:52.363Z</time></trkpt><trkpt lat="42.10238" lon="11.7935183"><ele>23.0</ele><time>2026-04-19T12:34:53.358Z</time></trkpt><trkpt lat="42.102475" lon="11.793415"><ele>22.666666666666668</ele><time>2026-04-19T12:34:54.37Z</time></trkpt><trkpt lat="42.1025767" lon="11.79328"><ele>22.333333333333332</ele><time>2026-04-19T12:34:55.361Z</time></trkpt><trkpt lat="42.1026983" lon="11.7931317"><ele>22.0</ele><time>2026-04-19T12:34:56.373Z</time></trkpt><trkpt lat="42.1028483" lon="11.7929817"><ele>22.0</ele><time>2026-04-19T12:34:57.37Z</time></trkpt><trkpt lat="42.1030167" lon="11.792825"><ele>22.0</ele><time>2026-04-19T12:34:58.366Z</time></trkpt><trkpt lat="42.103195" lon="11.7926567"><ele>22.0</ele><time>2026-04-19T12:34:59.371Z</time></trkpt><trkpt lat="42.1033783" lon="11.7924833"><ele>21.5</ele><time>2026-04-19T12:35:00.368Z</time></trkpt><trkpt lat="42.10357" lon="11.7923017"><ele>21.0</ele><time>2026-04-19T12:35:01.347Z</time></trkpt><trkpt lat="42.1037633" lon="11.7921133"><ele>21.0</ele><time>2026-04-19T12:35:02.371Z</time></trkpt><trkpt lat="42.1039583" lon="11.7919217"><ele>21.0</ele><time>2026-04-19T12:35:03.359Z</time></trkpt><trkpt lat="42.1041517" lon="11.7917283"><ele>18.5</ele><time>2026-04-19T12:35:04.345Z</time></trkpt><trkpt lat="42.104345" lon="11.7915367"><ele>16.0</ele><time>2026-04-19T12:35:05.366Z</time></trkpt><trkpt lat="42.1045333" lon="11.79135"><ele>16.0</ele><time>2026-04-19T12:35:06.368Z</time></trkpt><trkpt lat="42.1047167" lon="11.7911717"><ele>16.0</ele><time>2026-04-19T12:35:07.371Z</time></trkpt><trkpt lat="42.1048967" lon="11.7909967"><ele>16.0</ele><time>2026-04-19T12:35:08.367Z</time></trkpt><trkpt lat="42.105075" lon="11.7908183"><ele>14.0</ele><time>2026-04-19T12:35:09.368Z</time></trkpt><trkpt lat="42.1052533" lon="11.7906383"><ele>12.0</ele><time>2026-04-19T12:35:10.371Z</time></trkpt><trkpt lat="42.1054283" lon="11.7904583"><ele>10.0</ele><time>2026-04-19T12:35:11.353Z</time></trkpt><trkpt lat="42.1055933" lon="11.7902833"><ele>9.666666666666668</ele><time>2026-04-19T12:35:12.365Z</time></trkpt><trkpt lat="42.1057467" lon="11.7901167"><ele>9.333333333333334</ele><time>2026-04-19T12:35:13.369Z</time></trkpt><trkpt lat="42.105895" lon="11.7899567"><ele>9.0</ele><time>2026-04-19T12:35:14.368Z</time></trkpt><trkpt lat="42.1060417" lon="11.7897983"><ele>9.0</ele><time>2026-04-19T12:35:15.367Z</time></trkpt><trkpt lat="42.10619" lon="11.7896467"><ele>9.0</ele><time>2026-04-19T12:35:16.36Z</time></trkpt><trkpt lat="42.1063283" lon="11.7894967"><ele>9.0</ele><time>2026-04-19T12:35:17.37Z</time></trkpt><trkpt lat="42.1064533" lon="11.7893567"><ele>10.5</ele><time>2026-04-19T12:35:18.372Z</time></trkpt><trkpt lat="42.1065617" lon="11.7892317"><ele>12.0</ele><time>2026-04-19T12:35:19.348Z</time></trkpt><trkpt lat="42.1066567" lon="11.78912"><ele>13.5</ele><time>2026-04-19T12:35:20.367Z</time></trkpt><trkpt lat="42.1067433" lon="11.7890133"><ele>15.0</ele><time>2026-04-19T12:35:21.366Z</time></trkpt><trkpt lat="42.1068233" lon="11.788915"><ele>16.6</ele><time>2026-04-19T12:35:22.362Z</time></trkpt><trkpt lat="42.1068983" lon="11.7888217"><ele>18.2</ele><time>2026-04-19T12:35:23.369Z</time></trkpt><trkpt lat="42.1069683" lon="11.788735"><ele>19.799999999999997</ele><time>2026-04-19T12:35:24.369Z</time></trkpt><trkpt lat="42.107025" lon="11.7886583"><ele>21.4</ele><time>2026-04-19T12:35:25.359Z</time></trkpt><trkpt lat="42.1070683" lon="11.7885233"><ele>23.0</ele><time>2026-04-19T12:35:27.371Z</time></trkpt><trkpt lat="42.1070117" lon="11.7884133"><ele>23.0</ele><time>2026-04-19T12:35:29.345Z</time></trkpt><trkpt lat="42.10694" lon="11.7883867"><ele>23.0</ele><time>2026-04-19T12:35:30.366Z</time></trkpt><trkpt lat="42.106865" lon="11.7883417"><ele>23.0</ele><time>2026-04-19T12:35:31.367Z</time></trkpt><trkpt lat="42.1067933" lon="11.7882667"><ele>23.0</ele><time>2026-04-19T12:35:32.367Z</time></trkpt><trkpt lat="42.10672" lon="11.78815"><ele>23.0</ele><time>2026-04-19T12:35:33.37Z</time></trkpt><trkpt lat="42.1066367" lon="11.7880067"><ele>21.25</ele><time>2026-04-19T12:35:34.372Z</time></trkpt><trkpt lat="42.1065517" lon="11.78784"><ele>19.5</ele><time>2026-04-19T12:35:35.369Z</time></trkpt><trkpt lat="42.1064767" lon="11.7876783"><ele>17.75</ele><time>2026-04-19T12:35:36.347Z</time></trkpt><trkpt lat="42.1064133" lon="11.7875383"><ele>16.0</ele><time>2026-04-19T12:35:37.37Z</time></trkpt><trkpt lat="42.1063567" lon="11.787415"><ele>16.0</ele><time>2026-04-19T12:35:38.368Z</time></trkpt><trkpt lat="42.10629" lon="11.7873"><ele>16.0</ele><time>2026-04-19T12:35:39.369Z</time></trkpt><trkpt lat="42.1062033" lon="11.787185"><ele>16.0</ele><time>2026-04-19T12:35:40.371Z</time></trkpt><trkpt lat="42.1061067" lon="11.7870783"><ele>16.0</ele><time>2026-04-19T12:35:41.36Z</time></trkpt><trkpt lat="42.1060167" lon="11.7869867"><ele>15.999999999999998</ele><time>2026-04-19T12:35:42.363Z</time></trkpt><trkpt lat="42.1059367" lon="11.78691"><ele>16.0</ele><time>2026-04-19T12:35:43.369Z</time></trkpt><trkpt lat="42.1058583" lon="11.78684"><ele>16.0</ele><time>2026-04-19T12:35:44.366Z</time></trkpt><trkpt lat="42.105795" lon="11.7867667"><ele>16.0</ele><time>2026-04-19T12:35:45.373Z</time></trkpt><trkpt lat="42.10574" lon="11.7866867"><ele>15.999999999999998</ele><time>2026-04-19T12:35:46.372Z</time></trkpt><trkpt lat="42.1056783" lon="11.78661"><ele>16.0</ele><time>2026-04-19T12:35:47.363Z</time></trkpt><trkpt lat="42.1056083" lon="11.7865417"><ele>14.8</ele><time>2026-04-19T12:35:48.368Z</time></trkpt><trkpt lat="42.1055317" lon="11.786485"><ele>13.600000000000001</ele><time>2026-04-19T12:35:49.363Z</time></trkpt><trkpt lat="42.10545" lon="11.7864383"><ele>12.4</ele><time>2026-04-19T12:35:50.373Z</time></trkpt><trkpt lat="42.1053533" lon="11.78641"><ele>11.2</ele><time>2026-04-19T12:35:51.37Z</time></trkpt><trkpt lat="42.105245" lon="11.7864"><ele>10.0</ele><time>2026-04-19T12:35:52.364Z</time></trkpt><trkpt lat="42.10513" lon="11.7863917"><ele>10.0</ele><time>2026-04-19T12:35:53.367Z</time></trkpt><trkpt lat="42.1050233" lon="11.786385"><ele>10.0</ele><time>2026-04-19T12:35:54.37Z</time></trkpt><trkpt lat="42.104925" lon="11.7863783"><ele>10.0</ele><time>2026-04-19T12:35:55.367Z</time></trkpt><trkpt lat="42.1048433" lon="11.7863783"><ele>10.0</ele><time>2026-04-19T12:35:56.364Z</time></trkpt><trkpt lat="42.1047433" lon="11.78636"><ele>10.0</ele><time>2026-04-19T12:35:58.368Z</time></trkpt><trkpt lat="42.1047167" lon="11.786245"><ele>9.6</ele><time>2026-04-19T12:36:01.367Z</time></trkpt><trkpt lat="42.1047817" lon="11.786115"><ele>9.2</ele><time>2026-04-19T12:36:03.352Z</time></trkpt><trkpt lat="42.104845" lon="11.7860333"><ele>8.8</ele><time>2026-04-19T12:36:04.366Z</time></trkpt><trkpt lat="42.1049233" lon="11.785945"><ele>8.4</ele><time>2026-04-19T12:36:05.368Z</time></trkpt><trkpt lat="42.1050083" lon="11.785845"><ele>8.0</ele><time>2026-04-19T12:36:06.369Z</time></trkpt><trkpt lat="42.1050983" lon="11.78573"><ele>8.0</ele><time>2026-04-19T12:36:07.372Z</time></trkpt><trkpt lat="42.10519" lon="11.7856033"><ele>8.0</ele><time>2026-04-19T12:36:08.368Z</time></trkpt><trkpt lat="42.1052817" lon="11.7854733"><ele>8.0</ele><time>2026-04-19T12:36:09.358Z</time></trkpt><trkpt lat="42.1053717" lon="11.7853383"><ele>8.0</ele><time>2026-04-19T12:36:10.362Z</time></trkpt><trkpt lat="42.10546" lon="11.7852067"><ele>7.75</ele><time>2026-04-19T12:36:11.361Z</time></trkpt><trkpt lat="42.1055467" lon="11.7850767"><ele>7.5</ele><time>2026-04-19T12:36:12.369Z</time></trkpt><trkpt lat="42.1056317" lon="11.7849533"><ele>7.25</ele><time>2026-04-19T12:36:13.368Z</time></trkpt><trkpt lat="42.1057133" lon="11.7848317"><ele>7.0</ele><time>2026-04-19T12:36:14.371Z</time></trkpt><trkpt lat="42.1057917" lon="11.7847183"><ele>7.0</ele><time>2026-04-19T12:36:15.369Z</time></trkpt><trkpt lat="42.105865" lon="11.7846133"><ele>6.999999999999999</ele><time>2026-04-19T12:36:16.372Z</time></trkpt><trkpt lat="42.105935" lon="11.7845133"><ele>6.999999999999999</ele><time>2026-04-19T12:36:17.366Z</time></trkpt><trkpt lat="42.106" lon="11.78442"><ele>7.0</ele><time>2026-04-19T12:36:18.373Z</time></trkpt><trkpt lat="42.10606" lon="11.784335"><ele>7.0</ele><time>2026-04-19T12:36:19.366Z</time></trkpt><trkpt lat="42.10612" lon="11.7842433"><ele>6.6</ele><time>2026-04-19T12:36:20.391Z</time></trkpt><trkpt lat="42.1061783" lon="11.7841467"><ele>6.199999999999999</ele><time>2026-04-19T12:36:21.377Z</time></trkpt><trkpt lat="42.106235" lon="11.7840433"><ele>5.8</ele><time>2026-04-19T12:36:22.346Z</time></trkpt><trkpt lat="42.1062933" lon="11.7839417"><ele>5.4</ele><time>2026-04-19T12:36:23.345Z</time></trkpt><trkpt lat="42.1063533" lon="11.7838417"><ele>5.0</ele><time>2026-04-19T12:36:24.338Z</time></trkpt><trkpt lat="42.1064167" lon="11.7837417"><ele>5.0</ele><time>2026-04-19T12:36:25.333Z</time></trkpt><trkpt lat="42.1064783" lon="11.7836417"><ele>5.0</ele><time>2026-04-19T12:36:26.338Z</time></trkpt><trkpt lat="42.1065417" lon="11.7835433"><ele>5.0</ele><time>2026-04-19T12:36:27.335Z</time></trkpt><trkpt lat="42.1066067" lon="11.78345"><ele>5.0</ele><time>2026-04-19T12:36:28.335Z</time></trkpt><trkpt lat="42.1066683" lon="11.7833617"><ele>5.0</ele><time>2026-04-19T12:36:29.338Z</time></trkpt><trkpt lat="42.106725" lon="11.7832733"><ele>5.2</ele><time>2026-04-19T12:36:30.346Z</time></trkpt><trkpt lat="42.1067833" lon="11.7831833"><ele>5.4</ele><time>2026-04-19T12:36:31.355Z</time></trkpt><trkpt lat="42.10684" lon="11.7830883"><ele>5.6</ele><time>2026-04-19T12:36:32.334Z</time></trkpt><trkpt lat="42.1069" lon="11.782995"><ele>5.8</ele><time>2026-04-19T12:36:33.362Z</time></trkpt><trkpt lat="42.1069617" lon="11.782905"><ele>6.0</ele><time>2026-04-19T12:36:34.34Z</time></trkpt><trkpt lat="42.1070267" lon="11.78281"><ele>6.0</ele><time>2026-04-19T12:36:35.361Z</time></trkpt><trkpt lat="42.10709" lon="11.7827167"><ele>6.0</ele><time>2026-04-19T12:36:36.346Z</time></trkpt><trkpt lat="42.1071517" lon="11.7826283"><ele>6.0</ele><time>2026-04-19T12:36:37.331Z</time></trkpt><trkpt lat="42.1072117" lon="11.7825467"><ele>6.0</ele><time>2026-04-19T12:36:38.367Z</time></trkpt><trkpt lat="42.1072667" lon="11.7824717"><ele>6.0</ele><time>2026-04-19T12:36:39.359Z</time></trkpt><trkpt lat="42.1073183" lon="11.7824"><ele>6.0</ele><time>2026-04-19T12:36:40.367Z</time></trkpt><trkpt lat="42.107365" lon="11.7823267"><ele>5.857142857142857</ele><time>2026-04-19T12:36:41.359Z</time></trkpt><trkpt lat="42.1074083" lon="11.7822583"><ele>5.714285714285714</ele><time>2026-04-19T12:36:42.371Z</time></trkpt><trkpt lat="42.1074483" lon="11.7821917"><ele>5.571428571428571</ele><time>2026-04-19T12:36:43.365Z</time></trkpt><trkpt lat="42.1074933" lon="11.782125"><ele>5.428571428571429</ele><time>2026-04-19T12:36:44.37Z</time></trkpt><trkpt lat="42.1075383" lon="11.7820583"><ele>5.285714285714286</ele><time>2026-04-19T12:36:45.37Z</time></trkpt><trkpt lat="42.1075833" lon="11.7819967"><ele>5.142857142857142</ele><time>2026-04-19T12:36:46.363Z</time></trkpt><trkpt lat="42.1076267" lon="11.7819333"><ele>5.0</ele><time>2026-04-19T12:36:47.357Z</time></trkpt><trkpt lat="42.107705" lon="11.7818433"><ele>4.0</ele><time>2026-04-19T12:36:49.365Z</time></trkpt><trkpt lat="42.1077667" lon="11.7818683"><ele>3.0</ele><time>2026-04-19T12:37:00.36Z</time></trkpt><trkpt lat="42.1077917" lon="11.7819483"><ele>3.0</ele><time>2026-04-19T12:37:03.365Z</time></trkpt><trkpt lat="42.10783" lon="11.7820383"><ele>3.0</ele><time>2026-04-19T12:37:07.347Z</time></trkpt></trkseg><trkseg><trkpt lat="42.1069483" lon="11.7829917"><ele>6.0</ele><time>2026-04-19T13:00:41.397Z</time></trkpt><trkpt lat="42.106855" lon="11.7831367"><ele>6.0</ele><time>2026-04-19T13:00:42.397Z</time></trkpt><trkpt lat="42.1067583" lon="11.783285"><ele>6.0</ele><time>2026-04-19T13:00:43.353Z</time></trkpt><trkpt lat="42.1062617" lon="11.7840083"><ele>5.5</ele><time>2026-04-19T13:00:47.388Z</time></trkpt><trkpt lat="42.1061117" lon="11.7842317"><ele>5.0</ele><time>2026-04-19T13:00:48.355Z</time></trkpt><trkpt lat="42.1059583" lon="11.7844683"><ele>6.0</ele><time>2026-04-19T13:00:49.349Z</time></trkpt><trkpt lat="42.105795" lon="11.784715"><ele>7.0</ele><time>2026-04-19T13:00:50.36Z</time></trkpt><trkpt lat="42.1056267" lon="11.78496"><ele>7.5</ele><time>2026-04-19T13:00:51.357Z</time></trkpt><trkpt lat="42.105465" lon="11.7851967"><ele>8.0</ele><time>2026-04-19T13:00:52.39Z</time></trkpt><trkpt lat="42.105315" lon="11.7854183"><ele>8.0</ele><time>2026-04-19T13:00:53.369Z</time></trkpt><trkpt lat="42.1051733" lon="11.7856183"><ele>8.0</ele><time>2026-04-19T13:00:54.376Z</time></trkpt><trkpt lat="42.1050433" lon="11.7857983"><ele>8.0</ele><time>2026-04-19T13:00:55.388Z</time></trkpt><trkpt lat="42.1049233" lon="11.7859617"><ele>8.0</ele><time>2026-04-19T13:00:56.422Z</time></trkpt><trkpt lat="42.1048083" lon="11.78611"><ele>8.0</ele><time>2026-04-19T13:00:57.39Z</time></trkpt><trkpt lat="42.1046983" lon="11.7862517"><ele>8.0</ele><time>2026-04-19T13:00:58.341Z</time></trkpt><trkpt lat="42.104595" lon="11.7863833"><ele>8.0</ele><time>2026-04-19T13:00:59.343Z</time></trkpt><trkpt lat="42.1045" lon="11.786505"><ele>8.0</ele><time>2026-04-19T13:01:00.42Z</time></trkpt><trkpt lat="42.1044117" lon="11.7866183"><ele>8.0</ele><time>2026-04-19T13:01:01.355Z</time></trkpt><trkpt lat="42.1043317" lon="11.7867233"><ele>8.0</ele><time>2026-04-19T13:01:02.356Z</time></trkpt><trkpt lat="42.1042583" lon="11.7868"><ele>8.200000000000001</ele><time>2026-04-19T13:01:03.394Z</time></trkpt><trkpt lat="42.104195" lon="11.7868483"><ele>8.4</ele><time>2026-04-19T13:01:04.351Z</time></trkpt><trkpt lat="42.1040983" lon="11.786865"><ele>8.600000000000001</ele><time>2026-04-19T13:01:06.36Z</time></trkpt><trkpt lat="42.1040083" lon="11.7868517"><ele>8.8</ele><time>2026-04-19T13:01:08.401Z</time></trkpt><trkpt lat="42.1039417" lon="11.7867633"><ele>9.0</ele><time>2026-04-19T13:01:10.333Z</time></trkpt><trkpt lat="42.104005" lon="11.78658"><ele>8.8</ele><time>2026-04-19T13:01:12.341Z</time></trkpt><trkpt lat="42.1040583" lon="11.78643"><ele>8.600000000000001</ele><time>2026-04-19T13:01:13.355Z</time></trkpt><trkpt lat="42.10412" lon="11.786275"><ele>8.4</ele><time>2026-04-19T13:01:14.352Z</time></trkpt><trkpt lat="42.1041567" lon="11.7861483"><ele>8.200000000000001</ele><time>2026-04-19T13:01:15.329Z</time></trkpt><trkpt lat="42.1041833" lon="11.7860533"><ele>8.0</ele><time>2026-04-19T13:01:16.386Z</time></trkpt><trkpt lat="42.10418" lon="11.7859617"><ele>7.800000000000001</ele><time>2026-04-19T13:01:18.334Z</time></trkpt><trkpt lat="42.1041117" lon="11.7859783"><ele>7.6000000000000005</ele><time>2026-04-19T13:01:20.395Z</time></trkpt><trkpt lat="42.1040183" lon="11.78605"><ele>7.3999999999999995</ele><time>2026-04-19T13:01:21.362Z</time></trkpt><trkpt lat="42.1039133" lon="11.7861533"><ele>7.199999999999999</ele><time>2026-04-19T13:01:22.381Z</time></trkpt><trkpt lat="42.1038183" lon="11.7862517"><ele>7.0</ele><time>2026-04-19T13:01:23.351Z</time></trkpt><trkpt lat="42.1037233" lon="11.7863433"><ele>7.0</ele><time>2026-04-19T13:01:24.347Z</time></trkpt><trkpt lat="42.10362" lon="11.7864133"><ele>7.0</ele><time>2026-04-19T13:01:25.359Z</time></trkpt><trkpt lat="42.1035117" lon="11.7864733"><ele>7.0</ele><time>2026-04-19T13:01:26.378Z</time></trkpt><trkpt lat="42.1034" lon="11.7865167"><ele>7.0</ele><time>2026-04-19T13:01:27.359Z</time></trkpt><trkpt lat="42.103275" lon="11.7865517"><ele>6.666666666666667</ele><time>2026-04-19T13:01:28.368Z</time></trkpt><trkpt lat="42.1031283" lon="11.7865683"><ele>6.333333333333334</ele><time>2026-04-19T13:01:29.347Z</time></trkpt><trkpt lat="42.10295" lon="11.7865617"><ele>6.0</ele><time>2026-04-19T13:01:30.364Z</time></trkpt><trkpt lat="42.1027533" lon="11.7865417"><ele>6.0</ele><time>2026-04-19T13:01:31.356Z</time></trkpt><trkpt lat="42.102545" lon="11.7865183"><ele>6.0</ele><time>2026-04-19T13:01:32.351Z</time></trkpt><trkpt lat="42.1023367" lon="11.7865033"><ele>6.0</ele><time>2026-04-19T13:01:33.359Z</time></trkpt><trkpt lat="42.1021383" lon="11.7864967"><ele>7.0</ele><time>2026-04-19T13:01:34.358Z</time></trkpt><trkpt lat="42.1019533" lon="11.78649"><ele>8.0</ele><time>2026-04-19T13:01:35.394Z</time></trkpt><trkpt lat="42.1017817" lon="11.786485"><ele>9.0</ele><time>2026-04-19T13:01:36.411Z</time></trkpt><trkpt lat="42.1016167" lon="11.786485"><ele>8.333333333333334</ele><time>2026-04-19T13:01:37.43Z</time></trkpt><trkpt lat="42.10145" lon="11.78649"><ele>7.666666666666667</ele><time>2026-04-19T13:01:38.398Z</time></trkpt><trkpt lat="42.1012933" lon="11.7865033"><ele>7.0</ele><time>2026-04-19T13:01:39.424Z</time></trkpt><trkpt lat="42.1011417" lon="11.786525"><ele>7.0</ele><time>2026-04-19T13:01:40.428Z</time></trkpt><trkpt lat="42.101" lon="11.786555"><ele>7.0</ele><time>2026-04-19T13:01:41.351Z</time></trkpt><trkpt lat="42.10087" lon="11.7865917"><ele>7.0</ele><time>2026-04-19T13:01:42.366Z</time></trkpt><trkpt lat="42.1007417" lon="11.7866333"><ele>7.0</ele><time>2026-04-19T13:01:43.409Z</time></trkpt><trkpt lat="42.100615" lon="11.78668"><ele>9.0</ele><time>2026-04-19T13:01:44.532Z</time></trkpt><trkpt lat="42.1003117" lon="11.78691"><ele>11.0</ele><time>2026-04-19T13:01:47.416Z</time></trkpt><trkpt lat="42.1002183" lon="11.7870017"><ele>11.0</ele><time>2026-04-19T13:01:48.415Z</time></trkpt><trkpt lat="42.1001317" lon="11.787085"><ele>11.0</ele><time>2026-04-19T13:01:49.401Z</time></trkpt><trkpt lat="42.10005" lon="11.78716"><ele>11.0</ele><time>2026-04-19T13:01:50.393Z</time></trkpt><trkpt lat="42.0998833" lon="11.78734"><ele>11.0</ele><time>2026-04-19T13:01:52.613Z</time></trkpt><trkpt lat="42.0997183" lon="11.7875183"><ele>10.8</ele><time>2026-04-19T13:01:54.385Z</time></trkpt><trkpt lat="42.0996383" lon="11.787595"><ele>10.600000000000001</ele><time>2026-04-19T13:01:55.434Z</time></trkpt><trkpt lat="42.0995617" lon="11.78767"><ele>10.4</ele><time>2026-04-19T13:01:56.413Z</time></trkpt><trkpt lat="42.099485" lon="11.7877567"><ele>10.2</ele><time>2026-04-19T13:01:57.362Z</time></trkpt><trkpt lat="42.0994117" lon="11.7878517"><ele>10.0</ele><time>2026-04-19T13:01:58.493Z</time></trkpt><trkpt lat="42.09926" lon="11.788025"><ele>10.0</ele><time>2026-04-19T13:02:00.41Z</time></trkpt><trkpt lat="42.099185" lon="11.7881183"><ele>10.0</ele><time>2026-04-19T13:02:01.506Z</time></trkpt><trkpt lat="42.099035" lon="11.7882783"><ele>10.0</ele><time>2026-04-19T13:02:03.415Z</time></trkpt><trkpt lat="42.0989567" lon="11.7883567"><ele>10.0</ele><time>2026-04-19T13:02:04.465Z</time></trkpt><trkpt lat="42.09888" lon="11.7884383"><ele>9.0</ele><time>2026-04-19T13:02:05.427Z</time></trkpt><trkpt lat="42.0987083" lon="11.7885767"><ele>8.0</ele><time>2026-04-19T13:02:07.359Z</time></trkpt><trkpt lat="42.098605" lon="11.7886433"><ele>7.0</ele><time>2026-04-19T13:02:08.664Z</time></trkpt><trkpt lat="42.0983467" lon="11.78878"><ele>7.0</ele><time>2026-04-19T13:02:10.395Z</time></trkpt><trkpt lat="42.0981983" lon="11.7888533"><ele>7.0</ele><time>2026-04-19T13:02:11.412Z</time></trkpt><trkpt lat="42.098035" lon="11.7889283"><ele>7.0</ele><time>2026-04-19T13:02:12.392Z</time></trkpt><trkpt lat="42.09787" lon="11.788995"><ele>7.0</ele><time>2026-04-19T13:02:13.408Z</time></trkpt><trkpt lat="42.0977183" lon="11.7890567"><ele>7.0</ele><time>2026-04-19T13:02:14.403Z</time></trkpt><trkpt lat="42.09758" lon="11.7891133"><ele>7.0</ele><time>2026-04-19T13:02:15.369Z</time></trkpt><trkpt lat="42.0974467" lon="11.7891667"><ele>7.0</ele><time>2026-04-19T13:02:16.392Z</time></trkpt><trkpt lat="42.097325" lon="11.7892217"><ele>7.0</ele><time>2026-04-19T13:02:17.407Z</time></trkpt><trkpt lat="42.0972167" lon="11.7892683"><ele>6.999999999999999</ele><time>2026-04-19T13:02:18.375Z</time></trkpt><trkpt lat="42.0971367" lon="11.7892967"><ele>6.999999999999999</ele><time>2026-04-19T13:02:19.398Z</time></trkpt><trkpt lat="42.097075" lon="11.7893217"><ele>7.0</ele><time>2026-04-19T13:02:20.571Z</time></trkpt><trkpt lat="42.0969583" lon="11.7893717"><ele>7.0</ele><time>2026-04-19T13:02:22.393Z</time></trkpt><trkpt lat="42.0968617" lon="11.789435"><ele>7.0</ele><time>2026-04-19T13:02:24.441Z</time></trkpt><trkpt lat="42.0967583" lon="11.7894733"><ele>6.999999999999999</ele><time>2026-04-19T13:02:26.4Z</time></trkpt><trkpt lat="42.096695" lon="11.7894933"><ele>6.999999999999999</ele><time>2026-04-19T13:02:27.401Z</time></trkpt><trkpt lat="42.0966133" lon="11.7895117"><ele>7.0</ele><time>2026-04-19T13:02:28.402Z</time></trkpt><trkpt lat="42.0965233" lon="11.7895333"><ele>7.0</ele><time>2026-04-19T13:02:29.38Z</time></trkpt><trkpt lat="42.0964017" lon="11.78956"><ele>7.6</ele><time>2026-04-19T13:02:30.385Z</time></trkpt><trkpt lat="42.0962817" lon="11.789585"><ele>8.2</ele><time>2026-04-19T13:02:31.389Z</time></trkpt><trkpt lat="42.096175" lon="11.7896067"><ele>8.8</ele><time>2026-04-19T13:02:32.352Z</time></trkpt><trkpt lat="42.0960883" lon="11.789625"><ele>9.4</ele><time>2026-04-19T13:02:33.423Z</time></trkpt><trkpt lat="42.0960067" lon="11.7896467"><ele>10.0</ele><time>2026-04-19T13:02:34.389Z</time></trkpt><trkpt lat="42.095935" lon="11.7896683"><ele>10.0</ele><time>2026-04-19T13:02:35.337Z</time></trkpt><trkpt lat="42.09582" lon="11.7896967"><ele>10.0</ele><time>2026-04-19T13:02:37.369Z</time></trkpt><trkpt lat="42.0957" lon="11.7897217"><ele>10.0</ele><time>2026-04-19T13:02:39.406Z</time></trkpt><trkpt lat="42.0956183" lon="11.7897417"><ele>10.0</ele><time>2026-04-19T13:02:40.38Z</time></trkpt><trkpt lat="42.0954567" lon="11.78978"><ele>10.0</ele><time>2026-04-19T13:02:42.375Z</time></trkpt><trkpt lat="42.095385" lon="11.7897983"><ele>10.0</ele><time>2026-04-19T13:02:43.464Z</time></trkpt><trkpt lat="42.09531" lon="11.78981"><ele>10.0</ele><time>2026-04-19T13:02:44.471Z</time></trkpt><trkpt lat="42.0952267" lon="11.7898233"><ele>10.0</ele><time>2026-04-19T13:02:45.484Z</time></trkpt><trkpt lat="42.0951183" lon="11.7898333"><ele>10.0</ele><time>2026-04-19T13:02:46.392Z</time></trkpt><trkpt lat="42.09501" lon="11.78986"><ele>9.6</ele><time>2026-04-19T13:02:47.418Z</time></trkpt><trkpt lat="42.0949167" lon="11.78989"><ele>9.2</ele><time>2026-04-19T13:02:48.372Z</time></trkpt><trkpt lat="42.09483" lon="11.7899483"><ele>8.8</ele><time>2026-04-19T13:02:49.358Z</time></trkpt><trkpt lat="42.0947467" lon="11.7899983"><ele>8.4</ele><time>2026-04-19T13:02:50.359Z</time></trkpt><trkpt lat="42.094655" lon="11.7900667"><ele>8.0</ele><time>2026-04-19T13:02:51.39Z</time></trkpt><trkpt lat="42.0945483" lon="11.7901517"><ele>9.4</ele><time>2026-04-19T13:02:52.37Z</time></trkpt><trkpt lat="42.0944467" lon="11.7902383"><ele>10.8</ele><time>2026-04-19T13:02:53.341Z</time></trkpt><trkpt lat="42.0943617" lon="11.7903067"><ele>12.2</ele><time>2026-04-19T13:02:54.34Z</time></trkpt><trkpt lat="42.0942817" lon="11.7903683"><ele>13.6</ele><time>2026-04-19T13:02:55.338Z</time></trkpt><trkpt lat="42.0942083" lon="11.7904217"><ele>15.0</ele><time>2026-04-19T13:02:56.335Z</time></trkpt><trkpt lat="42.0941367" lon="11.7904733"><ele>15.8</ele><time>2026-04-19T13:02:57.337Z</time></trkpt><trkpt lat="42.0940633" lon="11.7905217"><ele>16.6</ele><time>2026-04-19T13:02:58.336Z</time></trkpt><trkpt lat="42.09398" lon="11.7905783"><ele>17.4</ele><time>2026-04-19T13:02:59.34Z</time></trkpt><trkpt lat="42.0938783" lon="11.7906367"><ele>18.2</ele><time>2026-04-19T13:03:00.338Z</time></trkpt><trkpt lat="42.093755" lon="11.7907033"><ele>19.0</ele><time>2026-04-19T13:03:01.336Z</time></trkpt><trkpt lat="42.0936233" lon="11.79077"><ele>19.0</ele><time>2026-04-19T13:03:02.341Z</time></trkpt><trkpt lat="42.0934967" lon="11.7908417"><ele>19.0</ele><time>2026-04-19T13:03:03.335Z</time></trkpt><trkpt lat="42.093365" lon="11.7908967"><ele>19.0</ele><time>2026-04-19T13:03:04.34Z</time></trkpt><trkpt lat="42.093245" lon="11.7909567"><ele>19.0</ele><time>2026-04-19T13:03:05.339Z</time></trkpt><trkpt lat="42.0931317" lon="11.79104"><ele>18.5</ele><time>2026-04-19T13:03:06.341Z</time></trkpt><trkpt lat="42.0930183" lon="11.7911383"><ele>18.0</ele><time>2026-04-19T13:03:07.341Z</time></trkpt><trkpt lat="42.092925" lon="11.791255"><ele>17.5</ele><time>2026-04-19T13:03:08.346Z</time></trkpt><trkpt lat="42.09283" lon="11.791345"><ele>17.0</ele><time>2026-04-19T13:03:09.336Z</time></trkpt><trkpt lat="42.092735" lon="11.7914333"><ele>17.0</ele><time>2026-04-19T13:03:10.337Z</time></trkpt><trkpt lat="42.0926417" lon="11.791515"><ele>17.0</ele><time>2026-04-19T13:03:11.34Z</time></trkpt><trkpt lat="42.09254" lon="11.7916"><ele>17.0</ele><time>2026-04-19T13:03:12.336Z</time></trkpt><trkpt lat="42.09243" lon="11.7917033"><ele>17.0</ele><time>2026-04-19T13:03:13.351Z</time></trkpt><trkpt lat="42.0923067" lon="11.7918267"><ele>16.333333333333336</ele><time>2026-04-19T13:03:14.335Z</time></trkpt><trkpt lat="42.0921733" lon="11.7919533"><ele>15.666666666666668</ele><time>2026-04-19T13:03:15.339Z</time></trkpt><trkpt lat="42.09204" lon="11.7920717"><ele>15.0</ele><time>2026-04-19T13:03:16.338Z</time></trkpt><trkpt lat="42.091915" lon="11.7921783"><ele>15.0</ele><time>2026-04-19T13:03:17.339Z</time></trkpt><trkpt lat="42.091795" lon="11.7922817"><ele>15.0</ele><time>2026-04-19T13:03:18.339Z</time></trkpt><trkpt lat="42.0916833" lon="11.7923767"><ele>15.0</ele><time>2026-04-19T13:03:19.343Z</time></trkpt><trkpt lat="42.0915817" lon="11.7924667"><ele>15.0</ele><time>2026-04-19T13:03:20.338Z</time></trkpt><trkpt lat="42.09149" lon="11.7925483"><ele>15.0</ele><time>2026-04-19T13:03:21.345Z</time></trkpt><trkpt lat="42.0913917" lon="11.792625"><ele>15.0</ele><time>2026-04-19T13:03:22.333Z</time></trkpt><trkpt lat="42.0912883" lon="11.7927067"><ele>15.0</ele><time>2026-04-19T13:03:23.342Z</time></trkpt><trkpt lat="42.091195" lon="11.7927783"><ele>15.0</ele><time>2026-04-19T13:03:24.341Z</time></trkpt><trkpt lat="42.0911117" lon="11.792825"><ele>15.0</ele><time>2026-04-19T13:03:25.342Z</time></trkpt><trkpt lat="42.091035" lon="11.7928417"><ele>15.0</ele><time>2026-04-19T13:03:26.347Z</time></trkpt><trkpt lat="42.09096" lon="11.792835"><ele>15.0</ele><time>2026-04-19T13:03:27.342Z</time></trkpt><trkpt lat="42.09089" lon="11.7927817"><ele>15.0</ele><time>2026-04-19T13:03:28.338Z</time></trkpt><trkpt lat="42.09084" lon="11.792715"><ele>15.0</ele><time>2026-04-19T13:03:29.344Z</time></trkpt><trkpt lat="42.0907933" lon="11.7926467"><ele>15.0</ele><time>2026-04-19T13:03:30.345Z</time></trkpt><trkpt lat="42.0907317" lon="11.79254"><ele>15.0</ele><time>2026-04-19T13:03:32.336Z</time></trkpt><trkpt lat="42.090665" lon="11.7924167"><ele>13.5</ele><time>2026-04-19T13:03:34.343Z</time></trkpt><trkpt lat="42.09062" lon="11.7923567"><ele>12.0</ele><time>2026-04-19T13:03:35.339Z</time></trkpt><trkpt lat="42.0905283" lon="11.7922817"><ele>10.5</ele><time>2026-04-19T13:03:37.333Z</time></trkpt><trkpt lat="42.0904283" lon="11.7923083"><ele>9.0</ele><time>2026-04-19T13:03:39.337Z</time></trkpt><trkpt lat="42.0903817" lon="11.7923717"><ele>7.5</ele><time>2026-04-19T13:03:40.337Z</time></trkpt><trkpt lat="42.0903367" lon="11.7924567"><ele>6.0</ele><time>2026-04-19T13:03:41.343Z</time></trkpt><trkpt lat="42.0902967" lon="11.7925467"><ele>5.999999999999999</ele><time>2026-04-19T13:03:42.336Z</time></trkpt><trkpt lat="42.09026" lon="11.79263"><ele>6.0</ele><time>2026-04-19T13:03:43.345Z</time></trkpt><trkpt lat="42.09023" lon="11.792715"><ele>6.0</ele><time>2026-04-19T13:03:44.35Z</time></trkpt><trkpt lat="42.090195" lon="11.7928"><ele>6.0</ele><time>2026-04-19T13:03:45.346Z</time></trkpt><trkpt lat="42.0901567" lon="11.792885"><ele>6.0</ele><time>2026-04-19T13:03:46.349Z</time></trkpt><trkpt lat="42.0901133" lon="11.7929717"><ele>5.999999999999999</ele><time>2026-04-19T13:03:47.339Z</time></trkpt><trkpt lat="42.09007" lon="11.79306"><ele>6.0</ele><time>2026-04-19T13:03:48.334Z</time></trkpt><trkpt lat="42.090025" lon="11.7931533"><ele>6.333333333333333</ele><time>2026-04-19T13:03:49.345Z</time></trkpt><trkpt lat="42.0899783" lon="11.79325"><ele>6.666666666666666</ele><time>2026-04-19T13:03:50.335Z</time></trkpt><trkpt lat="42.0899317" lon="11.793345"><ele>7.0</ele><time>2026-04-19T13:03:51.347Z</time></trkpt><trkpt lat="42.089885" lon="11.7934433"><ele>7.333333333333333</ele><time>2026-04-19T13:03:52.338Z</time></trkpt><trkpt lat="42.089845" lon="11.7935417"><ele>7.666666666666666</ele><time>2026-04-19T13:03:53.346Z</time></trkpt><trkpt lat="42.0898067" lon="11.7936283"><ele>8.0</ele><time>2026-04-19T13:03:54.341Z</time></trkpt><trkpt lat="42.0897733" lon="11.7937033"><ele>7.285714285714286</ele><time>2026-04-19T13:03:55.337Z</time></trkpt><trkpt lat="42.08974" lon="11.79378"><ele>6.57142857142857</ele><time>2026-04-19T13:03:56.334Z</time></trkpt><trkpt lat="42.089705" lon="11.7938567"><ele>5.857142857142857</ele><time>2026-04-19T13:03:57.34Z</time></trkpt><trkpt lat="42.0896767" lon="11.7939333"><ele>5.142857142857142</ele><time>2026-04-19T13:03:58.334Z</time></trkpt><trkpt lat="42.0896533" lon="11.7940167"><ele>4.428571428571429</ele><time>2026-04-19T13:03:59.333Z</time></trkpt><trkpt lat="42.0896217" lon="11.79411"><ele>3.714285714285714</ele><time>2026-04-19T13:04:00.346Z</time></trkpt><trkpt lat="42.0895733" lon="11.7942133"><ele>3.0</ele><time>2026-04-19T13:04:01.334Z</time></trkpt><trkpt lat="42.0895117" lon="11.79432"><ele>3.8</ele><time>2026-04-19T13:04:02.336Z</time></trkpt><trkpt lat="42.0894467" lon="11.7944283"><ele>4.6</ele><time>2026-04-19T13:04:03.341Z</time></trkpt><trkpt lat="42.0893833" lon="11.7945467"><ele>5.3999999999999995</ele><time>2026-04-19T13:04:04.346Z</time></trkpt><trkpt lat="42.0893217" lon="11.794675"><ele>6.199999999999999</ele><time>2026-04-19T13:04:05.338Z</time></trkpt><trkpt lat="42.08926" lon="11.7948017"><ele>7.0</ele><time>2026-04-19T13:04:06.335Z</time></trkpt><trkpt lat="42.0892033" lon="11.7949233"><ele>7.0</ele><time>2026-04-19T13:04:07.336Z</time></trkpt><trkpt lat="42.0891483" lon="11.79504"><ele>6.999999999999999</ele><time>2026-04-19T13:04:08.336Z</time></trkpt><trkpt lat="42.089095" lon="11.7951517"><ele>6.999999999999999</ele><time>2026-04-19T13:04:09.338Z</time></trkpt><trkpt lat="42.0890417" lon="11.7952583"><ele>7.0</ele><time>2026-04-19T13:04:10.336Z</time></trkpt><trkpt lat="42.08899" lon="11.7953583"><ele>7.0</ele><time>2026-04-19T13:04:11.335Z</time></trkpt><trkpt lat="42.0889433" lon="11.7954567"><ele>6.6</ele><time>2026-04-19T13:04:12.345Z</time></trkpt><trkpt lat="42.088895" lon="11.795555"><ele>6.199999999999999</ele><time>2026-04-19T13:04:13.336Z</time></trkpt><trkpt lat="42.0888467" lon="11.7956617"><ele>5.8</ele><time>2026-04-19T13:04:14.344Z</time></trkpt><trkpt lat="42.0887967" lon="11.7957767"><ele>5.4</ele><time>2026-04-19T13:04:15.347Z</time></trkpt><trkpt lat="42.08874" lon="11.7959017"><ele>5.0</ele><time>2026-04-19T13:04:16.346Z</time></trkpt><trkpt lat="42.0886733" lon="11.7960367"><ele>5.0</ele><time>2026-04-19T13:04:17.337Z</time></trkpt><trkpt lat="42.0886083" lon="11.796175"><ele>5.0</ele><time>2026-04-19T13:04:18.342Z</time></trkpt><trkpt lat="42.0885467" lon="11.7963083"><ele>5.0</ele><time>2026-04-19T13:04:19.341Z</time></trkpt><trkpt lat="42.0884867" lon="11.7964333"><ele>5.0</ele><time>2026-04-19T13:04:20.34Z</time></trkpt><trkpt lat="42.0884333" lon="11.796545"><ele>5.0</ele><time>2026-04-19T13:04:21.344Z</time></trkpt><trkpt lat="42.0883867" lon="11.796645"><ele>5.0</ele><time>2026-04-19T13:04:22.337Z</time></trkpt><trkpt lat="42.08835" lon="11.7967233"><ele>5.0</ele><time>2026-04-19T13:04:23.334Z</time></trkpt><trkpt lat="42.0882683" lon="11.7968067"><ele>5.0</ele><time>2026-04-19T13:04:25.355Z</time></trkpt><trkpt lat="42.0881983" lon="11.7968133"><ele>5.0</ele><time>2026-04-19T13:04:27.344Z</time></trkpt><trkpt lat="42.08816" lon="11.7967367"><ele>5.0</ele><time>2026-04-19T13:04:30.335Z</time></trkpt><trkpt lat="42.088165" lon="11.79665"><ele>5.0</ele><time>2026-04-19T13:04:33.338Z</time></trkpt><trkpt lat="42.0882083" lon="11.7965667"><ele>5.0</ele><time>2026-04-19T13:04:36.346Z</time></trkpt><trkpt lat="42.0882567" lon="11.7964733"><ele>5.0</ele><time>2026-04-19T13:04:39.351Z</time></trkpt><trkpt lat="42.0882833" lon="11.79638"><ele>5.0</ele><time>2026-04-19T13:04:42.346Z</time></trkpt><trkpt lat="42.0883133" lon="11.796285"><ele>5.0</ele><time>2026-04-19T13:04:45.341Z</time></trkpt><trkpt lat="42.0883467" lon="11.7961867"><ele>5.0</ele><time>2026-04-19T13:04:48.333Z</time></trkpt><trkpt lat="42.0883783" lon="11.7960917"><ele>5.0</ele><time>2026-04-19T13:04:51.391Z</time></trkpt><trkpt lat="42.0884067" lon="11.795995"><ele>4.666666666666667</ele><time>2026-04-19T13:04:54.358Z</time></trkpt><trkpt lat="42.08844" lon="11.7958967"><ele>4.333333333333334</ele><time>2026-04-19T13:04:57.375Z</time></trkpt><trkpt lat="42.088465" lon="11.7957967"><ele>4.0</ele><time>2026-04-19T13:05:00.35Z</time></trkpt><trkpt lat="42.0884833" lon="11.795695"><ele>3.666666666666667</ele><time>2026-04-19T13:05:03.343Z</time></trkpt><trkpt lat="42.088505" lon="11.7955817"><ele>3.3333333333333335</ele><time>2026-04-19T13:05:06.341Z</time></trkpt><trkpt lat="42.0885233" lon="11.7954917"><ele>3.0</ele><time>2026-04-19T13:05:08.341Z</time></trkpt><trkpt lat="42.0885417" lon="11.79539"><ele>3.0</ele><time>2026-04-19T13:05:10.343Z</time></trkpt><trkpt lat="42.08856" lon="11.7952917"><ele>3.0</ele><time>2026-04-19T13:05:12.351Z</time></trkpt><trkpt lat="42.0885917" lon="11.7952"><ele>3.0</ele><time>2026-04-19T13:05:14.344Z</time></trkpt><trkpt lat="42.0886333" lon="11.795105"><ele>3.0</ele><time>2026-04-19T13:05:16.34Z</time></trkpt><trkpt lat="42.0886767" lon="11.795005"><ele>3.0</ele><time>2026-04-19T13:05:18.341Z</time></trkpt><trkpt lat="42.0887117" lon="11.7949233"><ele>3.0</ele><time>2026-04-19T13:05:20.338Z</time></trkpt><trkpt lat="42.08875" lon="11.7948433"><ele>2.6666666666666665</ele><time>2026-04-19T13:05:22.343Z</time></trkpt><trkpt lat="42.0887933" lon="11.7947517"><ele>2.3333333333333335</ele><time>2026-04-19T13:05:24.342Z</time></trkpt><trkpt lat="42.0888417" lon="11.794655"><ele>2.0</ele><time>2026-04-19T13:05:26.354Z</time></trkpt><trkpt lat="42.0888883" lon="11.794555"><ele>1.6666666666666665</ele><time>2026-04-19T13:05:28.357Z</time></trkpt><trkpt lat="42.0889317" lon="11.7944667"><ele>1.3333333333333333</ele><time>2026-04-19T13:05:30.364Z</time></trkpt><trkpt lat="42.08896" lon="11.7943867"><ele>1.0</ele><time>2026-04-19T13:05:32.346Z</time></trkpt><trkpt lat="42.0889933" lon="11.7943133"><ele>0.8333333333333333</ele><time>2026-04-19T13:05:34.333Z</time></trkpt><trkpt lat="42.089045" lon="11.7942083"><ele>0.6666666666666666</ele><time>2026-04-19T13:05:37.338Z</time></trkpt><trkpt lat="42.0890783" lon="11.794135"><ele>0.5</ele><time>2026-04-19T13:05:39.334Z</time></trkpt><trkpt lat="42.0891117" lon="11.7940567"><ele>0.3333333333333333</ele><time>2026-04-19T13:05:41.345Z</time></trkpt><trkpt lat="42.0891483" lon="11.7939717"><ele>0.16666666666666666</ele><time>2026-04-19T13:05:43.343Z</time></trkpt><trkpt lat="42.089195" lon="11.7938717"><ele>0.0</ele><time>2026-04-19T13:05:45.357Z</time></trkpt><trkpt lat="42.089245" lon="11.7937767"><ele>0.3333333333333333</ele><time>2026-04-19T13:05:47.345Z</time></trkpt><trkpt lat="42.089295" lon="11.7936833"><ele>0.6666666666666666</ele><time>2026-04-19T13:05:49.338Z</time></trkpt><trkpt lat="42.0893383" lon="11.7935933"><ele>1.0</ele><time>2026-04-19T13:05:51.374Z</time></trkpt><trkpt lat="42.08938" lon="11.7935"><ele>1.3333333333333333</ele><time>2026-04-19T13:05:53.401Z</time></trkpt><trkpt lat="42.08942" lon="11.7934167"><ele>1.6666666666666665</ele><time>2026-04-19T13:05:55.365Z</time></trkpt><trkpt lat="42.08947" lon="11.79332"><ele>2.0</ele><time>2026-04-19T13:05:57.365Z</time></trkpt><trkpt lat="42.08952" lon="11.7932117"><ele>1.9999999999999998</ele><time>2026-04-19T13:05:59.368Z</time></trkpt><trkpt lat="42.0895683" lon="11.793105"><ele>2.0</ele><time>2026-04-19T13:06:01.369Z</time></trkpt><trkpt lat="42.0896067" lon="11.79301"><ele>2.0</ele><time>2026-04-19T13:06:03.334Z</time></trkpt><trkpt lat="42.08963" lon="11.7929233"><ele>2.0</ele><time>2026-04-19T13:06:05.369Z</time></trkpt><trkpt lat="42.08965" lon="11.7928283"><ele>1.9999999999999998</ele><time>2026-04-19T13:06:07.37Z</time></trkpt><trkpt lat="42.0896817" lon="11.79274"><ele>2.0</ele><time>2026-04-19T13:06:09.339Z</time></trkpt><trkpt lat="42.0897167" lon="11.7926567"><ele>2.0</ele><time>2026-04-19T13:06:11.344Z</time></trkpt><trkpt lat="42.0897367" lon="11.7925683"><ele>2.0</ele><time>2026-04-19T13:06:13.336Z</time></trkpt><trkpt lat="42.089755" lon="11.7924867"><ele>2.0</ele><time>2026-04-19T13:06:15.334Z</time></trkpt></trkseg></trk></gpx>